# Wetter Temperatur Luftdruck Luftfeuchtigkeit Sichtweite Windgeschwindigkeit Windrichtung Zeit
1 Clouds 32 1014 56 10000 3.1 150 19:59 17.10.2019
2 Clouds 32 1014 56 10000 3.1 150 19:39 17.10.2019
3 Clouds 32 1014 56 10000 3.1 150 19:19 17.10.2019
4 Clouds 32 1014 56 10000 3.1 150 19:19 17.10.2019
5 Clouds 31 1013 62 10000 2.6 120 18:58 17.10.2019
6 Clouds 31 1013 62 10000 2.6 120 18:38 17.10.2019
7 Clouds 31 1013 62 10000 2.6 120 18:19 17.10.2019
8 Clouds 31 1015 62 10000 3.1 150 17:42 17.10.2019
9 Clouds 31 1015 62 10000 3.1 150 17:23 17.10.2019
10 Clouds 30 1015 62 10000 2.061 127 16:57 17.10.2019
11 -273 0 0 0 0 0 16:38 17.10.2019
12 Clouds 30 1015 62 10000 2.061 127 16:18 17.10.2019
13 Clouds 28 1015 74 10000 2.061 127 15:55 17.10.2019
14 Clouds 28 1015 74 10000 2.061 127 15:37 17.10.2019
15 Clouds 28 1015 74 10000 1.168 350 15:19 17.10.2019
16 Clouds 26 1014 94 10000 1.254 346 14:42 17.10.2019
17 Clouds 25 1014 94 10000 1.254 346 14:23 17.10.2019
18 Clouds 25 1014 100 10000 2.1 30 13:56 17.10.2019
19 Clouds 25 1014 100 10000 2.1 30 13:38 17.10.2019
20 Clouds 25 1014 100 10000 2.1 30 13:18 17.10.2019
21 Clouds 25 1013 100 10000 2.6 40 12:41 17.10.2019
22 Clouds 25 1013 100 10000 2.6 40 12:21 17.10.2019
23 Clouds 25 1013 100 10000 2.1 50 11:59 17.10.2019
24 Clouds 25 1013 100 10000 2.1 50 11:40 17.10.2019
25 Clouds 25 1013 100 10000 2.1 50 11:19 17.10.2019
26 Clouds 24 1013 100 10000 2.1 40 10:55 17.10.2019
27 Clouds 24 1013 100 10000 2.1 40 10:36 17.10.2019
28 Clouds 25 1013 100 10000 2.1 40 10:18 17.10.2019
29 Clouds 25 1013 100 10000 2.1 40 10:18 17.10.2019
30 Clouds 25 1013 94 10000 2.1 60 09:42 17.10.2019
31 Clouds 25 1013 94 10000 2.1 60 09:22 17.10.2019
32 Clouds 25 1014 94 10000 2.1 50 08:58 17.10.2019
33 Clouds 25 1014 94 10000 2.1 50 08:58 17.10.2019
34 Clouds 25 1014 94 10000 2.1 50 08:39 17.10.2019
35 Clouds 25 1014 94 10000 2.1 50 08:21 17.10.2019
36 Rain 26 1014 94 10000 2.1 50 07:55 17.10.2019
37 Rain 26 1014 94 10000 2.1 50 07:54 17.10.2019
38 Rain 26 1014 94 10000 2.1 50 07:36 17.10.2019
39 Clouds 25 1014 94 10000 2.1 50 07:18 17.10.2019
40 Clouds 26 1014 94 10000 2.1 60 06:39 17.10.2019
41 Clouds 26 1014 94 10000 2.1 60 06:20 17.10.2019
42 Clouds 26 1014 94 10000 2.1 60 05:49 17.10.2019
43 Clouds 26 1014 94 10000 2.1 60 05:30 17.10.2019
44 Clouds 26 1014 94 10000 2.1 60 04:51 17.10.2019
45 Clouds 26 1013 94 10000 2.1 50 03:54 17.10.2019
46 Clouds 28 1013 94 10000 0.285 280 02:36 17.10.2019
47 Clouds 29 1012 70 10000 3.1 160 00:56 17.10.2019
48 Clouds 29 1012 70 10000 3.1 160 00:38 17.10.2019
49 Clouds 29 1012 70 10000 3.1 160 00:18 17.10.2019
50 Clouds 31 1012 62 10000 5.1 180 23:42 16.10.2019
51 Clouds 31 1012 62 10000 5.1 180 23:20 16.10.2019
52 Clouds 32 1013 59 10000 4.1 160 22:55 16.10.2019
53 Clouds 32 1013 59 10000 4.1 160 22:36 16.10.2019
54 Clouds 32 1013 59 10000 4.1 160 22:18 16.10.2019
55 Clouds 32 1013 55 10000 5.1 180 21:56 16.10.2019
56 Clouds 32 1013 55 10000 5.1 180 21:37 16.10.2019
57 Clouds 32 1013 55 10000 5.1 180 21:18 16.10.2019
58 Clouds 32 1014 59 10000 4.1 90 20:56 16.10.2019
59 Clouds 32 1014 59 10000 4.1 90 20:56 16.10.2019
60 Clouds 32 1014 59 10000 4.1 90 20:56 16.10.2019
61 Clouds 32 1014 59 10000 4.1 90 20:38 16.10.2019
62 Clouds 32 1014 59 10000 4.1 90 20:20 16.10.2019
63 Clouds 32 1014 62 10000 3.1 60 19:56 16.10.2019
64 Clouds 32 1014 62 10000 3.1 60 19:38 16.10.2019
65 Clouds 32 1014 62 10000 3.1 60 19:19 16.10.2019
66 Clouds 32 1015 62 10000 3.1 120 18:39 16.10.2019
67 Clouds 32 1015 62 10000 3.1 120 18:19 16.10.2019
68 Clouds 31 1016 70 10000 2.142 81 17:56 16.10.2019
69 Clouds 31 1016 70 10000 2.142 81 17:38 16.10.2019
70 Clouds 31 1016 70 10000 2.142 81 17:19 16.10.2019
71 Clouds 30 1015 78 10000 3.1 90 16:58 16.10.2019
72 Clouds 30 1015 78 10000 3.1 90 16:38 16.10.2019
73 Clouds 30 1015 78 10000 3.1 90 16:20 16.10.2019
74 Clouds 28 1015 83 10000 2.142 81 15:55 16.10.2019
75 Clouds 28 1015 83 10000 2.142 81 15:54 16.10.2019
76 -273 0 0 0 0 0 15:54 16.10.2019
77 Clouds 28 1015 83 10000 2.142 81 15:54 16.10.2019
78 Clouds 29 1015 83 10000 2.142 81 15:36 16.10.2019
79 Clouds 27 1015 94 10000 1.534 341 15:18 16.10.2019
80 Clouds 27 1015 94 10000 1.534 341 15:18 16.10.2019
81 Clouds 27 1015 94 10000 1.534 341 14:55 16.10.2019
82 Clouds 27 1015 94 10000 1.483 341 14:36 16.10.2019
83 Clouds 26 1015 94 10000 1.483 341 14:18 16.10.2019
84 Clouds 26 1013 94 10000 2.6 40 13:42 16.10.2019
85 Clouds 25 1013 94 10000 2.6 40 13:23 16.10.2019
86 Clouds 25 1013 100 10000 2.6 30 12:44 16.10.2019
87 Clouds 24 1013 100 10000 2.6 30 12:20 16.10.2019
88 Clouds 24 1013 94 10000 2.1 10 11:59 16.10.2019
89 Clouds 24 1013 94 10000 2.1 10 11:41 16.10.2019
90 Clouds 23 1013 94 10000 2.1 10 11:18 16.10.2019
91 Clouds 24 1013 100 10000 2.1 10 10:37 16.10.2019
92 Clouds 25 1013 100 10000 2.1 10 10:19 16.10.2019
93 Clouds 25 1013 100 10000 1.5 0 09:41 16.10.2019
94 Clear 26 1013 81 0 1.34 345 09:22 16.10.2019
95 Clear 26 1013 80 0 0.89 14 08:58 16.10.2019
96 Clear 26 1013 80 0 0.89 9 08:40 16.10.2019
97 Clear 27 1013 79 0 0.89 23 08:21 16.10.2019
98 Clear 27 1014 80 0 0.89 18 07:45 16.10.2019
99 Clouds 26 1014 94 10000 2.1 40 07:24 16.10.2019
100 Clouds 26 1014 94 10000 2.1 40 06:56 16.10.2019
101 Clouds 26 1014 94 10000 2.1 40 06:56 16.10.2019
102 Clouds 26 1014 94 10000 2.1 40 06:35 16.10.2019
103 Clouds 26 1014 88 10000 2.1 60 05:23 16.10.2019
104 Clouds 27 1013 88 10000 0.66 9 02:57 16.10.2019
105 Clouds 29 1013 70 10000 0.825 21 01:39 16.10.2019
106 Clouds 29 1013 70 10000 0.825 21 01:18 16.10.2019
107 Clouds 30 1013 66 10000 3.1 150 00:45 16.10.2019
108 Clouds 31 1012 62 10000 3.6 150 23:59 15.10.2019
109 Clouds 31 1012 62 10000 3.6 150 23:39 15.10.2019
110 Clouds 31 1012 62 10000 3.6 150 23:21 15.10.2019
111 Clouds 31 1012 62 10000 3.6 150 23:21 15.10.2019
112 Clouds 32 1012 55 10000 5.1 160 22:55 15.10.2019
113 Clouds 32 1012 55 10000 5.1 160 22:37 15.10.2019
114 Clouds 32 1012 55 10000 5.1 160 22:19 15.10.2019
115 Clouds 32 1013 59 10000 5.1 170 21:55 15.10.2019
116 Clouds 32 1013 59 10000 5.1 170 21:37 15.10.2019
117 Clouds 32 1013 59 10000 5.1 170 21:19 15.10.2019
118 Clouds 32 1013 59 10000 5.1 170 21:19 15.10.2019
119 Clouds 32 1013 63 10000 3.1 140 20:56 15.10.2019
120 Clouds 32 1013 63 10000 3.1 140 20:37 15.10.2019
121 Clouds 32 1013 63 10000 3.1 140 20:19 15.10.2019
122 Clouds 32 1014 63 10000 2.47 97 19:55 15.10.2019
123 Clouds 32 1014 63 10000 2.47 97 19:55 15.10.2019
124 Clouds 32 1014 63 10000 2.47 97 19:55 15.10.2019
125 Clouds 32 1014 63 10000 2.47 97 19:37 15.10.2019
126 Clouds 32 1014 63 10000 2.47 97 19:37 15.10.2019
127 Clouds 33 1014 63 10000 2.47 97 19:18 15.10.2019
128 Clouds 32 1015 66 10000 2.47 97 18:44 15.10.2019
129 Clouds 32 1015 66 10000 2.47 97 18:25 15.10.2019
130 Clouds 32 1016 70 10000 2.551 49 17:55 15.10.2019
131 Clouds 32 1016 70 10000 2.551 49 17:55 15.10.2019
132 Clouds 32 1016 70 10000 2.551 49 17:37 15.10.2019
133 Clouds 31 1016 70 10000 2.551 49 17:19 15.10.2019
134 Clouds 31 1016 70 10000 2.551 49 17:19 15.10.2019
135 Clouds 31 1016 66 10000 2.551 49 16:45 15.10.2019
136 Clouds 30 1016 66 10000 2.551 49 16:22 15.10.2019
137 Clouds 29 1016 83 10000 2.551 49 15:58 15.10.2019
138 Clouds 28 1016 83 10000 2.551 49 15:39 15.10.2019
139 Clouds 28 1016 83 10000 1.313 331 15:19 15.10.2019
140 Clouds 27 1015 94 10000 1.313 331 14:56 15.10.2019
141 Clouds 27 1015 94 10000 1.408 339 14:37 15.10.2019
142 Clouds 27 1015 94 10000 1.408 339 14:37 15.10.2019
143 Clouds 26 1015 94 10000 1.408 339 14:18 15.10.2019
144 Clouds 26 1014 100 10000 2.1 30 13:43 15.10.2019
145 Clouds 25 1014 100 10000 2.1 30 13:20 15.10.2019
146 Clouds 25 1014 100 10000 2.1 20 12:56 15.10.2019
147 Clouds 25 1014 100 10000 2.1 20 12:56 15.10.2019
148 Clouds 25 1014 100 10000 2.1 20 12:38 15.10.2019
149 Clouds 24 1014 100 10000 2.1 20 12:19 15.10.2019
150 Clouds 24 1014 100 10000 2.1 20 12:19 15.10.2019
151 Clouds 24 1014 100 10000 2.1 360 11:43 15.10.2019
152 Clouds 24 1014 100 10000 2.1 360 11:20 15.10.2019
153 Clouds 25 1014 94 10000 2.1 360 10:56 15.10.2019
154 Clouds 25 1014 94 10000 2.1 360 10:56 15.10.2019
155 Clouds 25 1014 94 10000 2.1 360 10:37 15.10.2019
156 Clouds 25 1014 94 10000 2.1 360 10:18 15.10.2019
157 Clouds 25 1013 94 10000 2.1 30 09:41 15.10.2019
158 Clouds 25 1013 94 10000 2.1 30 09:21 15.10.2019
159 Clouds 25 1013 94 10000 2.1 30 09:21 15.10.2019
160 Clouds 25 1013 94 10000 2.1 30 09:21 15.10.2019
161 Clouds 26 1015 94 10000 2.1 40 08:58 15.10.2019
162 Clouds 26 1015 94 10000 2.1 40 08:58 15.10.2019
163 Clouds 25 1015 94 10000 2.1 40 08:40 15.10.2019
164 Clouds 26 1015 94 10000 2.1 40 08:20 15.10.2019
165 Clouds 26 1015 94 10000 2.1 50 07:44 15.10.2019
166 Clouds 26 1015 94 10000 2.1 50 07:23 15.10.2019
167 Clouds 26 1015 94 10000 2.6 10 06:58 15.10.2019
168 Clouds 26 1015 94 10000 2.6 10 06:39 15.10.2019
169 Clouds 26 1015 88 10000 2.6 70 05:56 15.10.2019
170 Clouds 26 1015 88 10000 2.6 70 05:37 15.10.2019
171 Clouds 26 1015 88 10000 2.6 60 04:49 15.10.2019
172 Clouds 26 1015 88 10000 2.6 60 04:19 15.10.2019
173 Clouds 27 1014 88 10000 2.1 70 03:35 15.10.2019
174 Thunderstorm 28 1012 83 10000 1.89 2.361 01:57 15.10.2019
175 Thunderstorm 28 1012 83 10000 1.89 2.361 01:39 15.10.2019
176 Clouds 28 1012 78 10000 2.27 23.205 00:59 15.10.2019
177 Clouds 28 1012 78 10000 2.27 23.205 00:59 15.10.2019
178 Clouds 28 1012 78 10000 2.4 134.239 00:25 15.10.2019
179 Thunderstorm 29 1011 66 10000 4.1 160 23:59 14.10.2019
180 Thunderstorm 30 1011 66 10000 4.1 160 23:37 14.10.2019
181 Thunderstorm 30 1011 66 10000 4.1 160 23:37 14.10.2019
182 Thunderstorm 30 1011 66 10000 4.1 160 23:18 14.10.2019
183 Clouds 32 1012 66 10000 5.1 180 22:39 14.10.2019
184 Clouds 32 1012 66 10000 5.1 180 22:21 14.10.2019
185 Clouds 32 1012 62 10000 6.2 180 21:58 14.10.2019
186 Clouds 32 1012 62 10000 6.2 180 21:39 14.10.2019
187 Clouds 32 1012 62 10000 6.2 180 21:21 14.10.2019
188 Clouds 32 1012 62 10000 5.1 160 20:57 14.10.2019
189 Clouds 32 1012 62 10000 5.1 160 20:38 14.10.2019
190 Clouds 32 1012 62 10000 5.1 160 20:38 14.10.2019
191 Clouds 32 1012 62 10000 5.1 160 20:19 14.10.2019
192 Clouds 32 1013 62 10000 5.1 130 19:44 14.10.2019
193 Clouds 32 1013 62 10000 5.1 130 19:26 14.10.2019
194 Clouds 32 1014 62 10000 5.1 120 18:59 14.10.2019
195 Clouds 32 1014 62 10000 5.1 120 18:40 14.10.2019
196 Clouds 31 1014 62 10000 5.1 120 18:21 14.10.2019
197 Clouds 31 1014 66 10000 3.1 40 17:59 14.10.2019
198 Clouds 31 1014 66 10000 3.1 40 17:41 14.10.2019
199 Clouds 31 1014 66 10000 3.1 40 17:22 14.10.2019
200 Clouds 30 1015 74 10000 2.09 56.621 16:45 14.10.2019
201 Clouds 29 1015 74 10000 2.09 56.621 16:22 14.10.2019
202 Clouds 27 1013 83 10000 2.09 56.621 15:59 14.10.2019
203 Clouds 28 1013 83 10000 2.09 56.621 15:38 14.10.2019
204 Clouds 28 1013 83 10000 1.83 353.894 15:20 14.10.2019
205 Clouds 27 1013 94 10000 1.83 353.894 14:43 14.10.2019
206 Clouds 27 1013 94 10000 1.83 353.894 14:24 14.10.2019
207 Clouds 26 1013 94 10000 2.1 20 13:57 14.10.2019
208 Clouds 26 1013 94 10000 2.1 20 13:39 14.10.2019
209 Clouds 25 1013 94 10000 2.1 20 13:20 14.10.2019
210 Clouds 25 1013 100 10000 1.72 356.226 12:41 14.10.2019
211 Clouds 25 1013 100 10000 1.55 341.272 12:20 14.10.2019
212 Clouds 25 1013 94 10000 1.55 341.272 11:48 14.10.2019
213 Clouds 25 1013 94 10000 1.55 341.272 11:27 14.10.2019
214 Clouds 25 1013 94 10000 1.55 341.272 10:59 14.10.2019
215 Clouds 25 1013 94 10000 1.55 341.272 10:41 14.10.2019
216 Clouds 25 1013 94 10000 1.55 341.272 10:21 14.10.2019
217 Clouds 25 1013 94 10000 1.55 341.272 10:21 14.10.2019
218 Clouds 25 1013 94 10000 2.1 30 09:57 14.10.2019
219 Clouds 25 1013 94 10000 2.1 30 09:38 14.10.2019
220 Clouds 25 1013 94 10000 2.1 30 09:19 14.10.2019
221 Clouds 25 1013 94 10000 1.54 353.268 08:46 14.10.2019
222 Clouds 25 1013 94 10000 1.54 353.268 08:23 14.10.2019
223 Clouds 26 1014 94 10000 2.1 50 07:44 14.10.2019
224 Clouds 26 1014 94 10000 2.1 50 07:19 14.10.2019
225 Clouds 26 1014 94 10000 2.1 40 06:54 14.10.2019
226 Clouds 26 1014 94 10000 2.1 40 06:27 14.10.2019
227 Clouds 26 1014 94 10000 2.1 40 05:50 14.10.2019
228 Clouds 26 1013 88 10000 2.1 50 04:49 14.10.2019
229 Clouds 27 1013 88 10000 2.1 50 03:28 14.10.2019
230 Thunderstorm 27 1013 88 10000 0.35 40.547 02:56 14.10.2019
231 Thunderstorm 28 1012 83 10000 1 55.832 01:25 14.10.2019
232 Clouds 29 1011 78 10000 3.1 180 00:59 14.10.2019
233 Clouds 29 1011 78 10000 3.1 180 00:21 14.10.2019
234 Clouds 29 1011 78 10000 3.1 180 00:21 14.10.2019
235 Clouds 29 1011 78 10000 3.1 180 00:21 14.10.2019
236 Clouds 30 1011 66 10000 5.1 180 23:45 13.10.2019
237 Clouds 31 1011 66 10000 5.1 180 23:21 13.10.2019
238 Clouds 31 1011 62 10000 5.1 180 22:59 13.10.2019
239 Clouds 31 1011 62 10000 5.1 180 22:41 13.10.2019
240 Clouds 31 1011 62 10000 5.1 180 22:21 13.10.2019
241 Clouds 32 1012 59 10000 4.1 160 21:58 13.10.2019
242 Clouds 32 1012 59 10000 4.1 160 21:38 13.10.2019
243 Clouds 32 1012 59 10000 4.1 160 21:19 13.10.2019
244 Clouds 32 1012 52 10000 4.1 180 20:58 13.10.2019
245 Clouds 32 1012 52 10000 4.1 180 20:39 13.10.2019
246 Clouds 32 1012 52 10000 4.1 180 20:21 13.10.2019
247 Clouds 32 1013 62 10000 5.1 180 19:59 13.10.2019
248 Clouds 32 1013 62 10000 5.1 180 19:39 13.10.2019
249 Clouds 32 1013 62 10000 5.1 180 19:39 13.10.2019
250 Clouds 32 1013 62 10000 5.1 180 19:21 13.10.2019
251 Clouds 32 1013 66 10000 4.1 130 18:57 13.10.2019
252 Clouds 32 1013 66 10000 4.1 130 18:55 13.10.2019
253 Clouds 32 1013 66 10000 4.1 130 18:36 13.10.2019
254 Clouds 31 1013 66 10000 4.1 130 18:18 13.10.2019
255 Clouds 31 1014 66 10000 3.1 130 17:43 13.10.2019
256 Clouds 31 1014 66 10000 3.1 130 17:25 13.10.2019
257 Clouds 30 1013 79 10000 2.6 90 16:58 13.10.2019
258 Clouds 30 1013 79 10000 2.6 90 16:40 13.10.2019
259 Clouds 30 1013 79 10000 2.6 90 16:18 13.10.2019
260 Clouds 27 1012 83 10000 1.93 85.99 15:55 13.10.2019
261 Clouds 27 1012 83 10000 1.93 85.99 15:36 13.10.2019
262 Clouds 27 1012 83 10000 1.09 355.21 15:18 13.10.2019
263 Clouds 25 1014 88 10000 2.1 10 14:40 13.10.2019
264 Clouds 25 1014 88 10000 2.1 10 14:22 13.10.2019
265 Clouds 23 1013 94 10000 1.09 355.21 14:00 13.10.2019
266 Clouds 23 1013 94 10000 1.09 355.21 13:39 13.10.2019
267 Clouds 23 1013 94 10000 1.16 350.505 13:21 13.10.2019
268 Clouds 22 1012 94 10000 2.1 40 12:57 13.10.2019
269 Clouds 22 1012 94 10000 2.1 40 12:38 13.10.2019
270 Clouds 22 1012 94 10000 2.1 40 12:38 13.10.2019
271 Clouds 22 1012 94 10000 2.1 40 12:19 13.10.2019
272 Clouds 23 1011 94 10000 2.1 40 11:58 13.10.2019
273 Clouds 23 1011 94 10000 2.1 40 11:38 13.10.2019
274 Clouds 23 1011 94 10000 2.1 40 11:19 13.10.2019
275 Clouds 25 1011 94 10000 2.1 40 10:42 13.10.2019
276 Clouds 24 1011 94 10000 2.1 40 10:23 13.10.2019
277 Clouds 24 1012 94 10000 1.5 30 09:57 13.10.2019
278 Clouds 24 1012 94 10000 1.5 30 09:38 13.10.2019
279 Clouds 24 1012 94 10000 1.5 30 09:19 13.10.2019
280 Rain 25 1012 88 0 0.45 63 08:43 13.10.2019
281 Clouds 24 1013 94 10000 2.6 30 08:22 13.10.2019
282 Clouds 24 1013 94 10000 2.6 30 07:47 13.10.2019
283 Clouds 24 1013 94 10000 2.6 30 07:28 13.10.2019
284 Rain 26 1013 85 0 0.45 70 06:48 13.10.2019
285 Clouds 25 1013 94 10000 2.6 60 05:57 13.10.2019
286 Clouds 25 1013 94 10000 2.1 60 04:52 13.10.2019
287 Clouds 25 1013 94 10000 2.1 60 04:33 13.10.2019
288 Clouds 25 1012 88 10000 1.5 50 02:47 13.10.2019
289 Clouds 26 1012 88 10000 1.5 50 02:18 13.10.2019
290 Clouds 26 1011 83 10000 1.41 349.644 01:31 13.10.2019
291 Clouds 26 1011 83 10000 1.41 349.644 01:31 13.10.2019
292 Clouds 28 1010 74 10000 3.1 120 00:50 13.10.2019
293 Clouds 30 1010 74 10000 3.1 120 00:22 13.10.2019
294 Rain 30 1010 66 8000 4.1 30 23:57 12.10.2019
295 Rain 30 1010 66 8000 4.1 30 23:39 12.10.2019
296 Rain 30 1010 66 8000 4.1 30 23:20 12.10.2019
297 Rain 31 1010 62 8000 3.1 40 22:57 12.10.2019
298 Rain 31 1010 62 8000 3.1 40 22:38 12.10.2019
299 Rain 31 1010 62 8000 3.1 40 22:20 12.10.2019
300 Rain 31 1011 62 10000 5.1 180 21:55 12.10.2019
301 Rain 31 1011 62 10000 5.1 180 21:37 12.10.2019
302 Rain 31 1011 62 10000 5.1 180 21:18 12.10.2019
303 Clouds 32 1011 59 10000 5.1 180 20:40 12.10.2019
304 Clouds 32 1011 59 10000 5.1 180 20:22 12.10.2019
305 Clouds 32 1012 62 10000 2.7 120.411 19:39 12.10.2019
306 Clouds 32 1012 62 10000 2.7 120.411 19:20 12.10.2019
307 Clouds 31 1012 66 10000 3.1 90 18:57 12.10.2019
308 Clouds 31 1012 66 10000 3.1 90 18:39 12.10.2019
309 Clouds 31 1012 66 10000 3.1 90 18:21 12.10.2019
310 Clouds 31 1013 66 10000 2.1 30 17:43 12.10.2019
311 Clouds 31 1013 66 10000 2.1 30 17:19 12.10.2019
312 Clouds 30 1013 78 10000 2.05 90.42 16:54 12.10.2019
313 Clouds 30 1013 78 10000 2.05 90.42 16:54 12.10.2019
314 Clouds 29 1013 78 10000 2.05 90.42 16:36 12.10.2019
315 Clouds 29 1013 78 10000 2.05 90.42 16:36 12.10.2019
316 Clouds 29 1013 78 10000 2.05 90.42 16:18 12.10.2019
317 Clouds 28 1012 83 10000 2.05 90.42 15:43 12.10.2019
318 Clouds 28 1012 83 10000 1.88 359.42 15:23 12.10.2019
319 Clouds 26 1012 94 10000 1.88 359.42 14:43 12.10.2019
320 Clouds 25 1012 94 10000 1.88 359.42 14:22 12.10.2019
321 Clouds 25 1012 100 10000 2.1 30 13:57 12.10.2019
322 Clouds 25 1012 100 10000 2.1 30 13:38 12.10.2019
323 Clouds 25 1012 100 10000 2.1 30 13:20 12.10.2019
324 Clouds 24 1011 100 10000 2.1 40 12:39 12.10.2019
325 Clouds 24 1011 100 10000 2.1 40 12:21 12.10.2019
326 Clouds 25 1011 94 10000 1.81 342.508 11:58 12.10.2019
327 Clouds 24 1011 94 10000 1.81 342.508 11:39 12.10.2019
328 Clouds 25 1011 94 10000 1.81 342.508 11:19 12.10.2019
329 Clouds 25 1011 94 10000 2.1 20 10:41 12.10.2019
330 Clouds 25 1011 94 10000 2.1 20 10:23 12.10.2019
331 Clouds 24 1011 94 10000 2.1 30 09:58 12.10.2019
332 Clouds 25 1011 94 10000 2.1 30 09:39 12.10.2019
333 Clouds 25 1011 94 10000 2.1 30 09:21 12.10.2019
334 Clouds 25 1012 94 10000 2.1 20 08:57 12.10.2019
335 Clouds 25 1012 94 10000 2.1 20 08:57 12.10.2019
336 Clouds 25 1012 94 10000 2.1 20 08:57 12.10.2019
337 Clouds 25 1012 94 10000 2.1 20 08:37 12.10.2019
338 Clouds 25 1012 94 10000 2.1 20 08:18 12.10.2019
339 Clouds 25 1012 94 10000 2.1 30 07:33 12.10.2019
340 Clouds 26 1012 88 10000 2.1 20 06:50 12.10.2019
341 Clouds 26 1013 88 10000 2.1 60 05:46 12.10.2019
342 Clouds 26 1012 88 10000 2.1 30 04:52 12.10.2019
343 Clouds 26 1011 94 10000 2.1 50 03:58 12.10.2019
344 Thunderstorm 27 1011 94 10000 2.6 40 02:57 12.10.2019
345 Thunderstorm 27 1010 83 10000 1.18 177.963 01:36 12.10.2019
346 Thunderstorm 27 1010 83 10000 1.18 177.963 01:36 12.10.2019
347 Clouds 28 1010 78 10000 2.6 180 00:59 12.10.2019
348 Clouds 28 1010 78 10000 2.6 180 00:39 12.10.2019
349 Clouds 30 1009 66 10000 4.1 180 23:57 11.10.2019
350 Clouds 30 1009 66 10000 4.1 180 23:38 11.10.2019
351 Clouds 30 1009 66 10000 4.1 180 23:19 11.10.2019
352 Clouds 31 1010 66 10000 5.1 180 22:40 11.10.2019
353 Clouds 31 1010 66 10000 5.1 180 22:21 11.10.2019
354 Clouds 31 1010 62 10000 5.1 180 21:56 11.10.2019
355 Clouds 31 1010 62 10000 5.1 180 21:38 11.10.2019
356 Clouds 31 1010 62 10000 5.1 180 21:19 11.10.2019
357 Clouds 31 1010 74 10000 4.1 180 20:43 11.10.2019
358 Clouds 31 1010 74 10000 4.1 180 20:25 11.10.2019
359 Clouds 31 1011 62 10000 4.1 360 19:56 11.10.2019
360 Clouds 31 1011 62 10000 4.1 360 19:38 11.10.2019
361 Clouds 31 1011 62 10000 4.1 360 19:18 11.10.2019
362 Clouds 31 1011 66 10000 3.1 90 18:57 11.10.2019
363 Clouds 31 1011 66 10000 3.1 90 18:37 11.10.2019
364 Clouds 31 1011 66 10000 3.1 90 18:19 11.10.2019
365 Clouds 30 1012 74 10000 2.6 90 17:58 11.10.2019
366 Clouds 30 1012 74 10000 2.6 90 17:37 11.10.2019
367 Clouds 30 1012 74 10000 2.6 90 17:18 11.10.2019
368 Clouds 29 1011 78 10000 3.1 360 16:54 11.10.2019
369 Clouds 29 1011 78 10000 3.1 360 16:54 11.10.2019
370 Clouds 29 1011 78 10000 3.1 360 16:36 11.10.2019
371 Clouds 29 1011 78 10000 3.1 360 16:18 11.10.2019
372 Clouds 28 1011 94 10000 1.67 59.543 15:39 11.10.2019
373 Clouds 28 1011 94 10000 1.67 338.492 15:19 11.10.2019
374 Clouds 25 1010 100 10000 1.67 338.492 14:49 11.10.2019
375 Clouds 24 1010 100 10000 1.67 338.492 14:30 11.10.2019
376 Clouds 25 1010 100 10000 2.1 10 13:58 11.10.2019
377 Clouds 25 1010 100 10000 2.1 10 13:40 11.10.2019
378 Clouds 24 1010 100 10000 2.1 10 13:21 11.10.2019
379 Clouds 24 1010 100 10000 1.5 0 12:56 11.10.2019
380 Clouds 24 1010 100 10000 1.5 0 12:38 11.10.2019
381 Clouds 24 1010 100 10000 1.5 0 12:19 11.10.2019
382 Clouds 25 1010 94 10000 1.5 0 11:41 11.10.2019
383 Clouds 25 1010 94 10000 1.5 0 11:41 11.10.2019
384 Clouds 25 1010 94 10000 1.5 0 11:22 11.10.2019
385 Clouds 25 1010 94 10000 1.5 0 11:22 11.10.2019
386 Clouds 24 1010 94 10000 2.6 10 10:59 11.10.2019
387 Clouds 24 1010 94 10000 2.6 10 10:41 11.10.2019
388 Clouds 25 1010 94 10000 2.6 10 10:22 11.10.2019
389 Clouds 25 1011 94 10000 1.5 0 09:56 11.10.2019
390 Clouds 24 1011 94 10000 1.5 0 09:37 11.10.2019
391 Clouds 24 1011 94 10000 1.5 0 09:19 11.10.2019
392 Clouds 25 1011 94 10000 2.1 40 08:55 11.10.2019
393 Clouds 25 1011 94 10000 2.1 40 08:36 11.10.2019
394 Clouds 25 1011 94 10000 2.1 40 08:18 11.10.2019
395 Clouds 25 1012 88 10000 2.1 60 07:44 11.10.2019
396 Clouds 25 1012 88 10000 2.1 60 07:25 11.10.2019
397 Clouds 26 1012 88 10000 2.1 60 06:48 11.10.2019
398 Clouds 26 1012 88 10000 2.1 60 06:23 11.10.2019
399 Clouds 26 1012 88 10000 2.1 60 05:39 11.10.2019
400 Clouds 26 1011 88 10000 2.1 70 04:59 11.10.2019
401 Clouds 26 1011 88 10000 2.1 70 04:24 11.10.2019
402 Clouds 27 1010 83 10000 2.1 110 02:32 11.10.2019
403 Clouds 29 1010 78 10000 3.1 180 00:50 11.10.2019
404 Clouds 29 1010 78 10000 3.1 180 00:29 11.10.2019
405 Clouds 30 1010 74 10000 4.1 180 23:44 10.10.2019
406 Clouds 31 1010 74 10000 4.1 180 23:22 10.10.2019
407 Clouds 31 1010 70 10000 4.1 140 22:58 10.10.2019
408 Clouds 31 1010 70 10000 4.1 140 22:39 10.10.2019
409 Clouds 31 1010 70 10000 4.1 140 22:21 10.10.2019
410 Clouds 32 1011 66 10000 3.03 135.71 21:58 10.10.2019
411 Clouds 32 1011 66 10000 3.03 135.71 21:39 10.10.2019
412 Clouds 32 1011 66 10000 2.67 121.294 21:21 10.10.2019
413 Clouds 32 1011 66 10000 5.1 360 20:43 10.10.2019
414 Clouds 32 1011 66 10000 5.1 360 20:22 10.10.2019
415 Clouds 31 1012 66 10000 2.49 114.353 19:59 10.10.2019
416 Clouds 32 1012 66 10000 2.49 114.353 19:41 10.10.2019
417 Clouds 32 1012 66 10000 2.49 114.353 19:41 10.10.2019
418 Clouds 32 1012 66 10000 2.49 114.353 19:20 10.10.2019
419 Clouds 31 1013 66 10000 4.1 10 18:57 10.10.2019
420 Clouds 31 1013 66 10000 4.1 10 18:39 10.10.2019
421 Clouds 31 1013 66 10000 4.1 10 18:20 10.10.2019
422 Clouds 30 1013 66 10000 2.6 40 17:54 10.10.2019
423 Clouds 30 1013 66 10000 2.6 40 17:36 10.10.2019
424 Clouds 30 1013 66 10000 2.6 40 17:36 10.10.2019
425 Clouds 30 1013 66 10000 2.6 40 17:18 10.10.2019
426 Clouds 30 1013 66 10000 2.6 40 17:18 10.10.2019
427 Clouds 30 1013 66 10000 2.6 40 17:18 10.10.2019
428 Clouds 29 1013 74 10000 3.1 40 16:41 10.10.2019
429 Clouds 29 1013 74 10000 3.1 40 16:22 10.10.2019
430 Clouds 28 1012 83 10000 2.3 49.585 15:44 10.10.2019
431 Clouds 27 1012 83 10000 2.3 49.585 15:25 10.10.2019
432 Clouds 26 1012 94 10000 2.46 345.574 14:59 10.10.2019
433 Clouds 26 1012 94 10000 2.46 345.574 14:38 10.10.2019
434 Clouds 25 1012 94 10000 2.46 345.574 14:19 10.10.2019
435 Clouds 26 1012 94 10000 2.1 20 13:59 10.10.2019
436 Clouds 25 1012 94 10000 2.1 20 13:41 10.10.2019
437 Clouds 25 1012 94 10000 2.1 20 13:20 10.10.2019
438 Clouds 25 1012 94 10000 2.1 360 12:56 10.10.2019
439 Clouds 25 1012 94 10000 2.1 360 12:56 10.10.2019
440 Clouds 25 1012 94 10000 2.1 360 12:38 10.10.2019
441 Clouds 25 1012 94 10000 2.1 360 12:19 10.10.2019
442 Clouds 25 1012 94 10000 2.1 360 11:55 10.10.2019
443 Clouds 25 1012 94 10000 2.1 360 11:36 10.10.2019
444 Clouds 25 1012 94 10000 2.1 360 11:18 10.10.2019
445 Clouds 25 1012 94 10000 2.33 338.501 10:44 10.10.2019
446 Clouds 25 1012 94 10000 2.33 338.501 10:25 10.10.2019
447 Clouds 25 1012 94 10000 2.1 20 09:56 10.10.2019
448 Clouds 25 1012 94 10000 2.1 20 09:37 10.10.2019
449 Clouds 25 1012 94 10000 2.1 20 09:19 10.10.2019
450 Clouds 26 1012 94 10000 2.1 20 08:41 10.10.2019
451 Clouds 26 1012 94 10000 2.1 20 08:23 10.10.2019
452 Clouds 25 1012 94 10000 2.1 20 07:58 10.10.2019
453 Clouds 25 1012 94 10000 2.1 20 07:38 10.10.2019
454 Clouds 25 1012 94 10000 2.1 20 07:19 10.10.2019
455 Clouds 26 1013 94 10000 2.1 20 06:45 10.10.2019
456 Clouds 26 1013 94 10000 2.1 30 05:57 10.10.2019
457 Clouds 26 1013 94 10000 2.1 30 05:23 10.10.2019
458 Clouds 26 1013 88 10000 2.1 30 04:37 10.10.2019
459 Clouds 28 1012 83 10000 2.1 70 02:54 10.10.2019
460 Clouds 29 1012 78 10000 1.97 17.406 01:42 10.10.2019
461 Clouds 29 1012 78 10000 2.09 26.932 01:23 10.10.2019
462 Thunderstorm 30 1011 66 10000 2.09 26.932 00:45 10.10.2019
463 Thunderstorm 30 1011 66 10000 2.4 78.114 00:19 10.10.2019
464 Clouds 31 1011 66 10000 5.1 180 23:39 09.10.2019
465 Clouds 31 1011 66 10000 5.1 180 23:19 09.10.2019
466 Clouds 32 1011 59 10000 5.1 180 22:42 09.10.2019
467 Clouds 32 1011 59 10000 5.1 180 22:24 09.10.2019
468 Clouds 32 1012 59 10000 5.1 180 21:59 09.10.2019
469 Clouds 32 1012 59 10000 5.1 180 21:39 09.10.2019
470 Clouds 33 1012 59 10000 5.1 180 21:20 09.10.2019
471 Clouds 32 1012 59 10000 3.1 40 20:56 09.10.2019
472 Clouds 32 1012 59 10000 3.1 40 20:37 09.10.2019
473 Clouds 32 1012 59 10000 3.1 40 20:18 09.10.2019
474 Clouds 32 1013 59 10000 5.1 70 19:45 09.10.2019
475 Clouds 33 1013 59 10000 5.1 70 19:23 09.10.2019
476 Clouds 32 1014 59 10000 2.6 70 18:57 09.10.2019
477 Clouds 33 1014 59 10000 2.6 70 18:37 09.10.2019
478 Clouds 32 1014 59 10000 2.6 70 18:18 09.10.2019
479 Clouds 32 1014 62 10000 2.37 64.616 17:54 09.10.2019
480 Clouds 32 1014 62 10000 2.37 64.616 17:36 09.10.2019
481 Clouds 31 1014 62 10000 2.37 64.616 17:18 09.10.2019
482 Clouds 30 1014 74 10000 2.37 64.616 16:40 09.10.2019
483 Clouds 30 1014 74 10000 2.37 64.616 16:22 09.10.2019
484 Clouds 28 1013 78 10000 2.37 64.616 15:58 09.10.2019
485 Clouds 28 1013 78 10000 2.37 64.616 15:39 09.10.2019
486 Clouds 28 1013 78 10000 2.21 337.04 15:20 09.10.2019
487 Clouds 26 1013 94 10000 2.21 337.04 14:56 09.10.2019
488 Clouds 26 1013 94 10000 2.21 337.04 14:37 09.10.2019
489 Clouds 25 1013 94 10000 2.21 337.04 14:18 09.10.2019
490 Clouds 25 1013 94 10000 2.1 10 13:39 09.10.2019
491 Clouds 25 1013 94 10000 2.1 10 13:21 09.10.2019
492 Clouds 25 1012 94 10000 2.1 20 12:58 09.10.2019
493 Clouds 25 1012 94 10000 2.1 20 12:40 09.10.2019
494 Clouds 25 1012 94 10000 2.1 20 12:21 09.10.2019
495 Clouds 25 1012 94 10000 2.1 40 11:55 09.10.2019
496 Clouds 25 1012 94 10000 2.1 40 11:36 09.10.2019
497 Clouds 25 1012 94 10000 2.1 40 11:18 09.10.2019
498 Clouds 25 1012 94 10000 2.1 10 10:43 09.10.2019
499 Clouds 25 1012 94 10000 2.1 10 10:20 09.10.2019
500 Clouds 25 1013 94 10000 2.1 30 09:57 09.10.2019
501 Clouds 25 1013 94 10000 2.1 30 09:38 09.10.2019
502 Clouds 25 1013 94 10000 2.1 30 09:38 09.10.2019
503 Clouds 25 1013 94 10000 2.1 30 09:38 09.10.2019
504 Clouds 25 1013 94 10000 2.1 30 09:18 09.10.2019
505 -273 0 0 0 0 0 08:39 09.10.2019
506 Clouds 25 1013 94 10000 2.1 20 08:21 09.10.2019
507 Rain 26 1013 82 0 0.89 355 07:48 09.10.2019
508 Rain 26 1014 88 0 0.45 59 07:27 09.10.2019
509 Rain 26 1014 88 0 0.45 59 07:27 09.10.2019
510 Clouds 25 1013 88 10000 2.1 30 06:59 09.10.2019
511 Clouds 25 1013 88 10000 2.1 30 06:41 09.10.2019
512 Clouds 26 1014 94 10000 2.1 20 05:53 09.10.2019
513 Clouds 26 1014 94 10000 2.1 20 05:19 09.10.2019
514 Clouds 27 1013 88 10000 2.1 20 03:54 09.10.2019
515 Clouds 27 1013 88 10000 2.1 40 02:42 09.10.2019
516 Clouds 28 1013 94 10000 2.6 60 01:39 09.10.2019
517 Clouds 28 1013 94 10000 2.6 60 01:19 09.10.2019
518 Rain 29 1012 79 7000 2.6 150 00:56 09.10.2019
519 Rain 29 1012 79 7000 2.6 150 00:37 09.10.2019
520 Rain 29 1012 79 7000 2.6 150 00:19 09.10.2019
521 Rain 30 1012 74 8000 3.1 150 23:39 08.10.2019
522 Rain 30 1012 74 8000 3.1 150 23:39 08.10.2019
523 Rain 30 1012 74 8000 3.1 150 23:18 08.10.2019
524 Clouds 31 1012 74 10000 5.1 150 22:55 08.10.2019
525 Clouds 30 1012 74 10000 5.1 150 22:37 08.10.2019
526 Clouds 31 1012 74 10000 5.1 150 22:18 08.10.2019
527 Clouds 32 1011 63 10000 4.1 210 21:56 08.10.2019
528 Clouds 32 1011 63 10000 4.1 210 21:37 08.10.2019
529 Rain 32 1011 63 10000 4.1 210 21:18 08.10.2019
530 Rain 30 1013 83 8000 3.06 104.558 20:55 08.10.2019
531 Rain 31 1013 83 8000 3.16 100.99 20:37 08.10.2019
532 Rain 31 1013 83 8000 3.16 100.99 20:18 08.10.2019
533 Clouds 32 1013 63 10000 2.6 70 19:54 08.10.2019
534 Clouds 33 1013 63 10000 2.6 70 19:36 08.10.2019
535 Clouds 33 1013 63 10000 2.6 70 19:36 08.10.2019
536 Clouds 32 1013 63 10000 2.6 70 19:18 08.10.2019
537 Clouds 32 1014 66 10000 4.1 120 18:41 08.10.2019
538 Clouds 32 1014 66 10000 4.1 120 18:23 08.10.2019
539 Clouds 32 1015 66 10000 2.5 46.493 17:57 08.10.2019
540 Clouds 32 1015 66 10000 2.5 46.493 17:39 08.10.2019
541 Clouds 32 1015 66 10000 2.5 46.493 17:18 08.10.2019
542 Clouds 31 1015 70 10000 2.6 60 16:55 08.10.2019
543 Clouds 30 1015 70 10000 2.6 60 16:37 08.10.2019
544 Clouds 30 1015 70 10000 2.6 60 16:18 08.10.2019
545 Clouds 29 1014 79 10000 2.5 46.493 15:38 08.10.2019
546 Clouds 29 1014 79 10000 2.66 350.251 15:20 08.10.2019
547 Clouds 27 1014 94 10000 2.66 350.251 14:55 08.10.2019
548 Clouds 27 1014 94 10000 2.66 350.251 14:37 08.10.2019
549 Clouds 26 1014 94 10000 2.66 350.251 14:19 08.10.2019
550 Clouds 26 1013 94 10000 2.1 20 13:54 08.10.2019
551 Clouds 26 1013 94 10000 2.1 20 13:54 08.10.2019
552 Clouds 26 1013 94 10000 2.1 20 13:36 08.10.2019
553 Clouds 26 1013 94 10000 2.1 20 13:18 08.10.2019
554 Clouds 25 1013 100 10000 1.5 10 12:40 08.10.2019
555 Clouds 24 1013 100 10000 1.5 10 12:20 08.10.2019
556 Clouds 24 1012 94 10000 1.5 360 11:57 08.10.2019
557 Clouds 24 1012 94 10000 1.5 360 11:38 08.10.2019
558 Clouds 24 1012 94 10000 1.5 360 11:20 08.10.2019
559 Clouds 25 1012 94 10000 1.5 360 10:42 08.10.2019
560 Clouds 25 1012 94 10000 1.5 360 10:22 08.10.2019
561 Clouds 25 1012 94 10000 1.5 360 09:58 08.10.2019
562 Clouds 25 1012 94 10000 1.5 360 09:40 08.10.2019
563 Clouds 25 1012 94 10000 1.5 360 09:40 08.10.2019
564 Clouds 27 1013 80 0 0.89 344 09:21 08.10.2019
565 Clouds 26 1013 80 0 1.34 347 08:45 08.10.2019
566 Clouds 26 1013 81 0 1.34 355 08:25 08.10.2019
567 Clouds 26 1013 87 0 2.01 339.664 07:47 08.10.2019
568 Clouds 26 1013 80 0 1.34 1 07:23 08.10.2019
569 Clouds 26 1014 87 0 2.01 339.664 06:57 08.10.2019
570 Clouds 27 1014 79 0 1.34 22 06:35 08.10.2019
571 Clouds 27 1014 80 0 1.34 22 05:57 08.10.2019
572 Clouds 27 1014 80 0 1.34 22 05:57 08.10.2019
573 Clouds 27 1014 79 0 1.34 24 05:38 08.10.2019
574 Clouds 27 1014 79 0 1.34 24 05:38 08.10.2019
575 Clouds 26 1014 94 10000 2.1 50 04:42 08.10.2019
576 Clouds 27 1012 88 10000 1.74 355.543 03:30 08.10.2019
577 Clouds 27 1012 88 10000 0.51 358.434 02:40 08.10.2019
578 Clouds 27 1013 83 10000 0.51 358.434 01:49 08.10.2019
579 Clouds 27 1013 83 10000 0.88 52.961 01:31 08.10.2019
580 Rain 28 1012 78 8000 0.88 52.961 00:55 08.10.2019
581 Rain 28 1012 78 8000 2.22 130.795 00:22 08.10.2019
582 Rain 30 1012 66 8000 5.1 30 23:43 07.10.2019
583 Rain 30 1012 66 8000 5.1 30 23:21 07.10.2019
584 Rain 30 1012 62 8000 4.1 30 22:58 07.10.2019
585 Rain 31 1012 62 8000 4.1 30 22:40 07.10.2019
586 Rain 31 1012 62 8000 4.1 30 22:21 07.10.2019
587 Rain 32 1013 59 8000 5.1 90 21:58 07.10.2019
588 Rain 32 1013 59 8000 5.1 90 21:39 07.10.2019
589 Rain 32 1013 59 8000 5.1 90 21:20 07.10.2019
590 Rain 32 1013 59 8000 5.1 90 21:20 07.10.2019
591 Clouds 32 1013 52 10000 5.1 180 20:58 07.10.2019
592 Clouds 32 1013 52 10000 5.1 180 20:39 07.10.2019
593 Clouds 33 1013 52 10000 5.1 180 20:20 07.10.2019
594 Clouds 31 1014 66 10000 2.1 90 19:58 07.10.2019
595 Clouds 31 1014 66 10000 2.1 90 19:40 07.10.2019
596 Clouds 31 1014 66 10000 2.1 90 19:19 07.10.2019
597 Clouds 32 1014 66 10000 3.1 90 18:58 07.10.2019
598 Clouds 31 1014 66 10000 3.1 90 18:38 07.10.2019
599 Clouds 32 1014 66 10000 3.1 90 18:18 07.10.2019
600 Clouds 31 1014 74 10000 1.78 89.614 17:43 07.10.2019
601 Clouds 31 1014 74 10000 1.78 89.614 17:22 07.10.2019
602 Clouds 30 1015 78 10000 2.1 30 16:58 07.10.2019
603 Clouds 29 1015 78 10000 2.1 30 16:39 07.10.2019
604 Clouds 29 1015 78 10000 2.1 30 16:39 07.10.2019
605 Clouds 29 1015 78 10000 2.1 30 16:20 07.10.2019
606 Clouds 27 1015 83 10000 2.1 30 15:45 07.10.2019
607 Clouds 28 1015 83 10000 2.1 30 15:26 07.10.2019
608 Clouds 27 1014 94 10000 2.1 20 14:55 07.10.2019
609 Clouds 27 1014 94 10000 2.1 20 14:37 07.10.2019
610 Clouds 27 1014 94 10000 2.1 20 14:19 07.10.2019
611 Clouds 26 1014 94 10000 2.1 30 13:41 07.10.2019
612 Clouds 25 1014 94 10000 2.1 30 13:20 07.10.2019
613 Clouds 25 1013 94 10000 2.6 20 12:55 07.10.2019
614 Clouds 25 1013 94 10000 2.6 20 12:37 07.10.2019
615 Clouds 25 1013 94 10000 2.6 20 12:19 07.10.2019
616 Clouds 25 1013 94 10000 2.6 20 11:57 07.10.2019
617 Clouds 25 1013 94 10000 2.6 20 11:37 07.10.2019
618 Clouds 25 1013 94 10000 2.6 20 11:18 07.10.2019
619 -273 0 0 0 0 0 10:41 07.10.2019
620 Clouds 25 1013 100 10000 2.6 30 10:41 07.10.2019
621 Clouds 26 1013 100 10000 2.6 30 10:20 07.10.2019
622 Clouds 26 1013 94 10000 2.1 30 09:42 07.10.2019
623 Clouds 26 1013 94 10000 2.1 30 09:23 07.10.2019
624 Clouds 26 1013 94 10000 2.1 40 08:57 07.10.2019
625 Clouds 26 1013 94 10000 2.1 40 08:57 07.10.2019
626 Clouds 26 1013 94 10000 2.1 40 08:38 07.10.2019
627 Clouds 26 1013 94 10000 2.1 40 08:19 07.10.2019
628 Clouds 26 1014 94 10000 2.1 40 07:41 07.10.2019
629 Clouds 26 1014 94 10000 2.1 40 07:22 07.10.2019
630 Clouds 26 1014 88 10000 2.1 50 06:54 07.10.2019
631 Clouds 26 1014 88 10000 2.1 50 06:34 07.10.2019
632 Clouds 27 1014 88 10000 2.1 60 05:47 07.10.2019
633 Clouds 27 1014 88 10000 2.1 60 05:22 07.10.2019
634 Clouds 26 1014 94 10000 2.1 60 04:25 07.10.2019
635 Clouds 27 1013 88 10000 2.1 70 03:44 07.10.2019
636 Clouds 27 1013 88 10000 2.1 70 03:44 07.10.2019
637 Clouds 28 1013 88 10000 2.1 70 03:20 07.10.2019
638 Clouds 28 1012 78 10000 3.1 180 02:21 07.10.2019
639 Clouds 28 1012 78 10000 3.1 180 01:50 07.10.2019
640 Clouds 28 1012 78 10000 3.1 180 01:21 07.10.2019
641 Clouds 29 1012 74 10000 4.1 180 00:39 07.10.2019
642 Clouds 29 1012 74 10000 4.1 180 00:20 07.10.2019
643 Thunderstorm 30 1012 66 10000 4.1 180 23:42 06.10.2019
644 Thunderstorm 30 1012 66 10000 4.1 180 23:42 06.10.2019
645 Thunderstorm 30 1012 66 10000 4.1 180 23:21 06.10.2019
646 Thunderstorm 30 1012 66 10000 5.1 180 22:59 06.10.2019
647 Thunderstorm 31 1012 66 10000 5.1 180 22:41 06.10.2019
648 Thunderstorm 31 1012 66 10000 5.1 180 22:22 06.10.2019
649 Clouds 31 1013 62 10000 5.1 180 21:57 06.10.2019
650 Clouds 31 1013 62 10000 5.1 180 21:38 06.10.2019
651 Clouds 31 1013 62 10000 5.1 180 21:38 06.10.2019
652 Clouds 32 1013 62 10000 5.1 180 21:19 06.10.2019
653 Clouds 31 1013 62 10000 5.1 180 20:58 06.10.2019
654 Clouds 31 1013 62 10000 5.1 180 20:39 06.10.2019
655 Clouds 31 1013 62 10000 5.1 180 20:20 06.10.2019
656 Clouds 32 1014 66 10000 4.1 160 19:57 06.10.2019
657 Clouds 31 1014 66 10000 4.1 160 19:37 06.10.2019
658 Clouds 32 1014 66 10000 4.1 160 19:19 06.10.2019
659 Clouds 32 1014 66 10000 4.1 160 19:19 06.10.2019
660 Clouds 31 1014 66 10000 3.88 157.217 18:56 06.10.2019
661 Clouds 31 1014 66 10000 3.88 157.217 18:38 06.10.2019
662 Clouds 31 1014 66 10000 3.88 157.217 18:38 06.10.2019
663 Clouds 31 1014 66 10000 2.3 123.482 18:19 06.10.2019
664 Clouds 31 1015 66 10000 2.3 123.482 17:44 06.10.2019
665 Clouds 31 1015 66 10000 2.3 123.482 17:21 06.10.2019
666 Clouds 30 1014 74 10000 2.3 123.482 16:59 06.10.2019
667 Clouds 30 1014 74 10000 2.3 123.482 16:41 06.10.2019
668 Clouds 30 1014 74 10000 2.3 123.482 16:23 06.10.2019
669 Clouds 27 1014 83 10000 2.3 123.482 15:45 06.10.2019
670 Clouds 28 1014 83 10000 1.46 333.294 15:23 06.10.2019
671 Clouds 26 1013 94 10000 1.46 333.294 14:59 06.10.2019
672 Clouds 26 1013 94 10000 1.46 333.294 14:40 06.10.2019
673 Clouds 24 1013 94 10000 1.46 333.294 14:22 06.10.2019
674 Clouds 25 1012 100 10000 2.1 70 13:55 06.10.2019
675 Clouds 25 1012 100 10000 2.1 70 13:37 06.10.2019
676 Clouds 25 1012 100 10000 2.1 70 13:19 06.10.2019
677 Clouds 25 1012 94 10000 1 0 12:55 06.10.2019
678 Clouds 25 1012 94 10000 1 0 12:37 06.10.2019
679 Clouds 25 1012 94 10000 1 0 12:19 06.10.2019
680 Clouds 25 1011 94 10000 2.1 60 11:43 06.10.2019
681 Clouds 25 1011 94 10000 2.1 60 11:24 06.10.2019
682 Clouds 25 1011 94 10000 1 0 10:58 06.10.2019
683 Clouds 24 1011 94 10000 1 0 10:39 06.10.2019
684 Clouds 25 1011 94 10000 1 0 10:21 06.10.2019
685 Clouds 25 1011 94 10000 2.1 10 09:41 06.10.2019
686 Clouds 25 1011 94 10000 2.1 10 09:21 06.10.2019
687 Clouds 26 1012 94 10000 2.1 70 08:56 06.10.2019
688 Clouds 26 1012 94 10000 2.1 70 08:38 06.10.2019
689 Clouds 26 1012 94 10000 2.1 70 08:19 06.10.2019
690 Clouds 26 1012 94 10000 2.1 70 07:40 06.10.2019
691 Clouds 25 1013 94 10000 2.1 70 06:59 06.10.2019
692 Clouds 25 1013 94 10000 2.1 60 05:41 06.10.2019
693 Clouds 25 1012 94 10000 2.1 150 04:44 06.10.2019
694 Clouds 25 1012 94 10000 2.1 150 04:44 06.10.2019
695 Clouds 27 1011 88 10000 2.1 160 02:56 06.10.2019
696 Clouds 28 1011 88 10000 2.1 160 02:34 06.10.2019
697 Clouds 28 1013 78 10000 1.38 198.88 01:50 06.10.2019
698 Clouds 28 1013 78 10000 1.33 187.521 01:31 06.10.2019
699 Clouds 28 1013 78 10000 1.33 187.521 01:31 06.10.2019
700 Clouds 29 1012 74 10000 1.33 187.521 00:59 06.10.2019
701 Clouds 29 1012 74 10000 1.33 187.521 00:38 06.10.2019
702 Clouds 29 1012 74 10000 1.33 187.521 00:38 06.10.2019
703 Clouds 29 1012 74 10000 3 172.356 00:19 06.10.2019
704 Clouds 30 1011 74 10000 4.1 180 23:42 05.10.2019
705 Clouds 30 1011 74 10000 4.1 180 23:20 05.10.2019
706 Clouds 30 1011 70 10000 4.1 180 22:55 05.10.2019
707 Clouds 30 1011 70 10000 4.1 180 22:36 05.10.2019
708 Clouds 31 1011 70 10000 4.1 180 22:18 05.10.2019
709 Clouds 32 1012 66 10000 5.1 180 21:42 05.10.2019
710 Clouds 32 1012 66 10000 5.1 180 21:22 05.10.2019
711 Clouds 31 1012 66 10000 5.1 180 20:57 05.10.2019
712 Clouds 32 1012 66 10000 5.1 180 20:39 05.10.2019
713 Clouds 32 1012 66 10000 5.1 180 20:19 05.10.2019
714 Clouds 32 1013 62 10000 5.1 170 19:55 05.10.2019
715 Clouds 32 1013 62 10000 5.1 170 19:36 05.10.2019
716 Clouds 32 1013 62 10000 5.1 170 19:18 05.10.2019
717 Clouds 31 1014 66 10000 5.1 180 18:54 05.10.2019
718 Clouds 31 1014 66 10000 5.1 180 18:36 05.10.2019
719 Clouds 31 1014 66 10000 5.1 180 18:18 05.10.2019
720 Clouds 31 1014 66 10000 5.1 180 18:18 05.10.2019
721 Clouds 30 1014 66 10000 3.1 180 17:40 05.10.2019
722 Clouds 30 1014 66 10000 3.1 180 17:21 05.10.2019
723 Clouds 30 1014 74 10000 1.7 104.167 16:55 05.10.2019
724 Clouds 30 1014 74 10000 1.7 104.167 16:36 05.10.2019
725 Clouds 30 1014 74 10000 1.7 104.167 16:18 05.10.2019
726 Clouds 28 1014 83 10000 1.7 104.167 15:55 05.10.2019
727 Clouds 28 1014 83 10000 1.7 104.167 15:36 05.10.2019
728 Clouds 28 1014 83 10000 1.29 344.25 15:18 05.10.2019
729 Clouds 26 1014 94 10000 1.29 344.25 14:41 05.10.2019
730 Clouds 26 1014 94 10000 1.29 344.25 14:41 05.10.2019
731 Clouds 26 1014 94 10000 1.29 344.25 14:41 05.10.2019
732 Clouds 25 1014 94 10000 1.29 344.25 14:20 05.10.2019
733 Clouds 25 1013 94 10000 2.1 70 13:43 05.10.2019
734 Clouds 25 1013 94 10000 2.1 70 13:24 05.10.2019
735 Clouds 25 1013 94 10000 2.1 50 12:57 05.10.2019
736 Clouds 25 1013 94 10000 2.1 50 12:39 05.10.2019
737 Clouds 25 1013 94 10000 2.1 50 12:39 05.10.2019
738 Clouds 25 1013 94 10000 2.1 50 12:39 05.10.2019
739 Clouds 25 1013 94 10000 2.1 50 12:18 05.10.2019
740 Clouds 25 1013 94 10000 2.1 50 12:18 05.10.2019
741 Clouds 25 1013 94 10000 2.1 50 11:39 05.10.2019
742 Clouds 25 1013 94 10000 2.1 50 11:19 05.10.2019
743 Clouds 25 1013 94 10000 2.1 30 10:45 05.10.2019
744 Clouds 25 1013 94 10000 2.1 30 10:26 05.10.2019
745 Clouds 25 1014 94 10000 2.1 40 09:59 05.10.2019
746 Clouds 25 1014 94 10000 2.1 40 09:39 05.10.2019
747 Clouds 25 1014 94 10000 2.1 40 09:20 05.10.2019
748 Clouds 25 1014 94 10000 2.1 40 08:40 05.10.2019
749 Clouds 25 1014 94 10000 2.1 40 08:20 05.10.2019
750 Clouds 26 1014 88 10000 2.1 50 07:58 05.10.2019
751 Clouds 26 1014 88 10000 2.1 50 07:37 05.10.2019
752 Clouds 26 1014 88 10000 2.1 50 07:19 05.10.2019
753 Clouds 26 1014 88 10000 2.1 60 06:28 05.10.2019
754 Clouds 26 1014 88 10000 2.1 60 05:51 05.10.2019
755 Clouds 27 1014 88 10000 2.1 80 04:21 05.10.2019
756 Clouds 27 1014 88 10000 2.1 70 03:28 05.10.2019
757 Clouds 29 1014 74 10000 0.62 242.026 01:52 05.10.2019
758 Clouds 29 1014 74 10000 1.12 200.005 01:23 05.10.2019
759 Clouds 29 1013 66 10000 2.6 160 00:44 05.10.2019
760 Clouds 29 1013 66 10000 2.6 160 00:25 05.10.2019
761 Clouds 29 1013 66 10000 2.6 160 00:25 05.10.2019
762 Clouds 30 1012 62 10000 5.1 180 23:44 04.10.2019
763 Clouds 30 1012 62 10000 5.1 180 23:26 04.10.2019
764 Clouds 31 1012 59 10000 4.1 180 22:59 04.10.2019
765 Clouds 32 1012 59 10000 4.1 180 22:39 04.10.2019
766 Clouds 32 1012 59 10000 4.1 180 22:20 04.10.2019
767 Clouds 32 1013 59 10000 5.1 180 21:57 04.10.2019
768 Clouds 32 1013 59 10000 5.1 180 21:38 04.10.2019
769 Clouds 32 1013 59 10000 5.1 180 21:19 04.10.2019
770 Clouds 32 1013 59 10000 4.1 180 20:55 04.10.2019
771 Clouds 32 1013 59 10000 4.1 180 20:36 04.10.2019
772 Clouds 32 1013 59 10000 4.1 180 20:18 04.10.2019
773 Clouds 32 1013 62 10000 5.1 180 19:45 04.10.2019
774 Clouds 32 1013 62 10000 5.1 180 19:27 04.10.2019
775 Clouds 32 1014 66 10000 4.1 180 18:58 04.10.2019
776 Clouds 32 1014 66 10000 4.1 180 18:38 04.10.2019
777 Clouds 31 1014 66 10000 4.1 180 18:19 04.10.2019
778 Clouds 31 1014 66 10000 4.1 180 18:19 04.10.2019
779 Clouds 31 1015 66 10000 3.1 160 17:54 04.10.2019
780 Clouds 31 1015 66 10000 3.1 160 17:36 04.10.2019
781 Clouds 31 1015 66 10000 3.1 160 17:18 04.10.2019
782 Clouds 30 1014 79 10000 2.76 140.559 16:41 04.10.2019
783 Clouds 30 1014 79 10000 2.76 140.559 16:19 04.10.2019
784 Clouds 28 1014 83 10000 2.76 140.559 15:58 04.10.2019
785 Clouds 28 1014 83 10000 2.76 140.559 15:40 04.10.2019
786 Clouds 28 1014 83 10000 1.27 3.989 15:21 04.10.2019
787 Clouds 26 1013 94 10000 1.27 3.989 14:59 04.10.2019
788 Clouds 26 1013 94 10000 1.27 3.989 14:41 04.10.2019
789 Clouds 26 1013 94 10000 1.27 3.989 14:21 04.10.2019
790 Clouds 25 1014 100 10000 2.1 40 13:46 04.10.2019
791 Clouds 25 1014 100 10000 2.1 40 13:25 04.10.2019
792 Thunderstorm 25 1014 100 10000 2.1 70 12:59 04.10.2019
793 Thunderstorm 25 1014 100 10000 2.1 70 12:40 04.10.2019
794 Thunderstorm 25 1014 100 10000 2.1 70 12:22 04.10.2019
795 Thunderstorm 25 1013 100 10000 2.1 60 11:43 04.10.2019
796 Thunderstorm 25 1013 100 10000 2.1 60 11:43 04.10.2019
797 Thunderstorm 25 1013 100 10000 2.1 60 11:22 04.10.2019
798 Thunderstorm 26 1014 94 10000 1 0 10:56 04.10.2019
799 Thunderstorm 26 1014 94 10000 1 0 10:37 04.10.2019
800 Thunderstorm 26 1014 94 10000 1 0 10:19 04.10.2019
801 Clouds 26 1014 94 10000 1 0 09:43 04.10.2019
802 Clouds 26 1014 94 10000 1 0 09:25 04.10.2019
803 Clouds 26 1014 94 10000 2.1 50 08:46 04.10.2019
804 Clouds 26 1014 94 10000 2.1 50 08:27 04.10.2019
805 Clouds 26 1014 94 10000 2.1 20 07:48 04.10.2019
806 Clouds 27 1014 94 10000 2.1 20 07:26 04.10.2019
807 Thunderstorm 26 1014 100 8000 1 0 06:59 04.10.2019
808 Thunderstorm 26 1014 100 8000 1 0 06:59 04.10.2019
809 Thunderstorm 26 1014 100 8000 1 0 06:39 04.10.2019
810 Thunderstorm 27 1015 94 3000 5.1 100 06:21 04.10.2019
811 Thunderstorm 27 1015 94 3000 5.1 100 06:21 04.10.2019
812 Clouds 27 1015 88 10000 0.81 241.294 05:21 04.10.2019
813 Clouds 27 1014 88 10000 0.81 241.294 04:39 04.10.2019
814 Clouds 28 1014 83 10000 0.81 241.294 03:28 04.10.2019
815 Clouds 29 1013 83 10000 2.1 150 02:44 04.10.2019
816 Clouds 29 1013 79 10000 1.42 182.74 01:54 04.10.2019
817 Clouds 29 1013 79 10000 1.2 189.925 01:26 04.10.2019
818 Clouds 30 1013 70 10000 3.1 150 00:33 04.10.2019
819 Clouds 31 1013 66 10000 5.1 180 23:40 03.10.2019
820 Clouds 31 1013 66 10000 5.1 180 23:21 03.10.2019
821 Clouds 31 1013 59 10000 5.1 180 22:57 03.10.2019
822 Clouds 32 1013 59 10000 5.1 180 22:39 03.10.2019
823 Clouds 32 1013 59 10000 5.1 180 22:21 03.10.2019
824 Clouds 32 1013 59 10000 5.1 180 22:21 03.10.2019
825 Clouds 32 1013 59 10000 3.1 180 21:58 03.10.2019
826 Clouds 32 1013 59 10000 3.1 180 21:39 03.10.2019
827 Clouds 32 1013 59 10000 3.1 180 21:20 03.10.2019
828 Clouds 32 1013 59 10000 5.1 180 20:58 03.10.2019
829 Clouds 32 1013 59 10000 5.1 180 20:38 03.10.2019
830 Clouds 32 1013 59 10000 5.1 180 20:20 03.10.2019
831 Clouds 32 1014 62 10000 5.1 180 19:56 03.10.2019
832 Clouds 31 1014 62 10000 5.1 180 19:37 03.10.2019
833 Clouds 31 1014 62 10000 5.1 180 19:19 03.10.2019
834 Clouds 31 1014 66 10000 3.1 170 18:56 03.10.2019
835 Clouds 31 1014 66 10000 3.1 170 18:37 03.10.2019
836 Clouds 31 1014 66 10000 3.1 170 18:18 03.10.2019
837 Clouds 31 1015 70 10000 3.1 190 17:42 03.10.2019
838 Clouds 31 1015 70 10000 3.1 190 17:21 03.10.2019
839 Clouds 30 1015 66 10000 3.13 168.837 16:55 03.10.2019
840 Clouds 30 1015 66 10000 3.13 168.837 16:37 03.10.2019
841 Clouds 30 1015 66 10000 3.13 168.837 16:19 03.10.2019
842 Clouds 28 1014 78 10000 3.13 168.837 15:44 03.10.2019
843 Clouds 28 1014 78 10000 0.87 247.314 15:24 03.10.2019
844 Clouds 28 1014 78 10000 0.87 247.314 15:24 03.10.2019
845 Clouds 26 1014 94 10000 0.87 247.314 14:58 03.10.2019
846 Clouds 25 1014 94 10000 0.87 247.314 14:36 03.10.2019
847 Clouds 25 1014 94 10000 0.87 247.314 14:36 03.10.2019
848 Clouds 25 1014 94 10000 0.87 247.314 14:36 03.10.2019
849 Clouds 25 1014 94 10000 0.87 247.314 14:18 03.10.2019
850 Clouds 25 1013 100 10000 1.5 30 13:43 03.10.2019
851 Clouds 24 1013 100 10000 1.5 30 13:24 03.10.2019
852 Clouds 24 1012 100 10000 1.5 40 12:58 03.10.2019
853 Clouds 24 1012 100 10000 1.5 40 12:39 03.10.2019
854 Clouds 24 1012 100 10000 1.5 40 12:39 03.10.2019
855 Clouds 24 1012 100 10000 1.5 40 12:20 03.10.2019
856 Clouds 24 1012 100 10000 1.33 209.398 11:57 03.10.2019
857 Clouds 24 1012 100 10000 1.33 209.398 11:39 03.10.2019
858 Clouds 24 1012 100 10000 1.33 209.398 11:21 03.10.2019
859 Clouds 24 1012 100 10000 1.33 209.398 10:56 03.10.2019
860 Clouds 24 1012 100 10000 1.33 209.398 10:37 03.10.2019
861 Clouds 24 1012 100 10000 1.33 209.398 10:18 03.10.2019
862 Clouds 25 1012 94 10000 1.5 10 09:55 03.10.2019
863 Clouds 25 1012 94 10000 1.5 10 09:37 03.10.2019
864 Clouds 25 1012 94 10000 1.5 10 09:18 03.10.2019
865 Clouds 25 1012 94 10000 2.1 50 08:41 03.10.2019
866 Clouds 25 1012 94 10000 2.1 50 08:41 03.10.2019
867 Clouds 25 1012 94 10000 2.1 50 08:23 03.10.2019
868 Clouds 25 1012 94 10000 1 70 07:41 03.10.2019
869 Clouds 25 1012 94 10000 1 70 07:41 03.10.2019
870 Clouds 25 1012 94 10000 1 70 07:41 03.10.2019
871 Clouds 25 1012 94 10000 1 70 07:20 03.10.2019
872 Clouds 26 1012 94 10000 1 70 06:52 03.10.2019
873 Clouds 26 1012 94 10000 0.71 228.025 06:26 03.10.2019
874 Clouds 26 1012 94 10000 1.67 174.644 05:47 03.10.2019
875 Clouds 26 1012 94 10000 1.67 174.644 05:25 03.10.2019
876 Clouds 26 1012 94 10000 1.67 174.644 04:39 03.10.2019
877 Clouds 26 1012 88 10000 1.5 290 03:26 03.10.2019
878 Clouds 27 1012 88 10000 1.5 290 02:45 03.10.2019
879 Rain 26 1012 88 10000 1.5 290 02:19 03.10.2019
880 Rain 27 1013 94 8000 2.19 140.736 01:37 03.10.2019
881 Rain 27 1012 83 8000 3.1 120 00:51 03.10.2019
882 Rain 27 1012 83 8000 3.1 120 00:28 03.10.2019
883 Clouds 28 1012 78 10000 5.1 160 23:44 02.10.2019
884 Clouds 28 1012 78 10000 5.1 160 23:24 02.10.2019
885 Clouds 28 1011 74 10000 4.1 160 22:47 02.10.2019
886 Clouds 28 1011 74 10000 4.1 160 22:24 02.10.2019
887 Clouds 29 1011 70 10000 4.1 160 21:58 02.10.2019
888 Clouds 29 1011 70 10000 4.1 160 21:39 02.10.2019
889 Clouds 29 1011 70 10000 4.1 160 21:20 02.10.2019
890 Clouds 29 1011 70 10000 2.1 120 20:57 02.10.2019
891 Clouds 29 1011 70 10000 2.1 120 20:39 02.10.2019
892 Clouds 29 1011 70 10000 2.1 120 20:20 02.10.2019
893 Clouds 29 1011 74 10000 3.1 90 19:57 02.10.2019
894 Clouds 29 1011 74 10000 3.1 90 19:39 02.10.2019
895 Clouds 29 1011 74 10000 3.1 90 19:20 02.10.2019
896 Clouds 28 1012 74 10000 3.1 120 18:57 02.10.2019
897 Clouds 28 1012 74 10000 3.1 120 18:38 02.10.2019
898 Rain 27 1012 74 10000 3.1 120 18:19 02.10.2019
899 Rain 27 1012 74 8000 4.1 90 17:56 02.10.2019
900 Rain 27 1012 74 8000 4.1 90 17:36 02.10.2019
901 Rain 27 1012 74 8000 4.1 90 17:18 02.10.2019
902 Clouds 27 1012 83 10000 3.1 30 16:41 02.10.2019
903 Rain 26 1011 94 5000 1.74 141.253 16:21 02.10.2019
904 Mist 27 1011 94 5000 1.74 141.253 15:57 02.10.2019
905 Mist 27 1011 94 5000 1.74 141.253 15:38 02.10.2019
906 Mist 26 1011 94 5000 1.61 326.547 15:19 02.10.2019
907 Mist 25 1011 94 5000 2.1 330 14:55 02.10.2019
908 Mist 25 1011 94 5000 2.1 330 14:37 02.10.2019
909 Mist 25 1011 94 5000 2.1 330 14:37 02.10.2019
910 Mist 25 1011 94 5000 2.1 330 14:18 02.10.2019
911 Clouds 24 1010 100 10000 2.1 90 13:42 02.10.2019
912 Clouds 24 1010 100 10000 2.1 90 13:22 02.10.2019
913 Clouds 24 1010 100 10000 1.59 327.822 12:56 02.10.2019
914 Clouds 24 1010 100 10000 1.59 327.822 12:37 02.10.2019
915 Clouds 24 1010 100 10000 1.59 327.822 12:37 02.10.2019
916 Clouds 25 1010 100 10000 1.35 255.028 12:18 02.10.2019
917 Thunderstorm 25 1010 100 10000 1.35 255.028 11:42 02.10.2019
918 Thunderstorm 25 1010 100 10000 1.35 255.028 11:21 02.10.2019
919 Thunderstorm 25 1009 100 10000 1.35 255.028 10:41 02.10.2019
920 Thunderstorm 25 1009 100 10000 1.35 255.028 10:19 02.10.2019
921 Thunderstorm 25 1010 100 10000 2.1 70 09:42 02.10.2019
922 Thunderstorm 26 1010 100 10000 2.1 70 09:21 02.10.2019
923 Clouds 26 1010 94 10000 2.1 70 08:59 02.10.2019
924 Clouds 26 1010 94 10000 2.1 70 08:41 02.10.2019
925 Clouds 26 1010 94 10000 2.1 70 08:22 02.10.2019
926 Clouds 26 1011 94 10000 2.1 50 07:55 02.10.2019
927 Clouds 26 1011 94 10000 2.1 50 07:37 02.10.2019
928 Clouds 26 1011 94 10000 2.1 50 07:18 02.10.2019
929 Clouds 26 1011 94 10000 2.1 40 06:28 02.10.2019
930 Clouds 26 1013 94 10000 2.1 60 05:51 02.10.2019
931 Clouds 26 1013 94 10000 2.1 60 05:22 02.10.2019
932 Clouds 26 1010 100 10000 2.1 50 04:18 02.10.2019
933 Clouds 26 1010 94 10000 2.1 150 03:45 02.10.2019
934 Clouds 26 1010 94 10000 3.1 110 02:38 02.10.2019
935 Clouds 26 1010 94 10000 3.1 110 02:20 02.10.2019
936 Rain 26 1010 94 10000 2.12 185.686 00:53 02.10.2019
937 Rain 26 1010 94 10000 2.12 185.686 00:30 02.10.2019
938 Clouds 27 1009 94 10000 3.68 154.917 23:56 01.10.2019
939 Clouds 27 1009 94 10000 3.68 154.917 23:37 01.10.2019
940 Clouds 27 1009 94 10000 3.68 154.917 23:19 01.10.2019
941 Clouds 27 1009 94 10000 2.6 150 22:58 01.10.2019
942 Clouds 27 1009 94 10000 2.6 150 22:37 01.10.2019
943 Clouds 27 1009 94 10000 2.6 150 22:18 01.10.2019
944 Rain 27 1010 83 8000 3.68 154.917 21:43 01.10.2019
945 Rain 27 1010 83 8000 4.28 165.496 21:22 01.10.2019
946 Rain 27 1010 83 8000 4.28 165.496 20:58 01.10.2019
947 Rain 27 1010 83 8000 4.35 174.125 20:39 01.10.2019
948 Rain 27 1010 83 8000 4.35 174.125 20:20 01.10.2019
949 Rain 26 1011 94 8000 4.35 174.125 19:58 01.10.2019
950 Rain 27 1011 94 8000 4.35 174.125 19:39 01.10.2019
951 Rain 27 1011 94 8000 4.35 174.125 19:21 01.10.2019
952 Rain 28 1012 94 7000 4.1 170 18:56 01.10.2019
953 Rain 27 1012 88 8000 4.35 174.125 18:38 01.10.2019
954 Rain 28 1012 88 8000 3.56 177.585 18:19 01.10.2019
955 Thunderstorm 26 1012 79 10000 2.6 150 17:43 01.10.2019
956 Thunderstorm 27 1012 79 10000 2.6 150 17:21 01.10.2019
957 Thunderstorm 26 1012 94 3000 4.1 160 16:59 01.10.2019
958 Thunderstorm 26 1012 94 3000 4.1 160 16:40 01.10.2019
959 Thunderstorm 26 1012 94 3000 4.1 160 16:22 01.10.2019
960 Thunderstorm 26 1011 83 7000 4.1 230 15:48 01.10.2019
961 Thunderstorm 28 1010 94 10000 1.36 243.228 15:24 01.10.2019
962 Clouds 27 1010 100 10000 1.36 243.228 14:58 01.10.2019
963 Clouds 26 1010 100 10000 1.36 243.228 14:38 01.10.2019
964 Clouds 26 1010 100 10000 1.36 243.228 14:19 01.10.2019
965 Clouds 25 1009 94 10000 2.1 60 13:55 01.10.2019
966 Clouds 25 1009 94 10000 2.1 60 13:55 01.10.2019
967 Clouds 25 1009 94 10000 2.1 60 13:37 01.10.2019
968 Clouds 25 1009 94 10000 2.1 60 13:18 01.10.2019
969 Clouds 25 1009 94 10000 3.1 60 12:42 01.10.2019
970 Clouds 25 1009 94 10000 3.1 60 12:21 01.10.2019
971 Clouds 25 1008 94 10000 2.1 50 11:59 01.10.2019
972 Clouds 25 1008 94 10000 2.1 50 11:39 01.10.2019
973 Clouds 25 1008 94 10000 2.1 50 11:19 01.10.2019
974 Clouds 25 1008 94 10000 2.1 40 10:59 01.10.2019
975 Clouds 25 1008 94 10000 2.1 40 10:41 01.10.2019
976 Clouds 25 1008 94 10000 2.1 40 10:23 01.10.2019
977 Clouds 25 1009 100 10000 2.6 50 09:43 01.10.2019
978 Clouds 25 1009 100 10000 2.6 50 09:25 01.10.2019
979 Clouds 26 1009 100 10000 2.1 70 08:43 01.10.2019
980 Clouds 26 1009 100 10000 2.1 70 08:25 01.10.2019
981 Clouds 26 1010 100 10000 2.1 80 07:49 01.10.2019
982 Clouds 26 1010 100 10000 2.1 80 07:26 01.10.2019
983 Clouds 26 1010 94 10000 2.1 80 06:50 01.10.2019
984 Clouds 26 1010 94 10000 2.1 80 06:23 01.10.2019
985 Clouds 25 1010 94 10000 2.1 70 05:46 01.10.2019
986 Clouds 26 1010 94 10000 2.1 70 05:19 01.10.2019
987 Clouds 26 1010 94 10000 2.1 60 04:34 01.10.2019
988 Rain 27 1009 94 10000 1.58 230.199 02:30 01.10.2019
989 Rain 27 1010 83 8000 1.58 230.199 01:59 01.10.2019
990 Rain 27 1010 83 8000 2.11 210.922 01:25 01.10.2019
991 Clouds 27 1008 88 10000 1.5 0 00:40 01.10.2019
992 Clouds 27 1008 88 10000 1.5 0 00:40 01.10.2019
993 Clouds 27 1008 88 10000 1.5 0 00:22 01.10.2019
994 Clouds 28 1009 83 10000 2.6 120 23:41 30.09.2019
995 Clouds 28 1009 83 10000 2.6 120 23:41 30.09.2019
996 Clouds 28 1009 83 10000 2.6 120 23:21 30.09.2019
997 Clouds 28 1009 78 10000 3.58 186.772 22:45 30.09.2019
998 Clouds 28 1009 78 10000 3.58 186.772 22:26 30.09.2019
999 Clouds 28 1010 78 10000 2.6 160 21:58 30.09.2019
1000 Rain 28 1010 78 10000 2.6 160 21:39 30.09.2019
1001 Rain 28 1010 78 10000 2.6 160 21:20 30.09.2019
1002 Rain 28 1010 78 10000 2.6 160 21:20 30.09.2019
1003 Rain 29 1010 83 8000 5.1 180 20:58 30.09.2019
1004 Thunderstorm 28 1010 83 8000 5.1 180 20:39 30.09.2019
1005 Thunderstorm 28 1010 83 8000 5.1 180 20:39 30.09.2019
1006 Rain 28 1010 83 8000 5.1 180 20:20 30.09.2019
1007 Thunderstorm 30 1010 79 10000 6.2 180 19:57 30.09.2019
1008 Thunderstorm 30 1010 79 10000 6.2 180 19:39 30.09.2019
1009 Rain 29 1010 79 10000 6.2 180 19:19 30.09.2019
1010 Rain 31 1011 74 8000 6.2 180 18:57 30.09.2019
1011 Rain 31 1011 74 8000 6.2 180 18:39 30.09.2019
1012 Rain 31 1011 74 8000 6.2 180 18:20 30.09.2019
1013 Rain 31 1011 74 8000 6.2 180 18:20 30.09.2019
1014 Rain 31 1013 70 10000 3.1 100 17:43 30.09.2019
1015 Rain 31 1013 70 10000 3.1 100 17:23 30.09.2019
1016 Clouds 30 1012 74 10000 2.6 90 16:58 30.09.2019
1017 Clouds 30 1012 74 10000 2.6 90 16:40 30.09.2019
1018 Clouds 29 1012 74 10000 2.6 90 16:19 30.09.2019
1019 Clouds 28 1011 83 10000 3.37 171.255 15:58 30.09.2019
1020 Clouds 28 1011 83 10000 3.37 171.255 15:38 30.09.2019
1021 Clouds 27 1011 83 10000 0.73 292.338 15:19 30.09.2019
1022 Clouds 26 1011 78 10000 2.1 60 14:57 30.09.2019
1023 Clouds 26 1011 78 10000 2.1 60 14:37 30.09.2019
1024 Clouds 26 1011 78 10000 2.1 60 14:19 30.09.2019
1025 Clouds 25 1010 100 10000 2.1 40 13:57 30.09.2019
1026 Clouds 24 1010 100 10000 2.1 40 13:38 30.09.2019
1027 Clouds 24 1010 100 10000 2.1 40 13:38 30.09.2019
1028 Clouds 24 1010 100 10000 2.1 40 13:20 30.09.2019
1029 Thunderstorm 24 1010 100 8000 0.42 281.526 12:43 30.09.2019
1030 Rain 24 1010 100 8000 0.9 293.666 12:22 30.09.2019
1031 Rain 24 1010 100 8000 0.9 293.666 11:57 30.09.2019
1032 Rain 24 1010 100 8000 0.9 293.666 11:38 30.09.2019
1033 Rain 24 1010 100 8000 0.9 293.666 11:19 30.09.2019
1034 Rain 25 1010 90 0 1.34 271 10:41 30.09.2019
1035 Thunderstorm 25 1010 100 8000 0.9 293.666 10:20 30.09.2019
1036 Thunderstorm 25 1010 100 8000 0.9 293.666 09:59 30.09.2019
1037 Rain 24 1010 100 8000 0.9 293.666 09:40 30.09.2019
1038 Rain 24 1010 100 8000 0.9 293.666 09:40 30.09.2019
1039 Rain 25 1010 100 8000 0.83 214.551 09:21 30.09.2019
1040 Rain 25 1012 94 8000 2.1 120 08:51 30.09.2019
1041 Rain 25 1012 94 8000 2.1 120 08:33 30.09.2019
1042 Thunderstorm 24 1012 94 8000 2.1 200 07:46 30.09.2019
1043 Rain 25 1012 94 8000 2.1 200 07:28 30.09.2019
1044 Rain 25 1012 100 10000 2.1 80 06:59 30.09.2019
1045 Rain 26 1012 100 10000 2.1 80 06:34 30.09.2019
1046 Clouds 26 1012 100 10000 2.1 60 05:49 30.09.2019
1047 Clouds 27 1012 100 10000 2.1 60 05:25 30.09.2019
1048 Clouds 27 1010 94 10000 2.1 60 02:49 30.09.2019
1049 Rain 27 1011 88 8000 0.27 238.999 01:39 30.09.2019
1050 Clouds 28 1010 83 10000 1.49 272.585 00:44 30.09.2019
1051 Clouds 28 1010 83 10000 1.49 272.585 00:24 30.09.2019
1052 Clouds 28 1010 83 10000 3.26 150.814 23:57 29.09.2019
1053 Clouds 28 1010 83 10000 3.26 150.814 23:39 29.09.2019
1054 Clouds 29 1010 83 10000 3.26 150.814 23:19 29.09.2019
1055 Rain 29 1011 78 10000 2.1 110 22:43 29.09.2019
1056 Rain 29 1011 78 10000 2.1 110 22:23 29.09.2019
1057 Thunderstorm 29 1011 79 10000 3.1 130 21:58 29.09.2019
1058 Thunderstorm 28 1011 79 10000 3.1 130 21:38 29.09.2019
1059 Thunderstorm 28 1011 79 10000 3.1 130 21:19 29.09.2019
1060 Thunderstorm 28 1011 79 10000 3.1 130 21:19 29.09.2019
1061 Thunderstorm 29 1012 79 10000 4.1 180 20:55 29.09.2019
1062 -273 0 0 0 0 0 20:55 29.09.2019
1063 Thunderstorm 29 1012 79 10000 4.1 180 20:55 29.09.2019
1064 Thunderstorm 29 1012 79 10000 4.1 180 20:55 29.09.2019
1065 Thunderstorm 29 1012 79 10000 4.1 180 20:37 29.09.2019
1066 Thunderstorm 29 1012 79 10000 4.1 180 20:19 29.09.2019
1067 Thunderstorm 30 1012 74 10000 3.1 70 19:39 29.09.2019
1068 Thunderstorm 30 1012 74 10000 3.1 70 19:19 29.09.2019
1069 Clouds 30 1013 74 10000 2.53 200.453 18:57 29.09.2019
1070 Clouds 30 1013 74 10000 2.53 200.453 18:57 29.09.2019
1071 Clouds 30 1013 74 10000 2.53 200.453 18:57 29.09.2019
1072 Clouds 30 1013 74 10000 2.53 200.453 18:38 29.09.2019
1073 Clouds 30 1013 74 10000 1.76 157.403 18:20 29.09.2019
1074 Clouds 30 1014 70 10000 1.76 157.403 17:59 29.09.2019
1075 Clouds 31 1014 70 10000 1.76 157.403 17:41 29.09.2019
1076 Clouds 31 1014 70 10000 1.76 157.403 17:20 29.09.2019
1077 Clouds 30 1014 74 10000 2.1 40 16:59 29.09.2019
1078 Clouds 30 1014 74 10000 2.1 40 16:59 29.09.2019
1079 Clouds 30 1014 74 10000 2.1 40 16:41 29.09.2019
1080 Clouds 30 1014 74 10000 2.1 40 16:19 29.09.2019
1081 Clouds 30 1014 74 10000 2.1 40 16:19 29.09.2019
1082 Clouds 29 1013 78 10000 1.76 157.403 15:57 29.09.2019
1083 Clouds 29 1013 78 10000 1.76 157.403 15:37 29.09.2019
1084 Clouds 29 1013 78 10000 1.51 328.919 15:18 29.09.2019
1085 Clouds 27 1013 94 10000 1.51 328.919 14:56 29.09.2019
1086 Clouds 27 1013 94 10000 1.51 328.919 14:37 29.09.2019
1087 Clouds 26 1013 94 10000 1.51 328.919 14:18 29.09.2019
1088 Clouds 26 1012 94 10000 2.1 20 13:55 29.09.2019
1089 Clouds 26 1012 94 10000 2.1 20 13:55 29.09.2019
1090 Clouds 26 1012 94 10000 2.1 20 13:36 29.09.2019
1091 Clouds 26 1012 94 10000 2.1 20 13:18 29.09.2019
1092 Clouds 27 1012 79 0 0.89 354 12:55 29.09.2019
1093 Clouds 27 1012 79 0 0.89 354 12:55 29.09.2019
1094 Clouds 26 1012 80 0 0.89 30 12:37 29.09.2019
1095 Clouds 26 1012 88 0 1.34 343.954 12:18 29.09.2019
1096 Clouds 26 1012 89 0 0.45 42 11:40 29.09.2019
1097 Clouds 26 1012 89 0 0.45 23 11:19 29.09.2019
1098 Clouds 26 1012 89 0 0.89 35 10:58 29.09.2019
1099 Clouds 26 1012 89 0 0.45 38 10:38 29.09.2019
1100 Clouds 26 1012 89 0 1.34 1 10:19 29.09.2019
1101 Clouds 26 1012 89 0 0.45 50 09:56 29.09.2019
1102 Clouds 26 1012 89 0 0.89 342 09:38 29.09.2019
1103 Clouds 25 1012 94 10000 2.1 20 09:18 29.09.2019
1104 Clouds 25 1012 94 10000 2.1 20 09:18 29.09.2019
1105 Clouds 25 1012 94 10000 2.1 20 08:42 29.09.2019
1106 Clouds 25 1012 94 10000 2.1 20 08:21 29.09.2019
1107 Clouds 25 1013 94 10000 2.23 331.422 07:43 29.09.2019
1108 Clouds 25 1013 94 10000 2.23 331.422 07:25 29.09.2019
1109 Thunderstorm 25 1013 94 10000 2.1 40 06:46 29.09.2019
1110 Thunderstorm 25 1013 94 10000 2.1 30 05:47 29.09.2019
1111 Thunderstorm 25 1014 94 10000 1.61 311.139 04:41 29.09.2019
1112 Thunderstorm 25 1014 94 10000 1.61 311.139 04:23 29.09.2019
1113 Thunderstorm 25 1013 94 7000 4.1 250 02:51 29.09.2019
1114 Rain 25 1013 94 7000 4.1 250 02:19 29.09.2019
1115 Rain 26 1014 88 0 3.1 300 01:38 29.09.2019
1116 Thunderstorm 30 1013 66 0 2.6 300 00:53 29.09.2019
1117 Thunderstorm 30 1013 66 0 2.6 300 00:53 29.09.2019
1118 Thunderstorm 30 1013 66 0 2.6 300 00:21 29.09.2019
1119 Clouds 31 1012 59 10000 4.1 180 23:55 28.09.2019
1120 Clouds 32 1012 59 10000 4.1 180 23:36 28.09.2019
1121 Clouds 32 1012 59 10000 4.1 180 23:18 28.09.2019
1122 Clouds 32 1012 56 10000 3.1 180 22:39 28.09.2019
1123 Clouds 32 1012 56 10000 3.1 180 22:21 28.09.2019
1124 Clouds 32 1012 63 10000 3.6 180 21:57 28.09.2019
1125 Clouds 32 1012 63 10000 3.6 180 21:39 28.09.2019
1126 Clouds 32 1012 63 10000 3.6 180 21:39 28.09.2019
1127 Clouds 32 1012 63 10000 3.6 180 21:20 28.09.2019
1128 Clouds 33 1013 59 10000 3.6 210 20:57 28.09.2019
1129 Clouds 33 1013 59 10000 3.6 210 20:38 28.09.2019
1130 Clouds 33 1013 59 10000 3.6 210 20:18 28.09.2019
1131 Clouds 33 1013 59 10000 3.6 210 20:18 28.09.2019
1132 Clouds 32 1014 66 10000 3.1 190 19:56 28.09.2019
1133 Clouds 32 1014 66 10000 3.1 190 19:56 28.09.2019
1134 Clouds 32 1014 66 10000 3.1 190 19:37 28.09.2019
1135 Clouds 32 1014 66 10000 3.1 190 19:19 28.09.2019
1136 Clouds 32 1015 66 10000 2.6 180 18:43 28.09.2019
1137 Clouds 32 1015 66 10000 2.6 180 18:22 28.09.2019
1138 Clouds 31 1015 74 10000 1.33 136.859 18:00 28.09.2019
1139 Clouds 31 1015 74 10000 1.33 136.859 18:00 28.09.2019
1140 Clouds 31 1015 74 10000 1.33 136.859 17:41 28.09.2019
1141 Clouds 31 1015 74 10000 1.33 136.859 17:22 28.09.2019
1142 Clouds 31 1015 70 10000 1.33 136.859 16:56 28.09.2019
1143 Clouds 31 1015 70 10000 1.33 136.859 16:56 28.09.2019
1144 Clouds 31 1015 70 10000 1.33 136.859 16:37 28.09.2019
1145 Clouds 31 1015 70 10000 1.33 136.859 16:18 28.09.2019
1146 Clouds 29 1015 83 10000 1.33 136.859 15:40 28.09.2019
1147 Clouds 29 1015 83 10000 1.18 351.294 15:22 28.09.2019
1148 Clouds 27 1014 94 10000 1.18 351.294 14:55 28.09.2019
1149 Clouds 27 1014 94 10000 1.18 351.294 14:37 28.09.2019
1150 Clouds 27 1014 94 10000 1.18 351.294 14:37 28.09.2019
1151 Clouds 27 1014 94 10000 1.18 351.294 14:19 28.09.2019
1152 Mist 26 1014 100 1000 1.18 351.294 13:44 28.09.2019
1153 Mist 26 1014 100 1000 1.21 3.511 13:20 28.09.2019
1154 Clouds 26 1013 88 10000 1.21 3.511 12:58 28.09.2019
1155 Clouds 26 1013 88 10000 1.21 3.511 12:39 28.09.2019
1156 Clouds 26 1013 88 10000 0.81 317.14 12:18 28.09.2019
1157 Clouds 26 1013 88 10000 0.81 317.14 11:41 28.09.2019
1158 Clouds 26 1013 88 10000 0.81 317.14 11:21 28.09.2019
1159 Thunderstorm 26 1013 94 10000 0.81 317.14 10:59 28.09.2019
1160 Thunderstorm 26 1013 94 10000 0.81 317.14 10:39 28.09.2019
1161 Thunderstorm 26 1013 94 10000 0.81 317.14 10:19 28.09.2019
1162 Rain 26 1013 94 10000 0.81 317.14 09:41 28.09.2019
1163 Rain 26 1013 94 10000 0.81 317.14 09:41 28.09.2019
1164 Rain 26 1013 94 10000 1.01 201.717 09:22 28.09.2019
1165 Rain 27 1014 88 10000 2.1 60 08:48 28.09.2019
1166 Thunderstorm 27 1014 88 10000 2.1 60 08:30 28.09.2019
1167 Thunderstorm 27 1014 88 10000 2.1 40 07:59 28.09.2019
1168 Thunderstorm 27 1014 88 10000 2.1 40 07:41 28.09.2019
1169 Thunderstorm 28 1014 88 10000 2.1 40 07:19 28.09.2019
1170 Clouds 26 1015 94 10000 2.1 140 06:45 28.09.2019
1171 Rain 29 1015 78 0 0.45 201 06:25 28.09.2019
1172 Clouds 28 1014 94 10000 2.1 140 05:41 28.09.2019
1173 Clouds 26 1014 94 10000 2.1 140 05:19 28.09.2019
1174 Thunderstorm 27 1015 88 10000 2.1 140 04:36 28.09.2019
1175 Thunderstorm 29 1014 88 10000 2.1 150 03:45 28.09.2019
1176 Thunderstorm 29 1014 88 10000 2.1 150 03:20 28.09.2019
1177 Thunderstorm 29 1014 88 10000 2.1 150 02:42 28.09.2019
1178 Thunderstorm 29 1014 88 10000 2.1 150 02:23 28.09.2019
1179 Clouds 29 1013 78 10000 2.58 173.404 01:45 28.09.2019
1180 Clouds 29 1013 78 10000 2.57 164.22 01:24 28.09.2019
1181 Clouds 30 1013 70 10000 5.1 180 00:49 28.09.2019
1182 Clouds 30 1013 70 10000 5.1 180 00:49 28.09.2019
1183 Clouds 30 1013 70 10000 5.1 180 00:30 28.09.2019
1184 Clouds 31 1012 66 10000 5.1 180 23:41 27.09.2019
1185 Clouds 31 1012 66 10000 5.1 180 23:41 27.09.2019
1186 Clouds 31 1012 66 10000 5.1 180 23:22 27.09.2019
1187 Clouds 32 1012 59 10000 6.2 180 22:58 27.09.2019
1188 Clouds 32 1012 59 10000 6.2 180 22:40 27.09.2019
1189 Clouds 32 1012 59 10000 6.2 180 22:18 27.09.2019
1190 -273 0 0 0 0 0 21:54 27.09.2019
1191 Clouds 33 1012 59 10000 5.1 180 21:36 27.09.2019
1192 Clouds 33 1012 59 10000 5.1 180 21:18 27.09.2019
1193 Clouds 33 1012 59 10000 5.1 180 21:18 27.09.2019
1194 Clouds 33 1013 59 10000 6.2 180 20:41 27.09.2019
1195 Clouds 33 1013 59 10000 6.2 180 20:20 27.09.2019
1196 Clouds 32 1013 63 10000 6.2 180 19:59 27.09.2019
1197 Clouds 32 1013 63 10000 6.2 180 19:39 27.09.2019
1198 Clouds 32 1013 63 10000 6.2 180 19:21 27.09.2019
1199 Clouds 32 1014 62 10000 7.7 180 18:44 27.09.2019
1200 Clouds 32 1014 62 10000 7.7 180 18:25 27.09.2019
1201 Clouds 31 1015 70 10000 5.1 180 17:58 27.09.2019
1202 Clouds 31 1015 70 10000 5.1 180 17:40 27.09.2019
1203 Clouds 31 1015 70 10000 5.1 180 17:40 27.09.2019
1204 Clouds 31 1015 70 10000 5.1 180 17:40 27.09.2019
1205 Clouds 31 1015 70 10000 5.1 180 17:20 27.09.2019
1206 Clouds 31 1015 74 10000 4.1 180 16:59 27.09.2019
1207 Clouds 30 1015 74 10000 4.1 180 16:41 27.09.2019
1208 Clouds 30 1015 74 10000 4.1 180 16:19 27.09.2019
1209 Clouds 29 1014 83 10000 2.1 180 15:55 27.09.2019
1210 Clouds 29 1014 83 10000 2.1 180 15:37 27.09.2019
1211 Clouds 29 1014 83 10000 2.1 180 15:19 27.09.2019
1212 Rain 28 1014 88 10000 2.31 215.751 14:55 27.09.2019
1213 Rain 28 1014 88 10000 2.31 215.751 14:37 27.09.2019
1214 Rain 27 1014 88 10000 2.31 215.751 14:18 27.09.2019
1215 Clouds 28 1013 94 10000 1.5 220 13:41 27.09.2019
1216 Clouds 28 1013 94 10000 1.5 220 13:21 27.09.2019
1217 Clouds 27 1012 94 10000 1.5 0 12:57 27.09.2019
1218 Clouds 27 1012 94 10000 1.5 0 12:38 27.09.2019
1219 Clouds 27 1012 94 10000 1.5 0 12:19 27.09.2019
1220 Clouds 27 1012 94 10000 1.5 220 11:39 27.09.2019
1221 Clouds 27 1012 94 10000 1.5 220 11:21 27.09.2019
1222 Clouds 28 1012 88 10000 2.1 220 10:57 27.09.2019
1223 Clouds 28 1012 88 10000 2.1 220 10:38 27.09.2019
1224 Clouds 28 1012 88 10000 2.1 220 10:38 27.09.2019
1225 Clouds 28 1012 88 10000 2.1 220 10:20 27.09.2019
1226 Clouds 27 1012 83 10000 2.1 220 09:42 27.09.2019
1227 Clouds 28 1012 83 10000 2.1 220 09:21 27.09.2019
1228 Clouds 28 1012 83 10000 3.1 200 08:57 27.09.2019
1229 Clouds 28 1012 83 10000 3.1 200 08:37 27.09.2019
1230 Clouds 28 1012 83 10000 3.1 200 08:19 27.09.2019
1231 Clouds 28 1012 83 10000 3.1 200 08:19 27.09.2019
1232 Clouds 28 1013 83 10000 2.6 200 07:45 27.09.2019
1233 Clouds 28 1013 83 10000 2.6 200 07:22 27.09.2019
1234 Clouds 28 1013 83 10000 2.6 190 06:42 27.09.2019
1235 Clouds 29 1013 83 10000 2.6 190 06:23 27.09.2019
1236 Clouds 29 1013 83 10000 2.6 180 05:49 27.09.2019
1237 Clouds 29 1013 83 10000 2.6 180 05:31 27.09.2019
1238 Thunderstorm 29 1013 83 10000 2.1 200 03:54 27.09.2019
1239 Clouds 29 1011 83 10000 4.1 180 01:59 27.09.2019
1240 Clouds 29 1011 83 10000 4.1 180 01:36 27.09.2019
1241 Clouds 29 1010 74 10000 5.1 180 00:55 27.09.2019
1242 Clouds 29 1010 74 10000 5.1 180 00:55 27.09.2019
1243 Clouds 30 1010 74 10000 5.1 180 00:19 27.09.2019
1244 Clouds 31 1010 66 10000 5.7 180 23:55 26.09.2019
1245 Clouds 31 1010 66 10000 5.7 180 23:37 26.09.2019
1246 Clouds 31 1010 66 10000 5.7 180 23:18 26.09.2019
1247 Clouds 31 1010 66 10000 5.7 180 23:18 26.09.2019
1248 Clouds 31 1010 62 10000 5.1 180 22:55 26.09.2019
1249 Clouds 31 1010 62 10000 5.1 180 22:36 26.09.2019
1250 Clouds 31 1010 62 10000 5.1 180 22:18 26.09.2019
1251 Clouds 31 1010 62 10000 5.7 180 21:54 26.09.2019
1252 Clouds 32 1010 62 10000 5.7 180 21:36 26.09.2019
1253 Clouds 31 1010 62 10000 5.7 180 21:18 26.09.2019
1254 Clouds 32 1010 59 10000 6.2 180 20:55 26.09.2019
1255 Clouds 32 1010 59 10000 6.2 180 20:37 26.09.2019
1256 Clouds 32 1010 59 10000 6.2 180 20:19 26.09.2019
1257 Clouds 31 1011 59 10000 6.2 180 19:40 26.09.2019
1258 Clouds 31 1011 59 10000 6.2 180 19:18 26.09.2019
1259 Rain 31 1012 79 5000 5.1 220 18:58 26.09.2019
1260 Rain 31 1011 66 10000 6.2 180 18:38 26.09.2019
1261 Rain 31 1011 66 10000 6.2 180 18:20 26.09.2019
1262 Clouds 31 1012 66 10000 5.1 170 17:39 26.09.2019
1263 Clouds 31 1012 66 10000 5.1 170 17:19 26.09.2019
1264 Clouds 31 1012 74 10000 5.53 197.599 16:59 26.09.2019
1265 Clouds 31 1012 74 10000 5.53 197.599 16:39 26.09.2019
1266 Clouds 31 1012 74 10000 5.53 197.599 16:20 26.09.2019
1267 Clouds 30 1012 78 10000 5.53 197.599 15:57 26.09.2019
1268 Clouds 30 1012 78 10000 5.53 197.599 15:37 26.09.2019
1269 Clouds 29 1012 78 10000 0.94 278.096 15:18 26.09.2019
1270 Clouds 27 1011 94 10000 0.94 278.096 14:41 26.09.2019
1271 Rain 27 1011 94 10000 0.94 278.096 14:23 26.09.2019
1272 Rain 27 1011 88 10000 2.1 180 13:58 26.09.2019
1273 Rain 27 1011 88 10000 2.1 180 13:58 26.09.2019
1274 Rain 27 1011 88 10000 2.1 180 13:58 26.09.2019
1275 Rain 27 1011 88 10000 2.1 180 13:40 26.09.2019
1276 Rain 26 1011 88 10000 2.1 180 13:19 26.09.2019
1277 Thunderstorm 26 1010 94 7000 5.1 230 12:56 26.09.2019
1278 Thunderstorm 26 1010 94 7000 5.1 230 12:38 26.09.2019
1279 Thunderstorm 27 1010 94 7000 5.1 230 12:19 26.09.2019
1280 Clouds 28 1010 83 10000 5.1 230 11:42 26.09.2019
1281 Clouds 28 1010 83 10000 5.1 230 11:21 26.09.2019
1282 Clouds 28 1009 83 10000 4.1 200 10:55 26.09.2019
1283 Clouds 28 1009 83 10000 4.1 200 10:55 26.09.2019
1284 Clouds 28 1009 83 10000 4.1 200 10:37 26.09.2019
1285 Clouds 28 1009 83 10000 4.1 200 10:19 26.09.2019
1286 Clouds 29 1009 79 10000 4.1 210 09:41 26.09.2019
1287 Clouds 29 1009 79 10000 4.1 210 09:23 26.09.2019
1288 Clouds 29 1009 79 10000 3.1 220 08:54 26.09.2019
1289 Clouds 29 1009 79 10000 3.1 220 08:32 26.09.2019
1290 Clouds 29 1010 79 10000 3.6 220 07:59 26.09.2019
1291 Clouds 29 1010 79 10000 3.6 220 07:41 26.09.2019
1292 Clouds 29 1010 79 10000 3.6 220 07:20 26.09.2019
1293 Clouds 29 1010 79 10000 4.6 230 06:43 26.09.2019
1294 Clouds 29 1010 79 10000 4.6 230 06:24 26.09.2019
1295 Clouds 29 1011 79 10000 4.1 230 05:40 26.09.2019
1296 Clouds 29 1011 79 10000 4.1 230 05:21 26.09.2019
1297 Clouds 29 1010 83 10000 4.6 230 02:41 26.09.2019
1298 Clouds 29 1010 74 10000 3.23 208.476 01:49 26.09.2019
1299 Clouds 29 1010 74 10000 3.23 208.476 01:49 26.09.2019
1300 Clouds 29 1010 74 10000 2.07 228.128 01:26 26.09.2019
1301 Clouds 30 1009 74 0 5.1 230 00:48 26.09.2019
1302 Clouds 30 1009 74 0 5.1 230 00:28 26.09.2019
1303 Clouds 31 1009 66 10000 6.2 180 23:45 25.09.2019
1304 Clouds 31 1009 66 10000 6.2 180 23:27 25.09.2019
1305 Clouds 31 1009 59 10000 5.1 180 22:56 25.09.2019
1306 Clouds 31 1009 59 10000 5.1 180 22:56 25.09.2019
1307 Clouds 31 1009 59 10000 5.1 180 22:56 25.09.2019
1308 Clouds 32 1009 59 10000 5.1 180 22:38 25.09.2019
1309 Clouds 31 1009 59 10000 5.1 180 22:19 25.09.2019
1310 Clouds 32 1010 59 10000 6.2 180 21:56 25.09.2019
1311 Clouds 32 1010 59 10000 6.2 180 21:37 25.09.2019
1312 Clouds 32 1010 59 10000 6.2 180 21:18 25.09.2019
1313 Clouds 32 1010 59 10000 5.1 180 20:56 25.09.2019
1314 Clouds 32 1010 59 10000 5.1 180 20:37 25.09.2019
1315 Clouds 32 1010 59 10000 5.1 180 20:19 25.09.2019
1316 -273 0 0 0 0 0 19:41 25.09.2019
1317 Clouds 32 1011 62 10000 5.1 180 19:21 25.09.2019
1318 Clouds 32 1011 62 10000 5.1 180 18:57 25.09.2019
1319 Clouds 31 1011 62 10000 5.1 180 18:38 25.09.2019
1320 Clouds 31 1011 62 10000 5.1 180 18:20 25.09.2019
1321 Clouds 31 1012 62 10000 5.1 180 17:55 25.09.2019
1322 Clouds 31 1012 62 10000 5.1 180 17:36 25.09.2019
1323 Clouds 31 1012 62 10000 5.1 180 17:18 25.09.2019
1324 Clouds 30 1012 74 10000 3.1 110 16:42 25.09.2019
1325 Clouds 30 1012 74 10000 3.1 110 16:24 25.09.2019
1326 Clouds 29 1012 74 10000 1.5 0 15:57 25.09.2019
1327 Clouds 29 1012 74 10000 1.5 0 15:39 25.09.2019
1328 Clouds 27 1012 74 10000 1.5 0 15:20 25.09.2019
1329 Clouds 27 1012 74 10000 1.5 0 15:20 25.09.2019
1330 Clouds 27 1011 94 10000 1.03 346.166 14:43 25.09.2019
1331 Clouds 26 1011 94 10000 1.03 346.166 14:25 25.09.2019
1332 Clouds 26 1010 94 10000 1.03 346.166 13:58 25.09.2019
1333 Clouds 26 1010 94 10000 1.03 346.166 13:40 25.09.2019
1334 Clouds 25 1010 94 10000 1.19 338.859 13:20 25.09.2019
1335 Clouds 25 1010 94 10000 1.19 338.859 12:57 25.09.2019
1336 Clouds 25 1010 94 10000 1.19 338.859 12:37 25.09.2019
1337 Clouds 25 1010 94 10000 2.23 337.751 12:19 25.09.2019
1338 Clouds 25 1010 94 10000 2.1 30 11:41 25.09.2019
1339 Clouds 25 1010 94 10000 2.1 30 11:20 25.09.2019
1340 Clouds 25 1010 94 10000 2.1 20 10:48 25.09.2019
1341 Clouds 25 1010 94 10000 2.1 20 10:27 25.09.2019
1342 Clouds 25 1010 94 10000 2.1 10 09:59 25.09.2019
1343 Clouds 25 1010 94 10000 2.1 10 09:59 25.09.2019
1344 Clouds 25 1010 94 10000 2.1 10 09:41 25.09.2019
1345 Clouds 25 1010 94 10000 2.1 10 09:23 25.09.2019
1346 Clouds 25 1010 94 10000 2.1 30 08:57 25.09.2019
1347 Clouds 25 1010 94 10000 2.1 30 08:39 25.09.2019
1348 Clouds 25 1010 94 10000 2.1 30 08:19 25.09.2019
1349 Clouds 25 1010 94 10000 2.1 30 07:40 25.09.2019
1350 Clouds 25 1010 94 10000 2.1 30 07:22 25.09.2019
1351 Clouds 25 1010 88 10000 2.1 50 06:55 25.09.2019
1352 Clouds 26 1010 88 10000 2.1 50 06:34 25.09.2019
1353 Clouds 26 1010 88 10000 2.1 360 05:43 25.09.2019
1354 Clouds 26 1010 88 10000 2.1 10 04:58 25.09.2019
1355 Clouds 27 1010 83 10000 3.6 340 02:50 25.09.2019
1356 Thunderstorm 28 1010 83 10000 3.92 216.078 01:29 25.09.2019
1357 Clouds 29 1010 83 10000 3.92 216.078 00:38 25.09.2019
1358 Clouds 29 1010 83 10000 5.08 189.603 00:20 25.09.2019
1359 Thunderstorm 30 1009 74 10000 3.6 330 23:42 24.09.2019
1360 Thunderstorm 30 1009 74 10000 3.6 330 23:22 24.09.2019
1361 Thunderstorm 31 1009 66 10000 7.2 190 22:57 24.09.2019
1362 Thunderstorm 31 1009 66 10000 7.2 190 22:38 24.09.2019
1363 Thunderstorm 32 1009 66 10000 7.2 190 22:18 24.09.2019
1364 Clouds 32 1008 63 10000 5.1 160 21:55 24.09.2019
1365 Clouds 32 1008 63 10000 5.1 160 21:36 24.09.2019
1366 Clouds 32 1008 63 10000 5.1 160 21:18 24.09.2019
1367 Clouds 32 1009 66 10000 3.6 180 20:55 24.09.2019
1368 Clouds 32 1009 66 10000 3.6 180 20:37 24.09.2019
1369 Clouds 32 1009 66 10000 3.6 180 20:18 24.09.2019
1370 Clouds 32 1010 63 10000 5.1 180 19:42 24.09.2019
1371 Clouds 32 1010 63 10000 5.1 180 19:19 24.09.2019
1372 Clouds 32 1010 63 10000 5.1 180 19:19 24.09.2019
1373 Clouds 31 1010 66 10000 5.43 187.18 18:57 24.09.2019
1374 Clouds 31 1010 66 10000 5.43 187.18 18:57 24.09.2019
1375 Clouds 31 1010 66 10000 5.43 187.18 18:39 24.09.2019
1376 Clouds 31 1010 66 10000 5.43 187.18 18:39 24.09.2019
1377 Clouds 31 1010 66 10000 3.14 186.523 18:20 24.09.2019
1378 Clouds 31 1010 66 10000 3.14 186.523 18:20 24.09.2019
1379 Clouds 31 1011 66 10000 3.14 186.523 17:56 24.09.2019
1380 Clouds 31 1011 66 10000 3.14 186.523 17:37 24.09.2019
1381 Clouds 31 1011 66 10000 3.14 186.523 17:19 24.09.2019
1382 Clouds 31 1012 74 10000 3.14 186.523 16:42 24.09.2019
1383 Clouds 31 1012 74 10000 3.14 186.523 16:20 24.09.2019
1384 Clouds 29 1011 79 10000 3.14 186.523 15:58 24.09.2019
1385 Clouds 29 1011 79 10000 3.14 186.523 15:38 24.09.2019
1386 Clouds 29 1011 79 10000 0.98 252.233 15:20 24.09.2019
1387 Clouds 27 1011 94 10000 0.98 252.233 14:39 24.09.2019
1388 Clouds 27 1011 94 10000 0.98 252.233 14:18 24.09.2019
1389 Clouds 26 1010 100 10000 2.1 40 13:45 24.09.2019
1390 Clouds 26 1010 100 10000 2.1 40 13:21 24.09.2019
1391 Clouds 26 1008 94 10000 2.1 30 12:56 24.09.2019
1392 Clouds 26 1008 94 10000 2.1 30 12:36 24.09.2019
1393 Clouds 26 1008 94 10000 2.1 30 12:18 24.09.2019
1394 Clouds 26 1008 94 10000 2.1 30 11:41 24.09.2019
1395 Clouds 26 1008 94 10000 2.1 30 11:21 24.09.2019
1396 Clouds 26 1008 94 10000 2.1 30 10:42 24.09.2019
1397 Clouds 26 1008 94 10000 2.1 30 10:23 24.09.2019
1398 Clouds 26 1008 94 10000 2.1 20 09:59 24.09.2019
1399 Clouds 26 1008 94 10000 2.1 20 09:41 24.09.2019
1400 Clouds 26 1008 94 10000 2.1 20 09:20 24.09.2019
1401 Clouds 26 1009 94 10000 2.1 40 08:57 24.09.2019
1402 Clouds 26 1009 94 10000 2.1 40 08:38 24.09.2019
1403 Clouds 26 1009 94 10000 2.1 40 08:19 24.09.2019
1404 Clouds 26 1010 94 10000 2.1 60 07:46 24.09.2019
1405 Clouds 26 1010 94 10000 2.1 60 07:24 24.09.2019
1406 Clouds 27 1010 88 10000 2.1 60 06:48 24.09.2019
1407 Clouds 27 1010 88 10000 2.1 60 06:30 24.09.2019
1408 Clouds 27 1010 88 10000 2.1 60 05:51 24.09.2019
1409 Clouds 27 1010 88 10000 2.1 60 05:18 24.09.2019
1410 Clouds 28 1010 88 10000 2.1 60 03:43 24.09.2019
1411 Clouds 28 1010 88 10000 0.96 184.239 02:46 24.09.2019
1412 Clouds 28 1010 88 10000 0.96 184.239 01:51 24.09.2019
1413 Clouds 29 1010 79 10000 4.1 180 00:43 24.09.2019
1414 Clouds 29 1010 79 10000 4.1 180 00:23 24.09.2019
1415 Clouds 31 1009 70 10000 5.1 180 23:56 23.09.2019
1416 Clouds 31 1009 70 10000 5.1 180 23:37 23.09.2019
1417 Clouds 31 1009 70 10000 5.1 180 23:19 23.09.2019
1418 Clouds 32 1010 66 10000 5.1 180 22:39 23.09.2019
1419 Clouds 32 1010 66 10000 5.1 180 22:20 23.09.2019
1420 Clouds 32 1010 63 10000 4.1 160 21:57 23.09.2019
1421 Clouds 32 1010 63 10000 4.1 160 21:38 23.09.2019
1422 Clouds 32 1010 63 10000 4.1 160 21:19 23.09.2019
1423 Clouds 32 1010 63 10000 4.1 160 21:19 23.09.2019
1424 Clouds 32 1011 63 10000 4.1 160 20:41 23.09.2019
1425 Clouds 32 1011 63 10000 4.1 160 20:20 23.09.2019
1426 Clouds 31 1011 74 10000 5.1 180 19:58 23.09.2019
1427 Clouds 31 1011 74 10000 5.1 180 19:38 23.09.2019
1428 Clouds 31 1011 74 10000 5.1 180 19:20 23.09.2019
1429 Clouds 31 1011 74 10000 5.1 180 19:20 23.09.2019
1430 Rain 31 1012 74 0 1.79 216 18:43 23.09.2019
1431 Clouds 31 1012 74 10000 3.1 160 18:21 23.09.2019
1432 Clouds 30 1012 74 10000 3.1 160 17:59 23.09.2019
1433 Clouds 30 1012 74 10000 3.1 160 17:39 23.09.2019
1434 Clouds 30 1012 74 10000 3.1 160 17:21 23.09.2019
1435 Clouds 30 1012 74 10000 3.1 160 17:21 23.09.2019
1436 Rain 30 1013 74 10000 2.2 143.61 16:59 23.09.2019
1437 Rain 30 1013 74 10000 2.2 143.61 16:38 23.09.2019
1438 Rain 30 1013 74 10000 2.2 143.61 16:19 23.09.2019
1439 Rain 28 1013 83 10000 2.2 143.61 15:57 23.09.2019
1440 Rain 28 1013 83 10000 2.2 143.61 15:39 23.09.2019
1441 Rain 28 1013 83 10000 0.84 340.507 15:19 23.09.2019
1442 Thunderstorm 27 1013 94 10000 0.84 340.507 14:40 23.09.2019
1443 Thunderstorm 26 1013 94 10000 0.84 340.507 14:21 23.09.2019
1444 Thunderstorm 26 1012 94 10000 0.84 340.507 13:59 23.09.2019
1445 Thunderstorm 26 1012 94 10000 0.84 340.507 13:39 23.09.2019
1446 Thunderstorm 26 1012 94 10000 1.04 337.79 13:19 23.09.2019
1447 Thunderstorm 26 1011 94 10000 1.5 360 12:56 23.09.2019
1448 Thunderstorm 26 1011 94 10000 1.5 360 12:37 23.09.2019
1449 Thunderstorm 26 1011 94 10000 1.5 360 12:19 23.09.2019
1450 Thunderstorm 26 1011 94 10000 1.5 50 11:44 23.09.2019
1451 Thunderstorm 25 1011 94 10000 1.5 50 11:26 23.09.2019
1452 Thunderstorm 26 1011 94 10000 2.1 60 10:55 23.09.2019
1453 Thunderstorm 26 1011 94 10000 2.1 60 10:37 23.09.2019
1454 Thunderstorm 26 1011 94 10000 2.1 60 10:18 23.09.2019
1455 Rain 26 1011 87 0 0.89 32 09:40 23.09.2019
1456 Clouds 26 1012 88 10000 2.1 50 09:21 23.09.2019
1457 Clouds 26 1012 88 10000 2.1 50 08:50 23.09.2019
1458 Clouds 26 1012 88 10000 2.1 50 08:30 23.09.2019
1459 Clouds 26 1013 94 10000 2.1 60 07:59 23.09.2019
1460 Clouds 26 1013 94 10000 2.1 60 07:33 23.09.2019
1461 Clouds 26 1013 94 10000 2.1 30 06:44 23.09.2019
1462 Clouds 26 1013 94 10000 2.1 30 06:18 23.09.2019
1463 Clouds 27 1013 88 10000 2.1 60 05:22 23.09.2019
1464 Clouds 27 1013 88 10000 2.1 120 04:55 23.09.2019
1465 Clouds 28 1012 83 10000 2.1 140 03:54 23.09.2019
1466 Clouds 28 1012 83 10000 3.1 170 01:22 23.09.2019
1467 Clouds 30 1011 79 10000 4.1 170 00:23 23.09.2019
1468 Clouds 31 1011 70 10000 5.1 180 23:57 22.09.2019
1469 Clouds 31 1011 70 10000 5.1 180 23:33 22.09.2019
1470 Clouds 32 1011 66 10000 6.2 180 22:59 22.09.2019
1471 Clouds 32 1011 66 10000 6.2 180 22:41 22.09.2019
1472 Clouds 32 1011 66 10000 6.2 180 22:22 22.09.2019
1473 Clouds 32 1012 59 10000 6.2 180 21:55 22.09.2019
1474 Clouds 32 1012 59 10000 6.2 180 21:55 22.09.2019
1475 Clouds 32 1012 59 10000 6.2 180 21:36 22.09.2019
1476 Clouds 32 1012 59 10000 6.2 180 21:18 22.09.2019
1477 Clouds 32 1013 59 10000 6.2 180 20:42 22.09.2019
1478 Clouds 32 1013 59 10000 6.2 180 20:23 22.09.2019
1479 Clouds 32 1013 66 10000 5.1 180 19:55 22.09.2019
1480 Clouds 32 1013 66 10000 5.1 180 19:55 22.09.2019
1481 Clouds 32 1013 66 10000 5.1 180 19:37 22.09.2019
1482 Clouds 32 1013 66 10000 5.1 180 19:18 22.09.2019
1483 Clouds 31 1014 66 10000 5.1 180 18:42 22.09.2019
1484 Clouds 31 1014 66 10000 5.1 180 18:20 22.09.2019
1485 Clouds 31 1014 70 10000 5.1 180 17:59 22.09.2019
1486 Clouds 31 1014 70 10000 5.1 180 17:41 22.09.2019
1487 Clouds 31 1014 70 10000 5.1 180 17:20 22.09.2019
1488 Clouds 30 1013 79 10000 4.1 170 16:45 22.09.2019
1489 Clouds 30 1013 79 10000 4.1 170 16:27 22.09.2019
1490 Clouds 30 1013 83 10000 3.67 170.517 15:57 22.09.2019
1491 Clouds 29 1013 83 10000 3.67 170.517 15:38 22.09.2019
1492 Clouds 29 1013 83 10000 1.01 257.281 15:19 22.09.2019
1493 Clouds 29 1013 94 10000 2.1 80 14:43 22.09.2019
1494 Clouds 27 1013 94 10000 2.1 80 14:25 22.09.2019
1495 Clouds 27 1012 100 10000 1.01 257.281 13:59 22.09.2019
1496 Clouds 26 1012 100 10000 1.01 257.281 13:40 22.09.2019
1497 Clouds 25 1012 100 10000 1.02 247.246 13:21 22.09.2019
1498 -273 0 0 0 0 0 12:54 22.09.2019
1499 Clouds 26 1012 94 10000 1.02 247.246 12:36 22.09.2019
1500 Clouds 26 1012 94 10000 1.04 254.523 12:18 22.09.2019
1501 Clouds 26 1013 87 0 0.45 325 11:41 22.09.2019
1502 Clouds 26 1012 100 10000 1.04 254.523 11:23 22.09.2019
1503 Clouds 26 1012 100 10000 1.04 254.523 11:23 22.09.2019
1504 Clouds 26 1012 100 10000 1.04 254.523 10:45 22.09.2019
1505 Clouds 27 1012 100 10000 1.04 254.523 10:20 22.09.2019
1506 Clouds 27 1012 94 10000 1.04 254.523 09:59 22.09.2019
1507 Clouds 27 1012 94 10000 1.04 254.523 09:40 22.09.2019
1508 Clouds 27 1012 94 10000 1.59 233.354 09:20 22.09.2019
1509 Clouds 27 1013 94 10000 2.1 160 08:45 22.09.2019
1510 Clouds 27 1013 94 10000 2.1 160 08:25 22.09.2019
1511 Clouds 27 1013 94 10000 2.1 170 07:56 22.09.2019
1512 Clouds 27 1013 94 10000 2.1 170 07:37 22.09.2019
1513 Clouds 27 1013 94 10000 2.1 170 07:18 22.09.2019
1514 Rain 27 1013 94 10000 2.1 170 06:54 22.09.2019
1515 Clouds 28 1013 94 10000 2.1 170 05:30 22.09.2019
1516 Clouds 28 1013 94 10000 2.1 140 03:33 22.09.2019
1517 Clouds 28 1012 88 10000 2.1 150 02:38 22.09.2019
1518 Clouds 28 1012 88 10000 2.1 150 02:38 22.09.2019
1519 Clouds 28 1012 88 10000 2.1 150 02:18 22.09.2019
1520 Clouds 29 1012 74 10000 2.43 182.362 00:59 22.09.2019
1521 Clouds 29 1012 74 10000 2.43 182.362 00:33 22.09.2019
1522 Clouds 30 1011 66 10000 4.1 160 23:59 21.09.2019
1523 Clouds 30 1011 66 10000 4.1 160 23:40 21.09.2019
1524 Clouds 30 1011 66 10000 4.1 160 23:19 21.09.2019
1525 Clouds 31 1011 59 10000 6.2 180 22:39 21.09.2019
1526 Clouds 31 1011 59 10000 6.2 180 22:21 21.09.2019
1527 Clouds 31 1011 62 10000 5.1 180 21:42 21.09.2019
1528 Clouds 32 1011 62 10000 5.1 180 21:20 21.09.2019
1529 Clouds 32 1012 62 10000 5.1 180 20:58 21.09.2019
1530 Clouds 32 1012 62 10000 5.1 180 20:38 21.09.2019
1531 Clouds 32 1012 62 10000 5.1 180 20:19 21.09.2019
1532 Clouds 32 1012 62 10000 5.1 180 20:19 21.09.2019
1533 Clouds 32 1012 62 10000 5.1 180 20:19 21.09.2019
1534 Clouds 32 1012 62 10000 5.1 180 19:47 21.09.2019
1535 Clouds 32 1012 62 10000 5.1 180 19:23 21.09.2019
1536 Clouds 31 1013 66 10000 4.1 180 18:55 21.09.2019
1537 Clouds 31 1013 66 10000 4.1 180 18:36 21.09.2019
1538 Clouds 31 1013 66 10000 4.1 180 18:18 21.09.2019
1539 Clouds 30 1013 66 10000 4.1 180 17:39 21.09.2019
1540 Clouds 30 1013 66 10000 4.1 180 17:19 21.09.2019
1541 Clouds 30 1013 74 10000 2.6 90 16:42 21.09.2019
1542 Clouds 30 1013 74 10000 2.6 90 16:24 21.09.2019
1543 Clouds 28 1012 94 10000 2.76 148.553 15:48 21.09.2019
1544 Clouds 28 1012 94 10000 2.76 148.553 15:25 21.09.2019
1545 Clouds 26 1012 100 10000 1.38 30.107 14:50 21.09.2019
1546 Clouds 26 1012 100 10000 1.38 30.107 14:32 21.09.2019
1547 Clouds 26 1012 94 10000 2.1 30 13:57 21.09.2019
1548 Clouds 25 1012 94 10000 2.1 30 13:39 21.09.2019
1549 Clouds 25 1012 94 10000 2.1 30 13:20 21.09.2019
1550 Clouds 25 1012 100 10000 2.1 40 12:55 21.09.2019
1551 Clouds 25 1012 100 10000 2.1 40 12:37 21.09.2019
1552 Clouds 25 1012 100 10000 2.1 40 12:19 21.09.2019
1553 Clouds 25 1012 100 10000 2.1 40 12:19 21.09.2019
1554 Clouds 25 1012 100 10000 3.1 50 11:43 21.09.2019
1555 Clouds 25 1012 100 10000 3.1 50 11:24 21.09.2019
1556 Clouds 25 1012 100 10000 2.1 50 10:45 21.09.2019
1557 Clouds 25 1012 100 10000 2.1 50 10:27 21.09.2019
1558 Clouds 25 1012 94 10000 2.1 50 09:59 21.09.2019
1559 Rain 26 1012 90 0 1.34 13 09:39 21.09.2019
1560 Clouds 26 1012 94 10000 2.1 50 09:20 21.09.2019
1561 Clouds 25 1012 94 10000 2.1 50 08:52 21.09.2019
1562 Rain 26 1012 90 0 0.89 35 08:28 21.09.2019
1563 Rain 26 1012 90 0 1.34 46 07:42 21.09.2019
1564 Clouds 26 1013 94 10000 2.1 50 07:23 21.09.2019
1565 Clouds 26 1013 94 10000 2.1 50 06:57 21.09.2019
1566 Clouds 26 1013 94 10000 2.1 50 06:32 21.09.2019
1567 Clouds 26 1013 94 10000 2.1 50 05:32 21.09.2019
1568 Clouds 27 1013 94 10000 2.1 110 04:36 21.09.2019
1569 Clouds 27 1012 94 10000 1.86 156.915 02:38 21.09.2019
1570 Clouds 27 1012 94 10000 1.86 156.915 02:20 21.09.2019
1571 Clouds 27 1012 94 10000 1.86 156.915 01:45 21.09.2019
1572 Clouds 28 1012 83 10000 1.86 156.915 00:51 21.09.2019
1573 Clouds 28 1012 83 10000 2.05 173.493 00:20 21.09.2019
1574 Rain 29 1011 79 10000 4.1 150 23:42 20.09.2019
1575 Rain 29 1011 79 10000 4.1 150 23:24 20.09.2019
1576 Thunderstorm 28 1011 74 10000 5.1 180 22:41 20.09.2019
1577 Rain 28 1011 74 10000 5.1 180 22:23 20.09.2019
1578 Rain 28 1012 66 10000 3.6 180 21:57 20.09.2019
1579 Rain 29 1012 66 10000 3.6 180 21:37 20.09.2019
1580 Thunderstorm 29 1012 66 10000 3.6 180 21:19 20.09.2019
1581 Rain 30 1012 70 10000 6.2 180 20:55 20.09.2019
1582 Rain 30 1012 70 10000 6.2 180 20:37 20.09.2019
1583 Rain 30 1012 70 10000 6.2 180 20:18 20.09.2019
1584 Thunderstorm 29 1012 94 8000 3.1 240 19:43 20.09.2019
1585 Rain 29 1012 94 8000 3.1 240 19:21 20.09.2019
1586 Rain 30 1013 83 10000 3.1 210 18:57 20.09.2019
1587 Rain 30 1013 83 10000 3.1 210 18:37 20.09.2019
1588 Rain 30 1013 83 10000 3.1 210 18:18 20.09.2019
1589 Rain 30 1013 83 10000 3.1 210 18:18 20.09.2019
1590 Rain 29 1013 88 10000 1.29 69.246 17:44 20.09.2019
1591 Clouds 29 1013 88 10000 1.29 69.246 17:25 20.09.2019
1592 Rain 28 1013 83 10000 1.29 69.246 16:43 20.09.2019
1593 Rain 27 1013 83 10000 1.29 69.246 16:21 20.09.2019
1594 Rain 27 1012 94 10000 1.29 69.246 15:58 20.09.2019
1595 Rain 27 1012 94 10000 1.29 69.246 15:40 20.09.2019
1596 Rain 26 1012 94 10000 1.85 331.731 15:22 20.09.2019
1597 Rain 25 1012 94 7000 2.6 50 14:43 20.09.2019
1598 Clouds 25 1012 94 10000 1.85 331.731 14:19 20.09.2019
1599 Clouds 25 1012 94 10000 1.85 331.731 14:19 20.09.2019
1600 Rain 24 1012 93 0 1.34 359 13:48 20.09.2019
1601 Clouds 24 1010 100 10000 2.1 50 13:29 20.09.2019
1602 Clouds 24 1010 100 10000 2.1 50 12:58 20.09.2019
1603 Clouds 24 1010 100 10000 2.1 50 12:37 20.09.2019
1604 Clouds 24 1010 100 10000 2.1 50 12:19 20.09.2019
1605 Clouds 24 1009 100 10000 2.1 60 11:50 20.09.2019
1606 Clouds 24 1009 100 10000 2.1 60 11:22 20.09.2019
1607 Clouds 24 1009 100 10000 2.1 60 10:57 20.09.2019
1608 Clouds 24 1009 100 10000 2.1 60 10:39 20.09.2019
1609 Rain 24 1009 100 10000 2.1 60 10:19 20.09.2019
1610 Rain 24 1010 94 8000 2.1 60 09:38 20.09.2019
1611 Rain 24 1010 94 8000 2.1 60 09:18 20.09.2019
1612 Rain 25 1010 94 6000 2.6 50 08:43 20.09.2019
1613 Rain 25 1010 94 6000 2.6 50 08:43 20.09.2019
1614 Rain 25 1010 94 6000 2.6 50 08:25 20.09.2019
1615 Rain 25 1011 100 10000 2.1 120 07:48 20.09.2019
1616 Rain 25 1011 100 10000 2.1 120 07:28 20.09.2019
1617 Rain 25 1011 94 8000 4.1 120 06:48 20.09.2019
1618 Rain 25 1011 94 8000 4.1 120 06:30 20.09.2019
1619 Rain 25 1011 94 8000 4.1 120 06:30 20.09.2019
1620 Rain 24 1011 100 8000 2.1 40 05:57 20.09.2019
1621 Rain 24 1011 100 8000 2.1 70 03:51 20.09.2019
1622 Rain 24 1011 100 8000 2.1 70 03:25 20.09.2019
1623 Rain 24 1009 94 5000 3.1 30 01:45 20.09.2019
1624 Rain 24 1009 94 5000 3.1 30 01:24 20.09.2019
1625 Rain 25 1009 94 5000 4.1 30 00:32 20.09.2019
1626 Rain 24 1008 94 5000 4.1 60 23:46 19.09.2019
1627 Rain 24 1008 94 5000 4.1 60 23:24 19.09.2019
1628 Rain 24 1008 88 6000 4.1 60 22:57 19.09.2019
1629 Rain 24 1008 88 6000 4.1 60 22:38 19.09.2019
1630 Rain 24 1008 88 6000 4.1 60 22:19 19.09.2019
1631 Rain 24 1009 94 6000 3.35 87.571 21:56 19.09.2019
1632 Rain 24 1009 94 6000 3.35 87.571 21:37 19.09.2019
1633 Rain 24 1009 94 6000 3.6 111.943 21:18 19.09.2019
1634 Rain 25 1010 94 6000 5.1 120 20:43 19.09.2019
1635 Rain 25 1010 94 6000 5.1 120 20:23 19.09.2019
1636 Rain 26 1010 79 10000 4.1 160 19:56 19.09.2019
1637 Rain 26 1010 79 10000 4.1 160 19:38 19.09.2019
1638 Rain 26 1010 79 10000 4.1 160 19:19 19.09.2019
1639 Rain 26 1010 79 10000 4.1 160 19:19 19.09.2019
1640 Rain 26 1010 79 10000 4.1 160 18:55 19.09.2019
1641 Rain 27 1010 78 8000 5.1 120 18:36 19.09.2019
1642 Rain 27 1010 100 8000 2.1 100 18:18 19.09.2019
1643 Clouds 27 1011 83 10000 1.55 88.479 17:42 19.09.2019
1644 Clouds 27 1011 83 10000 1.55 88.479 17:23 19.09.2019
1645 Rain 26 1010 83 10000 4.1 120 16:57 19.09.2019
1646 Rain 26 1010 83 10000 4.1 120 16:38 19.09.2019
1647 Rain 26 1010 83 10000 4.1 120 16:18 19.09.2019
1648 Rain 26 1010 83 10000 2.1 90 15:39 19.09.2019
1649 Rain 26 1010 83 10000 2.1 90 15:18 19.09.2019
1650 Clouds 25 1010 94 10000 1.72 349.838 14:42 19.09.2019
1651 Clouds 25 1010 94 10000 1.72 349.838 14:23 19.09.2019
1652 Clouds 25 1008 94 10000 2.1 60 13:59 19.09.2019
1653 Clouds 25 1008 94 10000 2.1 60 13:39 19.09.2019
1654 Clouds 25 1008 94 10000 2.1 60 13:19 19.09.2019
1655 Rain 24 1007 94 8000 2.1 60 12:40 19.09.2019
1656 Rain 24 1007 94 8000 2.1 60 12:19 19.09.2019
1657 Rain 25 1007 94 8000 2.1 70 11:56 19.09.2019
1658 Rain 25 1007 94 8000 2.1 70 11:38 19.09.2019
1659 Rain 25 1007 94 8000 2.1 70 11:19 19.09.2019
1660 Clouds 24 1007 100 10000 2.1 150 10:41 19.09.2019
1661 Clouds 24 1007 100 10000 2.1 150 10:22 19.09.2019
1662 Clouds 25 1008 100 10000 2.1 150 09:58 19.09.2019
1663 Clouds 25 1008 100 10000 2.1 150 09:40 19.09.2019
1664 Clouds 25 1008 100 10000 2.1 150 09:20 19.09.2019
1665 Clouds 25 1009 100 0 1.64 356.962 08:52 19.09.2019
1666 Clouds 25 1009 100 0 1.88 108.329 08:27 19.09.2019
1667 Clouds 25 1010 100 0 2.1 40 07:55 19.09.2019
1668 Clouds 25 1010 100 0 2.1 40 07:55 19.09.2019
1669 Clouds 25 1010 100 0 2.1 40 07:36 19.09.2019
1670 Clouds 25 1010 100 0 2.1 40 07:18 19.09.2019
1671 Clouds 25 1010 100 10000 2.1 20 06:42 19.09.2019
1672 Clouds 25 1010 100 10000 2.1 20 06:24 19.09.2019
1673 Clouds 25 1010 100 0 2.1 40 05:50 19.09.2019
1674 Rain 25 1010 100 8000 2.1 20 04:24 19.09.2019
1675 Rain 25 1010 100 0 2.1 20 03:21 19.09.2019
1676 Rain 25 1009 94 8000 0.78 34.342 01:45 19.09.2019
1677 Rain 25 1009 94 8000 1.24 84.078 01:20 19.09.2019
1678 Rain 26 1009 88 8000 3.1 140 00:45 19.09.2019
1679 Rain 26 1009 88 8000 3.1 140 00:20 19.09.2019
1680 Rain 26 1009 88 10000 3.6 81.667 23:38 18.09.2019
1681 Rain 26 1009 88 10000 3.6 81.667 23:20 18.09.2019
1682 Rain 26 1009 83 10000 3.6 81.667 22:42 18.09.2019
1683 Rain 26 1009 83 10000 3.6 81.667 22:42 18.09.2019
1684 Rain 26 1009 83 10000 3.6 81.667 22:20 18.09.2019
1685 Thunderstorm 27 1010 78 10000 3.6 81.667 21:58 18.09.2019
1686 Thunderstorm 27 1010 78 10000 3.6 81.667 21:40 18.09.2019
1687 Thunderstorm 27 1010 78 10000 3.83 113.677 21:18 18.09.2019
1688 Thunderstorm 27 1010 94 8000 2.1 100 20:57 18.09.2019
1689 Thunderstorm 27 1010 94 8000 2.1 100 20:39 18.09.2019
1690 Thunderstorm 27 1010 94 8000 2.1 100 20:21 18.09.2019
1691 Rain 27 1012 74 8000 4.1 110 19:57 18.09.2019
1692 Rain 27 1012 74 8000 4.1 110 19:38 18.09.2019
1693 Thunderstorm 26 1012 74 10000 3.1 130 19:19 18.09.2019
1694 Thunderstorm 26 1012 74 10000 3.1 130 19:19 18.09.2019
1695 Thunderstorm 26 1012 74 10000 3.1 130 18:55 18.09.2019
1696 Thunderstorm 27 1012 74 10000 3.1 130 18:36 18.09.2019
1697 Thunderstorm 27 1012 74 10000 3.1 130 18:36 18.09.2019
1698 Thunderstorm 28 1012 74 10000 3.1 130 18:18 18.09.2019
1699 Thunderstorm 29 1011 83 3000 6.2 140 17:56 18.09.2019
1700 Thunderstorm 29 1011 83 3000 6.2 140 17:56 18.09.2019
1701 Rain 29 1012 74 10000 2.1 90 17:38 18.09.2019
1702 Rain 30 1012 74 10000 2.1 90 17:18 18.09.2019
1703 Rain 30 1012 74 10000 2.1 90 17:18 18.09.2019
1704 Clouds 29 1011 78 10000 2.33 140.648 16:43 18.09.2019
1705 Clouds 28 1011 78 10000 2.33 140.648 16:22 18.09.2019
1706 Clouds 27 1011 94 10000 2.33 140.648 15:59 18.09.2019
1707 Clouds 26 1011 94 10000 2.33 140.648 15:40 18.09.2019
1708 Clouds 26 1011 94 10000 0.73 348.828 15:21 18.09.2019
1709 Clouds 25 1010 100 10000 0.73 348.828 14:58 18.09.2019
1710 Clouds 25 1010 100 10000 0.73 348.828 14:40 18.09.2019
1711 Clouds 25 1010 100 10000 0.73 348.828 14:22 18.09.2019
1712 Clouds 25 1011 100 10000 0.73 348.828 13:59 18.09.2019
1713 Clouds 25 1011 100 10000 0.73 348.828 13:59 18.09.2019
1714 Clouds 25 1011 100 10000 0.73 348.828 13:38 18.09.2019
1715 Clouds 25 1011 100 10000 0.78 2.579 13:18 18.09.2019
1716 Clouds 25 1011 94 10000 0.78 2.579 12:45 18.09.2019
1717 Clouds 25 1011 94 10000 0.78 2.579 12:27 18.09.2019
1718 Thunderstorm 25 1011 94 10000 1.5 40 11:41 18.09.2019
1719 Thunderstorm 25 1011 94 10000 1.5 40 11:41 18.09.2019
1720 Thunderstorm 25 1011 94 10000 1.5 40 11:41 18.09.2019
1721 Thunderstorm 25 1011 94 10000 1.5 40 11:21 18.09.2019
1722 Thunderstorm 25 1010 100 10000 1.5 360 10:58 18.09.2019
1723 Thunderstorm 25 1010 100 10000 1.5 360 10:40 18.09.2019
1724 Thunderstorm 25 1010 100 10000 1.5 360 10:20 18.09.2019
1725 Clouds 25 1011 100 10000 1.22 312.965 09:58 18.09.2019
1726 Clouds 25 1011 100 10000 1.22 312.965 09:37 18.09.2019
1727 Rain 25 1011 100 10000 0.16 247.677 09:19 18.09.2019
1728 Rain 25 1012 100 8000 1.4 232.704 08:41 18.09.2019
1729 Rain 25 1012 100 8000 1.4 232.704 08:41 18.09.2019
1730 Thunderstorm 25 1012 100 8000 1.4 232.704 08:23 18.09.2019
1731 Thunderstorm 24 1012 100 8000 1.4 232.704 07:52 18.09.2019
1732 Rain 24 1012 100 8000 1.4 232.704 07:33 18.09.2019
1733 Rain 25 1013 94 10000 2.1 20 06:55 18.09.2019
1734 Rain 25 1013 94 10000 2.1 20 06:31 18.09.2019
1735 Clouds 26 1012 88 10000 2.1 40 05:41 18.09.2019
1736 Clouds 27 1012 83 10000 2.1 30 04:42 18.09.2019
1737 Clouds 27 1011 78 10000 0.8 127.185 02:41 18.09.2019
1738 Thunderstorm 28 1012 88 10000 0.8 127.185 01:54 18.09.2019
1739 Thunderstorm 28 1012 88 10000 1.06 125.782 01:18 18.09.2019
1740 Thunderstorm 28 1011 88 8000 3.1 300 00:42 18.09.2019
1741 Thunderstorm 28 1011 88 8000 3.1 300 00:19 18.09.2019
1742 Thunderstorm 29 1011 78 7000 3.1 360 23:42 17.09.2019
1743 Thunderstorm 30 1011 78 7000 3.1 360 23:22 17.09.2019
1744 Rain 30 1011 78 8000 6.2 190 22:42 17.09.2019
1745 Rain 29 1011 78 8000 6.2 190 22:24 17.09.2019
1746 Clouds 31 1011 70 10000 4.1 150 21:55 17.09.2019
1747 Clouds 30 1011 70 10000 4.1 150 21:37 17.09.2019
1748 Clouds 31 1011 70 10000 4.1 150 21:18 17.09.2019
1749 Clouds 32 1011 74 10000 5.1 180 20:57 17.09.2019
1750 Clouds 32 1011 74 10000 5.1 180 20:39 17.09.2019
1751 Clouds 32 1011 74 10000 5.1 180 20:21 17.09.2019
1752 Clouds 32 1011 74 10000 5.1 180 20:21 17.09.2019
1753 Clouds 32 1011 74 10000 5.1 180 20:21 17.09.2019
1754 Clouds 31 1012 79 10000 3.1 100 19:58 17.09.2019
1755 Clouds 31 1012 79 10000 3.1 100 19:39 17.09.2019
1756 Rain 31 1012 83 7000 3.47 148.991 19:19 17.09.2019
1757 Rain 30 1012 83 7000 3.47 148.991 18:55 17.09.2019
1758 Rain 30 1012 83 7000 3.47 148.991 18:36 17.09.2019
1759 Rain 30 1012 83 7000 1.39 107 18:18 17.09.2019
1760 Clouds 30 1013 74 10000 3.1 90 17:44 17.09.2019
1761 Clouds 30 1013 74 10000 3.1 90 17:19 17.09.2019
1762 Clouds 30 1013 70 10000 3.1 40 16:54 17.09.2019
1763 Clouds 30 1013 70 10000 3.1 40 16:36 17.09.2019
1764 Clouds 29 1013 70 10000 3.1 40 16:18 17.09.2019
1765 Clouds 29 1013 78 10000 1.39 107 15:38 17.09.2019
1766 Clouds 29 1013 78 10000 1.72 349.409 15:19 17.09.2019
1767 Clouds 27 1012 94 10000 1.72 349.409 14:56 17.09.2019
1768 Clouds 27 1012 94 10000 1.72 349.409 14:37 17.09.2019
1769 Clouds 26 1012 94 10000 1.72 349.409 14:19 17.09.2019
1770 Clouds 26 1012 94 10000 1.72 349.409 13:43 17.09.2019
1771 Clouds 26 1012 94 10000 1.43 345.382 13:25 17.09.2019
1772 Clouds 26 1012 94 10000 2.1 30 12:56 17.09.2019
1773 Clouds 26 1012 94 10000 2.1 30 12:37 17.09.2019
1774 Clouds 25 1012 94 10000 2.1 30 12:18 17.09.2019
1775 Clouds 25 1012 94 10000 2.1 30 12:18 17.09.2019
1776 Clouds 26 1011 94 10000 2.1 20 11:42 17.09.2019
1777 Clouds 25 1011 94 10000 2.1 20 11:24 17.09.2019
1778 Clouds 25 1011 94 10000 2.1 20 10:55 17.09.2019
1779 Clouds 25 1011 94 10000 2.1 20 10:37 17.09.2019
1780 Clouds 25 1011 94 10000 2.1 20 10:18 17.09.2019
1781 Clouds 25 1012 88 10000 2.1 20 09:41 17.09.2019
1782 Clouds 26 1012 88 10000 2.1 20 09:21 17.09.2019
1783 Clouds 26 1012 88 10000 2.1 30 08:50 17.09.2019
1784 Clouds 26 1012 88 10000 2.1 30 08:32 17.09.2019
1785 Clouds 26 1012 88 10000 2.1 30 07:59 17.09.2019
1786 Clouds 25 1013 88 10000 2.1 10 07:39 17.09.2019
1787 Clouds 25 1013 88 10000 2.1 10 07:21 17.09.2019
1788 Clouds 26 1013 94 10000 2.1 60 06:47 17.09.2019
1789 Clouds 26 1013 94 10000 2.1 60 06:23 17.09.2019
1790 Clouds 27 1014 88 10000 2.1 50 05:47 17.09.2019
1791 Clouds 27 1013 88 10000 2.1 20 04:29 17.09.2019
1792 Clouds 28 1013 83 10000 1.77 10.383 02:57 17.09.2019
1793 Clouds 28 1013 83 10000 1.77 10.383 02:38 17.09.2019
1794 Clouds 28 1013 83 10000 1.77 10.383 02:38 17.09.2019
1795 Clouds 28 1014 88 10000 2.39 39.369 01:24 17.09.2019
1796 Thunderstorm 28 1013 83 10000 2.39 39.369 00:33 17.09.2019
1797 Thunderstorm 29 1013 79 10000 2.6 300 23:39 16.09.2019
1798 Thunderstorm 29 1013 79 10000 2.6 300 23:19 16.09.2019
1799 Thunderstorm 30 1012 63 10000 5.1 120 22:56 16.09.2019
1800 Thunderstorm 30 1012 63 10000 5.1 120 22:56 16.09.2019
1801 Thunderstorm 30 1012 63 10000 5.1 120 22:37 16.09.2019
1802 Thunderstorm 30 1012 63 10000 5.1 120 22:19 16.09.2019
1803 Thunderstorm 32 1013 53 10000 5.1 150 21:40 16.09.2019
1804 Thunderstorm 33 1013 53 10000 5.1 150 21:22 16.09.2019
1805 Thunderstorm 33 1012 70 10000 2.1 160 20:59 16.09.2019
1806 Clouds 33 1013 50 10000 3.22 125.652 20:40 16.09.2019
1807 Clouds 33 1013 50 10000 3.22 125.652 20:20 16.09.2019
1808 Rain 33 1014 56 10000 3.22 125.652 19:57 16.09.2019
1809 Rain 33 1014 56 10000 3.22 125.652 19:38 16.09.2019
1810 Rain 34 1014 56 10000 3.22 125.652 19:18 16.09.2019
1811 Clouds 34 1015 59 10000 3.22 125.652 18:45 16.09.2019
1812 Clouds 34 1015 59 10000 3.22 125.652 18:27 16.09.2019
1813 -273 0 0 0 0 0 17:57 16.09.2019
1814 Clouds 33 1015 63 10000 2.6 150 17:38 16.09.2019
1815 Clouds 33 1015 63 10000 2.6 150 17:19 16.09.2019
1816 Clouds 31 1015 66 10000 2.6 360 16:44 16.09.2019
1817 Clouds 31 1015 66 10000 2.6 360 16:22 16.09.2019
1818 Clouds 30 1015 74 10000 2.14 48.645 15:57 16.09.2019
1819 Clouds 30 1015 74 10000 2.14 48.645 15:39 16.09.2019
1820 Clouds 30 1015 74 10000 2.19 344.062 15:20 16.09.2019
1821 Clouds 28 1014 94 10000 2.19 344.062 14:58 16.09.2019
1822 Clouds 28 1014 94 10000 2.19 344.062 14:39 16.09.2019
1823 Clouds 27 1014 94 10000 2.19 344.062 14:20 16.09.2019
1824 Clouds 27 1014 94 10000 2.1 20 13:43 16.09.2019
1825 Clouds 27 1014 94 10000 2.1 20 13:22 16.09.2019
1826 Thunderstorm 27 1013 94 10000 2.1 10 12:57 16.09.2019
1827 Thunderstorm 27 1013 94 10000 2.1 10 12:38 16.09.2019
1828 Thunderstorm 26 1013 94 10000 2.1 10 12:19 16.09.2019
1829 Thunderstorm 26 1013 94 10000 2.1 10 11:45 16.09.2019
1830 Thunderstorm 26 1013 94 10000 2.1 10 11:23 16.09.2019
1831 Thunderstorm 26 1013 94 10000 2.7 338.568 10:56 16.09.2019
1832 Thunderstorm 26 1013 94 10000 2.7 338.568 10:37 16.09.2019
1833 Thunderstorm 26 1013 94 10000 2.7 338.568 10:18 16.09.2019
1834 Thunderstorm 27 1014 94 10000 2.1 30 09:42 16.09.2019
1835 Thunderstorm 27 1014 94 10000 2.1 30 09:21 16.09.2019
1836 Thunderstorm 27 1014 94 10000 2.1 30 09:21 16.09.2019
1837 Thunderstorm 27 1014 94 10000 2.1 30 08:55 16.09.2019
1838 Thunderstorm 27 1014 94 10000 2.1 30 08:35 16.09.2019
1839 Thunderstorm 27 1014 88 10000 2.1 40 07:59 16.09.2019
1840 Thunderstorm 27 1014 88 10000 2.1 40 07:41 16.09.2019
1841 Thunderstorm 27 1014 88 10000 2.1 40 07:21 16.09.2019
1842 Thunderstorm 27 1014 88 10000 2.1 40 06:50 16.09.2019
1843 Thunderstorm 27 1014 88 10000 2.1 40 06:50 16.09.2019
1844 Thunderstorm 27 1014 88 10000 2.1 40 06:32 16.09.2019
1845 Thunderstorm 28 1014 94 10000 2.1 50 05:58 16.09.2019
1846 Thunderstorm 28 1014 94 10000 2.1 50 05:39 16.09.2019
1847 Thunderstorm 28 1014 94 10000 2.1 50 05:18 16.09.2019
1848 Thunderstorm 27 1013 83 10000 2.1 40 03:35 16.09.2019
1849 Clouds 29 1013 70 8000 4.1 60 00:58 16.09.2019
1850 Clouds 30 1013 70 8000 4.1 60 00:37 16.09.2019
1851 Clouds 30 1013 70 8000 4.1 60 00:19 16.09.2019
1852 Rain 31 1011 62 10000 4.1 160 23:38 15.09.2019
1853 Rain 32 1011 62 10000 4.1 160 23:20 15.09.2019
1854 Clouds 33 1012 59 10000 5.1 160 22:39 15.09.2019
1855 Clouds 33 1012 59 10000 5.1 160 22:20 15.09.2019
1856 Clouds 31 1012 56 10000 5.1 360 21:57 15.09.2019
1857 Clouds 31 1012 56 10000 5.1 360 21:38 15.09.2019
1858 Clouds 31 1012 56 10000 5.1 360 21:19 15.09.2019
1859 Clouds 31 1013 94 10000 2.1 30 20:46 15.09.2019
1860 Clouds 32 1013 59 10000 5.1 360 20:27 15.09.2019
1861 Clouds 32 1014 59 10000 5.1 90 19:58 15.09.2019
1862 Clouds 32 1014 59 10000 5.1 90 19:40 15.09.2019
1863 Clouds 33 1014 59 10000 5.1 90 19:22 15.09.2019
1864 Clouds 32 1015 62 10000 3.1 90 18:40 15.09.2019
1865 Clouds 32 1015 62 10000 3.1 90 18:22 15.09.2019
1866 Clouds 32 1015 62 10000 2.42 54.33 17:43 15.09.2019
1867 Clouds 32 1015 62 10000 2.42 54.33 17:23 15.09.2019
1868 Clouds 31 1015 74 10000 3.1 30 16:59 15.09.2019
1869 Clouds 31 1015 74 10000 3.1 30 16:41 15.09.2019
1870 Clouds 30 1015 74 10000 3.1 30 16:22 15.09.2019
1871 Clouds 30 1015 83 10000 2.42 54.33 15:56 15.09.2019
1872 Clouds 30 1015 83 10000 2.42 54.33 15:38 15.09.2019
1873 Clouds 29 1015 83 10000 2.48 341.529 15:19 15.09.2019
1874 Clouds 29 1014 88 10000 2.48 341.529 14:55 15.09.2019
1875 Clouds 28 1014 88 10000 2.48 341.529 14:37 15.09.2019
1876 Clouds 28 1014 88 10000 2.48 341.529 14:18 15.09.2019
1877 Clouds 28 1015 83 0 2.48 341.529 13:43 15.09.2019
1878 Clouds 28 1015 84 0 2.58 338.285 13:21 15.09.2019
1879 Clouds 28 1014 82 0 1.79 21 12:43 15.09.2019
1880 Clear 27 1014 86 0 0.45 2 12:24 15.09.2019
1881 Clear 27 1014 87 0 0.89 56 11:58 15.09.2019
1882 Clear 27 1014 87 0 0.45 69 11:40 15.09.2019
1883 Clouds 26 1013 94 10000 2.1 20 11:20 15.09.2019
1884 Clouds 27 1013 94 10000 2.1 20 10:42 15.09.2019
1885 Clouds 27 1013 94 10000 2.1 20 10:22 15.09.2019
1886 Clouds 27 1014 94 10000 2.1 40 09:58 15.09.2019
1887 Clouds 27 1014 94 10000 2.1 40 09:37 15.09.2019
1888 Clouds 27 1014 94 10000 2.1 40 09:19 15.09.2019
1889 Clouds 27 1015 94 10000 2.1 30 08:45 15.09.2019
1890 Clouds 27 1015 94 10000 2.1 30 08:26 15.09.2019
1891 Thunderstorm 27 1015 94 10000 2.1 40 07:48 15.09.2019
1892 Thunderstorm 27 1015 94 10000 2.1 40 07:25 15.09.2019
1893 Thunderstorm 27 1015 88 10000 2.1 50 06:33 15.09.2019
1894 Clouds 29 1015 83 10000 2.6 100 03:25 15.09.2019
1895 Clouds 29 1014 88 10000 2.1 100 02:30 15.09.2019
1896 Clouds 29 1013 83 10000 3.1 180 01:38 15.09.2019
1897 Clouds 29 1013 83 10000 3.1 180 01:38 15.09.2019
1898 Clouds 30 1013 74 10000 3.1 140 00:58 15.09.2019
1899 Clouds 30 1013 74 10000 3.1 140 00:39 15.09.2019
1900 Clouds 31 1013 74 10000 3.1 140 00:20 15.09.2019
1901 Clouds 32 1013 59 10000 5.1 180 23:57 14.09.2019
1902 Clouds 32 1013 59 10000 5.1 180 23:39 14.09.2019
1903 Clouds 32 1013 59 10000 5.1 180 23:39 14.09.2019
1904 Clouds 32 1013 59 10000 5.1 180 23:19 14.09.2019
1905 Clouds 33 1013 56 10000 5.1 180 22:58 14.09.2019
1906 Clouds 33 1013 56 10000 5.1 180 22:38 14.09.2019
1907 Clouds 33 1013 56 10000 5.1 180 22:19 14.09.2019
1908 Clouds 33 1014 59 10000 5.1 180 21:40 14.09.2019
1909 Clouds 33 1014 59 10000 5.1 180 21:40 14.09.2019
1910 Clouds 33 1014 59 10000 5.1 180 21:21 14.09.2019
1911 Clouds 33 1014 63 10000 5.1 180 20:59 14.09.2019
1912 Clouds 33 1014 63 10000 5.1 180 20:40 14.09.2019
1913 Clouds 33 1014 63 10000 5.1 180 20:22 14.09.2019
1914 Clouds 33 1014 66 10000 6.2 180 19:51 14.09.2019
1915 Clouds 32 1014 66 10000 6.2 180 19:23 14.09.2019
1916 Clouds 32 1015 70 10000 5.1 180 18:58 14.09.2019
1917 Clouds 32 1015 70 10000 5.1 180 18:39 14.09.2019
1918 Clouds 32 1015 70 10000 5.1 180 18:20 14.09.2019
1919 Clouds 32 1015 70 10000 3.1 180 17:45 14.09.2019
1920 Clouds 32 1015 70 10000 3.1 180 17:25 14.09.2019
1921 Clouds 31 1014 70 10000 1.99 80.95 16:59 14.09.2019
1922 Clouds 31 1014 70 10000 1.99 80.95 16:40 14.09.2019
1923 Clouds 31 1014 70 10000 1.99 80.95 16:19 14.09.2019
1924 Clouds 31 1014 70 10000 1.99 80.95 16:19 14.09.2019
1925 Clouds 29 1014 83 10000 1.99 80.95 15:42 14.09.2019
1926 Clouds 29 1014 83 10000 1.6 345.563 15:23 14.09.2019
1927 Clouds 28 1013 94 10000 1.6 345.563 14:57 14.09.2019
1928 Clouds 28 1013 94 10000 1.6 345.563 14:39 14.09.2019
1929 Clouds 28 1013 94 10000 1.6 345.563 14:39 14.09.2019
1930 Clouds 28 1013 94 10000 1.6 345.563 14:18 14.09.2019
1931 Clouds 27 1013 94 10000 2.1 30 13:46 14.09.2019
1932 Clouds 27 1013 94 10000 2.1 30 13:21 14.09.2019
1933 Clouds 26 1013 94 10000 2.1 40 12:46 14.09.2019
1934 Clouds 25 1013 94 10000 2.1 40 12:23 14.09.2019
1935 Clouds 25 1013 94 10000 2.1 20 11:41 14.09.2019
1936 Clouds 25 1013 94 10000 2.1 20 11:41 14.09.2019
1937 Clouds 27 1013 94 10000 2.1 20 11:20 14.09.2019
1938 Clouds 26 1012 94 10000 2.1 30 10:40 14.09.2019
1939 Clouds 27 1012 94 10000 2.1 30 10:22 14.09.2019
1940 Clouds 26 1013 88 10000 2.1 40 09:58 14.09.2019
1941 Clouds 27 1013 88 10000 2.1 40 09:40 14.09.2019
1942 Clouds 25 1013 88 10000 2.1 40 09:21 14.09.2019
1943 Clouds 25 1013 88 10000 2.1 40 09:21 14.09.2019
1944 Clouds 25 1013 94 10000 2.1 50 08:56 14.09.2019
1945 Clouds 25 1013 94 10000 2.1 50 08:56 14.09.2019
1946 Clouds 25 1013 94 10000 2.1 50 08:37 14.09.2019
1947 Clouds 25 1013 94 10000 2.1 50 08:18 14.09.2019
1948 Clouds 25 1014 88 10000 2.1 60 07:42 14.09.2019
1949 Clouds 25 1014 88 10000 2.1 60 07:20 14.09.2019
1950 Clouds 26 1014 88 10000 2.1 50 06:32 14.09.2019
1951 Clouds 27 1014 83 10000 2.1 60 05:43 14.09.2019
1952 Clouds 28 1013 83 10000 2.1 130 03:59 14.09.2019
1953 Clouds 29 1013 79 10000 2.1 140 02:57 14.09.2019
1954 Clouds 29 1013 79 10000 2.1 140 02:57 14.09.2019
1955 Clouds 30 1013 79 10000 2.1 140 02:30 14.09.2019
1956 Clouds 30 1013 66 10000 1.22 124.719 01:44 14.09.2019
1957 Clouds 30 1013 66 10000 0.98 135.662 01:19 14.09.2019
1958 Clouds 31 1012 66 10000 3.1 140 00:40 14.09.2019
1959 Clouds 31 1012 66 10000 3.1 140 00:21 14.09.2019
1960 Clouds 32 1011 66 10000 5.1 180 23:54 13.09.2019
1961 Clouds 32 1011 66 10000 5.1 180 23:36 13.09.2019
1962 Clouds 32 1011 66 10000 5.1 180 23:18 13.09.2019
1963 Clouds 33 1011 59 10000 5.1 180 22:39 13.09.2019
1964 Clouds 33 1011 59 10000 5.1 180 22:21 13.09.2019
1965 Clouds 33 1011 59 10000 5.1 180 21:56 13.09.2019
1966 Clouds 33 1011 59 10000 5.1 180 21:38 13.09.2019
1967 Clouds 33 1011 59 10000 5.1 180 21:19 13.09.2019
1968 Clouds 33 1012 59 10000 5.1 180 20:57 13.09.2019
1969 Clouds 33 1012 59 10000 5.1 180 20:36 13.09.2019
1970 Clouds 33 1012 59 10000 5.1 180 20:18 13.09.2019
1971 Clouds 33 1012 59 10000 4.1 180 19:43 13.09.2019
1972 Clouds 33 1012 59 10000 4.1 180 19:21 13.09.2019
1973 Clouds 32 1013 62 10000 5.1 180 18:58 13.09.2019
1974 Clouds 32 1013 62 10000 5.1 180 18:37 13.09.2019
1975 Clouds 32 1013 62 10000 5.1 180 18:37 13.09.2019
1976 Clouds 32 1013 62 10000 5.1 180 18:19 13.09.2019
1977 Clouds 32 1014 62 10000 5.1 180 17:43 13.09.2019
1978 Clouds 32 1014 62 10000 5.1 180 17:20 13.09.2019
1979 Clouds 31 1014 70 10000 2.6 90 16:55 13.09.2019
1980 -273 0 0 0 0 0 16:55 13.09.2019
1981 Clouds 31 1014 70 10000 2.6 90 16:37 13.09.2019
1982 Clouds 31 1014 70 10000 2.6 90 16:18 13.09.2019
1983 Clouds 31 1014 70 10000 2.6 90 16:18 13.09.2019
1984 Clouds 29 1013 78 10000 2.47 133.688 15:40 13.09.2019
1985 Clouds 29 1013 78 10000 0.98 329.046 15:21 13.09.2019
1986 Clouds 29 1013 78 10000 0.98 329.046 15:21 13.09.2019
1987 Clouds 27 1012 88 10000 0.98 329.046 14:44 13.09.2019
1988 Clouds 27 1012 88 10000 0.98 329.046 14:44 13.09.2019
1989 Clouds 26 1012 88 10000 0.98 329.046 14:23 13.09.2019
1990 -273 0 0 0 0 0 13:58 13.09.2019
1991 Clouds 26 1011 100 10000 1.5 0 13:39 13.09.2019
1992 Clouds 26 1011 100 10000 1.5 0 13:21 13.09.2019
1993 Clouds 26 1011 94 10000 1.5 0 12:44 13.09.2019
1994 Clouds 26 1011 94 10000 1.5 0 12:24 13.09.2019
1995 Clouds 26 1011 88 10000 1.5 0 11:56 13.09.2019
1996 Clouds 25 1011 88 10000 1.5 0 11:20 13.09.2019
1997 Clouds 25 1011 94 10000 2.1 50 10:41 13.09.2019
1998 Clouds 25 1011 94 10000 2.1 50 10:21 13.09.2019
1999 Clouds 25 1011 94 10000 2.1 50 10:21 13.09.2019
2000 Clouds 25 1011 88 10000 1.5 0 09:54 13.09.2019
2001 Clouds 25 1011 88 10000 1.5 0 09:36 13.09.2019
2002 Clouds 25 1011 88 10000 1.5 0 09:18 13.09.2019
2003 Clouds 26 1011 88 10000 2.1 40 08:41 13.09.2019
2004 Clouds 26 1011 88 10000 2.1 40 08:21 13.09.2019
2005 Clouds 26 1012 88 10000 2.6 30 07:57 13.09.2019
2006 Clouds 26 1012 88 10000 2.6 30 07:39 13.09.2019
2007 Clouds 26 1012 88 10000 2.6 70 06:49 13.09.2019
2008 Clouds 27 1013 83 10000 2.1 130 05:50 13.09.2019
2009 Clouds 27 1013 83 10000 2.1 130 05:26 13.09.2019
2010 Clouds 28 1012 78 10000 2.1 120 03:42 13.09.2019
2011 Clouds 28 1011 78 10000 2.1 120 02:50 13.09.2019
2012 Clouds 30 1011 78 10000 2.1 120 02:19 13.09.2019
2013 Clouds 30 1011 70 10000 2.1 180 01:35 13.09.2019
2014 Clouds 30 1011 70 10000 2.1 180 01:35 13.09.2019
2015 Clouds 30 1011 70 10000 2.1 180 01:35 13.09.2019
2016 Clouds 31 1010 66 10000 3.6 180 00:59 13.09.2019
2017 Clouds 31 1010 66 10000 3.6 180 00:33 13.09.2019
2018 Clouds 32 1010 63 10000 6.2 180 23:42 12.09.2019
2019 Clouds 32 1010 63 10000 6.2 180 23:22 12.09.2019
2020 Clouds 33 1010 59 10000 5.1 180 22:44 12.09.2019
2021 Clouds 33 1010 59 10000 5.1 180 22:25 12.09.2019
2022 Clouds 33 1010 56 10000 3.1 210 21:58 12.09.2019
2023 Clouds 33 1010 56 10000 3.1 210 21:39 12.09.2019
2024 Clouds 33 1010 56 10000 3.1 210 21:20 12.09.2019
2025 Clouds 33 1010 56 10000 3.1 210 21:20 12.09.2019
2026 Clouds 33 1011 59 10000 3.6 180 20:58 12.09.2019
2027 Clouds 33 1011 59 10000 3.6 180 20:40 12.09.2019
2028 Clouds 33 1011 59 10000 3.6 180 20:20 12.09.2019
2029 Clouds 32 1012 59 10000 5.1 180 19:56 12.09.2019
2030 Clouds 32 1012 59 10000 5.1 180 19:36 12.09.2019
2031 Clouds 32 1012 59 10000 5.1 180 19:18 12.09.2019
2032 Clouds 32 1013 62 10000 5.1 180 18:38 12.09.2019
2033 Clouds 32 1013 62 10000 5.1 180 18:20 12.09.2019
2034 Clouds 32 1013 62 10000 5.1 180 18:20 12.09.2019
2035 Clouds 31 1013 66 10000 2.22 138.758 17:57 12.09.2019
2036 Clouds 31 1013 66 10000 2.22 138.758 17:38 12.09.2019
2037 Clouds 31 1013 66 10000 2.22 138.758 17:19 12.09.2019
2038 Clouds 31 1013 66 10000 2.22 138.758 16:42 12.09.2019
2039 Clouds 31 1013 66 10000 2.22 138.758 16:22 12.09.2019
2040 Clouds 30 1013 78 10000 2.22 138.758 15:55 12.09.2019
2041 Clouds 30 1013 78 10000 2.22 138.758 15:55 12.09.2019
2042 Clouds 30 1013 78 10000 2.22 138.758 15:55 12.09.2019
2043 Clouds 30 1013 78 10000 2.22 138.758 15:36 12.09.2019
2044 Clouds 29 1013 78 10000 1.23 338.969 15:18 12.09.2019
2045 Clouds 27 1012 94 10000 1.23 338.969 14:41 12.09.2019
2046 Clouds 27 1012 94 10000 1.23 338.969 14:21 12.09.2019
2047 Clouds 26 1011 94 10000 2.6 40 13:40 12.09.2019
2048 Clouds 26 1011 94 10000 2.6 40 13:22 12.09.2019
2049 Clouds 26 1011 94 10000 2.1 50 12:49 12.09.2019
2050 Clouds 26 1011 94 10000 2.1 50 12:20 12.09.2019
2051 Clouds 25 1010 100 10000 2.1 40 12:00 12.09.2019
2052 Clouds 24 1010 100 10000 2.1 40 11:41 12.09.2019
2053 Clouds 24 1010 100 10000 2.1 40 11:21 12.09.2019
2054 Thunderstorm 25 1010 88 10000 2.1 60 10:56 12.09.2019
2055 Thunderstorm 25 1010 88 10000 2.1 60 10:37 12.09.2019
2056 Thunderstorm 25 1010 88 10000 2.1 60 10:37 12.09.2019
2057 Thunderstorm 25 1010 88 10000 2.1 60 10:18 12.09.2019
2058 Clouds 25 1010 88 10000 2.1 60 09:43 12.09.2019
2059 Clouds 25 1010 88 10000 2.1 60 09:20 12.09.2019
2060 Clouds 25 1011 88 10000 2.1 50 08:45 12.09.2019
2061 Clouds 25 1011 88 10000 2.1 50 08:45 12.09.2019
2062 Clouds 25 1011 88 10000 2.1 50 08:25 12.09.2019
2063 Clouds 26 1011 83 10000 2.1 60 07:56 12.09.2019
2064 Clouds 26 1011 83 10000 2.1 60 07:36 12.09.2019
2065 Clouds 26 1011 83 10000 2.1 60 07:18 12.09.2019
2066 Clouds 26 1012 88 10000 2.1 60 06:46 12.09.2019
2067 Clouds 26 1012 88 10000 2.1 60 06:19 12.09.2019
2068 Clouds 26 1012 88 10000 2.1 130 05:43 12.09.2019
2069 Clouds 26 1012 88 10000 2.1 130 05:19 12.09.2019
2070 Clouds 27 1012 83 10000 2.1 110 03:58 12.09.2019
2071 Clouds 29 1012 74 10000 0.87 173.572 01:44 12.09.2019
2072 Clouds 29 1012 74 10000 0.87 173.572 01:26 12.09.2019
2073 Clouds 31 1012 66 10000 5.1 120 00:50 12.09.2019
2074 Clouds 31 1012 66 10000 5.1 120 00:31 12.09.2019
2075 Clouds 31 1011 62 10000 4.1 120 23:47 11.09.2019
2076 Clouds 31 1011 62 10000 4.1 120 23:27 11.09.2019
2077 Clouds 32 1011 55 10000 4.1 90 22:58 11.09.2019
2078 Clouds 32 1011 55 10000 4.1 90 22:38 11.09.2019
2079 Clouds 33 1011 55 10000 4.1 90 22:20 11.09.2019
2080 Clouds 33 1012 55 10000 4.1 90 21:59 11.09.2019
2081 Clouds 33 1012 55 10000 4.1 90 21:41 11.09.2019
2082 Clouds 33 1012 55 10000 4.1 90 21:22 11.09.2019
2083 Clouds 33 1012 59 10000 4.1 120 20:56 11.09.2019
2084 Clouds 33 1012 59 10000 4.1 120 20:37 11.09.2019
2085 Clouds 33 1012 59 10000 4.1 120 20:18 11.09.2019
2086 Clouds 32 1013 62 10000 5.1 180 19:55 11.09.2019
2087 Clouds 32 1013 62 10000 5.1 180 19:37 11.09.2019
2088 Clouds 32 1013 62 10000 5.1 180 19:37 11.09.2019
2089 Clouds 32 1013 62 10000 5.1 180 19:18 11.09.2019
2090 Clouds 31 1014 66 10000 4.1 160 18:42 11.09.2019
2091 Clouds 31 1014 66 10000 4.1 160 18:23 11.09.2019
2092 Clouds 31 1014 66 10000 4.1 160 18:23 11.09.2019
2093 Clouds 31 1014 70 10000 1.94 134.249 17:58 11.09.2019
2094 Clouds 31 1014 70 10000 1.94 134.249 17:40 11.09.2019
2095 Clouds 31 1014 70 10000 1.94 134.249 17:21 11.09.2019
2096 Clouds 30 1014 74 10000 1.94 134.249 16:56 11.09.2019
2097 Clouds 30 1014 74 10000 1.94 134.249 16:36 11.09.2019
2098 Clouds 30 1014 74 10000 1.94 134.249 16:18 11.09.2019
2099 Clouds 29 1014 78 10000 1.94 134.249 15:45 11.09.2019
2100 Clouds 29 1014 78 10000 0.98 4.206 15:22 11.09.2019
2101 Clouds 28 1013 88 10000 0.98 4.206 14:57 11.09.2019
2102 Clouds 28 1013 88 10000 0.98 4.206 14:38 11.09.2019
2103 Clouds 27 1013 88 10000 0.98 4.206 14:19 11.09.2019
2104 Clouds 26 1013 94 10000 0.98 4.206 13:54 11.09.2019
2105 Clouds 26 1013 94 10000 0.98 4.206 13:36 11.09.2019
2106 -273 0 0 0 0 0 13:18 11.09.2019
2107 Clouds 25 1013 94 10000 2.1 30 12:40 11.09.2019
2108 Clouds 26 1013 94 10000 2.1 30 12:20 11.09.2019
2109 Clouds 25 1013 94 10000 2.1 30 11:41 11.09.2019
2110 Clouds 26 1013 94 10000 2.1 30 11:22 11.09.2019
2111 Clouds 25 1013 94 10000 2.1 30 10:59 11.09.2019
2112 Clouds 25 1013 94 10000 2.1 30 10:40 11.09.2019
2113 Clouds 24 1013 94 10000 2.1 30 10:21 11.09.2019
2114 Clouds 26 1014 94 10000 2.1 40 09:40 11.09.2019
2115 Clouds 26 1014 94 10000 2.1 40 09:20 11.09.2019
2116 Clouds 26 1014 94 10000 2.1 40 08:59 11.09.2019
2117 Clouds 26 1014 94 10000 2.1 40 08:39 11.09.2019
2118 Clouds 26 1014 94 10000 2.1 40 08:20 11.09.2019
2119 Clouds 27 1014 94 10000 2.1 60 07:43 11.09.2019
2120 Clouds 27 1014 94 10000 2.1 60 07:23 11.09.2019
2121 Clouds 27 1014 94 10000 2.1 60 06:50 11.09.2019
2122 Clouds 27 1014 94 10000 2.1 60 06:50 11.09.2019
2123 Clouds 27 1014 94 10000 2.1 60 06:32 11.09.2019
2124 Clouds 27 1015 94 10000 2.1 50 05:42 11.09.2019
2125 Clouds 27 1015 94 10000 2.1 50 05:23 11.09.2019
2126 Clouds 27 1015 88 10000 2.1 60 04:39 11.09.2019
2127 Clouds 28 1014 78 10000 0.57 345.251 03:32 11.09.2019
2128 Clouds 29 1014 83 10000 0.81 162.923 02:42 11.09.2019
2129 Rain 29 1014 83 8000 0.81 162.923 01:53 11.09.2019
2130 Rain 30 1013 74 8000 2.1 160 00:50 11.09.2019
2131 Rain 30 1013 74 8000 2.1 160 00:21 11.09.2019
2132 Rain 30 1013 74 8000 2.1 160 00:21 11.09.2019
2133 Clouds 32 1014 59 10000 6.2 180 23:41 10.09.2019
2134 Clouds 32 1014 59 10000 6.2 180 23:23 10.09.2019
2135 Clouds 32 1014 59 10000 6.2 180 23:23 10.09.2019
2136 Clouds 32 1014 59 10000 6.2 180 22:59 10.09.2019
2137 Clouds 32 1014 59 10000 6.2 180 22:41 10.09.2019
2138 Clouds 32 1014 59 10000 6.2 180 22:19 10.09.2019
2139 Clouds 32 1014 59 10000 6.2 180 22:19 10.09.2019
2140 Clouds 33 1014 56 10000 6.2 180 21:55 10.09.2019
2141 Clouds 32 1014 56 10000 6.2 180 21:37 10.09.2019
2142 Clouds 32 1014 56 10000 6.2 180 21:37 10.09.2019
2143 Clouds 32 1014 56 10000 6.2 180 21:37 10.09.2019
2144 Clouds 32 1014 56 10000 6.2 180 21:37 10.09.2019
2145 Clouds 32 1014 56 10000 6.2 180 21:18 10.09.2019
2146 Clouds 33 1015 56 10000 5.1 180 20:57 10.09.2019
2147 Clouds 33 1015 56 10000 5.1 180 20:38 10.09.2019
2148 Clouds 33 1015 56 10000 5.1 180 20:19 10.09.2019
2149 Clouds 33 1015 56 10000 5.1 180 20:19 10.09.2019
2150 Clouds 33 1015 63 10000 3.1 170 19:56 10.09.2019
2151 Clouds 33 1015 63 10000 3.1 170 19:37 10.09.2019
2152 Clouds 33 1015 63 10000 3.1 170 19:19 10.09.2019
2153 Clouds 32 1016 70 10000 3.51 148.55 18:46 10.09.2019
2154 Clouds 32 1016 70 10000 3.51 148.55 18:46 10.09.2019
2155 Clouds 32 1016 70 10000 1.64 119.858 18:23 10.09.2019
2156 Clouds 32 1016 74 10000 4.1 50 17:59 10.09.2019
2157 Clouds 32 1016 74 10000 4.1 50 17:41 10.09.2019
2158 Clouds 31 1016 74 10000 4.1 50 17:21 10.09.2019
2159 Clouds 31 1016 79 10000 1.64 119.858 16:58 10.09.2019
2160 Clouds 31 1016 79 10000 1.64 119.858 16:39 10.09.2019
2161 Clouds 30 1016 79 10000 1.64 119.858 16:20 10.09.2019
2162 Clouds 29 1016 83 10000 1.64 119.858 15:56 10.09.2019
2163 Clouds 29 1016 83 10000 1.64 119.858 15:38 10.09.2019
2164 Clouds 28 1016 83 10000 1.04 350.682 15:19 10.09.2019
2165 Clouds 27 1016 94 10000 1.04 350.682 14:40 10.09.2019
2166 Clouds 26 1016 94 10000 1.04 350.682 14:22 10.09.2019
2167 Mist 26 1015 94 8000 2.1 40 13:49 10.09.2019
2168 Mist 25 1015 94 8000 2.1 40 13:24 10.09.2019
2169 Clouds 25 1014 94 10000 2.1 20 12:56 10.09.2019
2170 Clouds 25 1014 94 10000 2.1 20 12:37 10.09.2019
2171 Clouds 25 1014 94 10000 2.1 30 12:19 10.09.2019
2172 Clouds 25 1014 94 10000 2.1 30 12:19 10.09.2019
2173 Clouds 25 1014 94 10000 2.1 30 11:42 10.09.2019
2174 Clouds 25 1014 94 10000 2.1 30 11:23 10.09.2019
2175 Clouds 25 1014 94 10000 2.1 10 10:59 10.09.2019
2176 Clouds 25 1014 94 10000 2.1 10 10:38 10.09.2019
2177 Clouds 25 1014 94 10000 2.1 10 10:18 10.09.2019
2178 Clouds 25 1014 100 10000 2.1 30 09:46 10.09.2019
2179 Clouds 25 1014 100 10000 2.1 30 09:20 10.09.2019
2180 Clouds 26 1015 94 10000 2.1 360 08:57 10.09.2019
2181 Clouds 26 1015 94 10000 2.1 360 08:38 10.09.2019
2182 Clouds 26 1015 94 10000 2.1 360 08:20 10.09.2019
2183 Clouds 26 1016 94 10000 1.38 346.859 07:44 10.09.2019
2184 Clouds 26 1016 94 10000 1.38 346.859 07:25 10.09.2019
2185 Clouds 26 1016 94 10000 1.5 40 06:46 10.09.2019
2186 Clouds 26 1016 94 10000 1.5 40 06:28 10.09.2019
2187 Clouds 27 1016 88 10000 1.5 40 04:38 10.09.2019
2188 Clouds 28 1015 78 10000 2.1 60 02:44 10.09.2019
2189 Clouds 28 1015 78 10000 2.1 60 02:22 10.09.2019
2190 Clouds 28 1015 78 10000 2.1 60 02:22 10.09.2019
2191 Clouds 28 1015 78 10000 0.63 318.625 01:52 10.09.2019
2192 Clouds 28 1015 78 10000 0.63 318.625 01:52 10.09.2019
2193 Clouds 28 1015 78 10000 0.63 318.625 01:52 10.09.2019
2194 Clouds 28 1015 78 10000 0.63 318.625 01:52 10.09.2019
2195 Clouds 28 1015 78 10000 0.63 318.625 01:52 10.09.2019
2196 Clouds 28 1015 78 10000 0.12 295.523 01:23 10.09.2019
2197 Clouds 29 1014 74 10000 2.6 90 00:43 10.09.2019
2198 Clouds 30 1014 74 10000 2.6 90 00:23 10.09.2019
2199 Clouds 30 1013 66 10000 3.1 130 23:41 09.09.2019
2200 Clouds 31 1013 66 10000 3.1 130 23:19 09.09.2019
2201 Clouds 32 1014 62 10000 5.1 180 22:55 09.09.2019
2202 Clouds 31 1014 62 10000 5.1 180 22:37 09.09.2019
2203 Clouds 31 1014 62 10000 5.1 180 22:19 09.09.2019
2204 Clouds 31 1014 66 10000 4.1 160 21:55 09.09.2019
2205 Clouds 31 1014 66 10000 4.1 160 21:37 09.09.2019
2206 Clouds 31 1014 66 10000 4.1 160 21:19 09.09.2019
2207 Rain 32 1015 62 8000 4.1 180 20:55 09.09.2019
2208 Rain 31 1015 62 8000 4.1 180 20:36 09.09.2019
2209 Rain 32 1015 62 8000 4.1 180 20:18 09.09.2019
2210 Clouds 32 1015 62 10000 3.1 70 19:56 09.09.2019
2211 Clouds 32 1015 62 10000 3.1 70 19:37 09.09.2019
2212 Clouds 32 1016 62 10000 3.1 300 19:19 09.09.2019
2213 Clouds 32 1016 62 10000 3.1 300 18:55 09.09.2019
2214 Clouds 32 1016 62 10000 3.1 300 18:37 09.09.2019
2215 Clouds 32 1017 62 10000 2.6 40 18:18 09.09.2019
2216 Clouds 32 1017 62 10000 2.6 40 17:56 09.09.2019
2217 Clouds 32 1017 62 10000 2.6 40 17:38 09.09.2019
2218 Clouds 32 1017 62 10000 2.6 40 17:20 09.09.2019
2219 Clouds 30 1016 66 10000 1.79 79.838 16:40 09.09.2019
2220 Clouds 30 1016 66 10000 1.79 79.838 16:21 09.09.2019
2221 Clouds 30 1016 66 10000 1.79 79.838 16:21 09.09.2019
2222 Clouds 29 1016 78 10000 1.79 79.838 15:56 09.09.2019
2223 Clouds 29 1016 78 10000 1.79 79.838 15:56 09.09.2019
2224 Clouds 29 1016 78 10000 1.79 79.838 15:38 09.09.2019
2225 Clouds 28 1016 78 10000 2.17 343.045 15:20 09.09.2019
2226 Clouds 27 1015 94 10000 2.17 343.045 14:57 09.09.2019
2227 Clouds 26 1015 94 10000 2.17 343.045 14:39 09.09.2019
2228 Clouds 26 1015 94 10000 2.17 343.045 14:20 09.09.2019
2229 Clouds 25 1015 88 10000 3.1 20 13:54 09.09.2019
2230 Clouds 25 1015 88 10000 3.1 20 13:36 09.09.2019
2231 Thunderstorm 25 1014 94 10000 2.1 30 13:18 09.09.2019
2232 Thunderstorm 24 1014 94 10000 2.1 30 12:41 09.09.2019
2233 Thunderstorm 25 1014 94 10000 2.1 30 12:21 09.09.2019
2234 Thunderstorm 24 1015 88 10000 2.1 20 11:57 09.09.2019
2235 Thunderstorm 25 1015 88 10000 2.1 20 11:39 09.09.2019
2236 Clouds 24 1015 94 10000 2.1 10 11:18 09.09.2019
2237 Clouds 25 1015 94 10000 2.1 10 10:42 09.09.2019
2238 Clouds 25 1015 94 10000 2.1 10 10:23 09.09.2019
2239 Clouds 25 1015 94 10000 1.89 347.78 09:57 09.09.2019
2240 Clouds 25 1015 94 10000 1.89 347.78 09:38 09.09.2019
2241 Clouds 25 1015 94 10000 1.68 342.084 09:20 09.09.2019
2242 Clouds 25 1015 94 10000 2.1 20 08:39 09.09.2019
2243 Clouds 25 1015 94 10000 2.1 20 08:20 09.09.2019
2244 Clouds 25 1016 94 10000 2.1 20 07:48 09.09.2019
2245 Clouds 25 1016 94 10000 2.1 20 07:23 09.09.2019
2246 Clouds 25 1016 94 10000 2.1 10 06:59 09.09.2019
2247 Clouds 25 1016 94 10000 2.1 10 06:40 09.09.2019
2248 Clouds 26 1017 88 10000 2.1 10 05:34 09.09.2019
2249 Clouds 26 1015 94 10000 2.1 10 02:59 09.09.2019
2250 Clouds 26 1015 94 10000 2.1 10 02:39 09.09.2019
2251 Rain 26 1015 100 8000 2.05 33.309 00:50 09.09.2019
2252 Rain 26 1015 100 8000 2.05 134.329 00:22 09.09.2019
2253 Thunderstorm 27 1015 88 6000 2.6 300 23:46 08.09.2019
2254 Thunderstorm 27 1015 88 6000 2.6 300 23:26 08.09.2019
2255 Thunderstorm 29 1014 63 10000 2.6 150 22:57 08.09.2019
2256 Thunderstorm 30 1014 63 10000 2.6 150 22:38 08.09.2019
2257 Thunderstorm 31 1014 63 10000 2.6 150 22:20 08.09.2019
2258 Clouds 31 1013 70 8000 4.1 180 21:42 08.09.2019
2259 Clouds 31 1013 70 8000 4.1 180 21:42 08.09.2019
2260 Clouds 33 1013 70 8000 4.1 180 21:23 08.09.2019
2261 Clouds 32 1015 56 10000 3.1 150 20:59 08.09.2019
2262 Clouds 32 1015 56 10000 3.1 150 20:59 08.09.2019
2263 Clouds 32 1015 56 10000 3.1 150 20:40 08.09.2019
2264 Clouds 32 1015 56 10000 3.1 150 20:22 08.09.2019
2265 Clouds 32 1016 59 10000 4.1 150 19:59 08.09.2019
2266 Clouds 32 1016 59 10000 4.1 150 19:38 08.09.2019
2267 Clouds 32 1016 63 10000 3.23 131.51 19:20 08.09.2019
2268 Clouds 32 1016 63 10000 3.23 131.51 18:57 08.09.2019
2269 Clouds 32 1016 63 10000 3.23 131.51 18:38 08.09.2019
2270 Clouds 32 1016 63 10000 2.12 71.163 18:18 08.09.2019
2271 Clouds 32 1016 63 10000 2.12 71.163 17:56 08.09.2019
2272 Clouds 32 1016 63 10000 2.12 71.163 17:36 08.09.2019
2273 Clouds 31 1016 66 10000 2.6 60 17:18 08.09.2019
2274 Clouds 31 1016 66 10000 2.6 60 16:43 08.09.2019
2275 Clouds 30 1016 66 10000 2.6 60 16:22 08.09.2019
2276 Clouds 29 1016 78 10000 2.6 30 15:58 08.09.2019
2277 Clouds 29 1016 78 10000 2.6 30 15:40 08.09.2019
2278 Clouds 29 1016 78 10000 2.6 30 15:21 08.09.2019
2279 Clouds 27 1016 94 10000 2.29 347.013 14:56 08.09.2019
2280 Clouds 27 1016 94 10000 2.29 347.013 14:37 08.09.2019
2281 Clouds 26 1016 94 10000 2.29 347.013 14:19 08.09.2019
2282 Clouds 25 1014 94 10000 1 0 13:55 08.09.2019
2283 Clouds 26 1014 94 10000 1 0 13:36 08.09.2019
2284 Clouds 25 1014 94 10000 1.5 0 13:18 08.09.2019
2285 Clouds 25 1014 94 10000 1.5 0 12:41 08.09.2019
2286 Clouds 25 1014 94 10000 1.5 0 12:23 08.09.2019
2287 Clouds 25 1014 94 10000 2.1 40 11:58 08.09.2019
2288 Clouds 25 1014 94 10000 2.1 40 11:58 08.09.2019
2289 Clouds 25 1014 94 10000 2.1 40 11:38 08.09.2019
2290 Clouds 25 1014 94 10000 2.1 40 11:38 08.09.2019
2291 Clouds 25 1014 94 10000 2.1 40 11:38 08.09.2019
2292 Clouds 25 1014 94 10000 2.1 40 11:20 08.09.2019
2293 Thunderstorm 26 1015 88 10000 1.5 10 10:56 08.09.2019
2294 Thunderstorm 26 1015 88 10000 1.5 10 10:38 08.09.2019
2295 Thunderstorm 26 1015 88 10000 1.5 10 10:19 08.09.2019
2296 Thunderstorm 26 1015 88 10000 1.5 10 09:38 08.09.2019
2297 Rain 26 1014 89 0 0.45 27 09:20 08.09.2019
2298 Rain 26 1014 81 0 0.89 353 08:56 08.09.2019
2299 Rain 26 1014 81 0 0.89 351 08:37 08.09.2019
2300 Rain 26 1014 88 0 0.89 49 08:18 08.09.2019
2301 Rain 26 1015 86 0 0.45 12 07:38 08.09.2019
2302 Rain 26 1015 86 0 2.24 355.511 07:20 08.09.2019
2303 Rain 26 1015 86 0 2.24 355.511 06:47 08.09.2019
2304 Rain 27 1015 84 0 2.65 354.199 05:57 08.09.2019
2305 Rain 27 1015 80 0 1.34 10 05:35 08.09.2019
2306 Clouds 27 1014 83 10000 2.1 20 03:51 08.09.2019
2307 Thunderstorm 28 1014 83 10000 2.1 30 02:54 08.09.2019
2308 Thunderstorm 28 1014 83 10000 2.1 30 02:25 08.09.2019
2309 Thunderstorm 28 1013 83 10000 1.76 14.898 01:35 08.09.2019
2310 Clouds 29 1013 74 10000 4.1 40 00:57 08.09.2019
2311 Clouds 29 1013 74 10000 4.1 40 00:37 08.09.2019
2312 Clouds 29 1012 70 10000 5.1 40 00:19 08.09.2019
2313 Clouds 29 1012 70 10000 5.1 40 23:38 07.09.2019
2314 Clouds 29 1012 70 10000 5.1 40 23:19 07.09.2019
2315 Rain 29 1012 70 8000 6.2 90 22:57 07.09.2019
2316 Rain 29 1012 70 8000 6.2 90 22:37 07.09.2019
2317 Rain 29 1012 70 8000 6.2 90 22:37 07.09.2019
2318 Rain 29 1012 70 8000 6.2 90 22:18 07.09.2019
2319 Rain 29 1013 66 8000 5.1 180 21:41 07.09.2019
2320 Rain 29 1013 66 8000 5.1 180 21:23 07.09.2019
2321 Thunderstorm 30 1013 62 10000 2.1 90 20:42 07.09.2019
2322 Thunderstorm 30 1013 62 10000 2.1 90 20:22 07.09.2019
2323 Thunderstorm 31 1013 59 10000 5.1 90 19:58 07.09.2019
2324 Thunderstorm 31 1013 59 10000 5.1 90 19:39 07.09.2019
2325 Thunderstorm 32 1013 59 10000 5.1 90 19:21 07.09.2019
2326 Clouds 31 1014 66 10000 4.1 30 18:59 07.09.2019
2327 Clouds 31 1014 66 10000 4.1 30 18:40 07.09.2019
2328 Clouds 31 1014 66 10000 4.1 30 18:22 07.09.2019
2329 Clouds 31 1015 70 10000 4.1 120 17:59 07.09.2019
2330 Clouds 31 1015 70 10000 4.1 120 17:40 07.09.2019
2331 Clouds 31 1015 70 10000 4.1 120 17:19 07.09.2019
2332 Clouds 31 1015 70 10000 4.1 120 17:19 07.09.2019
2333 Clouds 30 1015 78 10000 2.07 53.136 16:59 07.09.2019
2334 Clouds 30 1015 78 10000 2.07 53.136 16:59 07.09.2019
2335 Clouds 30 1015 78 10000 2.07 53.136 16:40 07.09.2019
2336 Clouds 30 1015 78 10000 2.07 53.136 16:19 07.09.2019
2337 Clouds 29 1015 83 10000 1.5 0 15:47 07.09.2019
2338 Clouds 29 1015 83 10000 1.5 0 15:26 07.09.2019
2339 Clouds 27 1014 94 10000 1.61 340.891 14:57 07.09.2019
2340 Clouds 27 1014 94 10000 1.61 340.891 14:37 07.09.2019
2341 Clouds 27 1014 94 10000 1.61 340.891 14:19 07.09.2019
2342 Clouds 26 1014 100 10000 2.1 50 13:57 07.09.2019
2343 Clouds 26 1014 100 10000 2.1 50 13:39 07.09.2019
2344 Clouds 25 1014 100 10000 2.1 50 13:20 07.09.2019
2345 Thunderstorm 25 1013 94 10000 2.1 30 12:44 07.09.2019
2346 Thunderstorm 25 1013 94 10000 2.1 30 12:25 07.09.2019
2347 Thunderstorm 25 1013 88 10000 2.1 50 11:42 07.09.2019
2348 Thunderstorm 25 1013 88 10000 2.1 50 11:23 07.09.2019
2349 Thunderstorm 25 1013 94 10000 2.1 20 10:59 07.09.2019
2350 Thunderstorm 25 1013 94 10000 2.1 20 10:38 07.09.2019
2351 Thunderstorm 25 1013 94 10000 2.1 20 10:38 07.09.2019
2352 Thunderstorm 25 1013 94 10000 2.1 20 10:19 07.09.2019
2353 Thunderstorm 25 1013 94 10000 2.1 20 09:43 07.09.2019
2354 Thunderstorm 26 1013 94 10000 2.1 20 09:25 07.09.2019
2355 Thunderstorm 26 1012 94 10000 2.1 20 08:57 07.09.2019
2356 Thunderstorm 26 1012 94 10000 2.1 20 08:37 07.09.2019
2357 Thunderstorm 26 1012 94 10000 2.1 20 08:19 07.09.2019
2358 Clouds 26 1014 94 10000 2.1 30 07:45 07.09.2019
2359 Clouds 26 1014 94 10000 2.1 30 07:24 07.09.2019
2360 Rain 27 1014 85 0 0.45 46 06:45 07.09.2019
2361 Rain 27 1014 85 0 0.45 60 06:19 07.09.2019
2362 Clouds 27 1014 88 10000 2.1 60 04:38 07.09.2019
2363 Clouds 27 1014 94 10000 2.1 40 03:49 07.09.2019
2364 Clouds 28 1013 88 10000 2.1 40 02:43 07.09.2019
2365 Clouds 28 1013 83 10000 2.1 70 01:44 07.09.2019
2366 Rain 28 1012 78 8000 3.1 40 00:56 07.09.2019
2367 Rain 28 1012 78 8000 3.1 40 00:37 07.09.2019
2368 Rain 29 1011 70 8000 3.1 100 00:18 07.09.2019
2369 Rain 29 1011 70 8000 3.1 100 23:38 06.09.2019
2370 Rain 29 1011 70 8000 3.1 100 23:38 06.09.2019
2371 Rain 29 1011 70 8000 3.1 100 23:20 06.09.2019
2372 Thunderstorm 29 1012 66 10000 6.2 360 22:57 06.09.2019
2373 Thunderstorm 29 1012 66 10000 6.2 360 22:37 06.09.2019
2374 Thunderstorm 30 1012 66 10000 6.2 360 22:19 06.09.2019
2375 Thunderstorm 30 1013 62 10000 5.1 360 21:56 06.09.2019
2376 Thunderstorm 31 1013 62 10000 5.1 360 21:37 06.09.2019
2377 Thunderstorm 31 1013 62 10000 5.1 360 21:19 06.09.2019
2378 Thunderstorm 31 1013 62 10000 4.1 40 20:42 06.09.2019
2379 Thunderstorm 31 1013 62 10000 4.1 40 20:24 06.09.2019
2380 Rain 32 1014 66 10000 4.1 40 19:59 06.09.2019
2381 Rain 32 1014 66 10000 4.1 40 19:41 06.09.2019
2382 Rain 32 1014 66 10000 4.1 40 19:41 06.09.2019
2383 Rain 32 1014 66 10000 4.1 40 19:21 06.09.2019
2384 Clouds 32 1015 63 10000 5.1 40 18:56 06.09.2019
2385 Clouds 32 1015 63 10000 5.1 40 18:37 06.09.2019
2386 Clouds 31 1016 62 10000 4.1 30 18:19 06.09.2019
2387 Clouds 31 1016 62 10000 4.1 30 17:40 06.09.2019
2388 Clouds 31 1016 62 10000 4.1 30 17:20 06.09.2019
2389 Clouds 30 1016 70 10000 5.1 360 16:56 06.09.2019
2390 Clouds 30 1016 70 10000 5.1 360 16:38 06.09.2019
2391 Clouds 29 1015 83 10000 4.1 10 16:18 06.09.2019
2392 Clouds 29 1015 83 10000 4.1 10 15:41 06.09.2019
2393 Clouds 29 1015 83 10000 4.1 10 15:22 06.09.2019
2394 Clouds 27 1015 94 10000 2.99 345.81 14:47 06.09.2019
2395 Clouds 26 1015 94 10000 2.99 345.81 14:19 06.09.2019
2396 Clouds 26 1014 94 10000 2.1 360 13:44 06.09.2019
2397 Clouds 25 1014 94 10000 2.1 360 13:23 06.09.2019
2398 Clouds 25 1013 94 10000 2.1 360 12:58 06.09.2019
2399 Clouds 25 1013 94 10000 2.1 360 12:37 06.09.2019
2400 Clouds 25 1013 94 10000 2.1 360 12:37 06.09.2019
2401 Clouds 25 1013 94 10000 2.1 360 12:18 06.09.2019
2402 Clouds 25 1013 94 10000 2.86 353.126 11:41 06.09.2019
2403 Clouds 25 1013 94 10000 2.86 353.126 11:23 06.09.2019
2404 Clouds 25 1014 94 10000 2.86 353.126 10:57 06.09.2019
2405 Clouds 25 1014 94 10000 2.86 353.126 10:39 06.09.2019
2406 Clouds 25 1014 94 10000 2.87 347.672 10:19 06.09.2019
2407 Clouds 25 1014 94 10000 2.1 350 09:40 06.09.2019
2408 Clouds 26 1014 94 10000 2.1 350 09:20 06.09.2019
2409 Clouds 26 1014 94 10000 2.91 337.161 08:56 06.09.2019
2410 Clouds 26 1014 94 10000 2.91 337.161 08:38 06.09.2019
2411 Clouds 25 1014 94 10000 2.91 337.161 08:20 06.09.2019
2412 Clouds 26 1015 88 10000 2.91 337.161 07:45 06.09.2019
2413 Clouds 26 1015 88 10000 2.91 337.161 07:26 06.09.2019
2414 Clouds 26 1015 88 10000 2.91 337.161 06:54 06.09.2019
2415 Clouds 27 1015 94 10000 2.81 8.903 05:58 06.09.2019
2416 Clouds 27 1015 94 10000 2.81 8.903 05:19 06.09.2019
2417 Thunderstorm 27 1015 88 10000 2.81 8.903 04:38 06.09.2019
2418 Thunderstorm 27 1015 88 10000 2.81 8.903 03:39 06.09.2019
2419 Rain 28 1014 78 10000 3.4 30.507 01:49 06.09.2019
2420 Rain 29 1014 74 10000 2.6 110 00:24 06.09.2019
2421 Clouds 30 1013 62 10000 4.1 180 23:44 05.09.2019
2422 Clouds 31 1013 62 10000 4.1 180 23:24 05.09.2019
2423 Clouds 31 1014 62 10000 5.1 180 22:47 05.09.2019
2424 Clouds 31 1014 62 10000 5.1 180 22:47 05.09.2019
2425 Clouds 32 1014 62 10000 5.1 180 22:28 05.09.2019
2426 Clouds 32 1014 59 10000 5.1 180 21:58 05.09.2019
2427 Clouds 32 1014 59 10000 5.1 180 21:40 05.09.2019
2428 Clouds 32 1014 59 10000 5.1 180 21:21 05.09.2019
2429 Clouds 33 1014 56 10000 5.1 150 20:58 05.09.2019
2430 Clouds 33 1014 56 10000 5.1 150 20:40 05.09.2019
2431 Clouds 33 1014 56 10000 5.1 150 20:22 05.09.2019
2432 Clouds 32 1015 59 10000 5.1 100 20:00 05.09.2019
2433 Clouds 32 1015 59 10000 5.1 100 19:41 05.09.2019
2434 Clouds 32 1015 59 10000 5.1 100 19:22 05.09.2019
2435 Clouds 32 1016 59 10000 2.6 70 18:57 05.09.2019
2436 Clouds 32 1016 59 10000 2.6 70 18:38 05.09.2019
2437 Clouds 32 1017 62 10000 3.1 70 18:19 05.09.2019
2438 Clouds 32 1017 62 10000 3.1 70 17:41 05.09.2019
2439 Clouds 32 1017 62 10000 3.1 70 17:22 05.09.2019
2440 Clouds 31 1017 70 10000 4.1 40 16:58 05.09.2019
2441 Clouds 30 1017 70 10000 4.1 40 16:40 05.09.2019
2442 Clouds 30 1017 70 10000 4.1 40 16:19 05.09.2019
2443 Clouds 29 1016 78 10000 3.58 35.893 15:41 05.09.2019
2444 Clouds 29 1016 78 10000 3.14 7.236 15:20 05.09.2019
2445 Clouds 28 1016 88 10000 3.14 7.236 14:59 05.09.2019
2446 Clouds 27 1016 88 10000 3.14 7.236 14:40 05.09.2019
2447 Clouds 27 1016 88 10000 3.14 7.236 14:20 05.09.2019
2448 Clouds 27 1016 88 10000 2.1 30 13:43 05.09.2019
2449 Clouds 26 1016 88 10000 2.1 30 13:23 05.09.2019
2450 Clouds 26 1016 94 10000 2.6 10 12:54 05.09.2019
2451 Clouds 26 1016 94 10000 2.6 10 12:36 05.09.2019
2452 Clouds 26 1016 94 10000 2.6 10 12:36 05.09.2019
2453 Clouds 26 1016 94 10000 2.6 10 12:36 05.09.2019
2454 Clouds 26 1016 94 10000 2.6 10 12:36 05.09.2019
2455 Clouds 26 1016 94 10000 2.6 10 12:18 05.09.2019
2456 Clouds 26 1015 88 10000 2.1 20 11:43 05.09.2019
2457 Clouds 26 1015 88 10000 2.1 20 11:20 05.09.2019
2458 Clouds 26 1015 88 10000 2.6 360 10:42 05.09.2019
2459 Clouds 26 1015 88 10000 2.6 360 10:23 05.09.2019
2460 Clouds 26 1015 88 10000 2.6 360 10:23 05.09.2019
2461 Clouds 26 1015 88 10000 2.1 30 09:59 05.09.2019
2462 Clouds 26 1015 88 10000 2.1 30 09:40 05.09.2019
2463 Clouds 26 1015 88 10000 2.1 30 09:19 05.09.2019
2464 Clouds 26 1015 88 10000 2.1 30 09:19 05.09.2019
2465 Clouds 26 1015 88 10000 2.1 30 08:46 05.09.2019
2466 Clouds 26 1015 88 10000 2.1 30 08:27 05.09.2019
2467 Clouds 27 1016 88 10000 2.1 30 07:48 05.09.2019
2468 Clouds 27 1016 88 10000 2.1 30 07:29 05.09.2019
2469 Clouds 27 1016 83 10000 2.1 60 06:58 05.09.2019
2470 Clouds 27 1016 83 10000 2.1 60 06:32 05.09.2019
2471 Clouds 27 1016 83 10000 2.1 60 05:51 05.09.2019
2472 Clouds 27 1016 83 10000 2.1 60 05:32 05.09.2019
2473 Clouds 28 1016 83 10000 3.1 60 04:55 05.09.2019
2474 Clouds 28 1016 83 10000 3.1 60 04:29 05.09.2019
2475 Clouds 29 1015 83 10000 3.1 100 03:40 05.09.2019
2476 Clouds 29 1015 79 10000 3.1 110 02:53 05.09.2019
2477 Clouds 29 1015 79 10000 3.1 110 02:27 05.09.2019
2478 Clouds 30 1016 70 10000 2.6 180 01:37 05.09.2019
2479 Clouds 30 1015 66 10000 4.1 180 00:48 05.09.2019
2480 Clouds 30 1015 66 10000 4.1 180 00:22 05.09.2019
2481 Clouds 31 1015 66 10000 4.1 160 23:56 04.09.2019
2482 Clouds 32 1015 66 10000 4.1 160 23:37 04.09.2019
2483 Clouds 32 1015 59 10000 7.2 180 23:18 04.09.2019
2484 Clouds 32 1015 59 10000 7.2 180 22:46 04.09.2019
2485 Clouds 32 1015 59 10000 7.2 180 22:19 04.09.2019
2486 Clouds 33 1015 59 10000 5.1 180 21:40 04.09.2019
2487 Clouds 33 1015 59 10000 5.1 180 21:20 04.09.2019
2488 Clouds 33 1015 59 10000 5.1 170 20:58 04.09.2019
2489 Clouds 32 1015 59 10000 5.1 170 20:40 04.09.2019
2490 Clouds 32 1016 59 10000 5.1 180 20:19 04.09.2019
2491 Clouds 33 1016 59 10000 5.1 180 19:57 04.09.2019
2492 Clouds 32 1016 59 10000 5.1 180 19:38 04.09.2019
2493 Clouds 32 1017 59 10000 4.8 140.874 19:19 04.09.2019
2494 Clouds 32 1017 59 10000 4.8 140.874 18:39 04.09.2019
2495 Clouds 32 1017 59 10000 4.8 140.874 18:39 04.09.2019
2496 Clouds 32 1017 63 10000 2.46 111.797 18:20 04.09.2019
2497 Clouds 32 1017 63 10000 2.46 111.797 17:54 04.09.2019
2498 Clouds 32 1017 63 10000 2.46 111.797 17:54 04.09.2019
2499 Clouds 32 1017 63 10000 2.46 111.797 17:36 04.09.2019
2500 Clouds 31 1017 66 10000 2.1 60 17:18 04.09.2019
2501 Clouds 31 1017 66 10000 2.1 60 16:46 04.09.2019
2502 Clouds 31 1017 66 10000 2.1 60 16:46 04.09.2019
2503 Clouds 31 1017 66 10000 2.1 60 16:27 04.09.2019
2504 Clouds 30 1016 74 10000 2.46 111.797 15:56 04.09.2019
2505 Clouds 30 1016 74 10000 2.46 111.797 15:38 04.09.2019
2506 Clouds 30 1016 74 10000 1.83 356.117 15:20 04.09.2019
2507 Clouds 30 1016 74 10000 1.83 356.117 15:20 04.09.2019
2508 Clouds 28 1015 88 10000 1.83 356.117 14:55 04.09.2019
2509 Clouds 28 1015 88 10000 1.83 356.117 14:55 04.09.2019
2510 Clouds 28 1015 88 10000 1.83 356.117 14:37 04.09.2019
2511 Clouds 27 1015 88 10000 2.1 40 14:18 04.09.2019
2512 Clouds 27 1015 88 10000 2.1 40 13:40 04.09.2019
2513 Clouds 27 1015 88 10000 2.1 40 13:22 04.09.2019
2514 Clouds 26 1014 94 10000 2.1 50 12:57 04.09.2019
2515 Clouds 26 1014 94 10000 2.1 50 12:38 04.09.2019
2516 Clouds 26 1014 94 10000 2.1 50 12:38 04.09.2019
2517 Clouds 26 1014 94 10000 2.1 30 12:19 04.09.2019
2518 Clouds 26 1014 94 10000 2.1 30 11:41 04.09.2019
2519 Clouds 26 1014 94 10000 2.1 30 11:21 04.09.2019
2520 Clouds 26 1013 88 10000 2.1 0 10:59 04.09.2019
2521 Clouds 26 1013 88 10000 2.1 0 10:59 04.09.2019
2522 Clouds 26 1013 88 10000 2.1 0 10:41 04.09.2019
2523 Clouds 27 1013 88 10000 2.1 0 10:23 04.09.2019
2524 Clouds 26 1013 94 10000 1.46 340.771 09:47 04.09.2019
2525 Clouds 26 1013 94 10000 1.46 340.771 09:27 04.09.2019
2526 Clouds 26 1013 94 10000 2.1 40 08:59 04.09.2019
2527 Clouds 26 1013 94 10000 2.1 40 08:40 04.09.2019
2528 Clouds 26 1013 94 10000 2.1 40 08:21 04.09.2019
2529 Clouds 26 1014 94 10000 2.1 40 07:46 04.09.2019
2530 Clouds 26 1014 94 10000 2.1 40 07:28 04.09.2019
2531 Clouds 27 1014 88 10000 2.1 50 06:39 04.09.2019
2532 Clouds 28 1014 83 10000 2.1 110 04:57 04.09.2019
2533 Clouds 28 1014 83 10000 2.1 110 04:25 04.09.2019
2534 Clouds 29 1013 83 10000 3.1 120 03:45 04.09.2019
2535 Clouds 29 1012 74 10000 2.1 140 01:22 04.09.2019
2536 Clouds 30 1012 66 10000 3.1 120 00:50 04.09.2019
2537 Clouds 30 1012 66 10000 3.1 120 00:31 04.09.2019
2538 Clouds 31 1012 58 10000 4.1 160 23:54 03.09.2019
2539 Clouds 31 1012 58 10000 4.1 160 23:27 03.09.2019
2540 Clouds 32 1012 52 10000 5.1 180 22:57 03.09.2019
2541 Clouds 32 1012 52 10000 5.1 180 22:39 03.09.2019
2542 Clouds 32 1012 52 10000 5.1 180 22:21 03.09.2019
2543 Clouds 33 1012 52 10000 4.1 160 21:55 03.09.2019
2544 Clouds 33 1012 52 10000 4.1 160 21:55 03.09.2019
2545 Clouds 33 1012 52 10000 4.1 160 21:36 03.09.2019
2546 Clouds 33 1012 52 10000 4.1 160 21:36 03.09.2019
2547 Clouds 33 1013 55 10000 5.1 180 21:18 03.09.2019
2548 Clouds 32 1013 55 10000 5.1 180 20:41 03.09.2019
2549 Clouds 32 1013 55 10000 5.1 180 20:21 03.09.2019
2550 Clouds 32 1014 62 10000 5.1 160 19:55 03.09.2019
2551 Clouds 32 1014 62 10000 5.1 160 19:37 03.09.2019
2552 Clouds 31 1014 62 10000 5.1 160 19:18 03.09.2019
2553 Rain 31 1014 66 10000 5.1 160 18:44 03.09.2019
2554 Rain 31 1014 66 10000 5.1 160 18:44 03.09.2019
2555 Rain 31 1014 66 10000 5.1 160 18:25 03.09.2019
2556 Rain 29 1014 70 10000 3.26 141.159 17:58 03.09.2019
2557 Clouds 30 1014 70 10000 3.26 141.159 17:39 03.09.2019
2558 Clouds 31 1014 70 10000 3.26 141.159 17:19 03.09.2019
2559 Clouds 31 1014 70 10000 3.26 141.159 17:19 03.09.2019
2560 Clouds 29 1013 83 10000 4.1 120 16:55 03.09.2019
2561 Clouds 29 1013 83 10000 4.1 120 16:36 03.09.2019
2562 Rain 29 1013 83 6000 2.6 60 16:18 03.09.2019
2563 Rain 28 1013 83 6000 2.6 60 15:39 03.09.2019
2564 Rain 27 1013 83 6000 2.6 60 15:21 03.09.2019
2565 Rain 26 1012 83 10000 0.75 329.98 14:58 03.09.2019
2566 Rain 26 1012 83 10000 0.75 329.98 14:40 03.09.2019
2567 Clouds 26 1012 83 10000 0.75 329.98 14:20 03.09.2019
2568 -273 0 0 0 0 0 13:56 03.09.2019
2569 Clouds 26 1012 94 10000 1.5 0 13:37 03.09.2019
2570 Clouds 25 1012 94 10000 1.5 0 13:19 03.09.2019
2571 Clouds 25 1012 94 10000 1.5 0 12:48 03.09.2019
2572 Clouds 25 1012 94 10000 1.5 0 12:29 03.09.2019
2573 Rain 26 1013 91 0 0.89 86 11:57 03.09.2019
2574 Rain 26 1013 90 0 0.76 316.697 11:38 03.09.2019
2575 Clouds 26 1012 100 10000 3.1 60 11:18 03.09.2019
2576 Rain 26 1012 100 10000 3.1 60 10:41 03.09.2019
2577 Rain 25 1012 100 10000 3.1 60 10:22 03.09.2019
2578 Rain 26 1012 94 10000 2.6 50 09:53 03.09.2019
2579 Rain 26 1012 94 10000 2.6 50 09:34 03.09.2019
2580 Rain 26 1012 94 10000 2.1 40 08:59 03.09.2019
2581 Clouds 26 1012 94 10000 2.1 40 08:39 03.09.2019
2582 Clouds 26 1012 94 10000 2.1 40 08:20 03.09.2019
2583 Clouds 26 1013 100 8000 2.1 70 07:43 03.09.2019
2584 Clouds 26 1013 100 8000 2.1 70 07:43 03.09.2019
2585 Clouds 26 1013 100 8000 2.1 70 07:24 03.09.2019
2586 Clouds 26 1013 100 8000 2.1 70 07:24 03.09.2019
2587 Clouds 26 1013 94 10000 2.1 30 06:55 03.09.2019
2588 Clouds 26 1013 94 10000 2.1 30 06:37 03.09.2019
2589 Clouds 28 1012 78 10000 2.6 100 03:44 03.09.2019
2590 Clouds 29 1011 78 10000 2.1 140 02:52 03.09.2019
2591 Clouds 29 1011 78 10000 2.1 140 02:32 03.09.2019
2592 Clouds 29 1011 74 10000 2.1 150 01:59 03.09.2019
2593 Clouds 29 1011 74 10000 2.1 150 01:41 03.09.2019
2594 Clouds 30 1011 74 10000 2.1 150 01:22 03.09.2019
2595 Clouds 30 1011 62 10000 5.1 180 00:31 03.09.2019
2596 Clouds 31 1011 62 10000 5.1 180 23:57 02.09.2019
2597 Clouds 31 1011 62 10000 5.1 180 23:36 02.09.2019
2598 Clouds 32 1011 52 10000 5.1 180 23:18 02.09.2019
2599 Clouds 32 1011 52 10000 5.1 180 23:18 02.09.2019
2600 Clouds 32 1011 52 10000 5.1 180 22:55 02.09.2019
2601 Clouds 32 1011 52 10000 5.1 180 22:36 02.09.2019
2602 Clouds 32 1012 49 10000 5.1 180 22:18 02.09.2019
2603 -273 0 0 0 0 0 21:55 02.09.2019
2604 Clouds 32 1012 49 10000 5.1 180 21:36 02.09.2019
2605 Clouds 32 1012 52 10000 6.2 180 21:18 02.09.2019
2606 Clouds 33 1012 52 10000 6.2 180 20:41 02.09.2019
2607 Clouds 32 1012 52 10000 6.2 180 20:22 02.09.2019
2608 Clouds 32 1012 52 10000 6.2 180 19:57 02.09.2019
2609 Clouds 32 1012 52 10000 6.2 180 19:57 02.09.2019
2610 Clouds 32 1013 56 10000 5.7 180 19:39 02.09.2019
2611 Clouds 32 1013 56 10000 5.7 180 19:39 02.09.2019
2612 Clouds 32 1013 56 10000 5.7 180 19:21 02.09.2019
2613 Clouds 33 1013 56 10000 3.1 100 18:42 02.09.2019
2614 Clouds 33 1013 56 10000 3.1 100 18:42 02.09.2019
2615 Clouds 32 1014 62 10000 5.1 120 18:23 02.09.2019
2616 Clouds 32 1014 62 10000 5.1 120 17:59 02.09.2019
2617 Clouds 32 1014 62 10000 5.1 120 17:40 02.09.2019
2618 Clouds 31 1014 62 10000 5.1 120 17:21 02.09.2019
2619 Clouds 31 1014 70 10000 2.1 120 16:59 02.09.2019
2620 Clouds 31 1014 70 10000 2.1 120 16:38 02.09.2019
2621 Clouds 31 1014 70 10000 2.1 120 16:20 02.09.2019
2622 Clouds 29 1014 78 10000 2.1 40 15:45 02.09.2019
2623 Clouds 29 1014 78 10000 2.1 40 15:26 02.09.2019
2624 Clouds 27 1014 94 10000 1.41 358.737 14:57 02.09.2019
2625 Clouds 27 1014 94 10000 1.41 358.737 14:38 02.09.2019
2626 Clouds 26 1014 94 10000 1.41 358.737 14:20 02.09.2019
2627 Clouds 26 1013 88 10000 2.6 30 13:55 02.09.2019
2628 Clouds 26 1013 88 10000 2.6 30 13:55 02.09.2019
2629 Clouds 26 1013 88 10000 2.6 30 13:36 02.09.2019
2630 Clouds 25 1012 94 10000 3.1 40 13:18 02.09.2019
2631 Clouds 25 1012 94 10000 3.1 40 12:42 02.09.2019
2632 Clouds 25 1012 94 10000 3.1 40 12:24 02.09.2019
2633 Clouds 25 1012 88 10000 2.1 40 11:58 02.09.2019
2634 Clouds 25 1012 88 10000 2.1 40 11:58 02.09.2019
2635 Clouds 25 1012 88 10000 2.1 40 11:38 02.09.2019
2636 Clouds 25 1012 88 10000 2.1 40 11:20 02.09.2019
2637 Clouds 26 1012 83 10000 2.1 30 10:56 02.09.2019
2638 Clouds 26 1012 83 10000 2.1 30 10:36 02.09.2019
2639 Clouds 26 1012 83 10000 2.1 30 10:36 02.09.2019
2640 Clouds 25 1012 83 10000 2.1 30 10:18 02.09.2019
2641 Clouds 25 1012 83 10000 2.1 30 10:18 02.09.2019
2642 Clouds 25 1012 83 10000 2.1 40 09:42 02.09.2019
2643 Clouds 26 1012 83 10000 2.1 40 09:21 02.09.2019
2644 Clouds 26 1013 83 10000 2.1 20 08:44 02.09.2019
2645 Clouds 26 1013 83 10000 2.1 20 08:22 02.09.2019
2646 Clouds 26 1013 83 10000 2.1 30 07:57 02.09.2019
2647 Clouds 26 1013 83 10000 2.1 30 07:39 02.09.2019
2648 Clouds 27 1013 83 10000 2.1 30 07:20 02.09.2019
2649 Clouds 27 1013 83 10000 2.1 60 06:43 02.09.2019
2650 Clouds 26 1013 83 10000 2.1 60 05:54 02.09.2019
2651 Clouds 26 1013 83 10000 2.1 60 05:54 02.09.2019
2652 Clouds 27 1013 83 10000 2.1 40 05:26 02.09.2019
2653 Clouds 27 1013 83 10000 2.1 40 04:50 02.09.2019
2654 Clouds 29 1012 74 10000 3.1 70 02:30 02.09.2019
2655 Clouds 29 1013 70 10000 0.51 159.881 01:41 02.09.2019
2656 Clouds 30 1012 66 10000 4.1 160 00:42 02.09.2019
2657 Clouds 30 1012 66 10000 4.1 160 00:21 02.09.2019
2658 Clouds 30 1012 66 10000 5.1 180 23:39 01.09.2019
2659 Clouds 30 1012 66 10000 5.1 180 23:19 01.09.2019
2660 Clouds 30 1012 66 10000 5.1 180 23:19 01.09.2019
2661 Clouds 31 1012 62 10000 5.1 180 22:57 01.09.2019
2662 Clouds 31 1012 62 10000 5.1 180 22:38 01.09.2019
2663 Clouds 32 1012 56 10000 5.1 180 22:18 01.09.2019
2664 Clouds 32 1012 56 10000 5.1 180 22:18 01.09.2019
2665 Clouds 33 1012 56 10000 5.1 180 21:54 01.09.2019
2666 Clouds 33 1012 56 10000 5.1 180 21:36 01.09.2019
2667 Clouds 33 1012 56 10000 5.1 180 21:36 01.09.2019
2668 Clouds 33 1013 56 10000 6.2 180 21:18 01.09.2019
2669 Clouds 33 1013 56 10000 6.2 180 20:54 01.09.2019
2670 Clouds 33 1013 56 10000 6.2 180 20:36 01.09.2019
2671 Clouds 33 1013 55 10000 6.2 180 20:18 01.09.2019
2672 Clouds 33 1013 55 10000 6.2 180 19:40 01.09.2019
2673 Clouds 32 1013 55 10000 6.2 180 19:21 01.09.2019
2674 Clouds 32 1014 59 10000 5.1 180 18:48 01.09.2019
2675 Clouds 32 1014 59 10000 5.1 180 18:30 01.09.2019
2676 Clouds 32 1014 59 10000 5.1 180 17:59 01.09.2019
2677 Clouds 32 1014 59 10000 5.1 130 17:39 01.09.2019
2678 Clouds 32 1014 59 10000 5.1 130 17:21 01.09.2019
2679 Clouds 31 1014 66 10000 2.6 90 16:41 01.09.2019
2680 Clouds 31 1014 66 10000 2.6 90 16:22 01.09.2019
2681 Clouds 29 1013 83 10000 2.1 156.271 15:59 01.09.2019
2682 Clouds 29 1013 83 10000 2.1 156.271 15:41 01.09.2019
2683 Clouds 29 1013 83 10000 0.89 335.972 15:23 01.09.2019
2684 Clouds 27 1013 88 10000 0.89 335.972 14:44 01.09.2019
2685 Clouds 27 1013 88 10000 0.89 335.972 14:26 01.09.2019
2686 Clouds 26 1013 94 10000 2.1 30 13:59 01.09.2019
2687 Clouds 26 1013 94 10000 2.1 30 13:40 01.09.2019
2688 Clouds 26 1013 94 10000 2.1 30 13:40 01.09.2019
2689 Clouds 26 1013 94 10000 2.1 30 13:22 01.09.2019
2690 Clouds 26 1012 94 10000 2.1 60 12:44 01.09.2019
2691 Clouds 26 1012 94 10000 2.1 60 12:26 01.09.2019
2692 Clouds 26 1012 94 10000 2.1 60 12:26 01.09.2019
2693 Clouds 26 1012 94 10000 2.1 60 11:58 01.09.2019
2694 Clouds 25 1012 94 10000 2.1 60 11:38 01.09.2019
2695 Clouds 25 1012 94 10000 2.1 60 11:18 01.09.2019
2696 Clouds 25 1012 94 10000 2.1 60 10:45 01.09.2019
2697 Clouds 25 1012 94 10000 2.1 60 10:23 01.09.2019
2698 Clouds 26 1013 94 10000 2.1 50 09:47 01.09.2019
2699 Clouds 26 1013 94 10000 2.1 50 09:26 01.09.2019
2700 Clouds 26 1013 94 10000 2.1 60 08:56 01.09.2019
2701 Clouds 26 1013 94 10000 2.1 60 08:38 01.09.2019
2702 Clouds 26 1013 94 10000 2.1 60 08:19 01.09.2019
2703 Clouds 27 1013 88 10000 2.1 60 07:41 01.09.2019
2704 Clouds 27 1014 88 10000 2.1 70 07:20 01.09.2019
2705 Clouds 27 1014 88 10000 2.1 70 06:38 01.09.2019
2706 Clouds 27 1014 83 10000 2.1 60 05:58 01.09.2019
2707 Clouds 27 1014 83 10000 2.1 60 05:58 01.09.2019
2708 Clouds 28 1014 83 10000 2.1 100 04:40 01.09.2019
2709 Clouds 28 1013 78 10000 2.1 100 03:44 01.09.2019
2710 Clouds 29 1013 78 10000 2.1 100 03:19 01.09.2019
2711 Clouds 29 1012 74 10000 1.74 163.146 02:30 01.09.2019
2712 Clouds 30 1013 70 10000 3.1 180 01:58 01.09.2019
2713 Clouds 30 1013 70 10000 3.1 180 01:27 01.09.2019
2714 Clouds 31 1012 62 10000 4.1 150 00:47 01.09.2019
2715 Clouds 31 1012 62 10000 4.1 150 00:23 01.09.2019
2716 Clouds 33 1012 59 10000 5.1 150 23:56 31.08.2019
2717 Clouds 32 1012 59 10000 5.1 150 23:38 31.08.2019
2718 Clouds 33 1012 59 10000 5.1 150 23:19 31.08.2019
2719 Clouds 32 1012 59 10000 5.1 180 22:54 31.08.2019
2720 Clouds 32 1012 59 10000 5.1 180 22:36 31.08.2019
2721 Clouds 32 1012 59 10000 5.1 180 22:36 31.08.2019
2722 Clouds 32 1012 59 10000 5.1 180 22:36 31.08.2019
2723 Clouds 33 1012 59 10000 5.1 150 22:18 31.08.2019
2724 Clouds 33 1012 59 10000 5.1 150 21:40 31.08.2019
2725 Clouds 33 1012 59 10000 5.1 150 21:40 31.08.2019
2726 Clouds 33 1012 59 10000 5.1 150 21:21 31.08.2019
2727 Clouds 33 1013 59 10000 5.1 180 20:50 31.08.2019
2728 Clouds 33 1013 59 10000 5.1 180 20:31 31.08.2019
2729 Clouds 33 1013 59 10000 5.1 180 19:57 31.08.2019
2730 Clouds 33 1014 59 10000 5.1 180 19:39 31.08.2019
2731 Clouds 33 1014 59 10000 5.1 180 19:21 31.08.2019
2732 Clouds 33 1014 59 10000 5.1 180 19:21 31.08.2019
2733 Clouds 32 1016 59 10000 3.69 160.103 18:40 31.08.2019
2734 Clouds 32 1015 62 10000 2.06 154.744 18:21 31.08.2019
2735 Clouds 32 1015 62 10000 2.06 154.744 17:58 31.08.2019
2736 Clouds 32 1015 62 10000 2.06 154.744 17:37 31.08.2019
2737 Clouds 32 1015 62 10000 2.06 154.744 17:37 31.08.2019
2738 Clouds 32 1015 62 10000 2.06 154.744 17:19 31.08.2019
2739 Clouds 31 1015 70 10000 2.06 154.744 16:59 31.08.2019
2740 Clouds 31 1015 70 10000 2.06 154.744 16:59 31.08.2019
2741 Clouds 31 1015 70 10000 2.06 154.744 16:40 31.08.2019
2742 Clouds 31 1015 70 10000 2.06 154.744 16:21 31.08.2019
2743 Clouds 29 1015 83 10000 2.06 154.744 15:58 31.08.2019
2744 Clouds 29 1015 83 10000 2.06 154.744 15:37 31.08.2019
2745 Clouds 27 1015 88 10000 1.01 332.57 15:18 31.08.2019
2746 Clouds 26 1015 88 10000 1.01 332.57 14:41 31.08.2019
2747 Clouds 26 1015 88 10000 1.01 332.57 14:22 31.08.2019
2748 Clouds 26 1015 88 10000 1.01 332.57 14:22 31.08.2019
2749 Clouds 26 1015 86 0 1.01 332.57 13:42 31.08.2019
2750 Clouds 25 1013 94 10000 2.1 80 13:23 31.08.2019
2751 Clouds 25 1013 94 10000 2.1 80 12:59 31.08.2019
2752 Clouds 25 1013 94 10000 2.1 80 12:40 31.08.2019
2753 Clouds 25 1013 94 10000 2.1 40 12:20 31.08.2019
2754 Clouds 25 1013 94 10000 2.1 40 11:56 31.08.2019
2755 Clouds 25 1013 94 10000 2.1 40 11:38 31.08.2019
2756 Clouds 25 1013 94 10000 2.1 40 11:20 31.08.2019
2757 Clouds 25 1013 94 10000 2.1 40 10:42 31.08.2019
2758 Clouds 25 1013 94 10000 2.1 40 10:19 31.08.2019
2759 Clouds 25 1013 94 10000 2.6 40 09:59 31.08.2019
2760 Clouds 25 1013 94 10000 2.6 40 09:38 31.08.2019
2761 Clouds 25 1013 94 10000 2.6 40 09:19 31.08.2019
2762 Clouds 25 1013 88 10000 2.1 40 08:43 31.08.2019
2763 Clouds 25 1013 88 10000 2.1 40 08:23 31.08.2019
2764 Clouds 25 1014 94 10000 2.1 50 07:41 31.08.2019
2765 Clouds 25 1014 94 10000 2.1 50 07:22 31.08.2019
2766 Clouds 26 1014 88 10000 2.6 50 06:41 31.08.2019
2767 Clouds 26 1014 88 10000 2.6 60 06:18 31.08.2019
2768 Clouds 26 1014 88 10000 2.6 60 05:34 31.08.2019
2769 Clouds 27 1014 88 10000 2.1 100 04:36 31.08.2019
2770 Clouds 27 1014 88 10000 2.1 100 04:36 31.08.2019
2771 Clouds 27 1014 83 10000 2.6 150 03:45 31.08.2019
2772 Clouds 29 1014 79 10000 2.1 130 02:37 31.08.2019
2773 Clouds 29 1013 70 10000 1.26 190.435 01:55 31.08.2019
2774 Clouds 29 1013 70 10000 1.52 176.461 01:34 31.08.2019
2775 Clouds 30 1012 66 10000 3.1 160 00:52 31.08.2019
2776 Clouds 30 1012 66 10000 3.1 160 00:30 31.08.2019
2777 Clouds 31 1012 62 10000 5.1 160 23:57 30.08.2019
2778 Clouds 31 1012 62 10000 5.1 160 23:57 30.08.2019
2779 Clouds 32 1012 62 10000 5.1 160 23:38 30.08.2019
2780 Clouds 32 1012 62 10000 5.1 180 23:18 30.08.2019
2781 Clouds 32 1012 62 10000 5.1 180 22:42 30.08.2019
2782 Clouds 32 1012 62 10000 5.1 180 22:22 30.08.2019
2783 Clouds 33 1013 52 10000 6.2 180 21:58 30.08.2019
2784 Clouds 33 1013 52 10000 6.2 180 21:38 30.08.2019
2785 Clouds 33 1013 52 10000 6.2 180 21:19 30.08.2019
2786 Clouds 33 1013 52 10000 6.2 180 21:19 30.08.2019
2787 Clouds 33 1013 52 10000 6.2 180 21:19 30.08.2019
2788 Clouds 33 1013 56 10000 7.7 180 20:58 30.08.2019
2789 Clouds 33 1013 56 10000 7.7 180 20:39 30.08.2019
2790 Clouds 32 1013 59 10000 5.1 180 20:20 30.08.2019
2791 Clouds 33 1013 59 10000 5.1 180 19:57 30.08.2019
2792 Clouds 33 1013 59 10000 5.1 180 19:38 30.08.2019
2793 Clouds 33 1013 59 10000 5.1 180 19:19 30.08.2019
2794 Clouds 32 1014 66 10000 6.2 180 18:47 30.08.2019
2795 Clouds 32 1014 66 10000 6.2 180 18:25 30.08.2019
2796 Clouds 32 1015 70 10000 5.1 180 17:58 30.08.2019
2797 Clouds 32 1015 70 10000 5.1 180 17:58 30.08.2019
2798 Clouds 32 1015 70 10000 5.1 180 17:40 30.08.2019
2799 Clouds 32 1015 70 10000 5.1 180 17:19 30.08.2019
2800 Clouds 30 1015 70 10000 3.82 172.334 16:57 30.08.2019
2801 Clouds 30 1015 70 10000 3.82 172.334 16:39 30.08.2019
2802 Clouds 30 1015 70 10000 3.82 172.334 16:21 30.08.2019
2803 Clouds 29 1014 78 10000 2.6 130 15:43 30.08.2019
2804 Clouds 29 1014 78 10000 2.6 130 15:22 30.08.2019
2805 Clouds 27 1013 88 10000 1.02 247.319 14:45 30.08.2019
2806 Clouds 27 1013 88 10000 1.02 247.319 14:26 30.08.2019
2807 Clouds 26 1013 94 10000 2.1 60 13:57 30.08.2019
2808 Clouds 26 1013 94 10000 2.1 60 13:39 30.08.2019
2809 Clouds 26 1013 94 10000 2.1 60 13:39 30.08.2019
2810 Clouds 27 1013 94 10000 2.1 60 13:21 30.08.2019
2811 Clouds 26 1012 94 10000 2.1 70 12:45 30.08.2019
2812 Clouds 26 1012 94 10000 2.1 70 12:26 30.08.2019
2813 Clouds 25 1012 94 10000 2.1 50 11:57 30.08.2019
2814 Clouds 25 1012 94 10000 2.1 50 11:39 30.08.2019
2815 Clouds 25 1012 94 10000 2.1 50 11:39 30.08.2019
2816 Clouds 25 1012 94 10000 2.1 50 11:21 30.08.2019
2817 Thunderstorm 25 1012 94 10000 2.1 90 10:37 30.08.2019
2818 Thunderstorm 26 1012 94 10000 2.1 90 10:19 30.08.2019
2819 Thunderstorm 26 1012 94 10000 1.34 283.04 09:55 30.08.2019
2820 Thunderstorm 26 1012 94 10000 1.34 283.04 09:36 30.08.2019
2821 Thunderstorm 26 1013 94 10000 1.23 263.952 09:18 30.08.2019
2822 Thunderstorm 26 1013 94 10000 1.23 263.952 09:18 30.08.2019
2823 Thunderstorm 26 1013 94 10000 1.23 263.952 08:43 30.08.2019
2824 Thunderstorm 27 1013 94 10000 1.23 263.952 08:23 30.08.2019
2825 Thunderstorm 27 1013 94 10000 1.23 263.952 07:46 30.08.2019
2826 Thunderstorm 27 1013 94 10000 1.23 263.952 07:26 30.08.2019
2827 Clouds 27 1014 88 0 1.23 263.952 06:58 30.08.2019
2828 Clouds 27 1014 88 0 1.23 263.952 06:39 30.08.2019
2829 Clouds 27 1014 88 10000 1.15 225.386 06:20 30.08.2019
2830 Clouds 28 1014 88 10000 1.15 225.386 05:24 30.08.2019
2831 Clouds 27 1012 83 10000 1.15 225.386 03:56 30.08.2019
2832 Clouds 27 1012 83 10000 1.15 225.386 03:37 30.08.2019
2833 Clouds 27 1012 83 10000 1.15 225.386 03:37 30.08.2019
2834 Clouds 29 1012 74 10000 2.1 150 02:37 30.08.2019
2835 Clouds 29 1012 70 10000 4.1 180 01:40 30.08.2019
2836 Clouds 31 1011 62 10000 5.1 180 00:47 30.08.2019
2837 Clouds 31 1011 55 10000 6.2 180 00:18 30.08.2019
2838 Clouds 32 1011 55 10000 6.2 180 23:46 29.08.2019
2839 Clouds 32 1011 55 10000 6.2 180 23:21 29.08.2019
2840 Clouds 32 1011 55 10000 6.2 180 23:21 29.08.2019
2841 Clouds 32 1011 55 10000 6.2 180 23:21 29.08.2019
2842 Clouds 32 1011 52 10000 5.7 180 22:45 29.08.2019
2843 Clouds 32 1011 52 10000 5.7 180 22:26 29.08.2019
2844 Clouds 32 1012 49 10000 6.2 180 21:58 29.08.2019
2845 Clouds 32 1012 49 10000 6.2 180 21:58 29.08.2019
2846 Clouds 32 1012 49 10000 6.2 180 21:58 29.08.2019
2847 Clouds 33 1012 49 10000 6.2 180 21:40 29.08.2019
2848 Clouds 33 1012 49 10000 6.2 180 21:21 29.08.2019
2849 Clouds 33 1012 52 10000 6.2 180 20:57 29.08.2019
2850 Clouds 33 1012 52 10000 6.2 180 20:38 29.08.2019
2851 Clouds 33 1012 52 10000 6.2 180 20:18 29.08.2019
2852 Clouds 32 1013 59 10000 5.1 180 19:46 29.08.2019
2853 Clouds 32 1013 59 10000 5.1 180 19:26 29.08.2019
2854 Clouds 32 1013 62 10000 5.1 180 18:57 29.08.2019
2855 Clouds 32 1013 62 10000 5.1 180 18:39 29.08.2019
2856 Clouds 32 1013 62 10000 5.1 180 18:18 29.08.2019
2857 Clouds 31 1014 66 10000 2.1 130 17:54 29.08.2019
2858 Clouds 31 1014 66 10000 2.1 130 17:36 29.08.2019
2859 Clouds 31 1014 66 10000 2.1 130 17:18 29.08.2019
2860 Clouds 31 1014 66 10000 2.1 130 17:18 29.08.2019
2861 Clouds 31 1014 66 10000 2.1 130 17:18 29.08.2019
2862 Clouds 31 1014 70 10000 2.1 140 16:41 29.08.2019
2863 Clouds 31 1014 70 10000 2.1 140 16:41 29.08.2019
2864 Clouds 29 1013 83 10000 2.14 130.622 16:22 29.08.2019
2865 Clouds 29 1013 83 10000 2.14 130.622 15:41 29.08.2019
2866 Clouds 29 1013 83 10000 1.26 329.114 15:21 29.08.2019
2867 Clouds 27 1012 94 10000 1.26 329.114 14:58 29.08.2019
2868 Clouds 27 1012 94 10000 1.26 329.114 14:39 29.08.2019
2869 Clouds 26 1012 94 10000 1.26 329.114 14:20 29.08.2019
2870 Clouds 25 1012 88 10000 1.5 10 13:56 29.08.2019
2871 Clouds 25 1012 88 10000 1.5 10 13:56 29.08.2019
2872 Clouds 26 1012 88 10000 1.5 10 13:37 29.08.2019
2873 Clouds 25 1011 88 10000 1 0 13:18 29.08.2019
2874 Clouds 25 1011 88 10000 1 0 12:56 29.08.2019
2875 Clouds 25 1011 88 10000 1 0 12:37 29.08.2019
2876 Clouds 25 1011 94 10000 2.1 360 12:19 29.08.2019
2877 Clouds 25 1011 94 10000 2.1 360 11:42 29.08.2019
2878 Clouds 25 1011 94 10000 2.1 360 11:21 29.08.2019
2879 Clouds 25 1011 94 10000 2.1 360 10:57 29.08.2019
2880 Clouds 25 1011 88 10000 1.5 0 10:38 29.08.2019
2881 Clouds 25 1011 88 10000 1.5 0 10:19 29.08.2019
2882 Clouds 26 1011 88 10000 1.5 0 09:41 29.08.2019
2883 Clouds 26 1011 88 10000 1.5 0 09:19 29.08.2019
2884 Clear 26 1012 88 10000 2.3 338.837 08:45 29.08.2019
2885 Clear 26 1012 88 10000 2.3 338.837 08:25 29.08.2019
2886 Clear 26 1012 88 10000 1.5 40 07:58 29.08.2019
2887 Clear 26 1012 88 10000 1.5 40 07:37 29.08.2019
2888 Clear 27 1012 88 10000 1.5 40 07:18 29.08.2019
2889 Clear 27 1013 88 10000 2.3 338.837 06:40 29.08.2019
2890 Clear 28 1012 83 10000 2.1 350 05:52 29.08.2019
2891 Clear 28 1012 83 10000 2.1 350 05:31 29.08.2019
2892 Clouds 28 1012 83 10000 1 10 04:48 29.08.2019
2893 Clouds 28 1012 83 10000 1 10 04:28 29.08.2019
2894 Clouds 28 1012 78 10000 2.1 90 01:55 29.08.2019
2895 Clouds 28 1012 78 10000 2.1 90 01:35 29.08.2019
2896 Clouds 28 1012 78 10000 2.1 90 01:35 29.08.2019
2897 Rain 29 1012 74 8000 4.1 360 00:47 29.08.2019
2898 Rain 30 1012 74 8000 4.1 360 00:24 29.08.2019
2899 Clouds 31 1011 59 10000 5.1 90 23:59 28.08.2019
2900 Clouds 32 1011 59 10000 5.1 90 23:39 28.08.2019
2901 Clouds 32 1011 59 10000 5.1 90 23:21 28.08.2019
2902 Clouds 32 1011 55 10000 3.1 90 22:56 28.08.2019
2903 Clear 32 1011 68 0 2.68 107 22:38 28.08.2019
2904 Clouds 32 1012 49 10000 4.1 120 22:18 28.08.2019
2905 Clouds 32 1012 49 10000 4.1 120 21:41 28.08.2019
2906 Clouds 32 1012 49 10000 4.1 120 21:23 28.08.2019
2907 Thunderstorm 31 1012 49 10000 4.1 20 20:57 28.08.2019
2908 Thunderstorm 31 1012 49 10000 4.1 20 20:38 28.08.2019
2909 Clouds 32 1012 49 10000 4.1 20 20:20 28.08.2019
2910 Clouds 33 1013 55 10000 3.1 30 19:42 28.08.2019
2911 Clouds 32 1014 52 10000 3.1 90 19:22 28.08.2019
2912 Clouds 32 1014 52 10000 3.1 90 18:58 28.08.2019
2913 Clouds 32 1014 52 10000 3.1 90 18:37 28.08.2019
2914 Clouds 32 1015 66 10000 3.1 90 18:19 28.08.2019
2915 Clouds 31 1015 66 10000 3.1 90 17:39 28.08.2019
2916 Clouds 31 1015 66 10000 3.1 90 17:19 28.08.2019
2917 Clouds 30 1015 74 10000 2.1 30 16:45 28.08.2019
2918 Clouds 29 1015 74 10000 2.1 30 16:23 28.08.2019
2919 Clouds 29 1015 74 10000 2.1 30 16:23 28.08.2019
2920 Clouds 29 1014 78 10000 3.1 270 15:59 28.08.2019
2921 Clouds 28 1014 78 10000 3.1 270 15:38 28.08.2019
2922 Clouds 28 1014 78 10000 3.1 270 15:20 28.08.2019
2923 Clouds 27 1014 88 10000 1.35 359.365 14:57 28.08.2019
2924 Clouds 27 1014 88 10000 1.35 359.365 14:39 28.08.2019
2925 Clouds 26 1014 88 10000 1.35 359.365 14:20 28.08.2019
2926 Clouds 26 1013 94 10000 2.1 20 13:58 28.08.2019
2927 Clouds 25 1013 94 10000 2.1 20 13:38 28.08.2019
2928 Clouds 25 1012 94 10000 2.1 40 13:19 28.08.2019
2929 Clouds 25 1012 94 10000 2.1 40 12:42 28.08.2019
2930 Clouds 24 1012 94 10000 2.1 40 12:24 28.08.2019
2931 Clouds 24 1012 94 10000 3.1 20 11:57 28.08.2019
2932 Clouds 24 1012 94 10000 3.1 20 11:38 28.08.2019
2933 Clouds 24 1012 94 10000 3.1 20 11:20 28.08.2019
2934 Clouds 25 1012 88 10000 2.1 10 10:55 28.08.2019
2935 Clouds 25 1012 88 10000 2.1 10 10:37 28.08.2019
2936 Clouds 25 1012 88 10000 2.1 10 10:18 28.08.2019
2937 Clouds 25 1013 88 10000 2.1 10 09:41 28.08.2019
2938 Clouds 26 1013 88 10000 2.1 10 09:20 28.08.2019
2939 Clouds 26 1013 83 10000 2.1 30 08:39 28.08.2019
2940 Clouds 26 1013 83 10000 2.1 30 08:21 28.08.2019
2941 Clouds 26 1014 88 10000 2.1 50 07:45 28.08.2019
2942 Clouds 26 1014 88 10000 2.1 50 07:25 28.08.2019
2943 Clouds 26 1014 88 10000 2.1 50 06:56 28.08.2019
2944 Clouds 26 1014 88 10000 2.1 50 06:37 28.08.2019
2945 Clouds 28 1014 83 10000 2.1 50 05:44 28.08.2019
2946 Clouds 28 1013 78 10000 2.1 30 03:32 28.08.2019
2947 Clouds 30 1014 62 10000 1.78 145.747 01:37 28.08.2019
2948 Clouds 31 1013 55 10000 4.1 170 01:18 28.08.2019
2949 Clouds 31 1013 55 10000 4.1 170 00:41 28.08.2019
2950 Clouds 31 1013 55 10000 4.1 170 23:59 27.08.2019
2951 Clouds 32 1013 52 10000 3.1 210 23:40 27.08.2019
2952 Clouds 32 1013 52 10000 3.1 210 23:40 27.08.2019
2953 Clouds 32 1013 52 10000 3.1 210 23:21 27.08.2019
2954 Clouds 32 1013 55 10000 3.6 210 22:54 27.08.2019
2955 Clouds 32 1013 55 10000 3.6 210 22:36 27.08.2019
2956 Clouds 33 1013 52 10000 3.1 210 22:18 27.08.2019
2957 Clouds 33 1013 52 10000 3.1 210 21:54 27.08.2019
2958 Clouds 33 1013 52 10000 3.1 210 21:36 27.08.2019
2959 Clouds 33 1014 55 10000 5.1 190 21:18 27.08.2019
2960 Clouds 33 1014 55 10000 5.1 190 20:41 27.08.2019
2961 Clouds 33 1014 55 10000 5.1 190 20:21 27.08.2019
2962 Clouds 33 1015 59 10000 3.6 180 19:58 27.08.2019
2963 Clouds 32 1014 59 10000 3.1 150 19:39 27.08.2019
2964 Clouds 32 1014 59 10000 3.1 150 19:39 27.08.2019
2965 Clouds 32 1015 66 10000 3.56 136.436 19:20 27.08.2019
2966 Clouds 32 1015 66 10000 3.56 136.436 18:42 27.08.2019
2967 Clouds 32 1015 66 10000 1.78 96.621 18:19 27.08.2019
2968 Clouds 32 1015 66 10000 1.78 96.621 17:56 27.08.2019
2969 Clouds 32 1016 66 10000 1.78 96.621 17:38 27.08.2019
2970 Clouds 31 1016 66 10000 1.78 96.621 17:19 27.08.2019
2971 Clouds 30 1016 70 10000 1.78 96.621 16:47 27.08.2019
2972 Clouds 30 1016 70 10000 1.78 96.621 16:28 27.08.2019
2973 Clouds 29 1016 83 10000 1.78 96.621 15:57 27.08.2019
2974 Clouds 29 1016 83 10000 1.78 96.621 15:39 27.08.2019
2975 Clouds 28 1016 83 10000 1.73 329.053 15:20 27.08.2019
2976 Clouds 27 1015 94 10000 1.73 329.053 14:43 27.08.2019
2977 Clouds 26 1015 94 10000 1.73 329.053 14:24 27.08.2019
2978 Mist 26 1014 94 8000 2.1 30 13:59 27.08.2019
2979 Mist 26 1014 94 8000 2.1 30 13:41 27.08.2019
2980 Mist 26 1014 94 8000 2.1 30 13:20 27.08.2019
2981 Clouds 26 1014 94 10000 2.1 30 12:42 27.08.2019
2982 Clouds 26 1014 94 10000 2.1 30 12:21 27.08.2019
2983 Clouds 26 1014 88 10000 2.1 30 11:57 27.08.2019
2984 Clouds 24 1014 88 10000 2.1 30 11:37 27.08.2019
2985 Clouds 24 1014 88 10000 2.1 30 11:18 27.08.2019
2986 Clouds 24 1014 88 10000 2.1 30 11:18 27.08.2019
2987 Clouds 24 1014 94 10000 2.1 30 10:41 27.08.2019
2988 Clouds 24 1014 94 10000 2.1 30 10:19 27.08.2019
2989 Clouds 24 1014 94 10000 2.1 30 10:19 27.08.2019
2990 Clouds 24 1014 94 10000 2.1 50 09:55 27.08.2019
2991 Clouds 24 1014 94 10000 2.1 50 09:37 27.08.2019
2992 Clouds 26 1014 94 10000 2.1 50 09:18 27.08.2019
2993 Clouds 26 1015 94 10000 2.1 60 08:44 27.08.2019
2994 Clouds 26 1015 94 10000 2.1 60 08:24 27.08.2019
2995 Clouds 26 1016 94 10000 2.1 50 07:43 27.08.2019
2996 Clouds 26 1016 94 10000 2.1 50 07:21 27.08.2019
2997 Clouds 27 1016 88 10000 2.1 90 06:59 27.08.2019
2998 Clouds 27 1016 88 10000 2.1 90 06:40 27.08.2019
2999 Clouds 27 1016 88 10000 2.1 90 06:19 27.08.2019
3000 Clouds 27 1016 88 10000 2.1 90 05:24 27.08.2019
3001 Clouds 28 1015 88 10000 2.1 100 03:43 27.08.2019
3002 Clouds 29 1014 78 10000 2.1 150 02:28 27.08.2019
3003 Clouds 29 1014 62 10000 5.1 170 01:45 27.08.2019
3004 Clouds 29 1014 62 10000 5.1 170 01:24 27.08.2019
3005 Clouds 31 1013 62 10000 4.1 180 00:48 27.08.2019
3006 Clouds 31 1013 62 10000 4.1 180 00:26 27.08.2019
3007 Clouds 32 1013 52 10000 4.1 180 23:40 26.08.2019
3008 Clouds 32 1013 52 10000 4.1 180 23:21 26.08.2019
3009 Clouds 33 1014 52 10000 5.1 160 22:58 26.08.2019
3010 Clouds 33 1014 52 10000 5.1 160 22:36 26.08.2019
3011 Clouds 32 1014 52 10000 5.1 160 22:18 26.08.2019
3012 Clouds 33 1014 52 10000 5.1 160 21:39 26.08.2019
3013 Clouds 33 1014 52 10000 5.1 160 21:21 26.08.2019
3014 Clouds 33 1015 55 10000 5.1 180 20:58 26.08.2019
3015 Clouds 32 1015 55 10000 5.1 180 20:39 26.08.2019
3016 Clouds 32 1015 55 10000 5.1 180 20:19 26.08.2019
3017 Clouds 32 1016 62 10000 5.1 160 19:56 26.08.2019
3018 Clouds 32 1016 62 10000 5.1 160 19:38 26.08.2019
3019 Clouds 32 1016 62 10000 5.1 160 19:18 26.08.2019
3020 Clouds 32 1016 66 10000 5.1 160 18:39 26.08.2019
3021 Clouds 32 1016 66 10000 5.1 160 18:20 26.08.2019
3022 Clouds 32 1016 66 10000 3.1 120 17:56 26.08.2019
3023 Clouds 32 1016 66 10000 3.1 120 17:37 26.08.2019
3024 Clouds 32 1016 66 10000 3.1 120 17:18 26.08.2019
3025 Clouds 31 1017 74 10000 2.01 108.435 16:55 26.08.2019
3026 Clouds 31 1017 74 10000 2.01 108.435 16:37 26.08.2019
3027 Clouds 31 1017 74 10000 2.01 108.435 16:18 26.08.2019
3028 Clouds 29 1017 79 10000 2.01 108.435 15:41 26.08.2019
3029 Clouds 29 1017 79 10000 1.44 349.126 15:21 26.08.2019
3030 Clouds 27 1016 94 10000 1.44 349.126 14:46 26.08.2019
3031 Clouds 27 1016 94 10000 1.44 349.126 14:23 26.08.2019
3032 Clouds 26 1015 100 10000 2.1 30 13:59 26.08.2019
3033 Clouds 26 1015 100 10000 2.1 30 13:39 26.08.2019
3034 Clouds 26 1015 100 10000 2.1 30 13:19 26.08.2019
3035 Clouds 26 1014 94 10000 2.1 30 12:43 26.08.2019
3036 Clouds 26 1014 94 10000 2.1 30 12:43 26.08.2019
3037 Clouds 25 1014 94 10000 2.1 30 12:25 26.08.2019
3038 Clouds 25 1015 100 10000 2.1 40 11:56 26.08.2019
3039 Clouds 25 1015 100 10000 2.1 40 11:36 26.08.2019
3040 Clouds 25 1015 100 10000 2.1 40 11:18 26.08.2019
3041 Clouds 26 1014 94 10000 2.1 50 10:44 26.08.2019
3042 Clouds 26 1014 94 10000 2.1 50 10:21 26.08.2019
3043 Clouds 26 1014 94 10000 2.1 60 09:57 26.08.2019
3044 Clouds 26 1014 94 10000 2.1 60 09:38 26.08.2019
3045 Clouds 26 1014 94 10000 2.1 60 09:19 26.08.2019
3046 Clouds 26 1015 94 10000 2.1 40 08:42 26.08.2019
3047 Clouds 26 1015 94 10000 2.1 40 08:23 26.08.2019
3048 Clouds 27 1016 88 10000 2.1 60 07:59 26.08.2019
3049 Clouds 27 1016 88 10000 2.1 60 07:40 26.08.2019
3050 Clouds 27 1016 88 10000 2.1 60 07:21 26.08.2019
3051 Clouds 28 1016 88 10000 2.1 50 06:42 26.08.2019
3052 Clouds 27 1016 88 10000 2.1 50 06:22 26.08.2019
3053 Clouds 27 1016 88 10000 2.1 50 05:49 26.08.2019
3054 Clouds 28 1016 83 10000 2.1 90 04:28 26.08.2019
3055 Clouds 29 1014 83 10000 2.1 130 02:53 26.08.2019
3056 Clouds 29 1014 79 10000 2.1 130 01:35 26.08.2019
3057 Clouds 29 1014 74 10000 3.1 140 00:53 26.08.2019
3058 Clouds 29 1014 74 10000 3.1 140 00:29 26.08.2019
3059 Clouds 30 1014 74 10000 4.1 160 23:59 25.08.2019
3060 Clouds 31 1014 74 10000 4.1 160 23:40 25.08.2019
3061 Clouds 30 1014 74 10000 4.1 160 23:18 25.08.2019
3062 Clouds 31 1014 66 10000 7.2 180 22:56 25.08.2019
3063 Clouds 31 1014 66 10000 7.2 180 22:37 25.08.2019
3064 Clouds 32 1014 66 10000 7.2 180 22:18 25.08.2019
3065 Clouds 32 1014 66 10000 6.2 180 21:55 25.08.2019
3066 Clouds 32 1014 66 10000 6.2 180 21:37 25.08.2019
3067 Clouds 32 1014 66 10000 6.2 180 21:18 25.08.2019
3068 Clouds 32 1015 66 10000 5.1 180 20:39 25.08.2019
3069 Clouds 32 1015 66 10000 5.1 180 20:19 25.08.2019
3070 Clouds 32 1015 70 10000 4.1 130 19:56 25.08.2019
3071 Clouds 31 1015 70 10000 4.1 130 19:37 25.08.2019
3072 Clouds 31 1015 70 10000 4.1 130 19:18 25.08.2019
3073 Clouds 32 1016 66 10000 5.1 180 18:57 25.08.2019
3074 Clouds 32 1016 66 10000 5.1 180 18:39 25.08.2019
3075 Clouds 32 1016 66 10000 5.1 180 18:18 25.08.2019
3076 Clouds 32 1016 70 10000 2.1 130 17:42 25.08.2019
3077 Clouds 32 1016 70 10000 2.1 130 17:23 25.08.2019
3078 Clouds 31 1016 74 10000 3.1 130 16:45 25.08.2019
3079 Clouds 30 1016 74 10000 3.1 130 16:24 25.08.2019
3080 Clouds 29 1015 78 10000 2.46 96.047 15:59 25.08.2019
3081 Clouds 29 1015 78 10000 2.46 96.047 15:40 25.08.2019
3082 Clouds 29 1015 78 10000 2.1 348.423 15:21 25.08.2019
3083 Clouds 29 1015 78 10000 2.1 348.423 15:21 25.08.2019
3084 Clouds 27 1014 94 10000 2.1 348.423 14:41 25.08.2019
3085 Clouds 27 1014 94 10000 2.1 348.423 14:23 25.08.2019
3086 Mist 26 1015 88 5000 2.1 120 13:47 25.08.2019
3087 Mist 26 1015 88 5000 2.1 120 13:22 25.08.2019
3088 Mist 26 1015 88 5000 2.1 120 13:22 25.08.2019
3089 Clouds 25 1015 94 10000 2.6 20 12:59 25.08.2019
3090 Clouds 25 1015 94 10000 2.6 20 12:40 25.08.2019
3091 Clouds 25 1015 94 10000 2.6 20 12:22 25.08.2019
3092 Clouds 25 1015 94 10000 2.1 20 11:57 25.08.2019
3093 Clouds 25 1015 94 10000 2.1 20 11:37 25.08.2019
3094 Clouds 25 1015 94 10000 2.1 20 11:19 25.08.2019
3095 Thunderstorm 25 1015 94 10000 2.1 40 10:55 25.08.2019
3096 Thunderstorm 25 1015 94 10000 2.1 40 10:37 25.08.2019
3097 Thunderstorm 25 1015 94 10000 2.1 40 10:18 25.08.2019
3098 Clouds 25 1015 94 10000 2.1 40 09:42 25.08.2019
3099 Clouds 25 1015 94 10000 2.1 40 09:23 25.08.2019
3100 Clouds 25 1015 94 10000 2.1 40 08:44 25.08.2019
3101 Clouds 25 1015 94 10000 2.1 40 08:25 25.08.2019
3102 Clouds 26 1016 94 10000 3.1 50 07:47 25.08.2019
3103 Clouds 26 1016 94 10000 3.1 50 07:27 25.08.2019
3104 Clouds 27 1016 88 10000 2.1 40 06:37 25.08.2019
3105 Clouds 27 1016 88 10000 2.1 40 05:27 25.08.2019
3106 Clouds 28 1016 78 10000 2.1 80 03:43 25.08.2019
3107 Clouds 29 1015 83 10000 2.1 120 02:42 25.08.2019
3108 Clouds 28 1015 78 10000 0.63 112.356 01:49 25.08.2019
3109 Clouds 29 1014 79 10000 2.6 140 00:44 25.08.2019
3110 Clouds 29 1014 79 10000 2.6 140 00:22 25.08.2019
3111 Clouds 30 1014 66 10000 5.1 190 23:54 24.08.2019
3112 Clouds 30 1014 66 10000 5.1 190 23:24 24.08.2019
3113 Clouds 30 1014 66 10000 5.1 180 22:59 24.08.2019
3114 Clouds 30 1014 66 10000 5.1 180 22:40 24.08.2019
3115 Clouds 30 1014 66 10000 5.1 180 22:40 24.08.2019
3116 Clouds 31 1014 66 10000 5.1 180 22:19 24.08.2019
3117 Rain 32 1015 62 10000 5.1 180 21:57 24.08.2019
3118 Rain 32 1015 62 10000 5.1 180 21:39 24.08.2019
3119 Rain 32 1015 62 10000 5.1 180 21:20 24.08.2019
3120 Rain 32 1015 62 10000 5.1 180 21:20 24.08.2019
3121 Clouds 32 1015 66 10000 6.2 180 20:57 24.08.2019
3122 Clouds 32 1015 66 10000 6.2 180 20:38 24.08.2019
3123 Clouds 32 1015 66 10000 6.2 180 20:18 24.08.2019
3124 Clouds 32 1016 62 10000 4.1 140 19:57 24.08.2019
3125 Clouds 32 1016 62 10000 4.1 140 19:38 24.08.2019
3126 Clouds 32 1016 62 10000 4.1 140 19:19 24.08.2019
3127 Clouds 31 1017 66 10000 4.1 140 18:45 24.08.2019
3128 Clouds 31 1017 66 10000 4.1 140 18:23 24.08.2019
3129 Clouds 31 1017 66 10000 4.1 120 17:46 24.08.2019
3130 Clouds 31 1017 66 10000 4.1 120 17:27 24.08.2019
3131 Clouds 30 1017 79 10000 2.6 90 16:56 24.08.2019
3132 Clouds 30 1017 79 10000 2.6 90 16:36 24.08.2019
3133 Clouds 30 1017 79 10000 2.6 90 16:18 24.08.2019
3134 Clouds 29 1016 83 10000 1.86 97.316 15:43 24.08.2019
3135 Clouds 28 1016 83 10000 1.68 329.68 15:24 24.08.2019
3136 Clouds 27 1016 88 10000 2.6 30 14:55 24.08.2019
3137 Clouds 27 1016 88 10000 2.6 30 14:37 24.08.2019
3138 Clouds 27 1016 88 10000 2.6 30 14:18 24.08.2019
3139 Clouds 26 1016 94 10000 2.1 30 13:42 24.08.2019
3140 Clouds 25 1016 94 10000 2.1 30 13:22 24.08.2019
3141 Clouds 25 1015 94 10000 2.1 360 12:58 24.08.2019
3142 Clouds 25 1015 94 10000 2.1 360 12:39 24.08.2019
3143 Clouds 25 1015 94 10000 2.1 360 12:20 24.08.2019
3144 Clouds 25 1015 94 10000 2.1 10 11:45 24.08.2019
3145 Clouds 25 1015 94 10000 2.1 10 11:24 24.08.2019
3146 Clouds 25 1015 94 10000 2.1 40 10:53 24.08.2019
3147 Clouds 25 1015 94 10000 2.1 40 10:24 24.08.2019
3148 Clouds 25 1015 94 10000 1 0 09:58 24.08.2019
3149 Clouds 25 1015 94 10000 1 0 09:38 24.08.2019
3150 Clouds 25 1015 94 10000 1 0 09:18 24.08.2019
3151 Clouds 26 1015 94 10000 3.1 40 08:41 24.08.2019
3152 Clouds 26 1015 94 10000 3.1 40 08:23 24.08.2019
3153 Clouds 26 1015 94 10000 3.1 40 08:23 24.08.2019
3154 Rain 26 1016 94 10000 2.1 50 07:50 24.08.2019
3155 Rain 26 1016 94 10000 2.1 50 07:28 24.08.2019
3156 Clouds 26 1016 88 10000 2.1 60 06:31 24.08.2019
3157 Rain 26 1016 88 8000 2.1 50 05:47 24.08.2019
3158 Rain 26 1016 88 8000 2.1 50 05:29 24.08.2019
3159 Clouds 28 1015 78 10000 3.6 120 03:39 24.08.2019
3160 Clouds 29 1014 74 10000 3.6 110 02:33 24.08.2019
3161 Clouds 29 1015 79 10000 3.1 160 01:47 24.08.2019
3162 Clouds 29 1015 79 10000 3.1 160 01:22 24.08.2019
3163 Clouds 30 1015 70 10000 4.1 180 00:43 24.08.2019
3164 Clouds 30 1015 70 10000 4.1 180 00:18 24.08.2019
3165 Clouds 31 1015 66 10000 4.1 180 23:43 23.08.2019
3166 Clouds 31 1015 66 10000 4.1 180 23:19 23.08.2019
3167 Clouds 31 1014 62 10000 5.1 160 22:43 23.08.2019
3168 Clouds 31 1014 62 10000 5.1 160 22:24 23.08.2019
3169 Clouds 32 1015 59 10000 6.2 150 21:54 23.08.2019
3170 Clouds 32 1015 59 10000 6.2 150 21:36 23.08.2019
3171 Clouds 32 1015 59 10000 6.2 150 21:18 23.08.2019
3172 Clouds 31 1015 62 10000 5.1 150 20:45 23.08.2019
3173 Clouds 31 1015 62 10000 5.1 150 20:27 23.08.2019
3174 Clouds 30 1016 83 10000 5.1 150 19:45 23.08.2019
3175 Clouds 30 1016 83 10000 5.1 150 19:19 23.08.2019
3176 Clouds 30 1016 83 10000 5.1 150 19:19 23.08.2019
3177 Rain 29 1017 83 10000 2.6 180 18:54 23.08.2019
3178 Rain 29 1017 83 10000 2.6 180 18:36 23.08.2019
3179 Rain 29 1017 83 10000 2.6 180 18:18 23.08.2019
3180 Rain 28 1018 83 10000 3.22 128.19 17:41 23.08.2019
3181 Rain 28 1018 83 10000 3.22 128.19 17:21 23.08.2019
3182 Rain 28 1018 74 6000 3.22 128.19 16:49 23.08.2019
3183 Rain 27 1018 74 6000 3.22 128.19 16:30 23.08.2019
3184 Rain 26 1017 100 8000 2.1 170 15:59 23.08.2019
3185 Rain 27 1017 100 8000 2.1 170 15:39 23.08.2019
3186 Rain 27 1017 83 10000 0.89 349.369 15:21 23.08.2019
3187 Rain 26 1016 94 10000 0.89 349.369 14:43 23.08.2019
3188 Rain 26 1016 94 10000 0.89 349.369 14:21 23.08.2019
3189 Rain 25 1015 100 8000 2.1 100 13:58 23.08.2019
3190 Rain 25 1015 100 8000 2.1 100 13:58 23.08.2019
3191 Rain 25 1015 100 8000 2.1 100 13:40 23.08.2019
3192 Rain 25 1015 100 8000 2.1 100 13:22 23.08.2019
3193 Clouds 25 1015 94 10000 2.1 70 12:58 23.08.2019
3194 Rain 25 1015 94 10000 2.1 70 12:40 23.08.2019
3195 Rain 25 1015 94 10000 2.1 70 12:21 23.08.2019
3196 Rain 25 1015 94 10000 3.1 60 11:56 23.08.2019
3197 Clouds 25 1015 94 10000 3.1 60 11:38 23.08.2019
3198 Clouds 25 1015 94 10000 3.1 60 11:18 23.08.2019
3199 Clouds 25 1015 94 10000 3.1 60 11:18 23.08.2019
3200 Clouds 25 1014 94 10000 2.6 70 10:44 23.08.2019
3201 Clouds 25 1014 94 10000 2.6 70 10:23 23.08.2019
3202 Clouds 26 1015 88 8000 2.1 130 09:58 23.08.2019
3203 Rain 26 1015 88 8000 2.1 130 09:39 23.08.2019
3204 Rain 25 1015 88 8000 2.1 130 09:20 23.08.2019
3205 Rain 26 1015 94 10000 2.1 60 08:44 23.08.2019
3206 Rain 26 1015 94 10000 2.1 60 08:20 23.08.2019
3207 Rain 26 1015 94 10000 2.1 50 07:43 23.08.2019
3208 Clouds 26 1015 94 10000 2.1 50 07:24 23.08.2019
3209 Clouds 26 1015 94 10000 2.1 50 07:24 23.08.2019
3210 Clouds 26 1015 88 10000 2.1 60 06:58 23.08.2019
3211 Clouds 26 1015 88 10000 2.1 60 06:39 23.08.2019
3212 Clouds 27 1015 88 10000 2.1 60 06:20 23.08.2019
3213 Clouds 26 1016 94 10000 2.1 90 05:42 23.08.2019
3214 Clouds 26 1016 94 10000 2.1 90 05:21 23.08.2019
3215 Clouds 28 1015 88 10000 2.1 130 03:22 23.08.2019
3216 Clouds 28 1014 83 10000 1.35 145.636 02:24 23.08.2019
3217 Clouds 28 1014 83 10000 1.35 145.636 02:24 23.08.2019
3218 Clouds 28 1015 78 10000 5.1 160 01:47 23.08.2019
3219 Clouds 29 1015 66 10000 4.1 100 00:46 23.08.2019
3220 Clouds 29 1015 66 10000 4.1 100 00:21 23.08.2019
3221 Clouds 30 1014 66 10000 3.1 60 23:50 22.08.2019
3222 Clouds 30 1014 66 10000 3.1 60 23:32 22.08.2019
3223 Thunderstorm 30 1014 62 10000 4.1 90 22:58 22.08.2019
3224 Thunderstorm 30 1014 62 10000 4.1 90 22:40 22.08.2019
3225 Thunderstorm 29 1014 62 10000 4.1 90 22:21 22.08.2019
3226 Clouds 30 1014 55 10000 3.1 90 21:56 22.08.2019
3227 Clouds 30 1014 55 10000 3.1 90 21:37 22.08.2019
3228 Clouds 31 1014 55 10000 3.1 90 21:19 22.08.2019
3229 Rain 31 1014 55 10000 5.1 30 20:56 22.08.2019
3230 Rain 31 1014 55 10000 5.1 30 20:38 22.08.2019
3231 Rain 31 1014 55 10000 5.1 30 20:18 22.08.2019
3232 Clouds 31 1015 59 10000 3.1 360 19:54 22.08.2019
3233 Clouds 31 1015 59 10000 3.1 360 19:54 22.08.2019
3234 Clouds 31 1015 59 10000 3.1 360 19:36 22.08.2019
3235 Clouds 31 1015 59 10000 3.1 360 19:18 22.08.2019
3236 Clouds 32 1016 62 10000 1.91 96.237 18:55 22.08.2019
3237 Clouds 32 1016 62 10000 1.91 96.237 18:36 22.08.2019
3238 Clouds 32 1016 62 10000 2.58 64.605 18:18 22.08.2019
3239 Clouds 31 1016 62 10000 5.1 90 17:42 22.08.2019
3240 Clouds 30 1016 70 10000 3.1 30 17:21 22.08.2019
3241 Clouds 30 1016 70 10000 3.1 30 16:58 22.08.2019
3242 Clouds 30 1016 70 10000 3.1 30 16:39 22.08.2019
3243 Clouds 29 1016 70 10000 3.1 30 16:20 22.08.2019
3244 Clouds 28 1016 78 10000 4.1 30 15:57 22.08.2019
3245 Clouds 28 1016 78 10000 4.1 30 15:57 22.08.2019
3246 Clouds 28 1016 78 10000 4.1 30 15:57 22.08.2019
3247 Clouds 28 1016 78 10000 4.1 30 15:57 22.08.2019
3248 Clouds 28 1016 78 10000 4.1 30 15:38 22.08.2019
3249 Clouds 28 1016 78 10000 4.1 30 15:38 22.08.2019
3250 Clouds 28 1016 78 10000 4.1 30 15:19 22.08.2019
3251 Clouds 28 1016 78 10000 4.1 30 15:19 22.08.2019
3252 Clouds 28 1016 78 10000 4.1 30 15:19 22.08.2019
3253 Clouds 27 1015 88 10000 2.25 9.097 14:56 22.08.2019
3254 Clouds 27 1015 88 10000 2.25 9.097 14:38 22.08.2019
3255 Clouds 27 1015 88 10000 2.25 9.097 14:18 22.08.2019
3256 Clouds 26 1015 94 10000 2.1 20 13:41 22.08.2019
3257 Clouds 25 1015 94 10000 2.1 20 13:22 22.08.2019
3258 Clouds 25 1015 88 10000 2.1 20 12:59 22.08.2019
3259 Clouds 25 1015 88 10000 2.1 20 12:39 22.08.2019
3260 Clouds 25 1015 88 10000 2.1 20 12:19 22.08.2019
3261 Clouds 25 1015 88 10000 2.32 343.144 11:42 22.08.2019
3262 Clouds 25 1015 88 10000 2.32 343.144 11:21 22.08.2019
3263 Clouds 25 1015 94 10000 2.1 50 10:59 22.08.2019
3264 Clouds 25 1015 94 10000 2.1 50 10:59 22.08.2019
3265 Clouds 25 1015 94 10000 2.1 50 10:40 22.08.2019
3266 Clouds 25 1015 94 10000 2.1 50 10:22 22.08.2019
3267 Clouds 26 1015 94 10000 1.5 30 09:58 22.08.2019
3268 Clouds 26 1015 94 10000 1.5 30 09:39 22.08.2019
3269 Clouds 26 1015 94 10000 1.5 30 09:21 22.08.2019
3270 Clouds 26 1015 94 10000 1.5 30 08:56 22.08.2019
3271 Clouds 26 1015 94 10000 2.1 40 08:38 22.08.2019
3272 Clouds 26 1015 94 10000 2.1 40 08:20 22.08.2019
3273 Clouds 26 1016 94 10000 2.1 40 07:40 22.08.2019
3274 Clouds 26 1016 94 10000 2.1 40 07:20 22.08.2019
3275 Clouds 26 1016 88 10000 2.6 50 06:52 22.08.2019
3276 Rain 27 1016 88 10000 2.6 50 06:24 22.08.2019
3277 Rain 27 1016 88 10000 2.1 50 05:45 22.08.2019
3278 Clouds 27 1016 88 10000 2.6 40 04:29 22.08.2019
3279 Clouds 28 1014 83 10000 1.46 51.836 02:50 22.08.2019
3280 Clouds 28 1014 83 10000 1.46 51.836 02:50 22.08.2019
3281 Clouds 28 1014 83 10000 1.46 51.836 02:32 22.08.2019
3282 Clouds 29 1016 83 10000 1.64 44.084 01:23 22.08.2019
3283 Clouds 29 1015 78 10000 1.64 44.084 00:45 22.08.2019
3284 Clouds 29 1015 78 10000 1.64 44.084 00:26 22.08.2019
3285 Clouds 30 1015 79 10000 2.56 138.471 23:51 21.08.2019
3286 Clouds 30 1015 79 10000 2.56 138.471 23:32 21.08.2019
3287 Clouds 31 1015 74 10000 4.1 140 22:59 21.08.2019
3288 Clouds 31 1015 74 10000 4.1 140 22:41 21.08.2019
3289 Clouds 31 1015 74 10000 4.1 140 22:22 21.08.2019
3290 Clouds 31 1015 74 10000 4.1 140 22:22 21.08.2019
3291 Clouds 30 1015 74 10000 2.56 138.471 21:58 21.08.2019
3292 Clouds 31 1015 74 10000 2.22 158.313 21:39 21.08.2019
3293 Clouds 31 1015 74 10000 3.16 121.63 21:20 21.08.2019
3294 Rain 33 1015 66 7000 3.1 130 20:58 21.08.2019
3295 Rain 32 1015 66 7000 3.1 130 20:40 21.08.2019
3296 Rain 33 1015 66 7000 3.1 130 20:22 21.08.2019
3297 Clouds 32 1016 63 10000 5.1 180 19:55 21.08.2019
3298 Clouds 32 1016 63 10000 5.1 180 19:36 21.08.2019
3299 Clouds 32 1016 63 10000 5.1 180 19:18 21.08.2019
3300 Clouds 30 1017 63 10000 4.1 110 18:41 21.08.2019
3301 Clouds 30 1017 63 10000 4.1 110 18:22 21.08.2019
3302 Clouds 32 1017 66 10000 3.1 90 17:45 21.08.2019
3303 Clouds 32 1017 66 10000 3.1 90 17:25 21.08.2019
3304 Clouds 31 1016 70 10000 2.97 63.185 16:59 21.08.2019
3305 Clouds 31 1016 70 10000 2.97 63.185 16:40 21.08.2019
3306 Clouds 31 1016 70 10000 2.97 63.185 16:21 21.08.2019
3307 Clouds 29 1016 74 10000 3.1 40 15:58 21.08.2019
3308 Clouds 30 1016 74 10000 3.1 40 15:39 21.08.2019
3309 Clouds 29 1016 74 10000 3.1 40 15:20 21.08.2019
3310 Clouds 28 1015 88 10000 2.1 30 14:57 21.08.2019
3311 Clouds 28 1015 88 10000 2.1 30 14:38 21.08.2019
3312 Clouds 27 1015 88 10000 2.1 30 14:19 21.08.2019
3313 Clouds 26 1016 94 10000 2.1 10 13:43 21.08.2019
3314 Clouds 26 1016 94 10000 2.1 10 13:21 21.08.2019
3315 Clouds 26 1016 94 10000 2.1 360 12:58 21.08.2019
3316 Clouds 26 1016 94 10000 2.1 360 12:40 21.08.2019
3317 Clouds 26 1016 94 10000 2.1 360 12:20 21.08.2019
3318 Clouds 26 1016 94 10000 2.1 360 12:20 21.08.2019
3319 Clouds 26 1016 94 10000 2.1 360 12:20 21.08.2019
3320 Clouds 26 1015 94 10000 2.1 360 11:56 21.08.2019
3321 Clouds 26 1015 94 10000 2.1 360 11:37 21.08.2019
3322 Clouds 26 1015 94 10000 2.1 360 11:18 21.08.2019
3323 Clouds 26 1015 100 10000 2.1 20 10:55 21.08.2019
3324 Clouds 26 1015 100 10000 2.1 20 10:37 21.08.2019
3325 Clouds 26 1015 100 10000 2.1 20 10:19 21.08.2019
3326 Clouds 26 1015 94 10000 2.1 30 09:41 21.08.2019
3327 Clouds 26 1015 94 10000 2.1 30 09:23 21.08.2019
3328 Clouds 26 1016 94 10000 2.1 30 08:56 21.08.2019
3329 Clouds 26 1016 94 10000 2.1 30 08:37 21.08.2019
3330 Clouds 26 1016 94 10000 2.1 30 08:19 21.08.2019
3331 Clouds 26 1016 94 10000 2.1 30 07:39 21.08.2019
3332 Clouds 26 1016 94 10000 2.1 30 07:20 21.08.2019
3333 Clouds 26 1017 94 10000 2.6 40 06:46 21.08.2019
3334 Clouds 27 1017 94 10000 2.6 40 06:20 21.08.2019
3335 Clouds 27 1017 88 10000 2.6 40 05:31 21.08.2019
3336 Clouds 27 1016 88 10000 2.6 40 04:59 21.08.2019
3337 Clouds 28 1015 83 10000 2.1 60 02:55 21.08.2019
3338 Clouds 28 1016 83 10000 0.86 106.146 01:42 21.08.2019
3339 Clouds 29 1016 78 10000 3.1 160 00:43 21.08.2019
3340 Clouds 29 1016 78 10000 3.1 160 00:22 21.08.2019
3341 Clouds 30 1015 70 10000 5.1 180 23:55 20.08.2019
3342 Clouds 30 1015 70 10000 5.1 180 23:36 20.08.2019
3343 Clouds 30 1015 70 10000 5.1 180 23:18 20.08.2019
3344 Clouds 31 1015 66 10000 5.1 180 22:54 20.08.2019
3345 Clouds 31 1015 66 10000 5.1 180 22:36 20.08.2019
3346 Clouds 31 1015 66 10000 5.1 180 22:18 20.08.2019
3347 Clouds 32 1016 62 10000 5.1 180 21:56 20.08.2019
3348 Clouds 32 1016 62 10000 5.1 180 21:37 20.08.2019
3349 Clouds 32 1016 62 10000 5.1 180 21:18 20.08.2019
3350 Clouds 32 1016 62 10000 5.1 180 20:42 20.08.2019
3351 Clouds 32 1016 62 10000 5.1 180 20:23 20.08.2019
3352 Clouds 32 1016 62 10000 3.1 130 19:41 20.08.2019
3353 Clouds 32 1016 62 10000 3.1 130 19:22 20.08.2019
3354 Clouds 32 1017 66 10000 5.1 130 18:59 20.08.2019
3355 Clouds 32 1017 66 10000 5.1 130 18:40 20.08.2019
3356 Clouds 32 1017 66 10000 5.1 130 18:40 20.08.2019
3357 Clouds 32 1017 70 10000 3.1 40 18:19 20.08.2019
3358 Clouds 32 1017 70 10000 3.1 40 17:58 20.08.2019
3359 Clouds 31 1017 70 10000 3.1 40 17:39 20.08.2019
3360 Clouds 31 1017 70 10000 3.1 40 17:20 20.08.2019
3361 Clouds 31 1017 70 10000 3.1 40 17:20 20.08.2019
3362 Clouds 31 1017 74 10000 1.85 70.862 16:46 20.08.2019
3363 Clouds 30 1017 74 10000 1.85 70.862 16:26 20.08.2019
3364 Clouds 29 1017 78 10000 1.85 70.862 15:57 20.08.2019
3365 Clouds 29 1017 78 10000 1.85 70.862 15:57 20.08.2019
3366 Clouds 29 1017 78 10000 1.85 70.862 15:38 20.08.2019
3367 Clouds 27 1016 88 10000 1.8 4.249 15:18 20.08.2019
3368 Clouds 27 1016 88 10000 1.8 4.249 14:43 20.08.2019
3369 Clouds 27 1016 88 10000 1.8 4.249 14:22 20.08.2019
3370 Clouds 27 1016 88 10000 1.8 4.249 14:22 20.08.2019
3371 Clouds 26 1016 94 10000 2.1 20 13:57 20.08.2019
3372 Clouds 26 1016 94 10000 2.1 20 13:57 20.08.2019
3373 Clouds 26 1016 94 10000 2.1 20 13:39 20.08.2019
3374 Clouds 25 1016 94 10000 2.1 20 13:20 20.08.2019
3375 Clouds 25 1016 94 10000 2.1 40 12:51 20.08.2019
3376 Clouds 25 1016 94 10000 2.1 40 12:31 20.08.2019
3377 Clouds 25 1016 94 10000 2.1 20 11:59 20.08.2019
3378 Clouds 25 1016 94 10000 2.1 20 11:40 20.08.2019
3379 Clouds 25 1016 94 10000 2.1 20 11:20 20.08.2019
3380 Clouds 25 1016 94 10000 2.1 30 10:57 20.08.2019
3381 Clouds 25 1016 94 10000 2.1 30 10:38 20.08.2019
3382 Clouds 25 1016 94 10000 2.1 30 10:20 20.08.2019
3383 Clouds 24 1015 94 10000 2.1 50 09:44 20.08.2019
3384 -273 0 0 0 0 0 09:25 20.08.2019
3385 Clouds 25 1015 94 10000 2.1 40 08:58 20.08.2019
3386 Clouds 25 1015 94 10000 2.1 40 08:40 20.08.2019
3387 Clouds 26 1015 94 10000 2.1 40 08:21 20.08.2019
3388 Clouds 26 1015 94 10000 2.1 40 07:57 20.08.2019
3389 Clouds 26 1016 94 10000 2.1 20 07:37 20.08.2019
3390 Clouds 26 1016 94 10000 2.1 20 07:18 20.08.2019
3391 Clouds 26 1016 94 10000 2.1 20 07:18 20.08.2019
3392 Clouds 26 1016 94 10000 2.1 20 06:28 20.08.2019
3393 Clouds 26 1016 94 10000 2.1 20 05:58 20.08.2019
3394 Clouds 26 1016 94 10000 2.1 20 05:38 20.08.2019
3395 Clouds 27 1016 94 10000 2.1 40 04:21 20.08.2019
3396 Clouds 28 1015 83 10000 2.1 20 02:46 20.08.2019
3397 Clouds 28 1015 88 10000 0.7 64.899 01:43 20.08.2019
3398 Clouds 29 1015 83 10000 0.53 93.228 00:59 20.08.2019
3399 Clouds 29 1015 83 10000 0.53 93.228 00:41 20.08.2019
3400 Clouds 29 1015 83 10000 3.4 147.742 00:21 20.08.2019
3401 Clouds 29 1015 94 10000 3.4 147.742 23:40 19.08.2019
3402 Thunderstorm 29 1015 94 8000 3.4 147.742 23:18 19.08.2019
3403 Thunderstorm 29 1015 94 8000 3.4 147.742 22:56 19.08.2019
3404 Thunderstorm 29 1015 94 8000 3.4 147.742 22:38 19.08.2019
3405 Thunderstorm 30 1016 88 8000 2.6 300 22:18 19.08.2019
3406 Thunderstorm 30 1016 88 8000 2.6 300 21:55 19.08.2019
3407 Thunderstorm 30 1016 88 8000 2.6 300 21:36 19.08.2019
3408 Clouds 30 1015 70 10000 4.1 140 21:18 19.08.2019
3409 Clouds 30 1015 70 10000 4.1 140 20:40 19.08.2019
3410 Clouds 30 1015 70 10000 4.1 140 20:40 19.08.2019
3411 Clouds 31 1015 70 10000 4.1 140 20:20 19.08.2019
3412 Clouds 31 1017 70 10000 3.65 133.458 19:58 19.08.2019
3413 Clouds 31 1017 70 10000 3.65 133.458 19:39 19.08.2019
3414 Clouds 31 1017 70 10000 3.65 133.458 19:19 19.08.2019
3415 Clouds 29 1016 78 0 4.1 120 18:46 19.08.2019
3416 Clouds 29 1016 78 0 4.1 120 18:28 19.08.2019
3417 Clouds 29 1018 79 10000 2.35 77.624 17:59 19.08.2019
3418 Clouds 28 1018 79 10000 2.35 77.624 17:41 19.08.2019
3419 Clouds 28 1018 79 10000 2.35 77.624 17:41 19.08.2019
3420 Clouds 28 1018 79 10000 2.35 77.624 17:21 19.08.2019
3421 Clouds 26 1018 88 10000 2.35 77.624 16:58 19.08.2019
3422 Clouds 26 1018 88 10000 2.35 77.624 16:37 19.08.2019
3423 Clouds 26 1018 88 10000 2.35 77.624 16:37 19.08.2019
3424 Clouds 26 1018 88 10000 2.35 77.624 16:19 19.08.2019
3425 Clouds 26 1017 94 10000 2.35 77.624 15:55 19.08.2019
3426 Clouds 26 1017 94 10000 2.35 77.624 15:37 19.08.2019
3427 Clouds 26 1017 94 10000 2.64 340.735 15:18 19.08.2019
3428 Rain 25 1016 100 8000 2.1 360 14:41 19.08.2019
3429 Rain 25 1016 100 8000 2.1 360 14:22 19.08.2019
3430 Rain 24 1016 100 8000 2.64 340.735 13:57 19.08.2019
3431 Rain 24 1016 100 8000 2.64 340.735 13:38 19.08.2019
3432 Rain 24 1016 100 8000 2.64 340.735 13:38 19.08.2019
3433 Rain 24 1016 100 8000 2.64 339.709 13:19 19.08.2019
3434 Rain 24 1015 94 8000 2.1 360 12:45 19.08.2019
3435 Thunderstorm 24 1015 94 8000 2.1 360 12:24 19.08.2019
3436 Thunderstorm 24 1015 94 10000 2.1 360 11:59 19.08.2019
3437 -273 0 0 0 0 0 11:39 19.08.2019
3438 Rain 24 1015 94 10000 2.1 360 11:20 19.08.2019
3439 Rain 24 1015 94 10000 2.1 10 10:55 19.08.2019
3440 Rain 24 1015 94 10000 2.1 10 10:36 19.08.2019
3441 Rain 24 1015 94 10000 2.1 10 10:18 19.08.2019
3442 Rain 24 1015 94 8000 3.1 30 09:41 19.08.2019
3443 Rain 24 1015 94 8000 3.1 30 09:22 19.08.2019
3444 Rain 24 1015 94 8000 3.1 30 09:22 19.08.2019
3445 Thunderstorm 25 1015 94 10000 2.6 50 08:55 19.08.2019
3446 Thunderstorm 25 1015 94 10000 2.6 50 08:37 19.08.2019
3447 Thunderstorm 25 1015 94 10000 2.6 50 08:18 19.08.2019
3448 Thunderstorm 25 1015 94 10000 2.6 50 08:18 19.08.2019
3449 Thunderstorm 25 1016 88 10000 2.6 50 07:42 19.08.2019
3450 Thunderstorm 25 1016 88 10000 2.6 50 07:24 19.08.2019
3451 Thunderstorm 25 1016 88 10000 2.6 50 06:43 19.08.2019
3452 Thunderstorm 25 1016 88 10000 2.6 50 06:24 19.08.2019
3453 Rain 26 1016 88 8000 3.6 50 04:54 19.08.2019
3454 Rain 26 1016 88 8000 3.6 50 04:22 19.08.2019
3455 Rain 26 1015 78 10000 3.6 60 03:20 19.08.2019
3456 Rain 28 1014 83 8000 1.78 58.107 01:47 19.08.2019
3457 Rain 28 1014 83 8000 2.07 70.152 01:21 19.08.2019
3458 Clouds 31 1014 70 10000 3.1 30 00:42 19.08.2019
3459 Clouds 31 1014 70 10000 3.1 30 00:18 19.08.2019
3460 Clouds 32 1014 62 10000 5.1 10 23:41 18.08.2019
3461 Clouds 32 1014 62 10000 5.1 10 23:20 18.08.2019
3462 Clouds 32 1014 62 10000 5.1 180 22:40 18.08.2019
3463 Clouds 32 1014 62 10000 5.1 180 22:22 18.08.2019
3464 Thunderstorm 33 1014 59 10000 5.1 180 21:58 18.08.2019
3465 Thunderstorm 33 1014 59 10000 5.1 180 21:40 18.08.2019
3466 Thunderstorm 33 1014 59 10000 5.1 180 21:20 18.08.2019
3467 Clouds 33 1015 63 10000 2.1 130 20:58 18.08.2019
3468 Clouds 33 1015 63 10000 2.1 130 20:40 18.08.2019
3469 Clouds 33 1015 63 10000 2.1 130 20:22 18.08.2019
3470 Clouds 32 1015 63 10000 2.6 130 19:42 18.08.2019
3471 Clouds 32 1015 63 10000 2.6 130 19:24 18.08.2019
3472 Clouds 31 1016 66 10000 2.1 100 18:59 18.08.2019
3473 Clouds 31 1016 66 10000 2.1 100 18:40 18.08.2019
3474 Clouds 31 1016 66 10000 2.1 100 18:21 18.08.2019
3475 Clouds 29 1017 70 10000 2.1 130 17:55 18.08.2019
3476 Clouds 29 1017 70 10000 2.1 130 17:37 18.08.2019
3477 Clouds 29 1017 70 10000 2.1 130 17:18 18.08.2019
3478 Clouds 28 1017 74 10000 2.25 78.421 16:55 18.08.2019
3479 Clouds 28 1017 74 10000 2.25 78.421 16:36 18.08.2019
3480 Clouds 28 1017 74 10000 2.25 78.421 16:18 18.08.2019
3481 Clouds 28 1017 83 10000 3.1 360 15:40 18.08.2019
3482 Clouds 28 1017 83 10000 3.1 360 15:20 18.08.2019
3483 Clouds 27 1016 94 10000 1.82 340.34 14:58 18.08.2019
3484 Clouds 27 1016 94 10000 1.82 340.34 14:38 18.08.2019
3485 Clouds 26 1016 94 10000 1.82 340.34 14:19 18.08.2019
3486 Clouds 26 1015 94 10000 2.1 30 13:56 18.08.2019
3487 Clouds 24 1015 94 10000 2.1 30 13:38 18.08.2019
3488 Clouds 24 1015 94 10000 2.1 30 13:19 18.08.2019
3489 Clouds 25 1016 80 0 1.82 340.34 12:44 18.08.2019
3490 Clouds 23 1015 86 0 1.92 332.432 12:22 18.08.2019
3491 Thunderstorm 22 1015 94 10000 1 20 11:55 18.08.2019
3492 Thunderstorm 22 1015 94 10000 1 20 11:37 18.08.2019
3493 Thunderstorm 22 1015 94 10000 1 20 11:18 18.08.2019
3494 Clouds 22 1015 94 10000 2.1 40 10:41 18.08.2019
3495 Clouds 22 1015 94 10000 2.1 40 10:22 18.08.2019
3496 Clouds 22 1015 94 10000 2.1 40 09:52 18.08.2019
3497 Clouds 22 1015 94 10000 2.1 40 09:24 18.08.2019
3498 Clouds 23 1016 88 10000 2.1 20 08:59 18.08.2019
3499 Clouds 23 1016 88 10000 2.1 20 08:40 18.08.2019
3500 Clouds 23 1016 88 10000 2.1 20 08:21 18.08.2019
3501 Clouds 23 1016 88 10000 2.1 40 07:49 18.08.2019
3502 Clouds 23 1016 88 10000 2.1 40 07:49 18.08.2019
3503 Clouds 23 1016 88 10000 2.1 40 07:29 18.08.2019
3504 Clouds 23 1016 94 10000 2.1 10 05:49 18.08.2019
3505 Clouds 23 1016 94 10000 2.6 30 04:54 18.08.2019
3506 Clouds 24 1015 88 10000 2.1 20 03:42 18.08.2019
3507 Clouds 24 1015 88 10000 2.1 40 02:46 18.08.2019
3508 Thunderstorm 25 1015 88 10000 2.1 40 02:24 18.08.2019
3509 Thunderstorm 25 1016 83 7000 5.1 360 01:44 18.08.2019
3510 Thunderstorm 25 1016 83 7000 5.1 360 01:19 18.08.2019
3511 Thunderstorm 27 1016 78 10000 5.1 360 00:38 18.08.2019
3512 Thunderstorm 27 1016 78 10000 5.1 360 00:38 18.08.2019
3513 Thunderstorm 27 1016 78 10000 5.1 360 00:19 18.08.2019
3514 Thunderstorm 28 1015 70 10000 5.1 360 23:57 17.08.2019
3515 Thunderstorm 28 1015 70 10000 5.1 360 23:37 17.08.2019
3516 Thunderstorm 28 1015 70 10000 5.1 360 23:18 17.08.2019
3517 Clouds 29 1015 78 10000 2.1 20 22:56 17.08.2019
3518 Clouds 29 1015 78 10000 2.1 20 22:37 17.08.2019
3519 Clouds 29 1015 66 10000 4.1 30 22:18 17.08.2019
3520 Rain 27 1015 66 8000 5.1 360 21:41 17.08.2019
3521 Rain 27 1015 66 8000 5.1 360 21:23 17.08.2019
3522 Rain 27 1016 74 8000 5.1 360 20:41 17.08.2019
3523 Rain 27 1016 74 8000 5.1 360 20:21 17.08.2019
3524 Thunderstorm 28 1016 94 8000 4.1 360 19:59 17.08.2019
3525 Thunderstorm 28 1016 94 8000 4.1 360 19:40 17.08.2019
3526 Thunderstorm 28 1016 94 8000 4.1 360 19:21 17.08.2019
3527 Rain 30 1016 66 7000 5.1 60 18:54 17.08.2019
3528 Rain 30 1016 66 7000 5.1 60 18:36 17.08.2019
3529 Rain 29 1016 66 7000 5.1 60 18:18 17.08.2019
3530 Rain 28 1017 74 10000 4.1 30 17:41 17.08.2019
3531 Clouds 29 1017 74 10000 4.1 30 17:21 17.08.2019
3532 Clouds 29 1017 74 10000 4.1 30 17:21 17.08.2019
3533 Rain 29 1018 78 8000 5.1 270 16:55 17.08.2019
3534 Rain 29 1018 78 8000 5.1 270 16:36 17.08.2019
3535 Rain 29 1018 78 8000 5.1 270 16:18 17.08.2019
3536 Clouds 29 1018 83 10000 5.1 360 15:42 17.08.2019
3537 Clouds 28 1018 83 10000 5.1 360 15:21 17.08.2019
3538 Clouds 28 1018 83 10000 4.1 360 14:57 17.08.2019
3539 Clouds 27 1018 83 10000 4.1 360 14:37 17.08.2019
3540 Clouds 27 1018 83 10000 4.1 360 14:18 17.08.2019
3541 Clouds 26 1016 94 10000 2.6 10 13:42 17.08.2019
3542 Clouds 26 1016 94 10000 2.6 10 13:19 17.08.2019
3543 Clouds 26 1016 88 10000 2.1 360 12:42 17.08.2019
3544 Clouds 26 1016 88 10000 2.1 360 12:20 17.08.2019
3545 Clouds 26 1015 88 10000 2.6 10 11:58 17.08.2019
3546 Clouds 26 1015 88 10000 2.6 10 11:38 17.08.2019
3547 Clouds 26 1015 88 10000 2.6 10 11:19 17.08.2019
3548 Clouds 26 1016 94 10000 2.6 30 10:39 17.08.2019
3549 Clouds 26 1016 94 10000 2.6 30 10:20 17.08.2019
3550 Clouds 26 1016 88 10000 2.1 10 09:52 17.08.2019
3551 Clouds 26 1016 88 10000 2.1 10 09:33 17.08.2019
3552 Clouds 26 1017 88 10000 2.1 360 08:58 17.08.2019
3553 Clouds 26 1017 88 10000 2.1 360 08:28 17.08.2019
3554 Clouds 27 1017 88 10000 2.1 30 07:56 17.08.2019
3555 Clouds 27 1017 88 10000 2.1 30 07:38 17.08.2019
3556 Clouds 27 1017 88 10000 2.1 30 07:19 17.08.2019
3557 Clouds 28 1018 83 10000 3.1 20 05:58 17.08.2019
3558 Clouds 28 1017 79 10000 3.1 20 04:31 17.08.2019
3559 Clouds 28 1017 79 10000 3.1 20 04:31 17.08.2019
3560 Clouds 29 1017 79 10000 3.6 20 03:37 17.08.2019
3561 Clouds 29 1016 74 10000 4.34 21.473 01:59 17.08.2019
3562 Clouds 30 1016 74 10000 3.97 19.691 01:36 17.08.2019
3563 Rain 30 1016 74 10000 3.97 19.691 01:18 17.08.2019
3564 Clouds 31 1016 66 10000 3.97 19.691 00:31 17.08.2019
3565 Clouds 31 1015 70 10000 4.1 180 23:57 16.08.2019
3566 Clouds 31 1015 70 10000 4.1 180 23:37 16.08.2019
3567 Clouds 32 1015 70 10000 4.1 180 23:18 16.08.2019
3568 Clouds 31 1016 62 10000 3.6 150 22:40 16.08.2019
3569 Clouds 31 1016 62 10000 3.6 150 22:19 16.08.2019
3570 Rain 30 1016 62 10000 5.1 360 21:42 16.08.2019
3571 Clouds 32 1016 62 10000 5.1 360 21:21 16.08.2019
3572 Clouds 33 1016 59 10000 3.1 70 20:58 16.08.2019
3573 Rain 32 1016 59 10000 3.1 70 20:39 16.08.2019
3574 Clouds 33 1016 59 10000 3.1 70 20:19 16.08.2019
3575 Clouds 33 1017 59 10000 4.1 70 19:44 16.08.2019
3576 Clouds 32 1017 59 10000 4.1 70 19:23 16.08.2019
3577 Clouds 32 1018 62 10000 2.6 90 18:55 16.08.2019
3578 Clouds 33 1018 62 10000 2.6 90 18:36 16.08.2019
3579 Clouds 32 1018 62 10000 2.6 90 18:18 16.08.2019
3580 Rain 32 1019 62 8000 3.1 90 17:43 16.08.2019
3581 Rain 32 1019 62 8000 3.1 90 17:24 16.08.2019
3582 Clouds 31 1018 70 10000 2.6 50 16:56 16.08.2019
3583 Clouds 31 1018 70 10000 2.6 50 16:37 16.08.2019
3584 Clouds 31 1018 70 10000 2.6 50 16:18 16.08.2019
3585 Clouds 30 1018 78 10000 3.52 43.228 15:40 16.08.2019
3586 Clouds 29 1018 78 10000 2.43 357.242 15:21 16.08.2019
3587 Clouds 29 1018 78 10000 2.43 357.242 15:21 16.08.2019
3588 Clouds 28 1018 88 10000 2.43 357.242 14:58 16.08.2019
3589 Clouds 28 1018 88 10000 2.43 357.242 14:39 16.08.2019
3590 Clouds 27 1018 88 10000 2.43 357.242 14:19 16.08.2019
3591 Clouds 27 1018 94 10000 2.6 30 13:57 16.08.2019
3592 Clouds 27 1018 94 10000 2.6 30 13:37 16.08.2019
3593 Clouds 27 1018 94 10000 2.6 30 13:18 16.08.2019
3594 Clouds 26 1017 94 10000 2.6 20 12:38 16.08.2019
3595 Clouds 26 1017 94 10000 2.6 20 12:20 16.08.2019
3596 Clouds 26 1017 94 10000 2.1 10 11:42 16.08.2019
3597 Clouds 26 1017 94 10000 2.1 10 11:24 16.08.2019
3598 Clouds 26 1017 88 10000 2.6 360 10:44 16.08.2019
3599 Clouds 26 1017 88 10000 2.6 360 10:26 16.08.2019
3600 Clouds 27 1018 88 10000 2.1 10 09:57 16.08.2019
3601 Clouds 27 1018 88 10000 2.1 10 09:37 16.08.2019
3602 Clouds 27 1018 88 10000 2.1 10 09:18 16.08.2019
3603 Clouds 27 1018 88 10000 1.89 342.179 08:41 16.08.2019
3604 Clouds 27 1018 88 10000 1.89 342.179 08:21 16.08.2019
3605 Clouds 27 1018 88 10000 2.1 20 07:55 16.08.2019
3606 Clouds 27 1018 88 10000 2.1 20 07:33 16.08.2019
3607 Clouds 27 1018 88 10000 2.1 50 06:59 16.08.2019
3608 Clouds 27 1018 88 10000 2.1 50 06:31 16.08.2019
3609 Clouds 28 1018 78 10000 2.1 80 05:42 16.08.2019
3610 Clouds 29 1018 74 10000 2.1 90 04:31 16.08.2019
3611 Clouds 29 1017 79 10000 2.6 120 02:46 16.08.2019
3612 Clouds 30 1018 70 10000 3.1 180 01:34 16.08.2019
3613 Clouds 31 1017 62 10000 5.1 150 01:00 16.08.2019
3614 Clouds 32 1017 62 10000 5.1 150 00:40 16.08.2019
3615 Clouds 31 1017 62 10000 5.1 150 00:21 16.08.2019
3616 Clouds 32 1016 59 10000 5.1 160 23:45 15.08.2019
3617 Clouds 32 1016 59 10000 5.1 160 23:45 15.08.2019
3618 Clouds 32 1016 59 10000 5.1 160 23:22 15.08.2019
3619 Clouds 32 1016 62 10000 4.1 150 22:58 15.08.2019
3620 Clouds 32 1016 62 10000 4.1 150 22:39 15.08.2019
3621 Clouds 32 1016 62 10000 4.1 150 22:20 15.08.2019
3622 Clouds 32 1017 66 10000 5.1 150 21:54 15.08.2019
3623 Clouds 32 1017 66 10000 5.1 150 21:36 15.08.2019
3624 Clouds 33 1017 66 10000 5.1 150 21:18 15.08.2019
3625 Clouds 32 1018 74 10000 2.6 300 20:42 15.08.2019
3626 Clouds 32 1018 74 10000 2.6 300 20:42 15.08.2019
3627 Clouds 32 1018 74 10000 2.6 300 20:21 15.08.2019
3628 Rain 31 1018 83 8000 3.17 130.841 19:57 15.08.2019
3629 Rain 31 1018 83 8000 3.17 130.841 19:38 15.08.2019
3630 Rain 31 1018 83 8000 3.17 130.841 19:20 15.08.2019
3631 Rain 32 1018 70 8000 3.17 130.841 18:47 15.08.2019
3632 Rain 32 1018 70 8000 2.49 66.012 18:23 15.08.2019
3633 Clouds 32 1019 62 10000 2.49 66.012 17:57 15.08.2019
3634 Clouds 32 1019 62 10000 2.49 66.012 17:57 15.08.2019
3635 Clouds 32 1019 62 10000 2.49 66.012 17:37 15.08.2019
3636 Clouds 32 1019 62 10000 2.49 66.012 17:19 15.08.2019
3637 Clouds 31 1019 66 10000 5.1 10 16:48 15.08.2019
3638 Clouds 31 1019 66 10000 5.1 10 16:28 15.08.2019
3639 Clouds 29 1019 74 10000 2.6 360 15:59 15.08.2019
3640 Clouds 29 1019 74 10000 2.6 360 15:38 15.08.2019
3641 Clouds 29 1019 74 10000 2.6 360 15:19 15.08.2019
3642 Clouds 29 1019 74 10000 2.6 360 15:19 15.08.2019
3643 Clouds 28 1018 88 10000 2.47 352.421 14:43 15.08.2019
3644 Clouds 27 1018 88 10000 2.47 352.421 14:24 15.08.2019
3645 Clouds 27 1018 76 0 1.79 15 13:59 15.08.2019
3646 Clouds 27 1018 77 0 1.34 350 13:40 15.08.2019
3647 Clouds 27 1018 85 0 1.34 32 13:21 15.08.2019
3648 Clouds 27 1017 80 0 1.34 1 12:59 15.08.2019
3649 Clouds 27 1017 81 0 1.34 7 12:39 15.08.2019
3650 Clouds 27 1017 81 0 1.34 7 12:19 15.08.2019
3651 Clouds 27 1017 81 0 1.34 7 11:57 15.08.2019
3652 Clouds 27 1017 81 0 1.34 358 11:36 15.08.2019
3653 Clouds 27 1017 82 0 1.34 359 11:18 15.08.2019
3654 Clouds 24 1016 88 0 2.49 331.986 10:54 15.08.2019
3655 Clouds 27 1017 84 0 0.89 31 10:36 15.08.2019
3656 Clouds 27 1017 84 0 0.89 31 10:18 15.08.2019
3657 Clouds 27 1017 84 0 0.89 31 09:41 15.08.2019
3658 Clouds 26 1017 88 10000 2.1 40 09:21 15.08.2019
3659 Clouds 26 1017 88 10000 2.1 40 08:38 15.08.2019
3660 Clouds 27 1017 88 10000 2.1 40 08:19 15.08.2019
3661 Clouds 27 1017 83 10000 2.1 40 07:50 15.08.2019
3662 Clouds 27 1017 83 10000 2.1 40 07:32 15.08.2019
3663 Clouds 27 1017 83 10000 2.1 60 06:57 15.08.2019
3664 Clouds 27 1017 83 10000 2.1 60 06:39 15.08.2019
3665 Clouds 27 1017 83 10000 2.1 60 06:21 15.08.2019
3666 Clouds 28 1017 78 10000 3.1 70 05:29 15.08.2019
3667 Clouds 28 1017 74 10000 2.1 70 04:50 15.08.2019
3668 Clouds 29 1016 70 10000 3.1 80 03:48 15.08.2019
3669 Clouds 29 1015 70 10000 3.1 120 02:52 15.08.2019
3670 Clouds 29 1015 70 10000 3.1 120 02:18 15.08.2019
3671 Clouds 29 1016 66 10000 4.1 160 01:38 15.08.2019
3672 Clouds 32 1015 62 10000 5.1 180 00:42 15.08.2019
3673 Clouds 31 1015 62 10000 5.1 180 00:22 15.08.2019
3674 Clouds 32 1015 59 10000 5.1 180 23:59 14.08.2019
3675 Clouds 32 1015 59 10000 5.1 180 23:40 14.08.2019
3676 Clouds 32 1015 59 10000 5.1 180 23:20 14.08.2019
3677 Clouds 33 1015 52 10000 5.1 180 22:57 14.08.2019
3678 Clouds 33 1015 52 10000 5.1 180 22:57 14.08.2019
3679 Clouds 33 1015 52 10000 5.1 180 22:39 14.08.2019
3680 Clouds 33 1015 52 10000 5.1 180 22:21 14.08.2019
3681 Clouds 33 1015 52 10000 5.1 160 21:57 14.08.2019
3682 Clouds 33 1015 52 10000 5.1 160 21:37 14.08.2019
3683 Clouds 33 1015 52 10000 5.1 160 21:18 14.08.2019
3684 Clouds 33 1015 52 10000 5.1 180 20:42 14.08.2019
3685 Clouds 33 1015 52 10000 5.1 180 20:22 14.08.2019
3686 Clouds 32 1016 59 10000 5.1 180 19:56 14.08.2019
3687 Clouds 33 1016 59 10000 5.1 180 19:38 14.08.2019
3688 Clouds 33 1016 59 10000 5.1 180 19:20 14.08.2019
3689 Clouds 33 1017 59 10000 5.1 180 18:57 14.08.2019
3690 Clouds 33 1017 59 10000 5.1 180 18:38 14.08.2019
3691 Clouds 33 1017 59 10000 5.1 180 18:20 14.08.2019
3692 Clouds 32 1017 66 10000 3.1 90 17:56 14.08.2019
3693 Clouds 32 1017 66 10000 3.1 90 17:37 14.08.2019
3694 Clouds 32 1017 66 10000 3.1 90 17:19 14.08.2019
3695 Clouds 31 1017 58 10000 3.1 120 16:43 14.08.2019
3696 Clouds 31 1017 58 10000 3.1 120 16:20 14.08.2019
3697 Clouds 29 1017 83 10000 2.18 115.12 15:55 14.08.2019
3698 Clouds 29 1017 83 10000 2.18 115.12 15:37 14.08.2019
3699 Clouds 29 1017 83 10000 1.16 4.862 15:18 14.08.2019
3700 Clouds 28 1017 83 10000 2.1 50 14:41 14.08.2019
3701 Clouds 28 1017 83 10000 2.1 50 14:19 14.08.2019
3702 Clouds 25 1016 94 10000 2.1 30 13:59 14.08.2019
3703 Clouds 25 1016 94 10000 2.1 30 13:40 14.08.2019
3704 Clouds 25 1016 94 10000 2.1 30 13:22 14.08.2019
3705 Clouds 25 1016 94 10000 2.1 30 12:56 14.08.2019
3706 Clouds 25 1016 94 10000 2.1 30 12:37 14.08.2019
3707 Clouds 25 1016 94 10000 2.1 30 12:19 14.08.2019
3708 Clouds 25 1016 94 10000 2.6 30 11:46 14.08.2019
3709 Clouds 25 1016 94 10000 2.6 30 11:23 14.08.2019
3710 Clouds 25 1015 94 10000 2.1 60 10:58 14.08.2019
3711 Clouds 25 1015 94 10000 2.1 60 10:38 14.08.2019
3712 Clouds 25 1015 94 10000 2.1 60 10:38 14.08.2019
3713 Clouds 25 1015 94 10000 2.1 60 10:20 14.08.2019
3714 Clouds 26 1015 88 10000 2.1 30 09:44 14.08.2019
3715 Clouds 26 1015 88 10000 2.1 30 09:21 14.08.2019
3716 Clouds 26 1015 88 10000 2.1 30 09:21 14.08.2019
3717 Clouds 26 1016 88 10000 2.1 40 08:45 14.08.2019
3718 Clouds 26 1016 88 10000 2.1 40 08:27 14.08.2019
3719 Clouds 27 1016 88 10000 2.1 40 07:57 14.08.2019
3720 Clouds 27 1016 88 10000 2.1 40 07:38 14.08.2019
3721 Clouds 27 1016 88 10000 2.1 40 07:38 14.08.2019
3722 Clouds 27 1016 88 10000 2.6 50 06:53 14.08.2019
3723 Clouds 27 1016 88 10000 2.6 50 06:35 14.08.2019
3724 Clouds 28 1017 83 10000 2.1 60 05:33 14.08.2019
3725 Clouds 28 1015 83 10000 2.1 130 03:58 14.08.2019
3726 Clouds 28 1014 78 10000 2.1 130 02:39 14.08.2019
3727 Clouds 29 1014 78 10000 2.1 130 02:18 14.08.2019
3728 Clouds 30 1013 79 10000 3.1 180 01:30 14.08.2019
3729 Clouds 30 1013 79 10000 3.1 180 00:38 14.08.2019
3730 Clouds 32 1013 70 10000 5.7 180 23:43 13.08.2019
3731 Clouds 32 1013 70 10000 5.7 180 23:20 13.08.2019
3732 Clouds 32 1014 66 10000 5.1 180 22:56 13.08.2019
3733 Clouds 32 1014 66 10000 5.1 180 22:38 13.08.2019
3734 Clouds 32 1014 66 10000 5.1 180 22:38 13.08.2019
3735 Clouds 32 1014 66 10000 5.1 180 22:19 13.08.2019
3736 Clouds 32 1014 63 10000 5.1 180 21:55 13.08.2019
3737 Clouds 32 1014 63 10000 5.1 180 21:36 13.08.2019
3738 Clouds 32 1014 63 10000 5.1 180 21:36 13.08.2019
3739 Clouds 32 1014 63 10000 5.1 180 21:18 13.08.2019
3740 Clouds 32 1015 59 10000 5.1 160 20:43 13.08.2019
3741 Clouds 32 1015 59 10000 5.1 160 20:20 13.08.2019
3742 Clouds 32 1016 63 10000 5.1 180 19:56 13.08.2019
3743 Clouds 32 1016 63 10000 5.1 180 19:38 13.08.2019
3744 Clouds 32 1016 63 10000 5.1 180 19:20 13.08.2019
3745 Clouds 32 1016 63 10000 5.1 180 18:42 13.08.2019
3746 Clouds 32 1016 63 10000 5.1 180 18:22 13.08.2019
3747 Clouds 31 1017 66 10000 4.1 190 17:56 13.08.2019
3748 Clouds 31 1017 66 10000 4.1 190 17:38 13.08.2019
3749 Clouds 31 1017 66 10000 4.1 190 17:18 13.08.2019
3750 Clouds 31 1017 70 10000 2.25 100.507 16:55 13.08.2019
3751 Clouds 31 1017 70 10000 2.25 100.507 16:36 13.08.2019
3752 Clouds 30 1017 70 10000 2.25 100.507 16:18 13.08.2019
3753 Clouds 29 1017 83 10000 2.25 100.507 15:38 13.08.2019
3754 Clouds 29 1017 83 10000 1.66 359.862 15:20 13.08.2019
3755 Clouds 27 1016 94 10000 1.66 359.862 14:48 13.08.2019
3756 Clouds 27 1016 94 10000 1.66 359.862 14:21 13.08.2019
3757 Clouds 26 1015 94 10000 2.1 20 13:59 13.08.2019
3758 Clouds 26 1015 94 10000 2.1 20 13:41 13.08.2019
3759 Clouds 26 1015 94 10000 2.1 20 13:21 13.08.2019
3760 Thunderstorm 26 1014 94 10000 2.1 30 12:57 13.08.2019
3761 Thunderstorm 26 1014 94 10000 2.1 30 12:39 13.08.2019
3762 Thunderstorm 26 1014 94 10000 2.1 30 12:21 13.08.2019
3763 Clouds 26 1014 88 10000 2.1 20 11:43 13.08.2019
3764 Clouds 26 1014 88 10000 2.1 20 11:23 13.08.2019
3765 Clouds 26 1014 83 10000 2.1 30 10:58 13.08.2019
3766 Clouds 26 1014 83 10000 2.1 30 10:38 13.08.2019
3767 Clouds 26 1014 83 10000 2.1 30 10:38 13.08.2019
3768 Clouds 26 1014 83 10000 2.1 30 10:20 13.08.2019
3769 Clouds 26 1013 83 10000 2.1 50 09:56 13.08.2019
3770 Clouds 26 1013 83 10000 2.1 50 09:38 13.08.2019
3771 Clouds 26 1013 83 10000 2.1 50 09:20 13.08.2019
3772 Rain 27 1014 78 10000 2.1 60 08:41 13.08.2019
3773 Clouds 26 1014 78 10000 2.1 60 08:21 13.08.2019
3774 Clouds 26 1014 83 10000 2.1 40 07:51 13.08.2019
3775 Clouds 26 1014 83 10000 2.1 40 07:31 13.08.2019
3776 Clouds 27 1014 83 10000 2.1 60 06:45 13.08.2019
3777 Clouds 27 1014 83 10000 2.1 60 06:19 13.08.2019
3778 Clouds 28 1015 78 10000 2.6 130 05:32 13.08.2019
3779 Clouds 28 1013 74 10000 2.1 130 02:32 13.08.2019
3780 Clouds 29 1014 78 10000 1.29 145.425 01:55 13.08.2019
3781 Clouds 31 1014 66 10000 2.6 180 00:53 13.08.2019
3782 Clouds 31 1014 66 10000 2.6 180 00:35 13.08.2019
3783 Clouds 31 1013 70 10000 3.1 180 23:47 12.08.2019
3784 Clouds 31 1013 70 10000 3.1 180 23:21 12.08.2019
3785 Clouds 32 1013 66 10000 5.1 180 22:57 12.08.2019
3786 Clouds 32 1013 66 10000 5.1 180 22:38 12.08.2019
3787 Clouds 32 1013 66 10000 5.1 180 22:19 12.08.2019
3788 Clouds 32 1014 59 10000 4.1 180 21:55 12.08.2019
3789 Clouds 32 1014 59 10000 4.1 180 21:36 12.08.2019
3790 Clouds 32 1014 59 10000 4.1 180 21:18 12.08.2019
3791 Clouds 32 1015 59 10000 4.28 147.027 20:42 12.08.2019
3792 Clouds 32 1015 59 10000 4.28 147.027 20:21 12.08.2019
3793 Clouds 32 1015 59 10000 4.1 100 19:59 12.08.2019
3794 Clouds 32 1015 59 10000 4.1 100 19:39 12.08.2019
3795 Clouds 32 1015 59 10000 4.1 100 19:21 12.08.2019
3796 Clouds 31 1016 59 10000 2.6 90 18:59 12.08.2019
3797 Clouds 31 1016 59 10000 2.6 90 18:39 12.08.2019
3798 Clouds 31 1016 59 10000 2.6 90 18:21 12.08.2019
3799 Clouds 31 1017 66 10000 3.1 90 17:56 12.08.2019
3800 Clouds 31 1017 66 10000 3.1 90 17:38 12.08.2019
3801 Clouds 31 1017 66 10000 3.1 90 17:20 12.08.2019
3802 Clouds 30 1016 74 10000 2.33 114.167 16:55 12.08.2019
3803 Clouds 30 1016 74 10000 2.33 114.167 16:36 12.08.2019
3804 Clouds 30 1016 74 10000 2.33 114.167 16:18 12.08.2019
3805 Clouds 28 1015 83 10000 2.33 114.167 15:42 12.08.2019
3806 Clouds 28 1015 83 10000 2.33 114.167 15:42 12.08.2019
3807 Clouds 28 1015 83 10000 2.43 350.874 15:22 12.08.2019
3808 Clouds 27 1015 94 10000 2.43 350.874 14:58 12.08.2019
3809 Clouds 27 1015 94 10000 2.43 350.874 14:39 12.08.2019
3810 Clouds 27 1015 94 10000 2.43 350.874 14:39 12.08.2019
3811 Clouds 26 1015 94 10000 2.43 350.874 14:21 12.08.2019
3812 Clouds 25 1014 94 10000 2.1 30 13:57 12.08.2019
3813 Clouds 26 1014 94 10000 2.1 30 13:39 12.08.2019
3814 Clouds 26 1014 94 10000 2.1 30 13:20 12.08.2019
3815 Clouds 25 1014 88 10000 2.1 20 12:43 12.08.2019
3816 Clouds 25 1014 88 10000 2.1 20 12:19 12.08.2019
3817 Rain 26 1015 84 0 0.89 350 11:45 12.08.2019
3818 Clouds 25 1014 88 10000 2.49 328.855 11:26 12.08.2019
3819 Clouds 25 1014 88 10000 2.49 328.855 10:58 12.08.2019
3820 Clouds 25 1014 88 10000 2.49 328.855 10:40 12.08.2019
3821 Clouds 26 1014 88 10000 2.49 328.855 10:21 12.08.2019
3822 Clouds 26 1014 88 10000 2.1 10 09:54 12.08.2019
3823 Clouds 26 1014 88 10000 2.1 10 09:36 12.08.2019
3824 Clouds 26 1014 88 10000 2.1 10 09:36 12.08.2019
3825 Clouds 26 1014 88 10000 2.1 10 09:18 12.08.2019
3826 Clouds 26 1014 88 10000 2.1 10 09:18 12.08.2019
3827 Clouds 26 1014 88 10000 2.1 20 08:40 12.08.2019
3828 Clouds 26 1014 88 10000 2.1 20 08:21 12.08.2019
3829 Clouds 26 1015 83 10000 2.1 40 07:56 12.08.2019
3830 Clouds 26 1015 83 10000 2.1 40 07:35 12.08.2019
3831 Clouds 27 1015 83 10000 2.1 40 06:53 12.08.2019
3832 Clouds 27 1016 88 10000 2.1 30 05:53 12.08.2019
3833 Clouds 29 1015 74 10000 2.6 90 03:47 12.08.2019
3834 Clouds 29 1014 74 10000 2.1 130 02:42 12.08.2019
3835 Rain 29 1016 78 8000 5.1 40 01:23 12.08.2019
3836 Clouds 30 1015 70 10000 5.1 160 00:58 12.08.2019
3837 Clouds 30 1015 70 10000 5.1 160 00:40 12.08.2019
3838 Clouds 31 1015 70 10000 5.1 160 00:20 12.08.2019
3839 Clouds 31 1014 59 10000 5.1 180 23:58 11.08.2019
3840 Clouds 32 1014 59 10000 5.1 180 23:39 11.08.2019
3841 Clouds 32 1014 59 10000 5.1 180 23:39 11.08.2019
3842 Clouds 32 1014 59 10000 5.1 180 23:19 11.08.2019
3843 Clouds 33 1015 59 10000 6.2 180 22:55 11.08.2019
3844 Clouds 33 1015 59 10000 6.2 180 22:36 11.08.2019
3845 Clouds 33 1015 59 10000 6.2 180 22:18 11.08.2019
3846 Clouds 33 1015 52 10000 5.1 180 21:54 11.08.2019
3847 Clouds 33 1015 52 10000 5.1 180 21:36 11.08.2019
3848 Clouds 33 1015 52 10000 5.1 180 21:36 11.08.2019
3849 Clouds 33 1015 52 10000 5.1 180 21:18 11.08.2019
3850 Clouds 33 1015 52 10000 5.1 160 20:41 11.08.2019
3851 Clouds 33 1015 52 10000 5.1 160 20:22 11.08.2019
3852 Clouds 33 1015 52 10000 5.1 160 20:22 11.08.2019
3853 Clouds 32 1016 55 10000 4.1 120 19:45 11.08.2019
3854 Clouds 32 1016 55 10000 4.1 120 19:22 11.08.2019
3855 Clouds 32 1016 55 10000 4.1 160 18:58 11.08.2019
3856 Clouds 32 1016 55 10000 4.1 160 18:38 11.08.2019
3857 Clouds 32 1016 55 10000 4.1 160 18:19 11.08.2019
3858 Clouds 32 1017 62 10000 3.1 90 17:42 11.08.2019
3859 Clouds 32 1017 62 10000 3.1 90 17:20 11.08.2019
3860 Clouds 31 1017 59 10000 4.1 120 16:59 11.08.2019
3861 Clouds 31 1017 59 10000 4.1 120 16:59 11.08.2019
3862 Clouds 31 1017 59 10000 4.1 120 16:40 11.08.2019
3863 Clouds 30 1017 59 10000 4.1 120 16:22 11.08.2019
3864 Clouds 29 1017 83 10000 2.41 120.686 15:56 11.08.2019
3865 Clouds 29 1017 83 10000 2.41 120.686 15:38 11.08.2019
3866 Rain 28 1017 83 10000 0.86 42.584 15:19 11.08.2019
3867 Rain 27 1016 83 10000 0.86 42.584 14:40 11.08.2019
3868 Clouds 27 1016 83 10000 0.86 42.584 14:22 11.08.2019
3869 Clouds 26 1016 94 10000 2.1 20 13:46 11.08.2019
3870 Clouds 26 1016 94 10000 2.1 20 13:26 11.08.2019
3871 Clouds 26 1016 94 10000 2.1 40 12:58 11.08.2019
3872 Clouds 26 1016 94 10000 2.1 40 12:38 11.08.2019
3873 Clouds 26 1016 94 10000 2.1 40 12:20 11.08.2019
3874 -273 0 0 0 0 0 11:40 11.08.2019
3875 Clouds 26 1015 94 10000 2.1 30 11:22 11.08.2019
3876 Clouds 26 1015 94 10000 2.1 30 10:56 11.08.2019
3877 Clouds 26 1015 94 10000 2.1 30 10:38 11.08.2019
3878 Clouds 26 1015 94 10000 2.1 30 10:19 11.08.2019
3879 Clouds 26 1015 94 10000 2.6 30 09:44 11.08.2019
3880 Clouds 26 1015 94 10000 2.6 30 09:26 11.08.2019
3881 Clouds 26 1015 94 10000 2.1 50 08:58 11.08.2019
3882 Clouds 26 1015 94 10000 2.1 50 08:39 11.08.2019
3883 Clouds 27 1015 94 10000 2.1 50 08:20 11.08.2019
3884 Clouds 26 1016 88 10000 2.6 70 07:32 11.08.2019
3885 Clouds 27 1016 83 10000 3.1 70 06:52 11.08.2019
3886 Clouds 27 1016 83 10000 3.1 70 06:31 11.08.2019
3887 Clouds 29 1016 83 10000 2.6 110 04:46 11.08.2019
3888 Clouds 29 1015 79 10000 2.1 130 02:53 11.08.2019
3889 Clouds 29 1016 79 10000 3.1 180 01:58 11.08.2019
3890 Clouds 29 1016 79 10000 3.1 180 01:31 11.08.2019
3891 Clouds 30 1015 74 10000 5.1 160 00:56 11.08.2019
3892 Clouds 30 1015 74 10000 5.1 160 00:35 11.08.2019
3893 -273 0 0 0 0 0 23:55 10.08.2019
3894 Clouds 32 1015 66 10000 5.1 180 23:34 10.08.2019
3895 Clouds 32 1016 66 10000 5.1 180 22:56 10.08.2019
3896 Clouds 32 1016 66 10000 5.1 180 22:36 10.08.2019
3897 Clouds 32 1016 66 10000 5.1 180 22:18 10.08.2019
3898 Clouds 32 1016 63 10000 6.2 180 21:40 10.08.2019
3899 Clouds 32 1016 63 10000 6.2 180 21:21 10.08.2019
3900 Clouds 32 1017 59 10000 6.2 180 20:58 10.08.2019
3901 Clouds 32 1017 59 10000 6.2 180 20:39 10.08.2019
3902 Clouds 33 1017 59 10000 6.2 180 20:20 10.08.2019
3903 Clouds 32 1017 66 10000 4.1 170 19:45 10.08.2019
3904 Clouds 32 1017 66 10000 4.1 170 19:25 10.08.2019
3905 Clouds 32 1017 66 10000 5.1 170 18:46 10.08.2019
3906 Clouds 32 1017 66 10000 5.1 170 18:26 10.08.2019
3907 Clouds 31 1018 70 10000 4.1 170 17:57 10.08.2019
3908 Clouds 32 1018 70 10000 4.1 170 17:39 10.08.2019
3909 Clouds 31 1018 70 10000 4.1 170 17:21 10.08.2019
3910 Rain 30 1017 74 10000 4.18 155.036 16:43 10.08.2019
3911 Rain 31 1017 74 10000 4.18 155.036 16:25 10.08.2019
3912 Clouds 30 1016 83 10000 4.18 155.036 15:49 10.08.2019
3913 Clouds 30 1016 83 10000 2.51 152.668 15:22 10.08.2019
3914 Clouds 28 1015 94 10000 2.51 152.668 14:44 10.08.2019
3915 Clouds 28 1015 94 10000 2.51 152.668 14:21 10.08.2019
3916 Clouds 27 1016 94 10000 2.1 60 13:41 10.08.2019
3917 Clouds 27 1016 94 10000 2.1 60 13:20 10.08.2019
3918 Clouds 27 1015 94 10000 2.1 30 12:55 10.08.2019
3919 Clouds 27 1015 94 10000 2.1 30 12:37 10.08.2019
3920 Clouds 27 1015 94 10000 2.1 30 12:19 10.08.2019
3921 Clouds 27 1015 94 10000 1.34 150.282 11:42 10.08.2019
3922 Clouds 27 1015 94 10000 1.34 150.282 11:22 10.08.2019
3923 Clouds 27 1015 94 10000 2.1 50 10:56 10.08.2019
3924 Clouds 27 1015 94 10000 2.1 50 10:37 10.08.2019
3925 Rain 27 1015 94 10000 2.1 50 10:19 10.08.2019
3926 Rain 27 1015 88 10000 2.1 140 09:42 10.08.2019
3927 Clouds 27 1015 88 10000 2.1 140 09:23 10.08.2019
3928 Clouds 28 1016 88 10000 2.1 130 08:42 10.08.2019
3929 Clouds 28 1016 88 10000 2.1 130 08:22 10.08.2019
3930 Rain 28 1016 88 0 0.59 185.487 07:54 10.08.2019
3931 Rain 28 1016 86 0 0.45 104 07:29 10.08.2019
3932 Rain 28 1016 88 10000 3.1 120 06:49 10.08.2019
3933 Rain 28 1016 88 10000 3.1 120 06:49 10.08.2019
3934 Rain 28 1016 88 10000 3.1 120 06:29 10.08.2019
3935 Clouds 28 1016 88 10000 4.1 120 05:27 10.08.2019
3936 Clouds 28 1016 83 10000 4.1 120 04:37 10.08.2019
3937 Clouds 28 1015 78 10000 2.1 140 02:58 10.08.2019
3938 Clouds 28 1015 78 10000 2.1 140 02:28 10.08.2019
3939 Clouds 29 1015 79 10000 2.6 160 01:43 10.08.2019
3940 Clouds 29 1015 79 10000 2.6 160 01:23 10.08.2019
3941 Clouds 29 1014 74 10000 4.1 180 00:49 10.08.2019
3942 Clouds 29 1014 74 10000 4.1 180 00:25 10.08.2019
3943 Clouds 30 1013 66 10000 4.1 180 23:57 09.08.2019
3944 Clouds 30 1013 66 10000 4.1 180 23:36 09.08.2019
3945 Clouds 30 1013 66 10000 4.1 180 23:18 09.08.2019
3946 Clouds 31 1014 62 10000 5.1 180 22:40 09.08.2019
3947 Clouds 31 1014 62 10000 5.1 180 22:21 09.08.2019
3948 Clouds 31 1014 59 10000 5.1 180 21:56 09.08.2019
3949 Clouds 31 1014 59 10000 5.1 180 21:38 09.08.2019
3950 Clouds 31 1014 59 10000 5.1 180 21:20 09.08.2019
3951 Clouds 32 1015 59 10000 4.1 180 20:56 09.08.2019
3952 Clouds 31 1015 59 10000 4.1 180 20:37 09.08.2019
3953 Clouds 31 1015 59 10000 4.1 180 20:18 09.08.2019
3954 Clouds 31 1015 59 10000 4.1 180 20:18 09.08.2019
3955 Clouds 31 1015 62 10000 4.1 160 19:41 09.08.2019
3956 Clouds 31 1015 62 10000 4.1 160 19:20 09.08.2019
3957 Clouds 31 1016 62 10000 4.1 180 18:42 09.08.2019
3958 Clouds 30 1016 62 10000 4.1 180 18:22 09.08.2019
3959 Clouds 30 1017 66 10000 2.6 100 17:58 09.08.2019
3960 Clouds 30 1017 66 10000 2.6 100 17:40 09.08.2019
3961 Clouds 30 1017 66 10000 2.6 100 17:22 09.08.2019
3962 Clouds 29 1016 79 10000 2.6 60 16:42 09.08.2019
3963 Clouds 29 1016 79 10000 2.6 60 16:42 09.08.2019
3964 Clouds 29 1016 79 10000 2.6 60 16:23 09.08.2019
3965 Clouds 29 1016 83 10000 2.37 136.594 15:58 09.08.2019
3966 Clouds 28 1016 83 10000 2.37 136.594 15:39 09.08.2019
3967 Clouds 28 1016 83 10000 1.07 343.856 15:20 09.08.2019
3968 Clouds 27 1016 94 10000 1.07 343.856 14:55 09.08.2019
3969 Clouds 27 1016 94 10000 1.07 343.856 14:37 09.08.2019
3970 Clouds 27 1016 94 10000 1.07 343.856 14:19 09.08.2019
3971 Clouds 28 1016 79 0 1.79 12 13:43 09.08.2019
3972 Clouds 27 1016 84 0 1.13 351.963 13:20 09.08.2019
3973 Clouds 26 1015 100 10000 1.13 351.963 12:47 09.08.2019
3974 Clouds 25 1015 100 10000 1.11 327.513 12:24 09.08.2019
3975 Clouds 25 1015 100 10000 1.11 327.513 11:59 09.08.2019
3976 Clouds 25 1015 100 10000 1.11 327.513 11:37 09.08.2019
3977 Clouds 25 1015 100 10000 1.11 327.513 11:19 09.08.2019
3978 Clouds 25 1015 100 10000 1.11 327.513 10:41 09.08.2019
3979 Clouds 25 1015 100 10000 1.11 327.513 10:22 09.08.2019
3980 Clouds 26 1015 94 10000 2.1 30 09:46 09.08.2019
3981 Clouds 27 1015 94 10000 2.1 30 09:20 09.08.2019
3982 Clouds 26 1015 94 10000 2.1 40 08:59 09.08.2019
3983 Clouds 26 1015 94 10000 2.1 40 08:40 09.08.2019
3984 Clouds 27 1015 94 10000 2.1 40 08:20 09.08.2019
3985 Clouds 27 1016 88 10000 2.6 50 07:53 09.08.2019
3986 Clouds 27 1016 88 10000 2.6 50 07:24 09.08.2019
3987 Clouds 27 1016 88 10000 4.1 80 06:56 09.08.2019
3988 Clouds 27 1016 88 10000 4.1 80 06:33 09.08.2019
3989 Clouds 27 1017 88 10000 3.1 110 05:58 09.08.2019
3990 Clouds 28 1016 83 10000 2.6 110 04:22 09.08.2019
3991 Clouds 29 1016 74 10000 3.1 120 01:58 09.08.2019
3992 Clouds 30 1015 66 10000 2.6 180 00:49 09.08.2019
3993 Clouds 30 1015 66 10000 2.6 180 00:26 09.08.2019
3994 Clouds 30 1015 62 10000 5.1 180 23:59 08.08.2019
3995 Clouds 31 1015 62 10000 5.1 180 23:38 08.08.2019
3996 Clouds 31 1015 62 10000 5.1 180 23:20 08.08.2019
3997 Clouds 31 1015 62 10000 4.1 150 22:58 08.08.2019
3998 Clouds 31 1015 62 10000 4.1 150 22:37 08.08.2019
3999 Clouds 31 1015 62 10000 4.1 150 22:18 08.08.2019
4000 Clouds 32 1015 63 10000 5.1 150 21:58 08.08.2019
4001 Clouds 32 1015 63 10000 5.1 150 21:57 08.08.2019
4002 Clouds 31 1015 63 10000 5.1 150 21:39 08.08.2019
4003 Clouds 31 1015 63 10000 5.1 150 21:20 08.08.2019
4004 Clouds 31 1016 59 10000 4.1 150 20:42 08.08.2019
4005 Clouds 31 1016 59 10000 4.1 150 20:22 08.08.2019
4006 Clouds 32 1016 59 10000 4.1 150 19:59 08.08.2019
4007 Clouds 31 1016 59 10000 4.1 150 19:41 08.08.2019
4008 Clouds 31 1016 59 10000 4.1 150 19:20 08.08.2019
4009 Clouds 31 1017 59 10000 3.6 150 18:43 08.08.2019
4010 Clouds 31 1017 59 10000 3.6 150 18:22 08.08.2019
4011 Clouds 31 1017 59 10000 3.1 90 17:55 08.08.2019
4012 Clouds 31 1017 59 10000 3.1 90 17:37 08.08.2019
4013 Clouds 31 1017 59 10000 3.1 90 17:18 08.08.2019
4014 Clouds 30 1018 70 10000 2.6 143.046 16:42 08.08.2019
4015 Clouds 30 1018 70 10000 2.6 143.046 16:24 08.08.2019
4016 Clouds 28 1018 78 10000 2.6 143.046 15:58 08.08.2019
4017 Clouds 28 1018 78 10000 2.6 143.046 15:39 08.08.2019
4018 Clouds 28 1018 78 10000 0.72 324.573 15:21 08.08.2019
4019 Clouds 26 1017 94 10000 0.72 324.573 14:42 08.08.2019
4020 Clouds 26 1017 94 10000 0.72 324.573 14:23 08.08.2019
4021 Clouds 26 1016 94 10000 2.1 20 13:58 08.08.2019
4022 Clouds 25 1016 94 10000 2.1 20 13:38 08.08.2019
4023 Clouds 26 1016 94 10000 2.1 20 13:18 08.08.2019
4024 Clouds 26 1016 94 10000 2.1 20 13:18 08.08.2019
4025 Clouds 25 1015 94 10000 2.1 20 12:40 08.08.2019
4026 Clouds 24 1015 94 10000 2.1 20 12:20 08.08.2019
4027 -273 0 0 0 0 0 11:55 08.08.2019
4028 Clouds 24 1015 94 10000 2.1 30 11:37 08.08.2019
4029 Clouds 24 1015 94 10000 2.1 30 11:18 08.08.2019
4030 Clouds 24 1015 94 10000 2.1 40 10:41 08.08.2019
4031 Clouds 24 1015 94 10000 2.1 40 10:41 08.08.2019
4032 Clouds 25 1015 94 10000 2.1 40 10:21 08.08.2019
4033 Clouds 26 1016 88 10000 2.1 30 09:45 08.08.2019
4034 Clouds 26 1016 88 10000 2.1 30 09:27 08.08.2019
4035 Clouds 26 1016 88 10000 2.1 40 08:56 08.08.2019
4036 Clouds 26 1016 88 10000 2.1 40 08:36 08.08.2019
4037 Clouds 26 1016 88 10000 2.1 40 08:18 08.08.2019
4038 Clouds 25 1016 88 10000 2.1 30 07:39 08.08.2019
4039 Clouds 26 1016 88 10000 2.1 30 07:19 08.08.2019
4040 Clouds 26 1017 88 10000 2.6 30 06:46 08.08.2019
4041 Clouds 26 1017 88 10000 2.6 30 06:19 08.08.2019
4042 Clouds 26 1017 88 10000 2.1 60 05:51 08.08.2019
4043 Clouds 26 1016 88 10000 2.1 70 04:43 08.08.2019
4044 Clouds 26 1016 83 10000 2.6 70 03:51 08.08.2019
4045 Clouds 28 1014 78 10000 1.58 145.583 01:59 08.08.2019
4046 Clouds 28 1014 78 10000 1.62 158.423 01:33 08.08.2019
4047 Clouds 29 1014 74 10000 3.1 160 00:25 08.08.2019
4048 Clouds 30 1014 70 10000 5.1 180 23:46 07.08.2019
4049 Clouds 30 1014 70 10000 5.1 180 23:19 07.08.2019
4050 Clouds 31 1014 66 10000 6.2 180 22:55 07.08.2019
4051 Clouds 31 1014 66 10000 6.2 180 22:36 07.08.2019
4052 Clouds 31 1014 66 10000 6.2 180 22:18 07.08.2019
4053 Clouds 31 1015 59 10000 5.1 180 21:54 07.08.2019
4054 Clouds 31 1015 59 10000 5.1 180 21:36 07.08.2019
4055 Clouds 31 1015 59 10000 5.1 180 21:18 07.08.2019
4056 Clouds 31 1015 59 10000 5.1 180 20:41 07.08.2019
4057 Clouds 31 1015 59 10000 5.1 180 20:23 07.08.2019
4058 Clouds 31 1015 59 10000 5.1 180 20:23 07.08.2019
4059 Clouds 31 1016 66 10000 3.1 90 19:56 07.08.2019
4060 Clouds 31 1016 66 10000 3.1 90 19:38 07.08.2019
4061 Clouds 31 1016 66 10000 3.1 90 19:20 07.08.2019
4062 Clouds 30 1017 66 10000 3.99 152.299 18:42 07.08.2019
4063 Clouds 30 1017 66 10000 1.81 118.093 18:20 07.08.2019
4064 Clouds 29 1017 79 10000 3.1 90 17:58 07.08.2019
4065 Clouds 29 1017 79 10000 3.1 90 17:39 07.08.2019
4066 Clouds 29 1017 79 10000 3.1 90 17:21 07.08.2019
4067 Thunderstorm 28 1017 83 10000 2.6 90 16:57 07.08.2019
4068 Thunderstorm 28 1017 83 10000 2.6 90 16:39 07.08.2019
4069 Thunderstorm 28 1017 83 10000 2.6 90 16:20 07.08.2019
4070 Thunderstorm 27 1017 83 10000 1.81 118.093 15:56 07.08.2019
4071 Thunderstorm 27 1017 83 10000 1.81 118.093 15:37 07.08.2019
4072 Thunderstorm 27 1017 83 10000 1.11 350.428 15:18 07.08.2019
4073 Thunderstorm 27 1017 83 10000 1.11 350.428 15:18 07.08.2019
4074 Rain 27 1016 94 8000 1.11 350.428 14:45 07.08.2019
4075 Rain 27 1016 94 8000 1.11 350.428 14:24 07.08.2019
4076 Clouds 26 1016 94 10000 2.1 40 13:44 07.08.2019
4077 Clouds 26 1016 94 10000 2.1 40 13:19 07.08.2019
4078 Thunderstorm 26 1016 94 10000 2.1 40 12:58 07.08.2019
4079 Thunderstorm 26 1016 94 10000 2.1 40 12:39 07.08.2019
4080 Thunderstorm 25 1016 94 10000 2.1 40 12:20 07.08.2019
4081 Thunderstorm 26 1016 94 10000 2.1 70 11:59 07.08.2019
4082 Thunderstorm 26 1016 94 10000 2.1 70 11:40 07.08.2019
4083 Thunderstorm 26 1016 94 10000 2.1 70 11:19 07.08.2019
4084 Thunderstorm 26 1015 94 10000 2.1 20 10:41 07.08.2019
4085 Thunderstorm 26 1015 94 10000 2.1 20 10:20 07.08.2019
4086 Thunderstorm 26 1015 94 10000 1 0 09:59 07.08.2019
4087 Thunderstorm 26 1015 94 10000 1 0 09:41 07.08.2019
4088 Thunderstorm 26 1015 94 10000 1 0 09:21 07.08.2019
4089 Thunderstorm 26 1016 94 10000 2.1 30 08:45 07.08.2019
4090 Thunderstorm 26 1016 94 10000 2.1 30 08:25 07.08.2019
4091 Clouds 26 1016 94 10000 2.6 40 07:51 07.08.2019
4092 Clouds 26 1016 94 10000 2.6 40 07:32 07.08.2019
4093 Clouds 26 1016 94 10000 2.1 50 06:50 07.08.2019
4094 Clouds 26 1016 94 10000 2.1 50 06:26 07.08.2019
4095 Clouds 27 1016 94 10000 2.1 50 05:43 07.08.2019
4096 Rain 28 1016 88 7000 2.1 50 04:43 07.08.2019
4097 Clouds 28 1015 78 10000 2.1 80 03:20 07.08.2019
4098 Clouds 28 1014 83 10000 2.6 100 02:42 07.08.2019
4099 Clouds 29 1015 74 10000 1.34 118.818 01:53 07.08.2019
4100 Clouds 29 1015 74 10000 1.66 116.241 01:23 07.08.2019
4101 Clouds 29 1014 74 10000 5.1 160 00:37 07.08.2019
4102 Clouds 29 1014 74 10000 5.1 160 00:37 07.08.2019
4103 Clouds 29 1014 74 10000 5.1 160 00:18 07.08.2019
4104 Clouds 29 1014 70 10000 3.6 180 23:38 06.08.2019
4105 Clouds 29 1014 70 10000 3.6 180 23:20 06.08.2019
4106 Clouds 30 1015 70 10000 5.1 150 22:41 06.08.2019
4107 Clouds 30 1015 70 10000 5.1 150 22:22 06.08.2019
4108 Rain 30 1015 70 10000 6.2 150 21:57 06.08.2019
4109 Rain 30 1015 70 10000 6.2 150 21:38 06.08.2019
4110 Rain 30 1015 70 10000 6.2 150 21:19 06.08.2019
4111 Rain 30 1015 70 10000 6.2 150 21:19 06.08.2019
4112 Clouds 30 1016 83 10000 2.6 180 20:46 06.08.2019
4113 Clouds 30 1016 83 10000 2.6 180 20:28 06.08.2019
4114 Thunderstorm 30 1017 74 7000 4.51 114.111 19:57 06.08.2019
4115 Thunderstorm 30 1017 74 7000 4.51 114.111 19:38 06.08.2019
4116 Thunderstorm 30 1017 74 7000 4.51 114.111 19:19 06.08.2019
4117 Clouds 30 1016 55 10000 4.51 114.111 18:41 06.08.2019
4118 Clouds 30 1016 55 10000 3.7 54.326 18:23 06.08.2019
4119 Clouds 30 1017 59 10000 4.1 40 17:58 06.08.2019
4120 Clouds 31 1017 59 10000 4.1 40 17:37 06.08.2019
4121 Clouds 31 1017 59 10000 4.1 40 17:37 06.08.2019
4122 Clouds 31 1017 59 10000 4.1 40 17:19 06.08.2019
4123 Clouds 30 1017 62 10000 5.1 360 16:48 06.08.2019
4124 Clouds 30 1017 62 10000 5.1 360 16:25 06.08.2019
4125 Clouds 29 1017 70 10000 6.2 360 15:59 06.08.2019
4126 Clouds 29 1017 70 10000 6.2 360 15:41 06.08.2019
4127 Clouds 29 1017 70 10000 6.2 360 15:22 06.08.2019
4128 Clouds 28 1016 78 10000 5.1 60 14:59 06.08.2019
4129 Clouds 28 1016 78 10000 5.1 60 14:37 06.08.2019
4130 Clouds 27 1016 78 10000 5.1 60 14:19 06.08.2019
4131 Clouds 26 1015 94 10000 2.1 30 13:45 06.08.2019
4132 Clouds 26 1015 94 10000 2.1 30 13:27 06.08.2019
4133 Clouds 26 1015 94 10000 2.1 20 12:59 06.08.2019
4134 Clouds 26 1015 94 10000 2.1 20 12:40 06.08.2019
4135 Clouds 26 1015 94 10000 2.1 20 12:21 06.08.2019
4136 Clouds 26 1015 94 10000 2.1 20 11:45 06.08.2019
4137 Clouds 26 1015 94 10000 2.1 20 11:21 06.08.2019
4138 Clouds 26 1015 94 10000 2.1 10 10:59 06.08.2019
4139 Clouds 26 1015 94 10000 2.1 10 10:39 06.08.2019
4140 Clouds 26 1015 94 10000 2.1 10 10:21 06.08.2019
4141 Clouds 26 1015 94 10000 2.59 358.272 09:43 06.08.2019
4142 Clouds 26 1015 94 10000 2.7 12.582 09:21 06.08.2019
4143 Clouds 26 1015 94 10000 2.1 30 08:51 06.08.2019
4144 Clouds 26 1015 94 10000 2.1 30 08:29 06.08.2019
4145 Clouds 27 1016 88 10000 2.1 40 07:59 06.08.2019
4146 Clouds 27 1016 88 10000 2.1 40 07:30 06.08.2019
4147 Clouds 27 1016 94 10000 2.1 70 06:45 06.08.2019
4148 Clouds 27 1016 94 10000 2.1 70 06:23 06.08.2019
4149 Clouds 27 1017 83 10000 2.1 50 05:31 06.08.2019
4150 Clouds 29 1015 79 10000 3.1 100 02:48 06.08.2019
4151 Clouds 29 1016 74 10000 5.1 160 01:25 06.08.2019
4152 Clouds 30 1015 62 10000 5.1 160 00:51 06.08.2019
4153 Clouds 30 1015 62 10000 5.1 160 00:19 06.08.2019
4154 Clouds 31 1015 59 10000 5.1 180 23:20 05.08.2019
4155 Clouds 31 1015 105 10000 5.1 180 22:43 05.08.2019
4156 Clouds 31 1015 105 10000 5.1 180 22:23 05.08.2019
4157 Clouds 32 1016 59 10000 4.1 160 21:59 05.08.2019
4158 Clouds 31 1016 59 10000 4.1 160 21:41 05.08.2019
4159 Clouds 32 1016 59 10000 4.1 160 21:20 05.08.2019
4160 Clouds 32 1016 59 10000 5.1 60 20:57 05.08.2019
4161 Clouds 32 1016 59 10000 5.1 60 20:39 05.08.2019
4162 Clouds 32 1016 59 10000 5.1 60 20:21 05.08.2019
4163 Clouds 32 1017 62 10000 4.1 90 19:55 05.08.2019
4164 Clouds 32 1017 62 10000 4.1 90 19:36 05.08.2019
4165 Clouds 32 1017 62 10000 4.1 90 19:18 05.08.2019
4166 Clouds 32 1018 62 10000 3.1 30 18:40 05.08.2019
4167 Clouds 31 1018 62 10000 3.1 30 18:19 05.08.2019
4168 Clouds 30 1017 62 10000 3.1 90 17:47 05.08.2019
4169 Clouds 30 1017 62 10000 3.1 90 17:29 05.08.2019
4170 Clouds 30 1018 70 10000 2.6 60 16:47 05.08.2019
4171 Clouds 30 1018 70 10000 2.6 60 16:27 05.08.2019
4172 Clouds 29 1017 78 10000 4.1 60 15:58 05.08.2019
4173 Clouds 28 1017 78 10000 4.1 60 15:40 05.08.2019
4174 Clouds 28 1017 78 10000 4.1 60 15:20 05.08.2019
4175 Clouds 27 1016 88 10000 2.5 26.74 14:40 05.08.2019
4176 Clouds 27 1016 88 10000 2.5 26.74 14:21 05.08.2019
4177 Clouds 26 1016 94 10000 2.1 10 13:48 05.08.2019
4178 Clouds 26 1016 94 10000 2.1 10 13:23 05.08.2019
4179 Clouds 26 1015 94 10000 2.1 30 12:50 05.08.2019
4180 Clouds 25 1015 94 10000 2.1 30 12:22 05.08.2019
4181 Clouds 25 1015 94 10000 2.1 20 11:55 05.08.2019
4182 Clouds 25 1015 94 10000 2.1 20 11:37 05.08.2019
4183 Clouds 25 1015 94 10000 2.1 20 11:18 05.08.2019
4184 Clouds 25 1016 94 10000 2.1 40 10:43 05.08.2019
4185 Clouds 25 1016 88 10000 2.1 60 10:25 05.08.2019
4186 Clouds 26 1016 88 10000 2.1 60 09:44 05.08.2019
4187 Clouds 26 1016 88 10000 2.1 60 09:44 05.08.2019
4188 Clouds 26 1016 88 10000 2.1 60 09:26 05.08.2019
4189 Clouds 26 1016 88 10000 2.1 40 08:59 05.08.2019
4190 Clouds 26 1016 88 10000 2.1 40 08:41 05.08.2019
4191 Clouds 26 1016 88 10000 2.1 40 08:41 05.08.2019
4192 Clouds 26 1016 88 10000 2.1 40 08:20 05.08.2019
4193 Clouds 27 1016 88 10000 2.1 60 07:45 05.08.2019
4194 Clouds 27 1016 88 10000 2.1 60 07:26 05.08.2019
4195 Clouds 27 1017 78 10000 2.1 60 06:35 05.08.2019
4196 Clouds 28 1017 83 10000 2.1 60 05:52 05.08.2019
4197 Clouds 28 1017 83 10000 2.1 60 05:20 05.08.2019
4198 Clouds 28 1016 83 10000 4.1 60 04:27 05.08.2019
4199 Clouds 28 1016 78 10000 3.1 80 03:38 05.08.2019
4200 Clouds 28 1015 74 10000 2.1 100 02:36 05.08.2019
4201 Clouds 28 1014 83 10000 3.1 180 01:35 05.08.2019
4202 Clouds 28 1014 83 10000 3.1 180 01:35 05.08.2019
4203 Clouds 29 1014 74 10000 4.1 170 00:43 05.08.2019
4204 Clouds 29 1014 74 10000 4.1 170 00:23 05.08.2019
4205 Clouds 30 1014 66 10000 5.7 180 23:58 04.08.2019
4206 Clouds 30 1014 66 10000 5.7 180 23:40 04.08.2019
4207 Clouds 30 1014 66 10000 5.7 180 23:19 04.08.2019
4208 Clouds 30 1015 66 10000 4.6 180 22:55 04.08.2019
4209 Clouds 30 1015 66 10000 4.6 180 22:37 04.08.2019
4210 Clouds 30 1015 66 10000 4.6 180 22:18 04.08.2019
4211 Clouds 31 1016 62 10000 5.1 180 21:43 04.08.2019
4212 Clouds 31 1016 62 10000 5.1 180 21:20 04.08.2019
4213 Clouds 31 1016 59 10000 5.1 180 20:46 04.08.2019
4214 Clouds 31 1016 59 10000 5.1 180 20:21 04.08.2019
4215 Clouds 31 1017 63 10000 5.1 20 19:58 04.08.2019
4216 Clouds 32 1017 63 10000 5.1 20 19:38 04.08.2019
4217 Clouds 32 1017 63 10000 5.1 20 19:20 04.08.2019
4218 Rain 31 1015 66 10000 3.1 90 18:42 04.08.2019
4219 Rain 30 1015 66 10000 3.1 90 18:21 04.08.2019
4220 Clouds 30 1018 70 10000 4.1 40 17:45 04.08.2019
4221 Clouds 30 1018 70 10000 4.1 40 17:26 04.08.2019
4222 Clouds 30 1018 70 10000 3.1 360 16:59 04.08.2019
4223 Clouds 30 1018 70 10000 3.1 360 16:39 04.08.2019
4224 Clouds 30 1018 70 10000 3.1 360 16:20 04.08.2019
4225 Clouds 28 1018 78 10000 3.1 10 15:43 04.08.2019
4226 Clouds 28 1018 78 10000 3.1 10 15:22 04.08.2019
4227 Clouds 27 1017 94 10000 1.77 350.761 14:45 04.08.2019
4228 Clouds 27 1017 94 10000 1.77 350.761 14:26 04.08.2019
4229 Clouds 26 1016 88 10000 2.6 20 13:47 04.08.2019
4230 Clouds 26 1016 88 10000 2.6 20 13:28 04.08.2019
4231 Clouds 26 1016 88 10000 2.1 10 12:59 04.08.2019
4232 Clouds 26 1016 88 10000 2.1 10 12:40 04.08.2019
4233 Clouds 25 1016 88 10000 2.1 10 12:22 04.08.2019
4234 Clouds 25 1015 94 10000 2.1 30 11:55 04.08.2019
4235 Clouds 25 1015 94 10000 2.1 30 11:36 04.08.2019
4236 Clouds 25 1015 94 10000 2.1 30 11:18 04.08.2019
4237 Clouds 26 1015 88 10000 2.1 10 10:40 04.08.2019
4238 Clouds 26 1015 88 10000 2.1 10 10:19 04.08.2019
4239 Clouds 26 1015 88 10000 2.1 20 09:42 04.08.2019
4240 Clouds 27 1015 88 10000 2.1 20 09:21 04.08.2019
4241 Clouds 27 1016 88 10000 2.1 20 08:43 04.08.2019
4242 Clouds 27 1016 88 10000 2.1 20 08:25 04.08.2019
4243 Clouds 27 1016 94 10000 2.1 20 07:51 04.08.2019
4244 Clouds 27 1016 88 10000 2.6 50 06:50 04.08.2019
4245 Clouds 27 1016 88 10000 2.6 50 06:28 04.08.2019
4246 Clouds 28 1015 78 10000 3.6 100 03:45 04.08.2019
4247 Clouds 28 1015 74 10000 4.6 110 02:23 04.08.2019
4248 Clouds 28 1014 83 10000 1.83 115.04 01:33 04.08.2019
4249 Clouds 29 1014 78 10000 4.1 180 00:45 04.08.2019
4250 Clouds 29 1014 78 10000 4.1 180 00:26 04.08.2019
4251 Clouds 30 1013 66 10000 5.1 180 23:57 03.08.2019
4252 Clouds 30 1013 66 10000 5.1 180 23:39 03.08.2019
4253 Clouds 30 1013 66 10000 5.1 180 23:18 03.08.2019
4254 Clouds 31 1014 66 10000 4.1 160 22:43 03.08.2019
4255 Clouds 31 1014 66 10000 4.1 160 22:20 03.08.2019
4256 Clouds 31 1014 66 10000 5.1 180 21:40 03.08.2019
4257 Clouds 31 1014 66 10000 5.1 180 21:22 03.08.2019
4258 Clouds 31 1015 66 10000 4.1 160 20:47 03.08.2019
4259 Clouds 31 1015 66 10000 4.1 160 20:27 03.08.2019
4260 Clouds 31 1015 70 10000 4.1 100 19:58 03.08.2019
4261 Clouds 31 1015 70 10000 4.1 100 19:40 03.08.2019
4262 Clouds 31 1015 70 10000 4.1 100 19:21 03.08.2019
4263 Rain 30 1016 79 8000 3.95 131.735 18:46 03.08.2019
4264 Rain 30 1016 79 8000 3.95 131.735 18:26 03.08.2019
4265 Clouds 30 1017 66 10000 2.6 90 17:46 03.08.2019
4266 Clouds 30 1017 66 10000 2.6 90 17:20 03.08.2019
4267 Clouds 30 1016 74 10000 4.1 60 16:54 03.08.2019
4268 Clouds 29 1016 74 10000 4.1 60 16:36 03.08.2019
4269 Clouds 29 1016 74 10000 4.1 60 16:18 03.08.2019
4270 Clouds 28 1015 78 10000 2.82 93.921 15:42 03.08.2019
4271 Clouds 28 1015 78 10000 2.41 343.242 15:20 03.08.2019
4272 Clouds 27 1015 94 10000 2.41 343.242 14:38 03.08.2019
4273 Clouds 27 1015 94 10000 2.41 343.242 14:19 03.08.2019
4274 Clouds 26 1015 94 10000 2.1 20 13:47 03.08.2019
4275 Clouds 26 1015 94 10000 2.1 20 13:23 03.08.2019
4276 Clouds 25 1014 100 10000 2.1 30 12:56 03.08.2019
4277 Clouds 25 1014 100 10000 2.1 30 12:37 03.08.2019
4278 Clouds 24 1014 100 10000 2.1 30 12:19 03.08.2019
4279 Clouds 25 1014 94 10000 2.1 360 11:40 03.08.2019
4280 Clouds 25 1014 94 10000 2.1 360 11:22 03.08.2019
4281 Clouds 25 1014 94 10000 2.1 30 10:39 03.08.2019
4282 Clouds 25 1014 94 10000 2.1 30 10:20 03.08.2019
4283 Clouds 25 1014 94 10000 2.1 20 09:38 03.08.2019
4284 Clouds 25 1014 94 10000 2.1 20 09:18 03.08.2019
4285 Clouds 25 1014 88 10000 2.6 10 08:44 03.08.2019
4286 Clouds 26 1015 88 10000 2.1 20 07:40 03.08.2019
4287 Clouds 26 1015 94 10000 2.1 20 06:58 03.08.2019
4288 Clouds 27 1015 94 10000 2.1 20 06:20 03.08.2019
4289 Clouds 27 1014 83 10000 2.1 60 03:35 03.08.2019
4290 Clouds 27 1013 83 10000 3.1 50 02:26 03.08.2019
4291 Rain 28 1012 83 8000 3.1 340 00:59 03.08.2019
4292 Rain 28 1012 83 8000 3.1 340 00:32 03.08.2019
4293 Rain 28 1012 83 8000 3.1 340 00:32 03.08.2019
4294 Thunderstorm 28 1012 79 8000 2.1 20 23:42 02.08.2019
4295 Thunderstorm 29 1012 70 7000 4.1 140 23:20 02.08.2019
4296 Clouds 29 1013 66 10000 5.1 180 22:59 02.08.2019
4297 Clouds 30 1013 66 10000 5.1 180 22:40 02.08.2019
4298 Clouds 31 1013 66 10000 5.1 180 22:22 02.08.2019
4299 Clouds 32 1014 62 10000 3.1 40 21:56 02.08.2019
4300 Clouds 32 1014 62 10000 3.1 40 21:37 02.08.2019
4301 Clouds 32 1014 62 10000 3.1 40 21:37 02.08.2019
4302 Clouds 32 1014 62 10000 3.1 40 21:19 02.08.2019
4303 Clouds 33 1014 62 10000 4.1 360 20:43 02.08.2019
4304 Clouds 33 1014 62 10000 4.1 360 20:22 02.08.2019
4305 Clouds 32 1014 62 10000 3.1 40 19:53 02.08.2019
4306 Clouds 32 1014 62 10000 3.1 40 19:32 02.08.2019
4307 Clouds 32 1016 70 10000 3.1 30 18:50 02.08.2019
4308 Clouds 32 1016 70 10000 3.1 30 18:32 02.08.2019
4309 Clouds 31 1016 70 10000 3.1 40 17:57 02.08.2019
4310 Clouds 31 1016 70 10000 3.1 40 17:39 02.08.2019
4311 Clouds 31 1016 70 10000 3.1 40 17:20 02.08.2019
4312 Clouds 30 1016 74 10000 5.1 360 16:39 02.08.2019
4313 Clouds 29 1016 74 10000 5.1 360 16:20 02.08.2019
4314 Clouds 29 1015 78 10000 2.6 360 15:56 02.08.2019
4315 Clouds 29 1015 78 10000 2.6 360 15:36 02.08.2019
4316 Clouds 28 1015 78 10000 2.6 360 15:18 02.08.2019
4317 Clouds 27 1015 88 10000 2.65 355.701 14:41 02.08.2019
4318 Clouds 27 1015 88 10000 2.65 355.701 14:18 02.08.2019
4319 Clouds 26 1015 94 10000 2.1 10 13:45 02.08.2019
4320 Clouds 26 1015 94 10000 2.1 10 13:20 02.08.2019
4321 Thunderstorm 25 1014 94 10000 2.1 20 12:43 02.08.2019
4322 Thunderstorm 25 1014 94 10000 2.1 20 12:20 02.08.2019
4323 Clouds 26 1014 94 10000 2.1 20 11:41 02.08.2019
4324 Clouds 26 1014 94 10000 2.1 20 11:41 02.08.2019
4325 Clouds 26 1014 94 10000 2.1 20 11:22 02.08.2019
4326 Clouds 26 1013 94 10000 2.1 30 10:48 02.08.2019
4327 Clouds 26 1013 94 10000 2.1 30 10:24 02.08.2019
4328 Clouds 26 1014 94 10000 2.1 20 09:57 02.08.2019
4329 Clouds 26 1014 94 10000 2.1 20 09:38 02.08.2019
4330 Clouds 26 1014 94 10000 2.1 20 09:20 02.08.2019
4331 Clouds 26 1014 94 10000 2.1 20 08:40 02.08.2019
4332 Clouds 26 1014 94 10000 2.1 20 08:18 02.08.2019
4333 Clouds 26 1015 94 10000 2.6 20 07:42 02.08.2019
4334 Clouds 26 1015 94 10000 2.6 20 07:24 02.08.2019
4335 Clouds 26 1015 94 10000 2.6 20 06:33 02.08.2019
4336 Clouds 26 1015 94 10000 2.1 20 05:43 02.08.2019
4337 Clouds 26 1014 88 10000 2.1 40 03:34 02.08.2019
4338 Clouds 27 1014 78 10000 2.1 30 02:38 02.08.2019
4339 Rain 27 1014 74 0 1.79 16 01:36 02.08.2019
4340 Clouds 28 1014 78 10000 2.1 10 00:31 02.08.2019
4341 Clouds 30 1014 74 10000 4.1 50 23:44 01.08.2019
4342 Clouds 30 1014 74 10000 4.1 50 23:25 01.08.2019
4343 Clouds 31 1014 66 10000 4.1 150 22:44 01.08.2019
4344 Clouds 31 1014 66 10000 4.1 150 22:25 01.08.2019
4345 Clouds 31 1014 59 10000 6.2 190 21:57 01.08.2019
4346 Clouds 31 1014 59 10000 6.2 190 21:38 01.08.2019
4347 Clouds 31 1014 59 10000 6.2 190 21:20 01.08.2019
4348 Clouds 31 1015 62 10000 5.1 180 20:46 01.08.2019
4349 Clouds 31 1015 62 10000 5.1 180 20:23 01.08.2019
4350 Rain 31 1014 83 7000 3.1 150 19:45 01.08.2019
4351 Clouds 31 1016 62 10000 5.1 180 19:23 01.08.2019
4352 Clouds 31 1016 66 10000 3.6 180 18:59 01.08.2019
4353 Clouds 31 1016 66 10000 3.6 180 18:40 01.08.2019
4354 Clouds 31 1016 66 10000 3.6 180 18:40 01.08.2019
4355 Clouds 30 1016 66 10000 3.6 180 18:21 01.08.2019
4356 Clouds 30 1016 70 10000 3.28 130.987 17:45 01.08.2019
4357 Clouds 29 1016 70 10000 3.28 130.987 17:26 01.08.2019
4358 Clouds 28 1015 78 10000 3.28 130.987 16:44 01.08.2019
4359 Clouds 28 1015 78 10000 3.28 130.987 16:22 01.08.2019
4360 Clouds 26 1015 83 10000 3.28 130.987 15:46 01.08.2019
4361 Clouds 26 1015 83 10000 1.27 276.812 15:21 01.08.2019
4362 Clouds 25 1015 94 10000 1.27 276.812 14:55 01.08.2019
4363 Clouds 25 1015 94 10000 1.27 276.812 14:37 01.08.2019
4364 Clouds 25 1015 94 10000 1.27 276.812 14:18 01.08.2019
4365 Clouds 25 1015 94 10000 1.27 276.812 14:18 01.08.2019
4366 Clouds 24 1014 94 10000 4.1 110 13:41 01.08.2019
4367 Clouds 24 1014 94 10000 4.1 110 13:22 01.08.2019
4368 Clouds 25 1014 94 10000 2.6 140 12:58 01.08.2019
4369 Clouds 25 1014 94 10000 2.6 140 12:40 01.08.2019
4370 Clouds 25 1014 94 10000 2.6 140 12:21 01.08.2019
4371 Rain 24 1014 94 10000 3.1 120 11:41 01.08.2019
4372 Rain 24 1014 94 10000 3.1 120 11:22 01.08.2019
4373 Rain 24 1014 94 10000 3.1 120 11:22 01.08.2019
4374 Rain 24 1014 94 10000 3.1 120 11:22 01.08.2019
4375 Rain 24 1014 94 10000 2.1 140 10:45 01.08.2019
4376 Rain 24 1014 94 10000 2.1 140 10:27 01.08.2019
4377 Rain 24 1014 94 10000 2.1 50 09:56 01.08.2019
4378 Rain 24 1014 94 10000 2.1 50 09:38 01.08.2019
4379 Clouds 25 1014 94 10000 2.1 50 09:20 01.08.2019
4380 Rain 25 1014 94 10000 2.1 30 08:42 01.08.2019
4381 Rain 25 1014 94 10000 2.1 30 08:19 01.08.2019
4382 Clouds 25 1014 94 10000 2.1 50 07:46 01.08.2019
4383 Clouds 25 1014 94 10000 2.1 50 07:22 01.08.2019
4384 Clouds 25 1015 94 10000 2.1 50 06:45 01.08.2019
4385 Clouds 24 1015 94 10000 2.1 50 05:37 01.08.2019
4386 Clouds 24 1015 100 10000 3.1 20 03:53 01.08.2019
4387 Thunderstorm 24 1015 94 10000 2.1 40 02:26 01.08.2019
4388 Thunderstorm 24 1014 94 8000 1.61 64.345 00:41 01.08.2019
4389 Thunderstorm 24 1014 94 8000 3.62 116.268 00:19 01.08.2019
4390 Thunderstorm 24 1013 94 8000 3.62 116.268 23:42 31.07.2019
4391 Thunderstorm 24 1013 94 8000 3.62 116.268 23:20 31.07.2019
4392 Thunderstorm 25 1013 88 5000 5.1 30 22:47 31.07.2019
4393 Thunderstorm 25 1013 88 5000 5.1 30 22:29 31.07.2019
4394 Rain 25 1013 88 8000 5.1 360 21:45 31.07.2019
4395 Rain 26 1013 88 8000 5.1 360 21:24 31.07.2019
4396 Rain 27 1014 94 8000 4.1 90 20:56 31.07.2019
4397 Rain 27 1014 94 8000 4.1 90 20:56 31.07.2019
4398 Rain 28 1014 94 8000 4.1 90 20:38 31.07.2019
4399 Rain 28 1014 94 8000 4.1 90 20:20 31.07.2019
4400 Thunderstorm 28 1014 94 7000 5.1 360 19:41 31.07.2019
4401 Thunderstorm 28 1014 94 7000 5.1 360 19:22 31.07.2019
4402 Thunderstorm 30 1015 78 7000 6.2 180 18:41 31.07.2019
4403 Thunderstorm 30 1015 78 7000 6.2 180 18:22 31.07.2019
4404 Clouds 30 1015 70 10000 5.1 360 17:55 31.07.2019
4405 Clouds 30 1015 70 10000 5.1 360 17:37 31.07.2019
4406 Clouds 30 1015 70 10000 5.1 360 17:18 31.07.2019
4407 Clouds 30 1014 78 10000 4.1 30 16:41 31.07.2019
4408 Clouds 30 1014 78 10000 4.1 30 16:41 31.07.2019
4409 Clouds 29 1014 78 10000 4.1 30 16:19 31.07.2019
4410 Clouds 28 1015 94 10000 3.1 360 15:44 31.07.2019
4411 Clouds 28 1015 94 10000 3.1 360 15:24 31.07.2019
4412 Clouds 26 1014 94 10000 1.03 334.822 14:42 31.07.2019
4413 Clouds 26 1014 94 10000 1.03 334.822 14:21 31.07.2019
4414 Clouds 26 1014 88 10000 2.1 30 13:56 31.07.2019
4415 Clouds 26 1014 88 10000 2.1 30 13:37 31.07.2019
4416 Clouds 26 1014 88 10000 2.1 30 13:19 31.07.2019
4417 Clouds 25 1014 94 10000 2.1 40 12:43 31.07.2019
4418 Thunderstorm 25 1014 94 10000 1.21 334.872 12:25 31.07.2019
4419 Thunderstorm 25 1014 94 10000 1.21 334.872 11:41 31.07.2019
4420 Thunderstorm 25 1014 94 10000 1.21 334.872 11:23 31.07.2019
4421 Thunderstorm 25 1013 94 10000 2.1 70 10:57 31.07.2019
4422 Thunderstorm 25 1013 94 10000 2.1 70 10:39 31.07.2019
4423 Thunderstorm 25 1013 94 10000 2.1 70 10:20 31.07.2019
4424 Thunderstorm 25 1013 94 10000 2.1 60 09:43 31.07.2019
4425 Thunderstorm 25 1013 94 10000 2.1 60 09:24 31.07.2019
4426 Thunderstorm 25 1014 94 10000 2.1 60 08:44 31.07.2019
4427 Thunderstorm 25 1014 94 10000 2.1 60 08:25 31.07.2019
4428 Thunderstorm 25 1014 94 10000 2.1 70 07:53 31.07.2019
4429 Thunderstorm 25 1014 94 10000 2.1 70 07:33 31.07.2019
4430 Rain 27 1016 86 0 0.89 70 05:24 31.07.2019
4431 Thunderstorm 26 1014 88 10000 2.1 60 04:21 31.07.2019
4432 Clouds 28 1013 83 10000 2.6 160 00:41 31.07.2019
4433 Clouds 28 1012 83 10000 3.56 121.005 23:51 30.07.2019
4434 Clouds 28 1012 83 10000 3.56 121.005 23:30 30.07.2019
4435 Rain 30 1012 79 10000 3.1 160 22:59 30.07.2019
4436 Rain 30 1012 79 10000 3.1 160 22:40 30.07.2019
4437 Rain 30 1012 79 10000 3.1 160 22:21 30.07.2019
4438 Clouds 30 1013 83 10000 3.56 121.005 21:38 30.07.2019
4439 Clouds 30 1013 83 10000 3.51 135.173 21:19 30.07.2019
4440 Thunderstorm 30 1013 83 10000 3.83 133.583 20:56 30.07.2019
4441 Thunderstorm 30 1013 83 10000 3.83 133.583 20:38 30.07.2019
4442 Thunderstorm 30 1013 83 10000 3.83 133.583 20:18 30.07.2019
4443 Thunderstorm 30 1013 83 10000 3.83 133.583 20:18 30.07.2019
4444 Rain 30 1013 79 8000 3.83 133.583 19:44 30.07.2019
4445 Rain 30 1013 79 8000 3.83 133.583 19:26 30.07.2019
4446 Clouds 31 1014 66 10000 6.2 120 18:48 30.07.2019
4447 Clouds 30 1014 66 10000 6.2 120 18:23 30.07.2019
4448 Clouds 31 1014 66 10000 2.98 49.261 17:58 30.07.2019
4449 Clouds 30 1014 66 10000 2.98 49.261 17:39 30.07.2019
4450 Clouds 30 1014 66 10000 2.98 49.261 17:18 30.07.2019
4451 Rain 30 1013 74 8000 4.1 70 16:42 30.07.2019
4452 Rain 29 1013 74 8000 4.1 70 16:19 30.07.2019
4453 Clouds 28 1014 83 10000 2.98 49.261 15:39 30.07.2019
4454 Clouds 28 1014 83 10000 3.58 342.518 15:19 30.07.2019
4455 Clouds 28 1014 83 10000 3.58 342.518 15:19 30.07.2019
4456 Clouds 26 1014 94 10000 2.1 360 14:43 30.07.2019
4457 Clouds 26 1014 94 10000 2.1 360 14:22 30.07.2019
4458 Clouds 25 1013 94 10000 2.1 350 13:55 30.07.2019
4459 Clouds 25 1013 94 10000 2.1 350 13:36 30.07.2019
4460 Clouds 25 1013 94 10000 2.1 350 13:18 30.07.2019
4461 Clouds 24 1012 100 10000 2.1 360 12:43 30.07.2019
4462 Clouds 24 1012 100 10000 2.1 360 12:24 30.07.2019
4463 Clouds 24 1012 100 10000 1.5 360 11:44 30.07.2019
4464 Clouds 24 1012 100 10000 1.5 360 11:23 30.07.2019
4465 Thunderstorm 24 1012 94 10000 3.1 20 10:55 30.07.2019
4466 Thunderstorm 25 1012 94 10000 3.1 20 10:37 30.07.2019
4467 Thunderstorm 25 1012 94 10000 3.1 20 10:37 30.07.2019
4468 Thunderstorm 25 1012 94 10000 3.1 20 10:19 30.07.2019
4469 Thunderstorm 24 1012 94 10000 3.1 20 09:46 30.07.2019
4470 Thunderstorm 25 1012 94 10000 3.1 20 09:27 30.07.2019
4471 Thunderstorm 25 1013 100 10000 2.1 10 08:35 30.07.2019
4472 Thunderstorm 25 1014 94 10000 3.1 30 07:53 30.07.2019
4473 Thunderstorm 25 1014 94 10000 3.1 30 07:34 30.07.2019
4474 Thunderstorm 25 1014 94 10000 2.1 20 06:52 30.07.2019
4475 Thunderstorm 25 1014 94 10000 2.1 20 06:33 30.07.2019
4476 Thunderstorm 25 1013 88 10000 2.1 20 05:35 30.07.2019
4477 Thunderstorm 26 1013 88 10000 2.6 40 03:32 30.07.2019
4478 Rain 27 1012 78 10000 3.1 40 01:22 30.07.2019
4479 Rain 30 1011 74 10000 4.1 20 00:27 30.07.2019
4480 Clouds 31 1011 79 10000 3.1 80 23:57 29.07.2019
4481 Clouds 31 1011 79 10000 3.1 80 23:38 29.07.2019
4482 Clouds 30 1011 79 10000 3.1 80 23:20 29.07.2019
4483 Clouds 31 1012 59 10000 5.1 70 22:54 29.07.2019
4484 Clouds 31 1012 59 10000 5.1 70 22:36 29.07.2019
4485 Clouds 31 1012 59 10000 5.1 70 22:18 29.07.2019
4486 Clouds 30 1012 55 10000 5.7 130 21:41 29.07.2019
4487 Clouds 30 1012 55 10000 5.7 130 21:23 29.07.2019
4488 Clouds 30 1013 88 10000 2.1 360 20:55 29.07.2019
4489 Clouds 32 1013 52 10000 5.1 20 20:37 29.07.2019
4490 Clouds 31 1013 52 10000 5.1 20 20:19 29.07.2019
4491 Clouds 32 1013 55 10000 5.1 360 19:42 29.07.2019
4492 Clouds 33 1013 55 10000 5.1 360 19:21 29.07.2019
4493 Clouds 32 1014 62 10000 5.1 40 18:43 29.07.2019
4494 Clouds 32 1014 62 10000 5.1 40 18:24 29.07.2019
4495 Clouds 31 1015 66 10000 6.2 360 17:57 29.07.2019
4496 Clouds 31 1015 66 10000 6.2 360 17:39 29.07.2019
4497 Clouds 31 1015 66 10000 6.2 360 17:20 29.07.2019
4498 Clouds 30 1014 70 10000 5.1 360 16:43 29.07.2019
4499 Clouds 29 1014 70 10000 5.1 360 16:23 29.07.2019
4500 Clouds 28 1014 78 10000 5.1 360 15:53 29.07.2019
4501 Clouds 28 1014 78 10000 5.1 360 15:35 29.07.2019
4502 Clear 27 1014 83 0 2.68 27 14:57 29.07.2019
4503 Clear 27 1014 83 0 2.68 27 14:38 29.07.2019
4504 Clouds 24 1013 100 10000 3.1 360 14:20 29.07.2019
4505 Clouds 24 1013 100 10000 3.1 360 14:20 29.07.2019
4506 Clouds 24 1013 100 10000 3.1 360 13:43 29.07.2019
4507 Clouds 24 1013 100 10000 3.1 360 13:23 29.07.2019
4508 Clouds 23 1013 100 10000 2.1 20 12:43 29.07.2019
4509 Clouds 23 1013 100 10000 2.1 20 12:24 29.07.2019
4510 Clouds 24 1013 94 10000 2.1 360 11:45 29.07.2019
4511 Clouds 24 1013 94 10000 2.1 360 11:23 29.07.2019
4512 Clouds 24 1013 94 10000 2.1 20 10:57 29.07.2019
4513 Clouds 24 1013 94 10000 2.1 20 10:57 29.07.2019
4514 Clouds 24 1013 94 10000 2.1 20 10:38 29.07.2019
4515 Clouds 24 1013 94 10000 2.1 20 10:19 29.07.2019
4516 Clouds 24 1014 94 10000 2.1 20 09:38 29.07.2019
4517 Clouds 24 1014 94 10000 2.1 20 09:19 29.07.2019
4518 Clouds 24 1014 94 10000 2.1 20 08:36 29.07.2019
4519 Clouds 24 1014 94 10000 2.1 20 08:18 29.07.2019
4520 Clouds 25 1015 94 10000 2.1 20 07:41 29.07.2019
4521 Clouds 25 1015 94 10000 2.1 20 07:20 29.07.2019
4522 Clouds 25 1016 94 10000 2.1 30 05:47 29.07.2019
4523 Clouds 25 1015 94 10000 2.1 40 04:53 29.07.2019
4524 Clouds 28 1014 94 10000 2.1 360 02:26 29.07.2019
4525 Clouds 28 1015 74 10000 2.6 360 01:43 29.07.2019
4526 Clouds 28 1015 74 10000 2.6 360 01:22 29.07.2019
4527 Clouds 29 1014 66 10000 2.6 360 00:43 29.07.2019
4528 Clouds 29 1014 66 10000 2.6 360 00:20 29.07.2019
4529 Rain 29 1014 62 10000 5.1 120 23:41 28.07.2019
4530 Rain 29 1014 62 10000 5.1 120 23:18 28.07.2019
4531 Clouds 28 1014 79 10000 3.1 120 22:39 28.07.2019
4532 Clouds 28 1014 79 10000 3.1 120 22:21 28.07.2019
4533 Clouds 31 1015 56 10000 4.1 10 21:46 28.07.2019
4534 Clouds 30 1015 56 10000 4.1 10 21:19 28.07.2019
4535 Clouds 31 1015 56 10000 4.1 300 20:47 28.07.2019
4536 Clouds 31 1015 56 10000 4.1 300 20:29 28.07.2019
4537 Clouds 30 1015 83 8000 2.1 120 19:42 28.07.2019
4538 Clouds 31 1016 55 10000 5.1 360 19:22 28.07.2019
4539 Clouds 31 1017 55 10000 5.1 360 18:58 28.07.2019
4540 Clouds 31 1017 55 10000 5.1 360 18:38 28.07.2019
4541 Clouds 31 1017 55 10000 5.1 360 18:38 28.07.2019
4542 Clouds 31 1017 55 10000 5.1 360 18:18 28.07.2019
4543 Clouds 30 1018 66 10000 5.1 10 17:41 28.07.2019
4544 Clouds 30 1018 66 10000 5.1 10 17:22 28.07.2019
4545 Clouds 29 1018 70 10000 7.7 30 16:57 28.07.2019
4546 Clouds 29 1018 70 10000 7.7 30 16:38 28.07.2019
4547 Clouds 29 1018 70 10000 7.7 30 16:19 28.07.2019
4548 Clouds 29 1018 70 10000 3.1 360 15:42 28.07.2019
4549 Clouds 28 1018 70 10000 3.1 360 15:21 28.07.2019
4550 Clouds 28 1018 78 10000 4.1 10 14:37 28.07.2019
4551 Clouds 28 1018 78 10000 4.1 10 14:37 28.07.2019
4552 Clouds 28 1018 78 10000 4.1 10 14:19 28.07.2019
4553 Clouds 26 1016 94 10000 2.1 10 13:42 28.07.2019
4554 Clouds 26 1016 94 10000 2.1 10 13:22 28.07.2019
4555 Clouds 26 1016 94 10000 2.1 10 12:59 28.07.2019
4556 Clouds 26 1016 94 10000 2.1 10 12:39 28.07.2019
4557 Clouds 25 1016 94 10000 2.1 10 12:20 28.07.2019
4558 Clouds 25 1016 94 10000 2.1 360 11:44 28.07.2019
4559 Clouds 25 1016 94 10000 2.1 360 11:26 28.07.2019
4560 Clouds 25 1015 94 10000 2.1 360 10:40 28.07.2019
4561 Clouds 25 1015 94 10000 2.1 360 10:20 28.07.2019
4562 Clouds 26 1016 94 10000 2.1 20 09:41 28.07.2019
4563 Clouds 25 1016 94 10000 2.1 20 09:23 28.07.2019
4564 Clouds 26 1017 94 10000 2.1 20 08:51 28.07.2019
4565 Clouds 26 1017 94 10000 2.1 20 08:28 28.07.2019
4566 Clouds 26 1018 88 10000 2.6 20 07:51 28.07.2019
4567 Clouds 26 1018 88 10000 2.6 20 07:32 28.07.2019
4568 Clouds 26 1018 88 10000 2.1 30 06:39 28.07.2019
4569 Clouds 26 1018 88 10000 2.1 40 05:25 28.07.2019
4570 Clouds 28 1018 78 10000 2.1 50 03:23 28.07.2019
4571 Clouds 29 1017 78 10000 2.1 40 02:19 28.07.2019
4572 Clouds 29 1016 74 10000 3.79 51.638 01:18 28.07.2019
4573 Clouds 29 1016 66 10000 3.1 130 00:44 28.07.2019
4574 Rain 31 1016 62 8000 5.1 180 23:56 27.07.2019
4575 Rain 31 1016 62 8000 5.1 180 23:38 27.07.2019
4576 Rain 31 1016 62 8000 5.1 180 23:18 27.07.2019
4577 Clouds 32 1016 52 10000 5.1 180 22:40 27.07.2019
4578 Clouds 32 1016 52 10000 5.1 180 22:18 27.07.2019
4579 Clouds 32 1017 52 10000 3.1 90 21:39 27.07.2019
4580 Clouds 32 1017 52 10000 3.1 90 21:20 27.07.2019
4581 Clouds 33 1017 56 10000 3.1 60 20:50 27.07.2019
4582 Clouds 34 1017 56 10000 3.1 60 20:23 27.07.2019
4583 Clouds 33 1018 62 10000 1.5 0 19:46 27.07.2019
4584 Clouds 33 1018 62 10000 1.5 0 19:26 27.07.2019
4585 Clouds 31 1019 66 10000 5.1 100 18:51 27.07.2019
4586 Clouds 31 1019 66 10000 5.1 100 18:32 27.07.2019
4587 Clouds 31 1020 70 10000 5.1 100 17:52 27.07.2019
4588 Clouds 31 1020 70 10000 5.1 100 17:33 27.07.2019
4589 Clouds 30 1019 74 10000 3.1 90 16:59 27.07.2019
4590 Clouds 30 1019 74 10000 3.1 90 16:39 27.07.2019
4591 Clouds 30 1019 74 10000 3.1 90 16:20 27.07.2019
4592 Clouds 29 1019 78 10000 2.57 59.484 15:46 27.07.2019
4593 Clouds 29 1019 78 10000 2.51 16.106 15:20 27.07.2019
4594 Clouds 28 1019 83 10000 2.51 16.106 14:49 27.07.2019
4595 Clouds 28 1019 83 10000 2.51 16.106 14:31 27.07.2019
4596 Clouds 27 1019 88 10000 2.6 30 13:52 27.07.2019
4597 Clouds 27 1019 88 10000 2.6 30 13:25 27.07.2019
4598 Clouds 27 1018 94 10000 2.1 40 12:57 27.07.2019
4599 Clouds 27 1018 94 10000 2.1 40 12:37 27.07.2019
4600 Clouds 26 1018 94 10000 2.1 40 12:19 27.07.2019
4601 Clouds 26 1018 94 10000 2.1 20 11:41 27.07.2019
4602 Clouds 26 1018 94 10000 2.1 20 11:23 27.07.2019
4603 Clouds 27 1018 88 10000 1.5 30 10:41 27.07.2019
4604 Clouds 27 1018 88 10000 1.5 30 10:23 27.07.2019
4605 Clouds 27 1018 88 10000 1.5 20 09:42 27.07.2019
4606 Clouds 27 1018 88 10000 1.5 20 09:23 27.07.2019
4607 Clouds 27 1018 88 10000 2.1 30 08:50 27.07.2019
4608 Clouds 27 1018 88 10000 2.1 30 08:32 27.07.2019
4609 Clouds 27 1019 83 10000 2.1 60 07:57 27.07.2019
4610 Clouds 27 1019 83 10000 2.1 60 07:34 27.07.2019
4611 Clouds 27 1019 83 10000 2.1 50 06:58 27.07.2019
4612 Clouds 27 1019 83 10000 2.1 50 06:37 27.07.2019
4613 Clouds 28 1019 83 10000 2.1 50 06:18 27.07.2019
4614 Clouds 28 1019 83 10000 2.1 50 05:32 27.07.2019
4615 Clouds 28 1019 83 10000 2.1 60 04:35 27.07.2019
4616 Clouds 28 1018 78 10000 2.1 60 03:37 27.07.2019
4617 Clouds 29 1017 78 10000 3.1 100 02:42 27.07.2019
4618 Clouds 29 1016 74 10000 5.1 180 01:54 27.07.2019
4619 Clouds 29 1016 74 10000 5.1 180 01:31 27.07.2019
4620 Clouds 31 1016 62 10000 4.1 160 00:33 27.07.2019
4621 Clouds 31 1015 59 10000 4.1 160 23:58 26.07.2019
4622 Clouds 31 1015 59 10000 4.1 160 23:40 26.07.2019
4623 Clouds 31 1015 59 10000 4.1 160 23:22 26.07.2019
4624 Clouds 32 1016 52 10000 6.2 160 22:42 26.07.2019
4625 Clouds 32 1016 52 10000 6.2 160 22:24 26.07.2019
4626 Clouds 32 1016 52 10000 5.1 120 21:49 26.07.2019
4627 Clouds 32 1016 52 10000 5.1 120 21:20 26.07.2019
4628 Clouds 32 1017 55 10000 4.1 90 20:48 26.07.2019
4629 Clouds 32 1017 55 10000 4.1 90 20:30 26.07.2019
4630 Clouds 32 1017 62 10000 5.1 90 19:45 26.07.2019
4631 Clouds 32 1017 62 10000 5.1 90 19:26 26.07.2019
4632 Clouds 32 1018 62 10000 3.1 90 18:59 26.07.2019
4633 Clouds 31 1018 62 10000 3.1 90 18:40 26.07.2019
4634 Clouds 31 1018 62 10000 3.1 90 18:20 26.07.2019
4635 Clouds 31 1018 70 10000 4.1 30 17:48 26.07.2019
4636 Clouds 31 1018 70 10000 4.1 30 17:20 26.07.2019
4637 Clouds 30 1018 74 10000 2.39 71.603 16:58 26.07.2019
4638 Clouds 30 1018 74 10000 2.39 71.603 16:40 26.07.2019
4639 Clouds 30 1018 74 10000 2.39 71.603 16:20 26.07.2019
4640 Clouds 28 1017 83 10000 2.39 71.603 15:57 26.07.2019
4641 Clouds 28 1017 83 10000 2.39 71.603 15:38 26.07.2019
4642 Clouds 28 1017 83 10000 2.58 347.804 15:19 26.07.2019
4643 Clouds 27 1017 88 10000 2.58 347.804 14:43 26.07.2019
4644 Clouds 27 1017 88 10000 2.58 347.804 14:23 26.07.2019
4645 Clouds 27 1017 88 10000 3.1 10 13:46 26.07.2019
4646 Clouds 27 1017 88 10000 3.1 10 13:27 26.07.2019
4647 Clouds 26 1016 94 10000 2.49 349.178 12:49 26.07.2019
4648 Clouds 24 1016 94 10000 2.44 336.202 12:23 26.07.2019
4649 Clouds 24 1016 94 10000 2.1 30 11:48 26.07.2019
4650 Clouds 24 1016 94 10000 2.1 30 11:23 26.07.2019
4651 Clouds 24 1017 94 10000 2.1 20 10:59 26.07.2019
4652 Clouds 24 1017 94 10000 2.1 20 10:39 26.07.2019
4653 Clouds 24 1017 94 10000 2.1 20 10:19 26.07.2019
4654 Clouds 24 1017 94 10000 2.1 360 09:47 26.07.2019
4655 Clouds 24 1017 94 10000 2.1 360 09:26 26.07.2019
4656 Clouds 24 1017 94 10000 2.1 20 08:41 26.07.2019
4657 Clouds 24 1017 94 10000 2.1 20 08:21 26.07.2019
4658 Clouds 25 1017 88 10000 2.1 40 07:39 26.07.2019
4659 Clouds 25 1017 88 10000 2.1 40 07:21 26.07.2019
4660 Thunderstorm 25 1017 88 10000 2.1 40 06:21 26.07.2019
4661 Thunderstorm 27 1017 83 10000 2.1 60 04:30 26.07.2019
4662 Clouds 27 1016 83 10000 3.1 50 03:51 26.07.2019
4663 Rain 28 1016 88 10000 4.05 13.559 01:46 26.07.2019
4664 Rain 28 1016 88 10000 3.87 15.958 01:18 26.07.2019
4665 Rain 28 1015 83 8000 3.87 15.958 00:28 26.07.2019
4666 Thunderstorm 29 1015 78 6000 3.98 44.756 23:44 25.07.2019
4667 Thunderstorm 29 1015 78 6000 3.98 44.756 23:20 25.07.2019
4668 Clouds 30 1015 66 10000 2.6 180 22:41 25.07.2019
4669 Clouds 31 1015 66 10000 2.6 180 22:21 25.07.2019
4670 Clouds 31 1016 59 10000 5.1 360 21:48 25.07.2019
4671 Clouds 31 1016 59 10000 5.1 360 21:23 25.07.2019
4672 Clouds 31 1016 52 10000 4.1 360 20:57 25.07.2019
4673 Clouds 31 1016 52 10000 4.1 360 20:38 25.07.2019
4674 Clouds 31 1016 52 10000 4.1 360 20:18 25.07.2019
4675 Clouds 30 1017 59 10000 4.1 40 19:40 25.07.2019
4676 Clouds 31 1017 59 10000 4.1 40 19:21 25.07.2019
4677 Clouds 31 1018 62 10000 3.1 90 18:42 25.07.2019
4678 Clouds 31 1018 62 10000 3.1 90 18:23 25.07.2019
4679 Clouds 30 1019 66 10000 3.1 60 17:50 25.07.2019
4680 Clouds 30 1019 66 10000 3.1 60 17:31 25.07.2019
4681 Clouds 30 1018 74 10000 2.6 100 16:57 25.07.2019
4682 Clouds 30 1018 74 10000 2.6 100 16:38 25.07.2019
4683 Clouds 29 1018 74 10000 2.6 100 16:19 25.07.2019
4684 Clouds 28 1018 83 10000 3.55 37.709 15:43 25.07.2019
4685 Clouds 28 1018 83 10000 2.83 9.083 15:19 25.07.2019
4686 Clouds 26 1018 94 10000 2.83 9.083 14:42 25.07.2019
4687 Clouds 26 1018 94 10000 2.83 9.083 14:23 25.07.2019
4688 Clouds 25 1017 88 10000 3.1 30 13:44 25.07.2019
4689 Clouds 25 1017 88 10000 3.1 30 13:26 25.07.2019
4690 Clouds 25 1016 88 10000 2.6 40 12:57 25.07.2019
4691 Clouds 25 1016 88 10000 2.6 40 12:28 25.07.2019
4692 Clouds 25 1016 88 10000 2.1 20 11:46 25.07.2019
4693 Clouds 25 1016 88 10000 2.1 20 11:25 25.07.2019
4694 Clouds 25 1016 88 10000 2.6 30 10:55 25.07.2019
4695 Clouds 25 1016 88 10000 2.6 30 10:36 25.07.2019
4696 Clouds 25 1016 88 10000 2.6 30 10:18 25.07.2019
4697 Clouds 26 1016 83 10000 1.5 20 09:40 25.07.2019
4698 Clouds 26 1016 83 10000 1.5 20 09:18 25.07.2019
4699 Clouds 26 1016 88 10000 2.6 10 08:42 25.07.2019
4700 Clouds 26 1017 83 10000 2.6 30 07:56 25.07.2019
4701 Clouds 26 1017 83 10000 2.6 30 07:34 25.07.2019
4702 Clouds 26 1017 83 10000 2.6 40 06:43 25.07.2019
4703 Clouds 27 1017 78 10000 2.6 60 05:37 25.07.2019
4704 Clouds 27 1017 78 10000 2.6 60 05:18 25.07.2019
4705 Clouds 28 1017 74 10000 2.6 40 04:31 25.07.2019
4706 Clouds 30 1016 66 10000 2.1 130 01:31 25.07.2019
4707 Clouds 30 1015 62 10000 2.6 140 00:45 25.07.2019
4708 Clouds 30 1015 62 10000 2.6 140 00:19 25.07.2019
4709 Clouds 30 1016 59 10000 5.1 180 23:45 24.07.2019
4710 Clouds 31 1016 59 10000 5.1 180 23:27 24.07.2019
4711 Clouds 32 1016 62 10000 5.1 180 22:48 24.07.2019
4712 Clouds 32 1016 62 10000 5.1 180 22:27 24.07.2019
4713 Clouds 32 1016 59 10000 2.1 130 21:59 24.07.2019
4714 Clouds 32 1016 59 10000 2.1 130 21:41 24.07.2019
4715 Clouds 31 1016 59 10000 2.1 130 21:21 24.07.2019
4716 Clouds 32 1017 56 10000 3.1 140 20:48 24.07.2019
4717 Clouds 32 1017 56 10000 3.1 140 20:30 24.07.2019
4718 Clouds 31 1017 59 10000 3.1 130 19:59 24.07.2019
4719 Clouds 31 1017 59 10000 3.1 130 19:41 24.07.2019
4720 Clouds 31 1017 59 10000 3.1 130 19:21 24.07.2019
4721 Clouds 31 1019 59 10000 4.1 20 18:45 24.07.2019
4722 Clouds 31 1019 59 10000 4.1 20 18:25 24.07.2019
4723 Clouds 31 1019 62 10000 2.1 90 17:55 24.07.2019
4724 Clouds 31 1019 62 10000 2.1 90 17:37 24.07.2019
4725 Clouds 31 1019 62 10000 2.1 90 17:18 24.07.2019
4726 Clouds 30 1018 66 10000 7.7 130 16:39 24.07.2019
4727 Clouds 30 1018 66 10000 7.7 130 16:21 24.07.2019
4728 Clouds 29 1018 78 10000 2.1 40 15:38 24.07.2019
4729 Clouds 29 1018 78 10000 2.1 40 15:20 24.07.2019
4730 Clouds 27 1018 94 10000 1.48 1.747 14:47 24.07.2019
4731 Clouds 26 1018 94 10000 1.48 1.747 14:22 24.07.2019
4732 Clouds 26 1017 94 10000 2.1 30 13:42 24.07.2019
4733 Clouds 26 1017 94 10000 2.1 30 13:24 24.07.2019
4734 Clouds 26 1017 88 10000 2.1 40 12:55 24.07.2019
4735 Clouds 26 1017 88 10000 2.1 40 12:37 24.07.2019
4736 Clouds 25 1017 88 10000 2.1 40 12:18 24.07.2019
4737 Clouds 25 1016 94 10000 2.1 40 11:37 24.07.2019
4738 Clouds 25 1016 94 10000 2.1 40 11:19 24.07.2019
4739 Clouds 25 1016 88 10000 2.1 10 10:42 24.07.2019
4740 Clouds 25 1016 88 10000 2.1 10 10:24 24.07.2019
4741 Clouds 26 1016 88 10000 2.1 20 09:44 24.07.2019
4742 Clouds 26 1016 88 10000 2.1 20 09:23 24.07.2019
4743 Clouds 26 1017 88 10000 2.1 40 08:53 24.07.2019
4744 Clouds 26 1017 88 10000 2.1 40 08:27 24.07.2019
4745 Clouds 26 1017 88 10000 2.1 20 07:47 24.07.2019
4746 Clouds 26 1017 88 10000 2.1 20 07:23 24.07.2019
4747 Clouds 26 1018 94 10000 2.1 40 06:28 24.07.2019
4748 Clouds 27 1018 88 10000 0.5 10 05:26 24.07.2019
4749 Clouds 29 1015 74 10000 0.99 123.658 01:57 24.07.2019
4750 Clouds 29 1015 74 10000 0.92 117.704 01:28 24.07.2019
4751 Clouds 29 1014 70 10000 3.1 150 00:52 24.07.2019
4752 Clouds 30 1014 70 10000 3.1 150 00:21 24.07.2019
4753 Clouds 30 1014 70 10000 5.1 180 23:38 23.07.2019
4754 Clouds 30 1014 70 10000 5.1 180 23:19 23.07.2019
4755 Clouds 31 1015 66 10000 5.1 180 22:39 23.07.2019
4756 Clouds 32 1015 66 10000 5.1 180 22:19 23.07.2019
4757 Clouds 31 1015 66 10000 5.1 180 21:54 23.07.2019
4758 Clouds 31 1015 66 10000 5.1 180 21:36 23.07.2019
4759 Clouds 31 1015 66 10000 5.1 180 21:36 23.07.2019
4760 Clouds 31 1015 66 10000 5.1 180 21:18 23.07.2019
4761 Clouds 32 1015 70 10000 5.1 130 20:41 23.07.2019
4762 Clouds 31 1015 70 10000 5.1 130 20:21 23.07.2019
4763 Clouds 31 1016 74 10000 5.1 130 19:40 23.07.2019
4764 Clouds 30 1016 74 10000 5.1 130 19:19 23.07.2019
4765 Clouds 30 1016 79 10000 3.1 60 18:43 23.07.2019
4766 Clouds 30 1016 79 10000 3.1 60 18:22 23.07.2019
4767 Rain 29 1017 83 6000 2.17 120.125 17:44 23.07.2019
4768 Rain 29 1017 83 6000 2.17 120.125 17:24 23.07.2019
4769 Clouds 29 1017 74 10000 5.1 90 16:50 23.07.2019
4770 Clouds 29 1017 74 10000 5.1 90 16:28 23.07.2019
4771 Rain 28 1017 83 8000 2.1 70 15:58 23.07.2019
4772 Rain 28 1017 83 8000 2.1 70 15:39 23.07.2019
4773 Clouds 28 1016 83 10000 1.93 338.743 15:21 23.07.2019
4774 Clouds 26 1017 88 10000 2.1 20 14:37 23.07.2019
4775 Clouds 26 1017 88 10000 2.1 20 14:19 23.07.2019
4776 Clouds 24 1016 88 10000 2.1 30 13:56 23.07.2019
4777 Clouds 26 1016 88 10000 2.1 30 13:38 23.07.2019
4778 Clouds 26 1016 88 10000 2.1 30 13:19 23.07.2019
4779 Clouds 25 1016 94 10000 2.1 40 12:44 23.07.2019
4780 Clouds 23 1016 94 10000 2.1 40 12:25 23.07.2019
4781 Clouds 23 1015 94 10000 2.1 40 11:45 23.07.2019
4782 Clouds 23 1015 94 10000 2.1 40 11:26 23.07.2019
4783 Clouds 23 1016 94 10000 2.1 20 10:52 23.07.2019
4784 -273 0 0 0 0 0 10:26 23.07.2019
4785 Clouds 23 1016 94 10000 2.1 20 09:44 23.07.2019
4786 Clouds 23 1016 94 10000 2.1 20 09:24 23.07.2019
4787 Clouds 24 1016 94 10000 2.1 20 08:57 23.07.2019
4788 Clouds 24 1016 94 10000 2.1 20 08:38 23.07.2019
4789 Clouds 24 1016 94 10000 2.1 20 08:19 23.07.2019
4790 Clouds 25 1016 88 10000 2.1 20 07:50 23.07.2019
4791 Clouds 25 1016 88 10000 2.1 20 07:32 23.07.2019
4792 Clouds 25 1017 88 10000 2.1 30 06:38 23.07.2019
4793 Clouds 25 1017 88 10000 2.1 30 05:34 23.07.2019
4794 Clouds 27 1015 83 10000 1.33 74.298 01:57 23.07.2019
4795 Clouds 27 1015 83 10000 1.57 92.156 01:20 23.07.2019
4796 Clouds 28 1015 83 10000 3.1 10 00:28 23.07.2019
4797 Clouds 29 1015 74 8000 2.6 30 23:41 22.07.2019
4798 Clouds 29 1015 74 8000 2.6 30 23:21 22.07.2019
4799 Clouds 29 1015 74 10000 5.1 330 22:48 22.07.2019
4800 Clouds 29 1015 74 10000 5.1 330 22:30 22.07.2019
4801 Clouds 29 1015 83 10000 3.15 131.16 21:59 22.07.2019
4802 Clouds 29 1015 83 10000 3.15 131.16 21:41 22.07.2019
4803 Clouds 29 1015 83 10000 2.95 129.736 21:20 22.07.2019
4804 Clouds 31 1015 59 10000 4.1 150 20:47 22.07.2019
4805 Clouds 31 1015 59 10000 4.1 150 20:29 22.07.2019
4806 Rain 30 1016 74 10000 2.6 300 19:45 22.07.2019
4807 Rain 31 1016 74 10000 2.6 300 19:27 22.07.2019
4808 Rain 31 1016 66 8000 3.6 180 18:58 22.07.2019
4809 Rain 31 1016 66 8000 3.6 180 18:39 22.07.2019
4810 Rain 32 1016 66 8000 3.6 180 18:21 22.07.2019
4811 Clouds 31 1017 62 10000 3.1 90 17:41 22.07.2019
4812 Clouds 31 1017 62 10000 3.1 90 17:23 22.07.2019
4813 Clouds 30 1016 70 10000 5.1 90 16:41 22.07.2019
4814 Clouds 30 1016 70 10000 5.1 90 16:21 22.07.2019
4815 Clouds 29 1016 78 10000 3.1 80 15:58 22.07.2019
4816 Clouds 29 1016 78 10000 3.1 80 15:37 22.07.2019
4817 Clouds 28 1016 78 10000 3.1 80 15:18 22.07.2019
4818 Clouds 27 1016 88 10000 2.1 20 14:43 22.07.2019
4819 Clouds 27 1016 88 10000 2.1 20 14:20 22.07.2019
4820 Clouds 25 1015 94 10000 2.1 20 13:46 22.07.2019
4821 Clouds 24 1015 94 10000 2.1 20 13:28 22.07.2019
4822 Clouds 25 1015 94 10000 2.6 10 12:45 22.07.2019
4823 Clouds 24 1015 94 10000 2.6 10 12:25 22.07.2019
4824 Clouds 24 1014 94 10000 2.1 20 11:45 22.07.2019
4825 Clouds 24 1014 94 10000 2.1 20 11:24 22.07.2019
4826 Clouds 24 1014 100 10000 2.1 10 10:48 22.07.2019
4827 Clouds 24 1014 100 10000 2.1 10 10:29 22.07.2019
4828 Clouds 24 1014 94 10000 2.1 20 09:44 22.07.2019
4829 Clouds 25 1014 94 10000 2.1 20 09:25 22.07.2019
4830 Clouds 25 1015 94 10000 2.1 20 08:45 22.07.2019
4831 Clouds 25 1015 94 10000 2.1 20 08:25 22.07.2019
4832 Clouds 25 1015 94 10000 2.1 40 07:58 22.07.2019
4833 Clouds 25 1015 94 10000 2.1 40 07:40 22.07.2019
4834 Clouds 25 1015 94 10000 2.1 40 07:21 22.07.2019
4835 Clouds 26 1015 88 10000 2.6 40 03:57 22.07.2019
4836 Clouds 27 1014 83 10000 2.1 30 02:42 22.07.2019
4837 Clouds 29 1014 70 10000 5.1 360 00:57 22.07.2019
4838 Clouds 28 1014 70 10000 5.1 360 00:26 22.07.2019
4839 Clouds 30 1013 66 10000 4.1 120 23:55 21.07.2019
4840 Clouds 30 1013 66 10000 4.1 120 23:31 21.07.2019
4841 Clouds 32 1014 62 10000 3.1 120 22:42 21.07.2019
4842 Clouds 32 1014 62 10000 3.1 120 22:23 21.07.2019
4843 Clouds 32 1014 62 10000 5.1 160 21:58 21.07.2019
4844 Clouds 32 1014 62 10000 5.1 160 21:38 21.07.2019
4845 Clouds 32 1014 62 10000 5.1 160 21:20 21.07.2019
4846 Clouds 31 1014 66 10000 3.1 90 20:54 21.07.2019
4847 Clouds 31 1014 66 10000 3.1 90 20:36 21.07.2019
4848 Clouds 31 1014 66 10000 3.1 90 20:18 21.07.2019
4849 Rain 31 1015 74 8000 2.1 90 19:41 21.07.2019
4850 Rain 31 1015 74 8000 2.1 90 19:21 21.07.2019
4851 Clouds 31 1016 66 10000 4.1 30 18:46 21.07.2019
4852 Clouds 31 1016 66 10000 4.1 30 18:26 21.07.2019
4853 Clouds 31 1016 62 10000 4.1 90 17:42 21.07.2019
4854 Clouds 31 1016 62 10000 4.1 90 17:20 21.07.2019
4855 Clouds 31 1016 62 10000 4.1 90 17:20 21.07.2019
4856 Clouds 30 1016 74 10000 2.12 80.746 16:47 21.07.2019
4857 Clouds 29 1016 74 10000 2.12 80.746 16:25 21.07.2019
4858 Clear 29 1016 76 0 0.45 49 15:57 21.07.2019
4859 Clear 28 1016 78 0 1.34 78 15:37 21.07.2019
4860 Clouds 28 1016 80 0 1.85 347.881 15:18 21.07.2019
4861 Clouds 27 1016 85 0 0.45 34 14:41 21.07.2019
4862 Clouds 27 1016 85 0 0.45 32 14:22 21.07.2019
4863 Clouds 26 1016 88 0 1.85 347.881 13:49 21.07.2019
4864 Clouds 25 1016 89 0 0.45 38 13:29 21.07.2019
4865 Clouds 24 1015 91 0 0.45 42 12:43 21.07.2019
4866 Clouds 24 1015 91 0 0.89 11 12:24 21.07.2019
4867 Clouds 24 1015 90 0 0.45 42 11:49 21.07.2019
4868 Clouds 24 1015 90 0 0.45 34 11:29 21.07.2019
4869 Clouds 24 1015 90 0 1.92 337.695 10:57 21.07.2019
4870 Clouds 24 1015 89 0 1.92 337.695 10:39 21.07.2019
4871 Clouds 25 1015 90 0 0.45 30 10:20 21.07.2019
4872 Clouds 25 1015 89 0 0.45 27 09:38 21.07.2019
4873 Clouds 25 1015 89 0 0.45 27 09:38 21.07.2019
4874 Clouds 25 1015 89 0 2.06 340.8 09:19 21.07.2019
4875 Clouds 25 1015 89 0 2.11 343.259 08:41 21.07.2019
4876 Clouds 25 1015 88 0 0.45 10 08:23 21.07.2019
4877 Clouds 26 1015 86 0 2.11 343.259 07:35 21.07.2019
4878 Clouds 26 1016 86 0 2.11 343.259 06:45 21.07.2019
4879 Clouds 26 1016 83 0 2.44 2.158 05:27 21.07.2019
4880 Rain 26 1014 94 10000 2.1 50 02:20 21.07.2019
4881 Rain 27 1015 70 8000 2.32 48.979 00:51 21.07.2019
4882 Rain 27 1015 70 8000 3 90.496 00:24 21.07.2019
4883 Clouds 28 1015 62 10000 5.1 360 23:57 20.07.2019
4884 Clouds 28 1015 62 10000 5.1 360 23:37 20.07.2019
4885 Clouds 27 1015 62 10000 5.1 360 23:18 20.07.2019
4886 Thunderstorm 28 1015 59 10000 4.1 110 22:42 20.07.2019
4887 Thunderstorm 27 1015 59 10000 4.1 110 22:20 20.07.2019
4888 Thunderstorm 28 1016 55 10000 5.1 10 21:45 20.07.2019
4889 Thunderstorm 30 1016 55 10000 5.1 10 21:24 20.07.2019
4890 Clouds 33 1016 55 10000 5.1 40 20:44 20.07.2019
4891 Clouds 33 1016 55 10000 5.1 40 20:23 20.07.2019
4892 Clouds 33 1017 55 10000 2.1 360 19:59 20.07.2019
4893 Clouds 33 1017 55 10000 2.1 360 19:38 20.07.2019
4894 Clouds 33 1017 55 10000 2.1 360 19:19 20.07.2019
4895 Clouds 32 1018 59 10000 2.1 90 18:40 20.07.2019
4896 Clouds 32 1018 59 10000 2.1 90 18:19 20.07.2019
4897 Clouds 31 1019 62 10000 3.1 40 17:48 20.07.2019
4898 Clouds 31 1019 62 10000 3.1 40 17:20 20.07.2019
4899 Clouds 30 1018 74 10000 5.1 30 16:43 20.07.2019
4900 Clouds 30 1018 74 10000 5.1 30 16:24 20.07.2019
4901 Clouds 29 1017 78 10000 4.1 360 15:56 20.07.2019
4902 Clouds 29 1017 78 10000 4.1 360 15:37 20.07.2019
4903 Clouds 28 1017 78 10000 4.1 360 15:18 20.07.2019
4904 Clouds 26 1017 88 10000 2.51 353.175 14:43 20.07.2019
4905 Clouds 26 1017 88 10000 2.51 353.175 14:20 20.07.2019
4906 Clouds 26 1015 94 10000 2.1 20 13:38 20.07.2019
4907 Clouds 25 1015 94 10000 2.1 20 13:19 20.07.2019
4908 Clouds 25 1015 94 10000 1.5 20 12:52 20.07.2019
4909 Clouds 24 1015 94 10000 1.5 20 12:20 20.07.2019
4910 Clouds 24 1015 94 10000 1.5 0 11:52 20.07.2019
4911 Clouds 24 1015 94 10000 1.5 0 11:23 20.07.2019
4912 Clouds 24 1015 88 10000 1.5 0 10:52 20.07.2019
4913 Clouds 25 1015 88 10000 1.5 0 10:26 20.07.2019
4914 Clouds 24 1015 88 10000 2.1 360 09:53 20.07.2019
4915 Clouds 24 1015 88 10000 2.1 360 09:27 20.07.2019
4916 Clouds 24 1016 88 10000 2.1 30 08:57 20.07.2019
4917 Clouds 24 1016 88 10000 2.1 30 08:36 20.07.2019
4918 Clouds 24 1016 88 10000 2.1 30 08:18 20.07.2019
4919 Clouds 24 1017 88 10000 1.5 40 06:47 20.07.2019
4920 Clouds 25 1017 88 10000 1.5 40 06:21 20.07.2019
4921 Clouds 25 1017 83 10000 2.1 10 04:31 20.07.2019
4922 Clouds 25 1016 83 10000 2.6 20 02:34 20.07.2019
4923 Clouds 26 1016 94 10000 3.05 35.859 01:20 20.07.2019
4924 Thunderstorm 27 1015 94 10000 2.1 360 00:45 20.07.2019
4925 Thunderstorm 28 1015 94 10000 2.1 360 00:18 20.07.2019
4926 Thunderstorm 28 1015 94 10000 2.1 360 00:18 20.07.2019
4927 Thunderstorm 28 1015 94 10000 2.98 62.608 23:43 19.07.2019
4928 Thunderstorm 27 1015 94 10000 2.98 62.608 23:22 19.07.2019
4929 Thunderstorm 28 1015 94 10000 4.1 360 22:43 19.07.2019
4930 Thunderstorm 28 1015 94 10000 4.1 360 22:24 19.07.2019
4931 Thunderstorm 28 1016 94 10000 2.98 62.608 21:46 19.07.2019
4932 Thunderstorm 28 1016 94 10000 2.6 64.785 21:27 19.07.2019
4933 Thunderstorm 30 1016 94 7000 2.87 89.601 20:50 19.07.2019
4934 Thunderstorm 29 1016 94 7000 2.87 89.601 20:31 19.07.2019
4935 Clouds 31 1017 62 10000 3.1 60 19:55 19.07.2019
4936 Clouds 32 1017 62 10000 3.1 60 19:34 19.07.2019
4937 Clouds 32 1018 62 10000 3.6 60 18:42 19.07.2019
4938 Clouds 31 1018 62 10000 3.6 60 18:22 19.07.2019
4939 Clouds 31 1018 66 10000 2.68 40.024 17:55 19.07.2019
4940 Clouds 31 1018 66 10000 2.68 40.024 17:28 19.07.2019
4941 Clouds 30 1018 74 10000 3.6 60 16:49 19.07.2019
4942 Clouds 30 1018 74 10000 3.6 60 16:27 19.07.2019
4943 Clouds 29 1017 83 10000 2.68 40.024 15:53 19.07.2019
4944 Clouds 29 1017 83 10000 2.68 40.024 15:31 19.07.2019
4945 Clouds 27 1017 94 10000 2.94 1.072 14:58 19.07.2019
4946 Clouds 27 1017 94 10000 2.94 1.072 14:39 19.07.2019
4947 Clouds 27 1017 94 10000 2.94 1.072 14:21 19.07.2019
4948 Clouds 25 1016 94 10000 2.1 40 13:44 19.07.2019
4949 Clouds 25 1016 94 10000 2.1 40 13:44 19.07.2019
4950 Clouds 25 1016 94 10000 2.1 40 13:44 19.07.2019
4951 Clouds 25 1016 94 10000 2.1 40 13:26 19.07.2019
4952 Clouds 24 1016 94 10000 2.1 20 12:55 19.07.2019
4953 Clouds 24 1016 94 10000 2.1 20 12:31 19.07.2019
4954 Clouds 24 1016 94 10000 2.1 20 12:31 19.07.2019
4955 Clouds 24 1016 94 10000 2.1 20 11:59 19.07.2019
4956 Clouds 25 1016 94 10000 2.1 20 11:41 19.07.2019
4957 Clouds 25 1016 94 10000 2.1 20 11:18 19.07.2019
4958 Clouds 25 1016 88 10000 2.1 20 10:47 19.07.2019
4959 Clouds 25 1016 88 10000 2.1 20 10:22 19.07.2019
4960 Clouds 26 1016 83 10000 2.1 30 09:58 19.07.2019
4961 Clouds 26 1016 83 10000 2.1 30 09:39 19.07.2019
4962 Clouds 26 1016 83 10000 2.1 30 09:21 19.07.2019
4963 Clouds 26 1017 83 10000 2.1 20 08:47 19.07.2019
4964 Clouds 26 1017 83 10000 2.1 30 07:53 19.07.2019
4965 Clouds 26 1017 83 10000 2.1 30 07:53 19.07.2019
4966 Clouds 26 1017 83 10000 2.1 30 07:29 19.07.2019
4967 Clouds 27 1017 83 10000 2.1 60 05:56 19.07.2019
4968 Clouds 28 1015 74 10000 2.1 140 02:23 19.07.2019
4969 Clouds 29 1016 69 10000 1.44 47.85 01:18 19.07.2019
4970 Clouds 30 1015 66 10000 3.1 180 00:38 19.07.2019
4971 Clouds 31 1015 66 10000 5.1 180 23:45 18.07.2019
4972 Clouds 31 1015 66 10000 5.1 180 23:24 18.07.2019
4973 Clouds 31 1015 66 10000 5.1 180 22:59 18.07.2019
4974 Clouds 31 1015 66 10000 5.1 180 22:40 18.07.2019
4975 Clouds 31 1015 66 10000 5.1 180 22:19 18.07.2019
4976 Clouds 32 1015 66 10000 6.2 180 21:44 18.07.2019
4977 Clouds 32 1015 66 10000 6.2 180 21:26 18.07.2019
4978 Clouds 32 1016 62 10000 5.1 180 20:51 18.07.2019
4979 Clouds 32 1016 62 10000 5.1 180 20:29 18.07.2019
4980 Clouds 32 1018 66 10000 6.2 100 19:57 18.07.2019
4981 Clouds 32 1018 66 10000 6.2 100 19:38 18.07.2019
4982 Clouds 32 1018 66 10000 6.2 100 19:18 18.07.2019
4983 Rain 31 1017 66 8000 5.1 130 18:41 18.07.2019
4984 Rain 31 1017 66 8000 5.1 130 18:20 18.07.2019
4985 Clouds 30 1018 70 10000 2.6 90 17:43 18.07.2019
4986 Clouds 30 1018 70 10000 2.6 90 17:24 18.07.2019
4987 Clouds 29 1018 78 10000 2.6 90 16:57 18.07.2019
4988 Clouds 29 1018 78 10000 2.6 90 16:31 18.07.2019
4989 Clouds 28 1017 83 10000 2.69 79.95 15:59 18.07.2019
4990 Clouds 28 1017 83 10000 2.69 79.95 15:39 18.07.2019
4991 Clouds 28 1017 83 10000 2.24 348.103 15:21 18.07.2019
4992 Clouds 25 1017 88 10000 2.24 348.103 14:45 18.07.2019
4993 Clouds 25 1017 88 10000 2.24 348.103 14:26 18.07.2019
4994 Clouds 24 1016 94 10000 2.1 10 13:48 18.07.2019
4995 Clouds 24 1016 94 10000 2.1 10 13:23 18.07.2019
4996 Clouds 23 1016 94 10000 2.1 20 12:50 18.07.2019
4997 Clouds 23 1016 94 10000 2.1 20 12:21 18.07.2019
4998 Clouds 23 1016 94 10000 2.1 20 12:21 18.07.2019
4999 Clouds 23 1016 94 10000 2.24 335.412 11:58 18.07.2019
5000 Clouds 23 1016 94 10000 2.24 335.412 11:39 18.07.2019
5001 Clouds 23 1016 94 10000 2.24 335.412 11:20 18.07.2019
5002 Clouds 23 1016 94 10000 2.1 20 10:41 18.07.2019
5003 Clouds 23 1016 94 10000 2.1 20 09:50 18.07.2019
5004 Clouds 23 1016 94 10000 2.1 20 09:26 18.07.2019
5005 Clouds 24 1017 94 10000 2.1 20 08:51 18.07.2019
5006 Clouds 24 1017 94 10000 2.1 20 08:23 18.07.2019
5007 Clouds 24 1017 94 10000 2.1 30 07:55 18.07.2019
5008 Clouds 24 1017 94 10000 2.1 30 07:34 18.07.2019
5009 Clouds 24 1017 94 10000 2.6 20 06:46 18.07.2019
5010 Clouds 24 1017 94 10000 2.1 40 05:58 18.07.2019
5011 Clouds 25 1017 88 10000 2.1 30 03:25 18.07.2019
5012 Thunderstorm 24 1016 88 7000 2.54 7.702 01:52 18.07.2019
5013 Thunderstorm 24 1016 88 7000 2.54 7.702 01:32 18.07.2019
5014 Thunderstorm 25 1015 83 7000 5.1 90 23:57 17.07.2019
5015 Thunderstorm 25 1015 83 7000 5.1 90 23:21 17.07.2019
5016 Rain 26 1016 78 8000 5.1 360 22:58 17.07.2019
5017 Rain 26 1016 78 8000 5.1 360 22:58 17.07.2019
5018 Rain 26 1016 78 8000 5.1 360 22:40 17.07.2019
5019 Rain 28 1016 78 8000 5.1 360 22:20 17.07.2019
5020 Rain 29 1016 83 6000 3.1 90 21:45 17.07.2019
5021 Rain 30 1016 74 8000 5.1 150 21:27 17.07.2019
5022 Clouds 30 1017 66 10000 4.1 360 20:58 17.07.2019
5023 Clouds 30 1017 66 10000 4.1 360 20:40 17.07.2019
5024 Clouds 30 1017 66 10000 4.1 360 20:21 17.07.2019
5025 Rain 29 1018 66 10000 5.1 360 19:56 17.07.2019
5026 Rain 29 1018 66 10000 5.1 360 19:37 17.07.2019
5027 Clouds 31 1018 66 10000 5.1 360 19:18 17.07.2019
5028 Clouds 31 1018 66 10000 5.1 360 18:41 17.07.2019
5029 Clouds 31 1018 66 10000 5.1 360 18:20 17.07.2019
5030 Clouds 31 1018 66 10000 5.1 360 18:20 17.07.2019
5031 Clouds 30 1018 74 10000 5.1 360 17:50 17.07.2019
5032 Clouds 29 1018 74 10000 5.1 360 17:27 17.07.2019
5033 Clouds 29 1018 78 10000 4.1 360 16:55 17.07.2019
5034 Clouds 29 1018 78 10000 4.1 360 16:37 17.07.2019
5035 Clouds 28 1017 83 10000 3.1 360 16:18 17.07.2019
5036 Clouds 28 1017 83 10000 3.1 360 15:47 17.07.2019
5037 Clouds 28 1017 83 10000 3.1 360 15:25 17.07.2019
5038 Clouds 26 1017 88 10000 3.07 350.989 14:54 17.07.2019
5039 Clouds 26 1017 88 10000 3.07 350.989 14:36 17.07.2019
5040 Clouds 25 1017 88 10000 1.5 360 14:18 17.07.2019
5041 Clouds 24 1017 88 10000 1.5 360 13:41 17.07.2019
5042 Clouds 25 1017 88 10000 1.5 360 13:20 17.07.2019
5043 Clouds 24 1017 94 10000 2.1 20 12:40 17.07.2019
5044 Clouds 24 1017 94 10000 2.1 20 12:21 17.07.2019
5045 Clouds 24 1017 94 10000 1.5 10 11:45 17.07.2019
5046 Clouds 24 1017 94 10000 1.5 10 11:21 17.07.2019
5047 Clouds 25 1017 94 10000 1.5 20 10:51 17.07.2019
5048 Clouds 25 1017 94 10000 1.5 20 10:30 17.07.2019
5049 Clouds 24 1017 94 10000 1.5 20 09:58 17.07.2019
5050 Clouds 24 1017 94 10000 1.5 20 09:40 17.07.2019
5051 Clouds 25 1017 94 10000 1.5 20 09:20 17.07.2019
5052 Clouds 25 1017 94 10000 2.1 20 08:42 17.07.2019
5053 Clouds 25 1017 94 10000 2.1 20 08:22 17.07.2019
5054 Clouds 25 1017 88 10000 2.1 20 07:50 17.07.2019
5055 Clouds 25 1017 88 10000 2.1 20 07:24 17.07.2019
5056 Clouds 25 1018 88 10000 2.1 30 06:55 17.07.2019
5057 Clouds 26 1018 88 10000 2.1 30 06:29 17.07.2019
5058 Clouds 26 1018 88 10000 2.1 50 05:48 17.07.2019
5059 Clouds 26 1018 88 10000 2.1 50 05:28 17.07.2019
5060 Clouds 27 1017 83 10000 2.6 40 04:37 17.07.2019
5061 Clouds 27 1016 88 10000 1.5 0 02:56 17.07.2019
5062 Clouds 29 1017 70 10000 2.57 51.417 01:59 17.07.2019
5063 Clouds 29 1017 70 10000 2.25 44.261 01:25 17.07.2019
5064 Clouds 30 1017 62 10000 2.6 150 00:48 17.07.2019
5065 Clouds 31 1017 62 10000 2.6 150 00:24 17.07.2019
5066 Clouds 32 1016 59 10000 2.6 180 23:58 16.07.2019
5067 Clouds 32 1016 59 10000 2.6 180 23:31 16.07.2019
5068 Clouds 32 1017 59 10000 5.1 150 22:59 16.07.2019
5069 Clouds 32 1017 59 10000 5.1 150 22:40 16.07.2019
5070 Clouds 32 1017 59 10000 5.1 150 22:20 16.07.2019
5071 Clouds 32 1018 55 10000 2.6 120 21:45 16.07.2019
5072 Clouds 32 1018 55 10000 2.6 120 21:21 16.07.2019
5073 Clouds 31 1018 62 10000 2.57 72.748 20:58 16.07.2019
5074 Clouds 31 1018 62 10000 2.57 72.748 20:39 16.07.2019
5075 Clouds 31 1018 62 10000 2.57 72.748 20:20 16.07.2019
5076 Rain 32 1019 59 8000 5.1 90 19:50 16.07.2019
5077 Rain 31 1019 59 8000 5.1 90 19:27 16.07.2019
5078 Rain 29 1019 59 10000 5.1 360 18:56 16.07.2019
5079 Rain 29 1019 59 10000 5.1 360 18:37 16.07.2019
5080 Rain 29 1018 78 8000 3.1 360 18:19 16.07.2019
5081 Clouds 32 1019 59 10000 5.7 70 17:40 16.07.2019
5082 Clouds 32 1019 59 10000 5.7 70 17:20 16.07.2019
5083 Clouds 31 1019 66 10000 5.1 30 16:43 16.07.2019
5084 Clouds 30 1019 66 10000 5.1 30 16:21 16.07.2019
5085 Clouds 29 1018 74 10000 1.5 20 15:42 16.07.2019
5086 Clouds 29 1018 74 10000 1.5 20 15:21 16.07.2019
5087 Clouds 27 1019 83 10000 2.62 14.476 14:58 16.07.2019
5088 Clouds 27 1019 83 10000 2.62 14.476 14:40 16.07.2019
5089 Clouds 27 1019 83 10000 2.62 14.476 14:22 16.07.2019
5090 Clouds 25 1017 94 10000 2.1 10 13:45 16.07.2019
5091 Clouds 25 1017 94 10000 2.1 10 13:24 16.07.2019
5092 Clouds 25 1016 94 10000 2.1 20 12:54 16.07.2019
5093 Clouds 25 1016 94 10000 2.1 20 12:36 16.07.2019
5094 Rain 25 1017 90 0 0.89 32 12:18 16.07.2019
5095 Rain 25 1017 90 0 0.45 49 11:42 16.07.2019
5096 Clouds 24 1016 94 10000 2.68 352.027 11:22 16.07.2019
5097 Clouds 24 1016 94 10000 2.68 352.027 10:47 16.07.2019
5098 Clouds 25 1016 94 10000 2.68 352.027 10:22 16.07.2019
5099 Clouds 24 1016 94 10000 2.68 352.027 09:59 16.07.2019
5100 Clouds 24 1016 94 10000 2.68 352.027 09:40 16.07.2019
5101 Clouds 25 1016 94 10000 2.1 342.987 09:19 16.07.2019
5102 Clouds 25 1016 88 10000 2.1 40 08:42 16.07.2019
5103 Clouds 25 1016 88 10000 2.1 40 08:20 16.07.2019
5104 Clouds 25 1016 94 10000 2.1 40 07:42 16.07.2019
5105 Clouds 26 1016 94 10000 2.1 40 07:24 16.07.2019
5106 Clouds 26 1017 88 10000 2.1 40 06:48 16.07.2019
5107 Clouds 26 1017 88 10000 2.1 40 06:27 16.07.2019
5108 Clouds 26 1017 88 10000 2.1 40 05:37 16.07.2019
5109 Clouds 26 1017 88 10000 2.1 40 05:18 16.07.2019
5110 Clouds 28 1016 78 10000 2.1 40 03:57 16.07.2019
5111 Clouds 28 1016 78 10000 2.1 40 03:21 16.07.2019
5112 Rain 28 1016 74 10000 2.1 50 02:31 16.07.2019
5113 Rain 28 1016 83 8000 4.1 40 01:49 16.07.2019
5114 Rain 29 1015 78 8000 4.1 60 00:47 16.07.2019
5115 Rain 29 1015 78 8000 4.1 60 00:22 16.07.2019
5116 Clouds 30 1015 66 10000 3.1 130 23:53 15.07.2019
5117 Clouds 30 1015 66 10000 3.1 130 23:34 15.07.2019
5118 Rain 32 1016 62 8000 3.1 130 22:49 15.07.2019
5119 Rain 32 1016 62 8000 3.1 130 22:23 15.07.2019
5120 Clouds 32 1015 59 10000 2.1 160 21:59 15.07.2019
5121 Clouds 32 1015 59 10000 2.1 160 21:41 15.07.2019
5122 Clouds 32 1015 59 10000 2.1 160 21:20 15.07.2019
5123 Clouds 32 1017 59 10000 4.1 50 20:57 15.07.2019
5124 Clouds 32 1017 59 10000 4.1 50 20:38 15.07.2019
5125 Clouds 32 1017 59 10000 4.1 50 20:19 15.07.2019
5126 Clouds 33 1017 59 10000 4.1 100 19:43 15.07.2019
5127 Clouds 33 1017 59 10000 4.1 100 19:21 15.07.2019
5128 Clouds 32 1018 62 10000 4.1 90 18:55 15.07.2019
5129 Clouds 32 1018 62 10000 4.1 90 18:36 15.07.2019
5130 Clouds 31 1018 70 10000 3.1 90 18:18 15.07.2019
5131 Clouds 31 1018 70 10000 3.1 90 17:42 15.07.2019
5132 Clouds 31 1018 70 10000 3.1 90 17:23 15.07.2019
5133 Clouds 29 1018 79 10000 3.1 40 16:59 15.07.2019
5134 Clouds 29 1018 79 10000 3.1 40 16:38 15.07.2019
5135 Clouds 29 1018 79 10000 3.1 40 16:20 15.07.2019
5136 Clouds 28 1017 83 10000 4.1 20 15:54 15.07.2019
5137 Clouds 28 1017 83 10000 4.1 20 15:36 15.07.2019
5138 Clouds 26 1016 94 10000 2.61 3.667 15:18 15.07.2019
5139 Clouds 26 1016 94 10000 2.61 3.667 14:41 15.07.2019
5140 Clouds 26 1016 94 10000 2.61 3.667 14:22 15.07.2019
5141 Clouds 24 1016 88 10000 2.1 20 13:49 15.07.2019
5142 Clouds 24 1016 88 10000 2.1 20 13:21 15.07.2019
5143 Clouds 24 1015 88 10000 2.1 30 12:57 15.07.2019
5144 Clouds 24 1015 88 10000 2.1 30 12:39 15.07.2019
5145 Clouds 24 1015 88 10000 2.1 30 12:20 15.07.2019
5146 Clouds 23 1015 94 10000 2.6 30 11:41 15.07.2019
5147 Clouds 23 1015 94 10000 2.6 30 11:21 15.07.2019
5148 Clouds 23 1015 94 10000 2.1 20 10:43 15.07.2019
5149 Clouds 23 1015 94 10000 2.1 20 10:24 15.07.2019
5150 Clouds 23 1015 94 10000 2.1 20 10:24 15.07.2019
5151 Clouds 24 1015 88 10000 1.5 20 09:43 15.07.2019
5152 Clouds 24 1015 88 10000 1.5 20 09:23 15.07.2019
5153 Clouds 24 1016 94 10000 2.1 10 08:47 15.07.2019
5154 Clouds 24 1016 94 10000 2.1 10 08:27 15.07.2019
5155 Clouds 24 1016 94 10000 2.1 10 07:55 15.07.2019
5156 Clouds 24 1016 94 10000 2.1 10 07:33 15.07.2019
5157 Clouds 24 1017 94 10000 2.1 10 06:48 15.07.2019
5158 Clouds 24 1017 94 10000 2.1 10 06:30 15.07.2019
5159 Clouds 25 1017 88 10000 2.1 30 05:43 15.07.2019
5160 Clouds 25 1017 88 10000 2.1 10 04:48 15.07.2019
5161 Clouds 25 1017 88 10000 2.1 10 04:29 15.07.2019
5162 Clouds 25 1016 88 10000 2.1 30 03:29 15.07.2019
5163 Rain 25 1016 83 10000 3.1 20 02:23 15.07.2019
5164 Rain 26 1015 94 8000 1.84 27.079 01:35 15.07.2019
5165 Rain 26 1015 94 8000 1.84 27.079 01:35 15.07.2019
5166 Rain 27 1015 94 8000 1.58 31.063 00:54 15.07.2019
5167 Rain 26 1015 94 8000 1.58 31.063 00:28 15.07.2019
5168 Thunderstorm 27 1014 83 10000 4.1 360 23:59 14.07.2019
5169 Thunderstorm 27 1014 83 10000 4.1 360 23:40 14.07.2019
5170 Thunderstorm 27 1014 83 10000 4.1 360 23:20 14.07.2019
5171 Clouds 27 1015 94 10000 4.1 360 22:57 14.07.2019
5172 Clouds 27 1015 94 10000 4.1 360 22:38 14.07.2019
5173 Clouds 27 1015 94 10000 4.1 360 22:20 14.07.2019
5174 Rain 28 1015 88 8000 2.25 97.964 21:43 14.07.2019
5175 Rain 28 1015 88 8000 1.7 115.325 21:19 14.07.2019
5176 Thunderstorm 28 1016 94 8000 1.7 115.325 20:58 14.07.2019
5177 Thunderstorm 28 1016 94 8000 1.7 115.325 20:38 14.07.2019
5178 Thunderstorm 28 1016 94 8000 1.7 115.325 20:19 14.07.2019
5179 Rain 28 1016 74 10000 4.1 270 19:46 14.07.2019
5180 Rain 28 1016 74 10000 4.1 270 19:28 14.07.2019
5181 Rain 29 1017 66 10000 4.1 160 18:58 14.07.2019
5182 Rain 29 1017 66 10000 4.1 160 18:39 14.07.2019
5183 Rain 29 1017 66 10000 4.1 160 18:21 14.07.2019
5184 Clouds 30 1018 66 10000 3.1 360 17:54 14.07.2019
5185 Clouds 30 1018 66 10000 3.1 360 17:22 14.07.2019
5186 Clouds 30 1018 66 10000 3.1 360 17:22 14.07.2019
5187 Clouds 29 1017 74 10000 4.1 360 16:52 14.07.2019
5188 Clouds 29 1017 74 10000 4.1 360 16:24 14.07.2019
5189 Clouds 28 1017 83 10000 2.81 37.172 15:56 14.07.2019
5190 Clouds 28 1017 83 10000 2.81 37.172 15:34 14.07.2019
5191 Clouds 27 1017 94 10000 3.31 354.56 14:55 14.07.2019
5192 Clouds 27 1017 94 10000 3.31 354.56 14:36 14.07.2019
5193 Clouds 26 1017 94 10000 3.31 354.56 14:18 14.07.2019
5194 Clouds 25 1016 94 10000 2.1 30 13:44 14.07.2019
5195 Clouds 24 1016 94 10000 2.1 30 13:21 14.07.2019
5196 Clouds 23 1015 100 10000 2.1 40 12:43 14.07.2019
5197 Clouds 23 1015 100 10000 2.1 40 12:22 14.07.2019
5198 Clouds 23 1015 100 10000 2.1 40 12:22 14.07.2019
5199 Clouds 24 1015 94 10000 2.1 40 11:56 14.07.2019
5200 Clouds 24 1015 94 10000 2.1 40 11:37 14.07.2019
5201 Clouds 24 1015 94 10000 2.1 40 11:19 14.07.2019
5202 Clouds 24 1015 94 10000 2.1 20 10:42 14.07.2019
5203 Clouds 24 1015 94 10000 2.1 20 10:19 14.07.2019
5204 Clouds 24 1015 94 10000 2.1 20 09:44 14.07.2019
5205 Clouds 24 1015 94 10000 2.1 20 09:24 14.07.2019
5206 Clouds 24 1015 94 10000 2.1 30 08:44 14.07.2019
5207 Clouds 24 1015 94 10000 2.1 50 07:58 14.07.2019
5208 Clouds 25 1015 94 10000 2.1 50 07:39 14.07.2019
5209 Clouds 25 1015 94 10000 2.1 50 06:57 14.07.2019
5210 Clouds 24 1016 94 10000 2.1 50 05:45 14.07.2019
5211 Clouds 26 1016 94 10000 2.1 40 03:48 14.07.2019
5212 Clouds 26 1016 94 10000 2.1 40 03:30 14.07.2019
5213 Rain 26 1016 94 8000 3.24 46.878 02:41 14.07.2019
5214 Rain 26 1016 94 8000 3.24 46.878 02:21 14.07.2019
5215 Rain 25 1016 83 10000 2.96 29.774 01:33 14.07.2019
5216 Rain 27 1016 83 10000 3.1 40 00:57 14.07.2019
5217 Rain 27 1016 83 10000 3.1 40 00:38 14.07.2019
5218 Rain 27 1016 83 10000 3.1 40 00:19 14.07.2019
5219 Rain 27 1015 88 8000 3.1 30 23:44 13.07.2019
5220 Rain 27 1015 88 8000 3.1 30 23:25 13.07.2019
5221 Rain 27 1015 78 10000 3.1 40 22:47 13.07.2019
5222 Rain 27 1015 78 10000 3.1 40 22:26 13.07.2019
5223 Thunderstorm 27 1015 83 7000 2.6 360 21:58 13.07.2019
5224 Thunderstorm 27 1015 83 7000 2.6 360 21:40 13.07.2019
5225 Thunderstorm 29 1015 83 7000 2.6 360 21:19 13.07.2019
5226 Rain 31 1015 70 8000 6.2 180 20:41 13.07.2019
5227 Rain 30 1015 70 8000 6.2 180 20:23 13.07.2019
5228 Rain 30 1016 59 10000 4.1 60 19:43 13.07.2019
5229 Rain 31 1016 59 10000 4.1 60 19:25 13.07.2019
5230 Rain 30 1016 59 10000 4.1 60 18:42 13.07.2019
5231 Rain 30 1016 59 10000 4.1 60 18:20 13.07.2019
5232 Clouds 31 1017 62 10000 5.1 40 17:38 13.07.2019
5233 Clouds 31 1017 62 10000 5.1 40 17:20 13.07.2019
5234 Clouds 31 1017 62 10000 5.1 360 16:46 13.07.2019
5235 Clouds 30 1017 62 10000 5.1 360 16:26 13.07.2019
5236 Clouds 29 1016 78 10000 2.6 360 15:59 13.07.2019
5237 Clouds 29 1016 78 10000 2.6 360 15:40 13.07.2019
5238 Clouds 28 1016 78 10000 2.6 360 15:20 13.07.2019
5239 Clouds 27 1016 88 10000 3.77 356.459 14:41 13.07.2019
5240 Clouds 27 1016 88 10000 3.77 356.459 14:21 13.07.2019
5241 Rain 26 1017 87 0 1.79 37 13:45 13.07.2019
5242 Rain 25 1017 88 0 1.34 21 13:24 13.07.2019
5243 Clouds 24 1015 88 10000 2.1 10 12:42 13.07.2019
5244 Clouds 24 1015 88 10000 2.1 10 12:23 13.07.2019
5245 Clouds 24 1015 88 10000 2.1 20 11:58 13.07.2019
5246 Clouds 24 1015 88 10000 2.1 20 11:37 13.07.2019
5247 Clouds 24 1015 88 10000 2.1 20 11:18 13.07.2019
5248 Clouds 24 1014 88 10000 3.14 345.796 10:41 13.07.2019
5249 Clouds 25 1014 88 10000 3.14 345.796 10:23 13.07.2019
5250 Clouds 24 1014 94 10000 2.1 30 09:48 13.07.2019
5251 Clouds 25 1014 94 10000 2.1 30 09:28 13.07.2019
5252 Clouds 25 1015 88 10000 2.1 20 08:56 13.07.2019
5253 Clouds 25 1015 88 10000 2.1 20 08:28 13.07.2019
5254 Clouds 25 1015 88 10000 2.6 20 07:55 13.07.2019
5255 Clouds 25 1015 88 10000 2.6 20 07:28 13.07.2019
5256 Clouds 25 1016 83 10000 2.1 20 06:31 13.07.2019
5257 Clouds 26 1016 78 10000 3.1 40 05:48 13.07.2019
5258 Clouds 27 1016 74 10000 2.1 50 04:40 13.07.2019
5259 Clouds 27 1016 74 10000 2.1 50 04:20 13.07.2019
5260 Clouds 27 1015 74 10000 2.6 70 03:41 13.07.2019
5261 Clouds 27 1015 74 10000 2.6 70 03:18 13.07.2019
5262 Rain 27 1015 94 8000 3.43 37.659 01:53 13.07.2019
5263 Rain 27 1015 94 8000 3.65 38.797 01:21 13.07.2019
5264 Clouds 29 1014 78 10000 3.1 270 00:58 13.07.2019
5265 Clouds 29 1014 78 10000 3.1 270 00:21 13.07.2019
5266 Rain 28 1014 83 8000 2.6 150 23:50 12.07.2019
5267 Rain 28 1014 83 8000 2.6 150 23:30 12.07.2019
5268 Clouds 30 1014 83 10000 4.53 85.933 22:58 12.07.2019
5269 Clouds 30 1014 83 10000 4.53 85.933 22:40 12.07.2019
5270 Clouds 31 1014 83 10000 4.53 85.933 22:21 12.07.2019
5271 Rain 32 1015 66 8000 5.1 180 21:42 12.07.2019
5272 Rain 32 1015 66 8000 5.1 180 21:19 12.07.2019
5273 Clouds 32 1015 59 10000 5.7 180 20:46 12.07.2019
5274 Clouds 32 1015 59 10000 5.7 180 20:23 12.07.2019
5275 Clouds 31 1015 49 10000 5.1 60 19:43 12.07.2019
5276 Clouds 31 1015 49 10000 5.1 60 19:25 12.07.2019
5277 Clouds 32 1016 52 10000 5.1 40 18:56 12.07.2019
5278 Clouds 31 1016 52 10000 5.1 40 18:36 12.07.2019
5279 Clouds 32 1017 59 10000 5.7 60 18:18 12.07.2019
5280 Clouds 32 1017 59 10000 5.7 60 17:42 12.07.2019
5281 Clouds 32 1017 59 10000 5.7 60 17:23 12.07.2019
5282 Clouds 31 1017 62 10000 5.1 30 16:37 12.07.2019
5283 Clouds 31 1017 62 10000 5.1 30 16:37 12.07.2019
5284 Clouds 30 1017 62 10000 5.1 30 16:18 12.07.2019
5285 Clouds 29 1017 74 10000 5.1 30 15:39 12.07.2019
5286 Clouds 28 1017 74 10000 5.1 30 15:19 12.07.2019
5287 Clouds 27 1016 83 10000 3.23 353.394 14:45 12.07.2019
5288 Clouds 27 1016 83 10000 3.23 353.394 14:21 12.07.2019
5289 Clouds 24 1015 94 10000 2.6 10 13:53 12.07.2019
5290 Clouds 24 1015 94 10000 2.6 10 13:32 12.07.2019
5291 Clouds 24 1014 94 10000 2.1 20 12:44 12.07.2019
5292 Clouds 24 1014 94 10000 2.1 20 12:24 12.07.2019
5293 Clouds 24 1014 88 10000 2.1 10 11:58 12.07.2019
5294 -273 0 0 0 0 0 11:39 12.07.2019
5295 Clouds 24 1014 88 10000 2.1 10 11:19 12.07.2019
5296 Clouds 24 1014 88 10000 2.6 10 10:41 12.07.2019
5297 Clouds 25 1014 88 10000 2.6 10 10:23 12.07.2019
5298 Clouds 24 1014 88 10000 2.1 10 09:53 12.07.2019
5299 Clouds 25 1014 88 10000 2.1 10 09:29 12.07.2019
5300 Clouds 25 1015 94 10000 2.1 20 08:52 12.07.2019
5301 Clouds 25 1015 94 10000 2.1 20 08:25 12.07.2019
5302 Clouds 25 1015 88 10000 2.1 20 07:54 12.07.2019
5303 Clouds 25 1015 88 10000 2.1 20 07:32 12.07.2019
5304 Clouds 26 1015 88 10000 2.1 30 06:44 12.07.2019
5305 Clouds 26 1015 88 10000 2.1 30 06:25 12.07.2019
5306 Clouds 27 1016 74 10000 2.6 50 04:55 12.07.2019
5307 Clouds 28 1015 66 10000 5.1 60 02:55 12.07.2019
5308 Clouds 30 1016 74 10000 3.1 90 01:37 12.07.2019
5309 Clouds 29 1016 66 10000 5.1 360 00:44 12.07.2019
5310 Clouds 30 1015 62 10000 5.1 90 00:19 12.07.2019
5311 Clouds 30 1015 62 10000 5.1 90 23:43 11.07.2019
5312 Clouds 30 1015 62 10000 5.1 90 23:23 11.07.2019
5313 Clouds 31 1016 59 10000 5.1 360 22:48 11.07.2019
5314 Clouds 31 1016 59 10000 5.1 360 22:25 11.07.2019
5315 Clouds 31 1016 62 10000 5.1 360 21:56 11.07.2019
5316 Clouds 31 1016 62 10000 5.1 360 21:36 11.07.2019
5317 Clouds 32 1017 62 10000 7.7 360 21:18 11.07.2019
5318 Clouds 32 1017 62 10000 7.7 360 20:42 11.07.2019
5319 Clouds 32 1017 62 10000 7.7 360 20:22 11.07.2019
5320 Clouds 32 1017 66 10000 4.1 360 19:56 11.07.2019
5321 Clouds 32 1017 66 10000 4.1 360 19:37 11.07.2019
5322 Clouds 32 1018 62 10000 3.1 60 19:19 11.07.2019
5323 Clouds 31 1018 62 10000 3.1 60 18:41 11.07.2019
5324 Clouds 31 1018 62 10000 3.1 60 18:23 11.07.2019
5325 Clouds 30 1018 66 10000 5.1 360 17:48 11.07.2019
5326 Clouds 30 1018 66 10000 5.1 360 17:29 11.07.2019
5327 Clouds 29 1018 74 10000 5.1 360 16:53 11.07.2019
5328 Clouds 29 1018 74 10000 5.1 360 16:25 11.07.2019
5329 Clouds 28 1017 83 10000 3.28 44.16 15:58 11.07.2019
5330 Clouds 28 1017 83 10000 3.28 44.16 15:39 11.07.2019
5331 Clouds 28 1017 83 10000 2.68 0 15:20 11.07.2019
5332 Clouds 27 1017 88 10000 2.68 0 14:44 11.07.2019
5333 Clouds 27 1017 88 10000 2.68 0 14:23 11.07.2019
5334 Clouds 26 1017 94 10000 2.68 0 13:48 11.07.2019
5335 Clouds 26 1017 94 10000 2.44 1.503 13:29 11.07.2019
5336 Clouds 25 1016 94 10000 2.1 30 12:57 11.07.2019
5337 Clouds 25 1016 94 10000 2.1 30 12:37 11.07.2019
5338 Clouds 24 1016 94 10000 2.1 20 12:18 11.07.2019
5339 Clouds 24 1016 94 10000 2.1 20 12:18 11.07.2019
5340 Clouds 25 1016 94 10000 2.1 20 11:41 11.07.2019
5341 Clouds 25 1016 94 10000 2.1 20 11:22 11.07.2019
5342 Clouds 25 1016 94 10000 2.1 30 10:46 11.07.2019
5343 Clouds 26 1016 94 10000 2.1 30 10:19 11.07.2019
5344 Clouds 26 1016 94 10000 2.1 10 09:49 11.07.2019
5345 Clouds 26 1016 94 10000 2.1 10 09:30 11.07.2019
5346 Clouds 26 1016 94 10000 2.1 40 08:54 11.07.2019
5347 Clouds 26 1016 94 10000 2.1 40 08:28 11.07.2019
5348 Clouds 26 1017 88 10000 2.1 40 07:57 11.07.2019
5349 Clouds 27 1017 88 10000 2.1 40 07:38 11.07.2019
5350 Clouds 27 1021 84 0 2.68 63 06:42 11.07.2019
5351 Clouds 27 1018 83 10000 2.1 50 06:18 11.07.2019
5352 Clouds 27 1018 83 10000 2.1 50 05:30 11.07.2019
5353 Clouds 27 1017 83 10000 2.1 120 04:55 11.07.2019
5354 Clouds 28 1017 83 10000 2.1 140 02:41 11.07.2019
5355 Clouds 28 1017 83 10000 2.6 180 01:43 11.07.2019
5356 Clouds 29 1016 78 10000 4.1 180 00:31 11.07.2019
5357 Clouds 30 1016 74 10000 5.1 180 23:49 10.07.2019
5358 Clouds 30 1016 74 10000 5.1 180 23:20 10.07.2019
5359 Clouds 31 1016 66 10000 6.2 180 22:52 10.07.2019
5360 Clouds 31 1016 66 10000 6.2 180 22:22 10.07.2019
5361 Clouds 31 1017 62 10000 5.1 180 21:48 10.07.2019
5362 Clouds 31 1017 62 10000 5.1 180 21:28 10.07.2019
5363 Clouds 31 1018 59 10000 6.2 180 20:58 10.07.2019
5364 Clouds 31 1018 59 10000 6.2 180 20:39 10.07.2019
5365 Clouds 31 1018 59 10000 6.2 180 20:19 10.07.2019
5366 Clouds 31 1019 63 10000 6.7 170 19:54 10.07.2019
5367 Clouds 31 1019 63 10000 6.7 170 19:22 10.07.2019
5368 Clouds 31 1019 66 10000 4.1 160 18:59 10.07.2019
5369 Clouds 31 1019 66 10000 4.1 160 18:41 10.07.2019
5370 Clouds 30 1019 66 10000 4.1 160 18:22 10.07.2019
5371 Rain 30 1020 66 8000 3.08 130.981 17:42 10.07.2019
5372 Rain 30 1020 66 8000 3.08 130.981 17:21 10.07.2019
5373 Rain 30 1019 74 8000 2.6 90 16:38 10.07.2019
5374 Rain 30 1019 74 8000 2.6 90 16:18 10.07.2019
5375 Rain 28 1019 83 8000 3.08 130.981 15:45 10.07.2019
5376 Rain 28 1019 83 8000 1.25 6.117 15:21 10.07.2019
5377 Rain 27 1019 94 10000 1.25 6.117 14:41 10.07.2019
5378 Rain 27 1019 94 10000 1.25 6.117 14:23 10.07.2019
5379 Rain 27 1019 94 10000 1.25 6.117 14:23 10.07.2019
5380 Clouds 26 1018 94 10000 3.1 40 13:52 10.07.2019
5381 Clouds 26 1018 94 10000 3.1 40 13:19 10.07.2019
5382 Clouds 26 1018 94 10000 3.1 40 13:19 10.07.2019
5383 Clouds 26 1017 94 10000 2.6 50 12:58 10.07.2019
5384 Clouds 26 1017 94 10000 2.6 50 12:58 10.07.2019
5385 Clouds 26 1017 94 10000 2.6 50 12:58 10.07.2019
5386 Clouds 26 1017 94 10000 2.6 50 12:38 10.07.2019
5387 Clouds 26 1017 94 10000 2.6 50 12:38 10.07.2019
5388 Thunderstorm 26 1017 94 10000 2.6 20 12:19 10.07.2019
5389 Thunderstorm 26 1017 94 10000 2.6 20 11:46 10.07.2019
5390 Thunderstorm 26 1017 94 10000 2.6 20 11:21 10.07.2019
5391 Thunderstorm 26 1017 94 10000 2.1 20 10:46 10.07.2019
5392 Thunderstorm 26 1017 94 10000 2.1 20 10:21 10.07.2019
5393 Clouds 26 1017 94 10000 2.6 20 09:44 10.07.2019
5394 Clouds 26 1017 94 10000 2.6 20 09:21 10.07.2019
5395 Clouds 26 1017 94 10000 1.5 0 08:52 10.07.2019
5396 Clouds 26 1017 94 10000 1.5 0 08:30 10.07.2019
5397 Clouds 26 1017 94 10000 1.5 0 08:30 10.07.2019
5398 Clouds 26 1017 88 10000 2.1 20 07:56 10.07.2019
5399 Clouds 26 1017 88 10000 2.1 20 07:33 10.07.2019
5400 Clouds 26 1018 88 10000 2.1 50 06:57 10.07.2019
5401 Clouds 26 1018 88 10000 2.1 20 05:59 10.07.2019
5402 Clouds 26 1018 88 10000 4.1 70 04:51 10.07.2019
5403 Clouds 26 1018 88 10000 4.1 70 04:26 10.07.2019
5404 Clouds 28 1016 78 10000 1.41 93.333 00:48 10.07.2019
5405 Clouds 28 1016 78 10000 1.41 93.333 00:29 10.07.2019
5406 Clouds 29 1016 70 10000 2.89 136.066 23:41 09.07.2019
5407 Clouds 29 1016 70 10000 2.89 136.066 23:21 09.07.2019
5408 Clouds 30 1016 70 10000 4.1 140 22:42 09.07.2019
5409 Clouds 29 1016 70 10000 4.1 140 22:24 09.07.2019
5410 Clouds 30 1017 66 10000 5.1 180 21:58 09.07.2019
5411 Clouds 30 1017 66 10000 5.1 180 21:39 09.07.2019
5412 Clouds 30 1017 66 10000 5.1 180 21:21 09.07.2019
5413 Clouds 29 1018 66 10000 5.1 180 20:43 09.07.2019
5414 Clouds 30 1018 66 10000 5.1 180 20:24 09.07.2019
5415 Clouds 30 1018 62 10000 5.1 180 19:42 09.07.2019
5416 Clouds 30 1018 62 10000 5.1 180 19:23 09.07.2019
5417 Clouds 30 1018 62 10000 4.1 170 18:46 09.07.2019
5418 Clouds 30 1018 62 10000 4.1 170 18:23 09.07.2019
5419 Thunderstorm 29 1019 66 10000 2.29 107.423 17:56 09.07.2019
5420 Thunderstorm 30 1019 66 10000 2.29 107.423 17:37 09.07.2019
5421 Thunderstorm 30 1019 66 10000 2.29 107.423 17:37 09.07.2019
5422 Thunderstorm 30 1019 66 10000 2.29 107.423 17:19 09.07.2019
5423 Clouds 29 1019 78 10000 2.29 107.423 16:47 09.07.2019
5424 Clouds 29 1019 78 10000 2.29 107.423 16:24 09.07.2019
5425 Clouds 28 1018 83 10000 2.1 90 15:49 09.07.2019
5426 Clouds 28 1018 83 10000 2.1 90 15:31 09.07.2019
5427 Clouds 27 1017 94 10000 1.29 342.157 14:55 09.07.2019
5428 Clouds 27 1017 94 10000 1.29 342.157 14:37 09.07.2019
5429 Clouds 26 1017 88 10000 2.1 360 14:18 09.07.2019
5430 Clouds 26 1017 88 10000 2.1 360 13:43 09.07.2019
5431 Clouds 26 1017 88 10000 2.1 360 13:21 09.07.2019
5432 Clouds 25 1016 94 10000 2.1 40 12:40 09.07.2019
5433 Clouds 25 1016 94 10000 2.1 40 12:40 09.07.2019
5434 Clouds 24 1016 94 10000 2.1 40 12:19 09.07.2019
5435 Clouds 24 1016 94 10000 2.1 30 11:57 09.07.2019
5436 Clouds 24 1016 94 10000 2.1 30 11:38 09.07.2019
5437 Clouds 24 1016 94 10000 2.1 30 11:20 09.07.2019
5438 Clouds 24 1016 88 10000 3.1 50 10:49 09.07.2019
5439 Clouds 25 1016 88 10000 3.1 50 10:27 09.07.2019
5440 Clouds 25 1016 88 10000 2.6 40 09:41 09.07.2019
5441 Clouds 25 1016 88 10000 2.6 40 09:21 09.07.2019
5442 Clouds 25 1016 88 10000 2.6 40 09:21 09.07.2019
5443 Clouds 25 1017 83 10000 2.1 60 08:45 09.07.2019
5444 Clouds 26 1017 83 10000 2.1 60 08:22 09.07.2019
5445 Rain 28 1017 76 0 0.45 83 03:54 05.07.2019
5446 Rain 28 1017 76 0 1.27 103.181 03:25 05.07.2019
5447 Clouds 28 1015 79 10000 1.27 103.181 02:59 05.07.2019
5448 Clouds 28 1015 79 10000 1.27 103.181 02:37 05.07.2019
5449 Clouds 29 1015 70 10000 3.1 180 01:37 05.07.2019
5450 Clouds 30 1015 62 10000 4.1 160 00:57 05.07.2019
5451 Clouds 30 1015 62 10000 4.1 160 00:39 05.07.2019
5452 Clouds 31 1014 59 10000 5.1 180 23:48 04.07.2019
5453 Clouds 30 1014 59 10000 5.1 180 23:20 04.07.2019
5454 Clouds 31 1015 55 10000 3.1 150 22:44 04.07.2019
5455 Clouds 31 1015 55 10000 3.1 150 22:44 04.07.2019
5456 Clouds 30 1015 55 10000 3.1 150 22:24 04.07.2019
5457 Clouds 31 1014 55 10000 5.1 180 21:55 04.07.2019
5458 Clouds 31 1014 55 10000 5.1 180 21:37 04.07.2019
5459 Clouds 31 1014 55 10000 5.1 180 21:37 04.07.2019
5460 Clouds 31 1014 55 10000 5.1 180 21:19 04.07.2019
5461 Clouds 31 1015 55 10000 5.1 180 20:39 04.07.2019
5462 Clouds 31 1015 55 10000 5.1 180 20:21 04.07.2019
5463 Clouds 31 1015 62 10000 5.7 180 19:56 04.07.2019
5464 Clouds 31 1015 62 10000 5.7 180 19:38 04.07.2019
5465 Clouds 31 1015 62 10000 5.7 180 19:19 04.07.2019
5466 Clouds 30 1016 62 10000 5.1 180 18:41 04.07.2019
5467 Clouds 30 1016 62 10000 5.1 180 18:23 04.07.2019
5468 Clouds 30 1017 66 10000 2.6 130 17:44 04.07.2019
5469 Clouds 30 1017 66 10000 2.6 130 17:19 04.07.2019
5470 Clouds 27 1016 78 10000 1.97 106.013 15:57 04.07.2019
5471 Clouds 27 1016 78 10000 1.97 106.013 15:57 04.07.2019
5472 Clouds 27 1016 78 10000 1.97 106.013 15:39 04.07.2019
5473 Clouds 27 1016 78 10000 1.71 342.52 15:20 04.07.2019
5474 Clouds 26 1016 94 10000 1.71 342.52 14:44 04.07.2019
5475 Clouds 25 1016 94 10000 1.71 342.52 14:25 04.07.2019
5476 Rain 23 1015 94 8000 2.1 30 13:59 04.07.2019
5477 Rain 23 1015 94 8000 2.1 30 13:41 04.07.2019
5478 Rain 23 1015 94 8000 2.1 30 13:41 04.07.2019
5479 Rain 24 1015 94 8000 2.1 30 13:22 04.07.2019
5480 Clouds 22 1014 94 10000 2.1 50 12:40 04.07.2019
5481 Clouds 23 1014 94 10000 2.1 50 12:21 04.07.2019
5482 Clouds 23 1014 94 10000 2.1 40 11:59 04.07.2019
5483 Clouds 23 1014 94 10000 2.1 40 11:38 04.07.2019
5484 Clouds 23 1014 94 10000 2.1 40 11:19 04.07.2019
5485 Clouds 23 1014 94 10000 2.1 40 10:40 04.07.2019
5486 Clouds 23 1014 94 10000 2.1 40 10:20 04.07.2019
5487 Clouds 23 1014 94 10000 2.1 30 09:41 04.07.2019
5488 Clouds 23 1014 94 10000 2.1 30 09:23 04.07.2019
5489 Clouds 23 1014 94 10000 2.1 10 08:56 04.07.2019
5490 Clouds 24 1014 94 10000 2.1 10 08:23 04.07.2019
5491 Clouds 23 1015 100 10000 2.1 30 07:44 04.07.2019
5492 Clouds 24 1015 100 10000 2.1 30 07:22 04.07.2019
5493 Clouds 24 1015 94 10000 2.1 20 06:45 04.07.2019
5494 Clouds 24 1015 94 10000 2.1 20 05:51 04.07.2019
5495 Clouds 24 1016 94 10000 2.1 30 05:32 04.07.2019
5496 Clouds 25 1014 94 10000 2.1 60 02:42 04.07.2019
5497 Clouds 27 1015 66 10000 1.13 161.87 01:41 04.07.2019
5498 Clouds 27 1015 66 10000 1.58 171.906 01:21 04.07.2019
5499 Clouds 28 1013 66 10000 4.1 130 23:56 03.07.2019
5500 Clouds 28 1013 66 10000 4.1 130 23:37 03.07.2019
5501 Thunderstorm 28 1013 66 10000 4.1 130 23:18 03.07.2019
5502 Clouds 30 1013 55 10000 5.1 180 22:40 03.07.2019
5503 Clouds 31 1013 55 10000 5.1 180 22:21 03.07.2019
5504 Clouds 32 1014 59 10000 5.1 180 21:58 03.07.2019
5505 Clouds 32 1014 59 10000 5.1 180 21:38 03.07.2019
5506 Clouds 32 1014 59 10000 5.1 180 21:20 03.07.2019
5507 Clouds 33 1015 52 10000 6.2 180 20:42 03.07.2019
5508 Clouds 33 1015 52 10000 6.2 180 20:23 03.07.2019
5509 Clouds 32 1015 55 10000 5.1 180 19:50 03.07.2019
5510 Clouds 32 1015 55 10000 5.1 180 19:32 03.07.2019
5511 Clouds 32 1015 55 10000 5.1 180 19:32 03.07.2019
5512 Clouds 32 1016 59 10000 5.1 160 18:48 03.07.2019
5513 Clouds 32 1016 59 10000 5.1 160 18:27 03.07.2019
5514 Clouds 31 1016 62 10000 2.54 135.813 17:55 03.07.2019
5515 Clouds 31 1016 62 10000 2.54 135.813 17:55 03.07.2019
5516 Clouds 31 1016 62 10000 2.54 135.813 17:36 03.07.2019
5517 Clouds 30 1016 66 10000 2.54 135.813 17:18 03.07.2019
5518 Clouds 30 1016 66 10000 2.54 135.813 16:43 03.07.2019
5519 Clouds 30 1016 66 10000 2.54 135.813 16:43 03.07.2019
5520 Clouds 30 1016 66 10000 2.54 135.813 16:20 03.07.2019
5521 Clouds 29 1015 74 10000 2.54 135.813 15:47 03.07.2019
5522 Clouds 29 1015 74 10000 2.54 135.813 15:29 03.07.2019
5523 Clouds 26 1015 94 10000 0.65 10.415 14:53 03.07.2019
5524 -273 0 0 0 0 0 14:26 03.07.2019
5525 Clouds 25 1014 94 10000 2.1 50 13:59 03.07.2019
5526 Clouds 25 1014 94 10000 2.1 50 13:34 03.07.2019
5527 Clouds 24 1013 94 10000 2.1 50 12:54 03.07.2019
5528 Clouds 25 1013 94 10000 2.1 50 12:21 03.07.2019
5529 Clouds 25 1013 94 10000 2.1 70 11:58 03.07.2019
5530 Clouds 25 1013 94 10000 2.1 70 11:39 03.07.2019
5531 Clouds 25 1013 94 10000 2.1 70 11:20 03.07.2019
5532 Clouds 25 1013 94 10000 2.1 60 10:41 03.07.2019
5533 Clouds 25 1013 94 10000 2.1 60 10:22 03.07.2019
5534 Clouds 25 1013 94 10000 2.1 90 09:43 03.07.2019
5535 Clouds 25 1013 94 10000 2.1 90 09:21 03.07.2019
5536 Clouds 25 1014 94 10000 1.27 268.691 08:53 03.07.2019
5537 Clouds 25 1014 94 10000 1.27 268.691 08:32 03.07.2019
5538 Clouds 25 1014 88 10000 1.18 269.854 07:57 03.07.2019
5539 Clouds 25 1014 88 10000 1.18 269.854 07:36 03.07.2019
5540 Clouds 25 1015 88 10000 1.18 269.854 06:52 03.07.2019
5541 Clouds 25 1016 88 10000 0.93 266.717 05:53 03.07.2019
5542 Clouds 25 1016 88 10000 0.93 266.717 05:21 03.07.2019
5543 Clouds 27 1015 78 10000 0.93 266.717 03:50 03.07.2019
5544 Clouds 28 1015 78 10000 1.91 179.071 02:43 03.07.2019
5545 Clear 29 1015 70 10000 2.6 180 01:23 03.07.2019
5546 Clouds 31 1015 55 10000 5.1 180 00:58 03.07.2019
5547 Clouds 31 1015 55 10000 5.1 180 00:36 03.07.2019
5548 Clouds 31 1014 59 10000 5.1 150 23:49 02.07.2019
5549 Clouds 32 1015 55 10000 5.1 170 23:21 02.07.2019
5550 Clouds 32 1015 55 10000 5.1 170 22:59 02.07.2019
5551 Clouds 32 1015 55 10000 5.1 170 22:41 02.07.2019
5552 Clouds 33 1015 52 10000 5.1 180 22:22 02.07.2019
5553 Clouds 33 1015 52 10000 5.1 180 21:56 02.07.2019
5554 Clouds 33 1015 52 10000 5.1 180 21:37 02.07.2019
5555 Clouds 33 1016 52 10000 4.1 180 21:18 02.07.2019
5556 Clouds 33 1016 52 10000 4.1 180 20:41 02.07.2019
5557 Clouds 33 1016 52 10000 4.1 180 20:23 02.07.2019
5558 Clouds 32 1016 59 10000 5.1 190 19:45 02.07.2019
5559 Clouds 32 1016 59 10000 5.1 190 19:25 02.07.2019
5560 Clouds 32 1016 59 10000 4.26 155.107 19:00 02.07.2019
5561 Clouds 32 1016 59 10000 4.26 155.107 18:41 02.07.2019
5562 Clouds 32 1016 59 10000 3.09 152.605 18:18 02.07.2019
5563 Clouds 31 1016 62 10000 2.6 180 17:40 02.07.2019
5564 Clouds 30 1017 62 10000 3.1 180 17:20 02.07.2019
5565 Clouds 30 1017 62 10000 3.1 180 17:20 02.07.2019
5566 Clouds 31 1017 62 10000 3.1 180 16:46 02.07.2019
5567 Clouds 31 1017 62 10000 3.1 180 16:28 02.07.2019
5568 Clouds 28 1018 74 10000 3.09 152.605 15:44 02.07.2019
5569 Clouds 29 1018 74 10000 1.04 234.59 15:24 02.07.2019
5570 Clouds 26 1016 88 10000 1.04 234.59 14:50 02.07.2019
5571 Clouds 26 1016 88 10000 1.04 234.59 14:32 02.07.2019
5572 Clouds 25 1015 94 10000 1.5 50 13:46 02.07.2019
5573 Clouds 25 1015 94 10000 1.5 50 13:21 02.07.2019
5574 Clouds 25 1015 94 10000 1.5 50 12:59 02.07.2019
5575 Clouds 25 1015 94 10000 1.5 70 12:40 02.07.2019
5576 Clouds 25 1015 94 10000 1.5 70 12:18 02.07.2019
5577 Clouds 24 1015 94 10000 1.5 60 11:42 02.07.2019
5578 Clouds 24 1015 94 10000 1.5 60 11:21 02.07.2019
5579 Clouds 25 1015 94 10000 1.5 60 10:45 02.07.2019
5580 Clouds 25 1015 94 10000 1.5 60 10:24 02.07.2019
5581 Clouds 25 1015 94 10000 1.5 90 09:44 02.07.2019
5582 Clouds 25 1016 88 10000 2.1 60 09:21 02.07.2019
5583 Clouds 25 1016 88 10000 2.1 60 08:42 02.07.2019
5584 Clouds 25 1016 88 10000 2.1 60 08:20 02.07.2019
5585 Clouds 26 1017 83 10000 2.1 60 07:53 02.07.2019
5586 Clouds 26 1017 83 10000 2.1 60 07:21 02.07.2019
5587 Clouds 26 1017 83 10000 2.1 60 07:21 02.07.2019
5588 Clouds 27 1017 83 10000 2.1 60 06:47 02.07.2019
5589 Clouds 27 1017 83 10000 2.1 60 06:25 02.07.2019
5590 Clouds 26 1017 88 10000 3.1 120 04:39 02.07.2019
5591 Clouds 29 1016 74 10000 5.1 160 01:27 02.07.2019
5592 Clouds 31 1015 62 10000 5.1 180 23:47 01.07.2019
5593 Clouds 31 1015 62 10000 5.1 180 23:20 01.07.2019
5594 Clouds 31 1015 62 10000 5.1 210 22:45 01.07.2019
5595 Clouds 31 1015 62 10000 5.1 210 22:27 01.07.2019
5596 Clouds 32 1016 59 10000 2.6 160 21:47 01.07.2019
5597 Clouds 32 1016 59 10000 2.6 160 21:26 01.07.2019
5598 Clouds 32 1017 55 10000 4.58 150.235 20:51 01.07.2019
5599 Clouds 32 1017 55 10000 4.58 150.235 20:51 01.07.2019
5600 Clouds 32 1017 55 10000 4.58 150.235 20:22 01.07.2019
5601 Clouds 32 1017 55 10000 4.58 150.235 20:22 01.07.2019
5602 Clouds 32 1017 55 10000 4.58 150.235 19:58 01.07.2019
5603 Clouds 32 1017 55 10000 4.58 150.235 19:40 01.07.2019
5604 Clouds 32 1017 55 10000 4.58 150.235 19:21 01.07.2019
5605 Clouds 31 1018 62 10000 4.58 150.235 18:52 01.07.2019
5606 Clouds 31 1018 62 10000 4.58 150.235 18:30 01.07.2019
5607 Clouds 31 1019 62 10000 2.13 86.932 17:57 01.07.2019
5608 Clouds 31 1019 62 10000 2.13 86.932 17:57 01.07.2019
5609 Clouds 31 1019 62 10000 2.13 86.932 17:39 01.07.2019
5610 Clouds 31 1019 62 10000 2.13 86.932 17:19 01.07.2019
5611 Clouds 30 1018 66 10000 3.1 90 16:46 01.07.2019
5612 Clouds 30 1018 66 10000 3.1 90 16:25 01.07.2019
5613 Clouds 28 1018 78 10000 2.13 86.932 15:47 01.07.2019
5614 Clouds 28 1018 78 10000 2.13 86.932 15:28 01.07.2019
5615 Clouds 26 1018 88 10000 1.49 7.727 14:57 01.07.2019
5616 Clouds 27 1018 88 10000 1.49 7.727 14:37 01.07.2019
5617 Clouds 27 1018 88 10000 1.49 7.727 14:18 01.07.2019
5618 Clouds 26 1017 88 10000 1.49 7.727 13:39 01.07.2019
5619 Clouds 26 1017 88 10000 1.48 10.322 13:20 01.07.2019
5620 Clouds 25 1016 94 10000 1.48 10.322 12:40 01.07.2019
5621 Clouds 25 1016 94 10000 1.48 10.322 12:40 01.07.2019
5622 Clouds 25 1016 94 10000 1.07 332.693 12:22 01.07.2019
5623 Clouds 25 1016 94 10000 1.07 332.693 11:57 01.07.2019
5624 Clouds 25 1016 94 10000 1.07 332.693 11:38 01.07.2019
5625 Clouds 25 1016 94 10000 1.07 332.693 11:18 01.07.2019
5626 Clouds 26 1016 88 10000 1.07 332.693 10:42 01.07.2019
5627 Clouds 26 1016 88 10000 1.07 332.693 10:20 01.07.2019
5628 Clouds 26 1016 94 10000 2.1 30 09:42 01.07.2019
5629 Clouds 26 1016 94 10000 2.1 30 09:24 01.07.2019
5630 Clouds 26 1017 88 10000 2.1 40 08:44 01.07.2019
5631 Clouds 26 1017 88 10000 2.1 40 08:25 01.07.2019
5632 Clouds 26 1017 83 10000 2.1 50 07:34 01.07.2019
5633 Clouds 27 1017 78 10000 2.1 60 06:48 01.07.2019
5634 Clouds 28 1017 74 10000 2.1 90 04:39 01.07.2019
5635 Clouds 30 1016 66 10000 5.1 180 00:55 01.07.2019
5636 Clouds 30 1016 66 10000 5.1 180 00:34 01.07.2019
5637 Clouds 30 1016 66 10000 5.1 180 00:34 01.07.2019
5638 Clouds 31 1015 66 10000 5.1 180 23:59 30.06.2019
5639 Clouds 32 1015 66 10000 5.1 180 23:25 30.06.2019
5640 Clouds 32 1015 66 10000 5.1 180 23:25 30.06.2019
5641 Clouds 32 1016 59 10000 5.1 180 22:55 30.06.2019
5642 Clouds 32 1016 59 10000 5.1 180 22:23 30.06.2019
5643 Clouds 33 1017 55 10000 6.7 180 21:58 30.06.2019
5644 Clouds 33 1017 55 10000 6.7 180 21:40 30.06.2019
5645 Clouds 33 1017 55 10000 6.7 180 21:18 30.06.2019
5646 Clouds 33 1017 55 10000 5.1 180 20:41 30.06.2019
5647 Clouds 33 1017 55 10000 5.1 180 20:23 30.06.2019
5648 Clouds 33 1018 59 10000 3.6 130 19:51 30.06.2019
5649 Clouds 32 1018 59 10000 3.6 130 19:25 30.06.2019
5650 Clouds 32 1019 62 10000 5.1 10 18:48 30.06.2019
5651 Clouds 32 1019 62 10000 5.1 10 18:22 30.06.2019
5652 Clouds 31 1019 66 10000 4.1 90 17:41 30.06.2019
5653 Clouds 31 1019 66 10000 4.1 90 17:19 30.06.2019
5654 Clouds 31 1018 70 10000 3.1 60 16:52 30.06.2019
5655 Clouds 30 1018 70 10000 3.1 60 16:33 30.06.2019
5656 Clouds 29 1019 83 10000 2.79 68.279 15:55 30.06.2019
5657 Clouds 29 1019 83 10000 2.79 68.279 15:36 30.06.2019
5658 Clouds 29 1019 83 10000 2.63 18.09 15:18 30.06.2019
5659 Clouds 27 1018 94 10000 2.63 18.09 14:43 30.06.2019
5660 Clouds 27 1018 94 10000 2.63 18.09 14:22 30.06.2019
5661 Clouds 26 1017 88 10000 2.1 20 13:42 30.06.2019
5662 Clouds 26 1017 88 10000 2.1 20 13:20 30.06.2019
5663 Clouds 25 1016 94 10000 2.1 20 12:45 30.06.2019
5664 Clouds 25 1016 94 10000 2.1 20 12:24 30.06.2019
5665 Clouds 25 1016 88 10000 2.1 40 11:47 30.06.2019
5666 Clouds 25 1016 88 10000 2.1 40 11:22 30.06.2019
5667 Clouds 25 1016 88 10000 2.1 30 10:56 30.06.2019
5668 Clouds 26 1016 88 10000 2.1 30 10:37 30.06.2019
5669 Clouds 25 1016 88 10000 2.1 30 10:18 30.06.2019
5670 Clouds 25 1016 88 10000 2.1 30 10:18 30.06.2019
5671 Clouds 26 1016 83 10000 2.1 40 09:43 30.06.2019
5672 Clouds 26 1016 83 10000 2.1 40 09:22 30.06.2019
5673 Clouds 26 1017 83 10000 2.1 30 08:47 30.06.2019
5674 Clouds 26 1017 83 10000 2.1 30 08:27 30.06.2019
5675 Clouds 26 1017 83 10000 2.1 60 07:54 30.06.2019
5676 Clouds 26 1017 83 10000 2.1 60 07:27 30.06.2019
5677 Clouds 27 1017 74 10000 2.1 60 06:40 30.06.2019
5678 Clouds 28 1017 74 10000 3.1 70 05:33 30.06.2019
5679 Clouds 29 1017 74 10000 2.1 110 02:50 30.06.2019
5680 Clouds 30 1016 74 10000 3.1 180 01:27 30.06.2019
5681 Clouds 31 1016 66 10000 4.6 180 00:26 30.06.2019
5682 Clouds 32 1015 59 10000 5.1 180 23:53 29.06.2019
5683 Clouds 32 1015 59 10000 5.1 180 23:24 29.06.2019
5684 Clouds 32 1016 59 10000 5.1 180 22:56 29.06.2019
5685 Clouds 32 1016 59 10000 5.1 180 22:25 29.06.2019
5686 Clouds 33 1017 59 10000 5.1 180 21:59 29.06.2019
5687 Clouds 33 1017 59 10000 5.1 180 21:40 29.06.2019
5688 Clouds 33 1017 59 10000 5.1 180 21:20 29.06.2019
5689 Clouds 33 1017 59 10000 5.1 100 20:40 29.06.2019
5690 Clouds 33 1017 59 10000 5.1 100 20:22 29.06.2019
5691 Clouds 33 1018 59 10000 2.1 110 19:48 29.06.2019
5692 Clouds 33 1018 59 10000 2.1 110 19:23 29.06.2019
5693 Clouds 32 1019 62 10000 2.1 40 18:49 29.06.2019
5694 Clouds 32 1019 62 10000 2.1 40 18:25 29.06.2019
5695 Clouds 31 1019 66 10000 3.6 90 17:42 29.06.2019
5696 Clouds 31 1019 66 10000 3.6 90 17:22 29.06.2019
5697 Clouds 30 1018 74 10000 3.1 50 16:54 29.06.2019
5698 Clouds 30 1018 74 10000 3.1 50 16:29 29.06.2019
5699 Clouds 29 1018 83 10000 4.1 40 15:42 29.06.2019
5700 Clouds 29 1018 83 10000 4.1 40 15:23 29.06.2019
5701 Clouds 28 1017 83 10000 3.1 60 14:43 29.06.2019
5702 Clouds 27 1017 83 10000 3.1 60 14:25 29.06.2019
5703 Thunderstorm 25 1017 88 10000 2.1 20 13:46 29.06.2019
5704 Thunderstorm 25 1017 88 10000 2.1 20 13:26 29.06.2019
5705 Clouds 24 1016 88 10000 2.1 40 12:49 29.06.2019
5706 Clouds 25 1016 88 10000 2.1 40 12:31 29.06.2019
5707 Clouds 24 1015 88 10000 2.1 20 11:53 29.06.2019
5708 Clouds 25 1015 88 10000 2.1 20 11:31 29.06.2019
5709 Clouds 24 1015 88 10000 2.1 50 10:53 29.06.2019
5710 Clouds 25 1015 88 10000 2.1 50 10:32 29.06.2019
5711 Clouds 25 1016 83 10000 2.1 30 09:59 29.06.2019
5712 Clouds 25 1016 83 10000 2.1 30 09:36 29.06.2019
5713 Clouds 25 1017 83 10000 2.1 40 08:41 29.06.2019
5714 Clouds 26 1017 78 10000 2.1 30 07:46 29.06.2019
5715 Clouds 26 1017 78 10000 2.1 30 07:21 29.06.2019
5716 Clouds 26 1018 78 10000 2.1 40 06:43 29.06.2019
5717 Clouds 26 1018 78 10000 2.1 40 06:21 29.06.2019
5718 Clouds 28 1016 74 10000 4.1 130 02:30 29.06.2019
5719 Clouds 30 1015 66 10000 5.1 180 00:57 29.06.2019
5720 Clouds 30 1015 66 10000 5.1 180 00:23 29.06.2019
5721 Clouds 31 1015 70 10000 5.1 180 23:26 28.06.2019
5722 Clouds 31 1015 70 10000 5.1 180 22:53 28.06.2019
5723 Clouds 31 1015 70 10000 5.1 180 22:33 28.06.2019
5724 Clouds 32 1016 62 10000 5.1 180 21:48 28.06.2019
5725 Clouds 32 1016 62 10000 5.1 180 21:21 28.06.2019
5726 Clouds 32 1016 62 10000 5.1 100 20:46 28.06.2019
5727 Clouds 32 1016 62 10000 5.1 100 20:26 28.06.2019
5728 Clouds 32 1017 62 10000 5.1 90 19:53 28.06.2019
5729 Clouds 32 1017 62 10000 5.1 90 19:28 28.06.2019
5730 -273 0 0 0 0 0 18:56 28.06.2019
5731 Clouds 31 1018 66 10000 5.1 90 18:38 28.06.2019
5732 Clouds 31 1018 66 10000 5.1 90 18:20 28.06.2019
5733 Clouds 30 1018 70 10000 5.1 90 17:29 28.06.2019
5734 Clouds 30 1018 74 10000 4.1 90 16:50 28.06.2019
5735 Clouds 30 1018 74 10000 4.1 90 16:27 28.06.2019
5736 Clouds 29 1018 74 10000 2.76 93.404 15:48 28.06.2019
5737 Clouds 28 1018 74 10000 1.86 351.472 15:23 28.06.2019
5738 Clouds 26 1017 88 10000 1.86 351.472 14:45 28.06.2019
5739 Clouds 26 1017 88 10000 1.86 351.472 14:23 28.06.2019
5740 Clouds 25 1016 88 10000 2.1 30 13:58 28.06.2019
5741 Clouds 25 1016 88 10000 2.1 30 13:58 28.06.2019
5742 Clouds 25 1016 88 10000 2.1 30 13:39 28.06.2019
5743 Clouds 25 1016 88 10000 2.1 30 13:19 28.06.2019
5744 Clouds 24 1015 94 10000 2.1 30 12:45 28.06.2019
5745 Clouds 23 1015 94 10000 2.1 20 11:54 28.06.2019
5746 Clouds 23 1015 94 10000 2.1 20 11:25 28.06.2019
5747 Clouds 23 1015 94 10000 2.1 20 10:46 28.06.2019
5748 Clouds 23 1015 94 10000 2.1 20 10:21 28.06.2019
5749 Clouds 24 1015 88 10000 2.1 30 09:49 28.06.2019
5750 Clouds 24 1015 88 10000 2.1 30 09:29 28.06.2019
5751 Clouds 24 1016 94 10000 2.1 30 08:47 28.06.2019
5752 Clouds 24 1016 94 10000 2.1 30 08:26 28.06.2019
5753 Clouds 24 1016 94 10000 2.1 30 07:47 28.06.2019
5754 Clouds 24 1016 94 10000 2.1 30 07:28 28.06.2019
5755 Clouds 24 1017 94 10000 2.1 20 06:21 28.06.2019
5756 Clouds 26 1016 78 10000 1.59 65.708 01:23 28.06.2019
5757 Clouds 27 1015 74 10000 4.1 50 00:39 28.06.2019
5758 Clouds 26 1015 94 10000 2.36 109.792 23:49 27.06.2019
5759 Clouds 26 1015 94 10000 2.36 109.792 23:25 27.06.2019
5760 Clouds 28 1014 74 10000 5.1 130 22:56 27.06.2019
5761 Clouds 28 1014 74 10000 5.1 130 22:37 27.06.2019
5762 Thunderstorm 27 1014 74 10000 5.1 130 22:18 27.06.2019
5763 Thunderstorm 28 1016 94 7000 2.36 109.792 21:47 27.06.2019
5764 Thunderstorm 28 1016 94 7000 2.36 109.792 21:29 27.06.2019
5765 Thunderstorm 28 1016 94 7000 3.49 148.123 20:55 27.06.2019
5766 Thunderstorm 29 1016 94 7000 3.49 148.123 20:36 27.06.2019
5767 Thunderstorm 29 1016 94 7000 3.49 148.123 20:18 27.06.2019
5768 Thunderstorm 31 1017 74 6000 3.1 30 19:41 27.06.2019
5769 Thunderstorm 31 1017 74 6000 3.1 30 19:23 27.06.2019
5770 Rain 30 1018 79 8000 3.49 148.123 18:42 27.06.2019
5771 Rain 30 1018 79 8000 2.14 84.519 18:19 27.06.2019
5772 Clouds 31 1017 62 10000 4.1 120 17:43 27.06.2019
5773 Clouds 31 1017 62 10000 4.1 120 17:22 27.06.2019
5774 Clouds 30 1017 70 10000 2.6 90 16:40 27.06.2019
5775 Clouds 30 1017 70 10000 2.6 90 16:19 27.06.2019
5776 Clouds 30 1017 70 10000 2.6 90 16:19 27.06.2019
5777 Clouds 29 1018 70 10000 2.14 84.519 15:55 27.06.2019
5778 Clouds 29 1018 70 10000 2.14 84.519 15:35 27.06.2019
5779 Clouds 27 1017 88 10000 2.3 2.921 14:58 27.06.2019
5780 Clouds 26 1017 88 10000 2.3 2.921 14:36 27.06.2019
5781 Clouds 26 1017 88 10000 2.3 2.921 14:18 27.06.2019
5782 Clouds 25 1016 94 10000 1.5 10 13:42 27.06.2019
5783 Clouds 25 1016 94 10000 1.5 10 13:24 27.06.2019
5784 Clouds 24 1015 88 10000 1.5 40 12:43 27.06.2019
5785 Clouds 25 1015 88 10000 1.5 40 12:23 27.06.2019
5786 Clouds 24 1015 88 10000 2.1 30 11:45 27.06.2019
5787 Clouds 25 1015 88 10000 2.1 30 11:22 27.06.2019
5788 Clouds 24 1015 88 10000 2.1 20 10:57 27.06.2019
5789 Clouds 25 1015 88 10000 2.1 20 10:36 27.06.2019
5790 Clouds 25 1015 88 10000 2.1 20 10:18 27.06.2019
5791 Clouds 25 1015 94 10000 2.6 10 09:38 27.06.2019
5792 Clouds 25 1015 94 10000 2.6 10 09:20 27.06.2019
5793 Clouds 25 1015 88 10000 2.1 360 08:46 27.06.2019
5794 Clouds 25 1015 88 10000 2.1 360 08:46 27.06.2019
5795 Clouds 25 1015 88 10000 2.1 360 08:46 27.06.2019
5796 Clouds 25 1015 88 10000 2.1 360 08:26 27.06.2019
5797 Clouds 25 1016 88 10000 2.6 20 07:40 27.06.2019
5798 Clouds 25 1016 88 10000 2.6 30 06:56 27.06.2019
5799 Clouds 25 1016 88 10000 2.6 30 06:29 27.06.2019
5800 Clouds 26 1016 78 10000 2.6 30 03:50 27.06.2019
5801 Clouds 26 1015 78 10000 2.1 20 02:41 27.06.2019
5802 Clouds 27 1016 83 10000 1.84 98.543 01:18 27.06.2019
5803 Clouds 28 1016 78 10000 1.84 98.543 00:47 27.06.2019
5804 Clouds 28 1016 78 10000 2.34 120.641 00:25 27.06.2019
5805 Clouds 29 1015 66 10000 2.6 40 23:45 26.06.2019
5806 Clouds 29 1015 66 10000 2.6 40 23:22 26.06.2019
5807 Clouds 29 1015 66 10000 2.6 40 23:22 26.06.2019
5808 Clouds 30 1016 62 10000 5.7 120 22:55 26.06.2019
5809 Clouds 30 1016 62 10000 5.7 120 22:37 26.06.2019
5810 Clouds 31 1016 62 10000 5.7 120 22:18 26.06.2019
5811 Clouds 31 1016 59 10000 6.2 180 21:41 26.06.2019
5812 Clouds 31 1016 59 10000 6.2 180 21:19 26.06.2019
5813 Clouds 32 1016 52 10000 5.1 180 20:50 26.06.2019
5814 Clouds 33 1016 52 10000 5.1 180 20:30 26.06.2019
5815 Clouds 31 1016 58 10000 3.1 130 19:57 26.06.2019
5816 Clouds 31 1016 58 10000 3.1 130 19:38 26.06.2019
5817 Clouds 31 1016 58 10000 3.1 130 19:19 26.06.2019
5818 Clouds 31 1018 62 10000 5.1 90 18:44 26.06.2019
5819 Clouds 31 1018 62 10000 5.1 90 18:21 26.06.2019
5820 Clouds 31 1018 66 10000 4.1 90 17:47 26.06.2019
5821 Clouds 30 1018 66 10000 4.1 90 17:27 26.06.2019
5822 Clouds 30 1018 66 10000 4.1 90 17:27 26.06.2019
5823 Clouds 31 1018 74 10000 2.6 160 16:51 26.06.2019
5824 Clouds 30 1018 74 10000 2.6 160 16:29 26.06.2019
5825 Clouds 28 1018 78 10000 2.6 30 15:53 26.06.2019
5826 Clouds 28 1018 78 10000 2.6 30 15:28 26.06.2019
5827 Clouds 26 1017 94 10000 1.02 352.22 14:43 26.06.2019
5828 Clouds 26 1017 94 10000 1.02 352.22 14:23 26.06.2019
5829 Clouds 25 1016 94 10000 2.1 40 13:46 26.06.2019
5830 Clouds 25 1016 94 10000 2.1 40 13:23 26.06.2019
5831 Clouds 25 1016 94 10000 1.44 343.545 12:57 26.06.2019
5832 Clouds 25 1016 94 10000 1.44 343.545 12:57 26.06.2019
5833 Clouds 25 1016 94 10000 1.44 343.545 12:39 26.06.2019
5834 Clouds 25 1016 94 10000 1.6 331.578 12:19 26.06.2019
5835 Clouds 25 1016 94 10000 2.1 40 11:25 26.06.2019
5836 Clouds 25 1016 88 10000 2.1 30 10:51 26.06.2019
5837 Clouds 25 1016 88 10000 2.1 30 10:31 26.06.2019
5838 Clouds 25 1016 94 10000 2.1 30 09:59 26.06.2019
5839 Clouds 25 1016 94 10000 2.1 30 09:30 26.06.2019
5840 Clouds 26 1016 88 10000 2.1 20 08:55 26.06.2019
5841 Clouds 26 1016 88 10000 2.1 20 08:22 26.06.2019
5842 Clouds 26 1017 88 10000 2.1 20 07:57 26.06.2019
5843 Clouds 26 1017 88 10000 2.1 20 07:38 26.06.2019
5844 Clouds 26 1017 83 10000 2.1 50 06:33 26.06.2019
5845 Thunderstorm 28 1015 78 10000 1.71 45.9 01:59 26.06.2019
5846 Thunderstorm 28 1015 78 10000 3.1 40 00:35 26.06.2019
5847 Thunderstorm 29 1014 70 10000 4.6 40 23:52 25.06.2019
5848 Thunderstorm 28 1014 70 10000 4.6 40 23:32 25.06.2019
5849 Thunderstorm 29 1016 66 10000 4.1 140 22:59 25.06.2019
5850 Thunderstorm 29 1016 66 10000 4.1 140 22:41 25.06.2019
5851 Thunderstorm 29 1016 66 10000 4.1 140 22:22 25.06.2019
5852 Thunderstorm 31 1016 59 10000 5.1 180 21:46 25.06.2019
5853 Thunderstorm 32 1016 59 10000 5.1 180 21:25 25.06.2019
5854 Clouds 33 1016 55 10000 5.1 180 20:49 25.06.2019
5855 Clouds 33 1016 55 10000 5.1 180 20:49 25.06.2019
5856 Clouds 33 1016 55 10000 5.1 180 20:49 25.06.2019
5857 Clouds 33 1016 55 10000 5.1 180 20:49 25.06.2019
5858 Clouds 33 1016 55 10000 5.1 180 20:24 25.06.2019
5859 Clouds 33 1016 55 10000 5.1 180 20:24 25.06.2019
5860 Clouds 33 1016 59 10000 3.1 90 19:56 25.06.2019
5861 Clouds 33 1016 59 10000 3.1 90 19:56 25.06.2019
5862 Clouds 33 1016 59 10000 3.1 90 19:56 25.06.2019
5863 Clouds 33 1016 59 10000 3.1 90 19:56 25.06.2019
5864 Clouds 33 1016 59 10000 3.1 90 19:56 25.06.2019
5865 Clouds 31 1016 59 10000 3.1 90 19:37 25.06.2019
5866 Clouds 31 1016 59 10000 3.1 90 19:19 25.06.2019
5867 Clouds 31 1015 66 10000 2.1 120 18:42 25.06.2019
5868 Clouds 31 1015 66 10000 2.1 120 18:23 25.06.2019
5869 -273 0 0 0 0 0 17:44 25.06.2019
5870 -273 0 0 0 0 0 17:24 25.06.2019
5871 -273 0 0 0 0 0 17:24 25.06.2019
5872 Clouds 30 1017 66 10000 2.38 48.56 17:23 25.06.2019
5873 Clouds 30 1017 66 10000 2.38 48.56 16:44 25.06.2019
5874 Clouds 30 1017 66 10000 2.38 48.56 16:25 25.06.2019
5875 Clouds 28 1016 78 10000 2.38 48.56 15:43 25.06.2019
5876 Clouds 28 1016 78 10000 1.77 356.405 15:25 25.06.2019
5877 Clouds 28 1016 78 10000 1.77 356.405 15:25 25.06.2019
5878 Clouds 27 1016 88 10000 1.77 356.405 14:57 25.06.2019
5879 Clouds 27 1016 88 10000 1.77 356.405 14:38 25.06.2019
5880 Clouds 27 1016 88 10000 1.77 356.405 14:20 25.06.2019
5881 Clouds 27 1016 83 0 0.89 16 13:41 25.06.2019
5882 Clouds 26 1015 88 10000 1.5 360 13:19 25.06.2019
5883 Clouds 25 1015 88 10000 1.5 360 12:41 25.06.2019
5884 Clouds 25 1015 88 10000 1.5 360 12:23 25.06.2019
5885 Clouds 24 1015 88 10000 2.1 20 11:44 25.06.2019
5886 Clouds 25 1015 88 10000 2.1 20 11:23 25.06.2019
5887 Clouds 25 1014 88 10000 2.6 40 10:48 25.06.2019
5888 Clouds 25 1014 88 10000 2.6 40 10:24 25.06.2019
5889 Clouds 25 1015 94 10000 2.1 60 09:59 25.06.2019
5890 Clouds 26 1015 94 10000 2.1 60 09:38 25.06.2019
5891 Clouds 26 1015 94 10000 2.1 60 09:20 25.06.2019
5892 Clouds 26 1015 88 10000 2.1 60 08:48 25.06.2019
5893 Clouds 26 1015 88 10000 2.1 60 08:28 25.06.2019
5894 Clouds 26 1016 88 10000 2.1 60 07:43 25.06.2019
5895 Clouds 26 1016 88 10000 2.6 70 06:59 25.06.2019
5896 Clouds 27 1017 80 0 1.25 1.833 06:40 25.06.2019
5897 Clouds 27 1016 83 10000 1.5 0 04:24 25.06.2019
5898 Clouds 28 1015 78 10000 2.6 100 02:23 25.06.2019
5899 Clouds 29 1014 74 10000 3.1 180 00:38 25.06.2019
5900 Clouds 29 1014 74 10000 3.1 180 00:18 25.06.2019
5901 Clouds 30 1014 70 10000 3.06 158.108 23:42 24.06.2019
5902 Clouds 29 1014 70 10000 3.06 158.108 23:23 24.06.2019
5903 Clouds 30 1014 66 10000 5.1 180 22:44 24.06.2019
5904 Clouds 30 1014 66 10000 5.1 180 22:19 24.06.2019
5905 Clouds 31 1015 55 10000 5.1 180 21:41 24.06.2019
5906 Clouds 31 1015 55 10000 5.1 180 21:19 24.06.2019
5907 Clouds 31 1015 55 10000 6.2 180 20:57 24.06.2019
5908 Clouds 31 1015 55 10000 6.2 180 20:39 24.06.2019
5909 Clouds 31 1015 55 10000 6.2 180 20:20 24.06.2019
5910 Clouds 30 1016 59 10000 5.1 180 19:46 24.06.2019
5911 Clouds 30 1016 59 10000 5.1 180 19:21 24.06.2019
5912 Clouds 30 1016 59 10000 5.1 130 18:47 24.06.2019
5913 Clouds 30 1016 59 10000 5.1 130 18:27 24.06.2019
5914 Clouds 29 1017 66 10000 4.1 90 17:47 24.06.2019
5915 Clouds 30 1017 66 10000 4.1 90 17:27 24.06.2019
5916 Clouds 30 1017 66 10000 2.6 90 16:48 24.06.2019
5917 Clouds 29 1017 66 10000 2.6 90 16:21 24.06.2019
5918 -273 0 0 0 0 0 15:57 24.06.2019
5919 Clouds 28 1017 78 10000 2.28 127.448 15:38 24.06.2019
5920 Clouds 28 1017 78 10000 1.68 357.54 15:19 24.06.2019
5921 Clouds 27 1016 83 10000 1.68 357.54 14:33 24.06.2019
5922 Clouds 26 1015 94 10000 1.68 357.54 13:49 24.06.2019
5923 Clouds 26 1015 94 10000 1.68 357.54 13:49 24.06.2019
5924 Clouds 25 1015 94 10000 1.83 3.633 13:24 24.06.2019
5925 Clouds 24 1015 94 10000 2.1 40 12:44 24.06.2019
5926 Clouds 24 1015 94 10000 2.1 40 12:21 24.06.2019
5927 Clouds 24 1014 94 10000 2.1 40 11:47 24.06.2019
5928 Clouds 24 1014 94 10000 2.1 40 11:28 24.06.2019
5929 Clouds 24 1015 88 10000 2.1 30 10:58 24.06.2019
5930 Clouds 24 1015 88 10000 2.1 30 10:39 24.06.2019
5931 Clouds 24 1015 88 10000 2.1 30 10:20 24.06.2019
5932 Clouds 25 1015 94 10000 2.1 60 09:44 24.06.2019
5933 Clouds 25 1015 94 10000 2.1 60 09:19 24.06.2019
5934 Clouds 25 1016 88 10000 2.1 90 08:50 24.06.2019
5935 Clouds 25 1016 88 10000 2.1 90 08:20 24.06.2019
5936 Clouds 25 1016 88 10000 2.1 30 07:42 24.06.2019
5937 Clouds 25 1016 88 10000 2.1 30 07:23 24.06.2019
5938 Clouds 27 1016 83 10000 2.1 40 06:25 24.06.2019
5939 Clouds 26 1017 83 10000 2.1 60 05:52 24.06.2019
5940 Clouds 27 1016 83 10000 2.1 90 04:58 24.06.2019
5941 Clouds 27 1016 83 10000 2.1 130 03:54 24.06.2019
5942 Clouds 27 1016 78 10000 2.1 120 02:48 24.06.2019
5943 Clouds 28 1016 74 10000 3.1 150 01:55 24.06.2019
5944 Clouds 28 1016 74 10000 3.1 150 01:34 24.06.2019
5945 Clouds 29 1016 70 10000 4.1 180 00:55 24.06.2019
5946 Clouds 29 1016 70 10000 4.1 180 00:23 24.06.2019
5947 Clouds 30 1016 62 10000 6.2 180 23:58 23.06.2019
5948 Clouds 30 1016 62 10000 6.2 180 23:40 23.06.2019
5949 Clouds 30 1016 62 10000 6.2 180 23:20 23.06.2019
5950 Clouds 30 1016 62 10000 5.1 180 22:41 23.06.2019
5951 Clouds 30 1016 62 10000 5.1 180 22:20 23.06.2019
5952 Clouds 31 1017 59 10000 5.1 180 21:42 23.06.2019
5953 Clouds 31 1017 59 10000 5.1 180 21:22 23.06.2019
5954 Clouds 31 1017 59 10000 5.1 180 20:51 23.06.2019
5955 Clouds 31 1017 59 10000 5.1 180 20:31 23.06.2019
5956 Clouds 31 1018 62 10000 3.1 160 19:55 23.06.2019
5957 Clouds 31 1018 62 10000 3.1 160 19:37 23.06.2019
5958 Clouds 31 1018 62 10000 3.1 160 19:19 23.06.2019
5959 Clouds 30 1019 62 10000 3.1 160 18:43 23.06.2019
5960 Clouds 30 1019 62 10000 3.1 160 18:19 23.06.2019
5961 Clouds 30 1019 66 10000 2.64 120.741 17:41 23.06.2019
5962 Clouds 30 1019 66 10000 2.64 120.741 17:22 23.06.2019
5963 Clouds 29 1019 74 10000 2.64 120.741 16:45 23.06.2019
5964 Clouds 29 1019 74 10000 2.64 120.741 16:25 23.06.2019
5965 Clouds 28 1018 78 10000 2.64 120.741 15:45 23.06.2019
5966 Clouds 28 1018 78 10000 1.52 355.365 15:25 23.06.2019
5967 Clouds 26 1018 88 10000 1.52 355.365 14:59 23.06.2019
5968 Clouds 26 1018 88 10000 1.52 355.365 14:38 23.06.2019
5969 Clouds 26 1018 88 10000 1.52 355.365 14:20 23.06.2019
5970 Clouds 26 1017 94 10000 2.1 20 13:42 23.06.2019
5971 Clouds 26 1017 94 10000 2.1 20 13:21 23.06.2019
5972 Clouds 25 1017 94 10000 2.1 20 12:56 23.06.2019
5973 Clouds 25 1017 94 10000 2.1 20 12:37 23.06.2019
5974 Clouds 24 1017 94 10000 2.1 20 12:18 23.06.2019
5975 Clouds 25 1017 94 10000 2.1 60 11:45 23.06.2019
5976 Clouds 25 1017 94 10000 2.1 60 11:25 23.06.2019
5977 Clouds 25 1017 94 10000 2.1 70 10:48 23.06.2019
5978 Clouds 25 1017 94 10000 1.07 6.009 10:21 23.06.2019
5979 Clouds 24 1017 94 10000 1.07 6.009 09:57 23.06.2019
5980 Clouds 26 1017 94 10000 0.91 343.18 09:22 23.06.2019
5981 Clouds 26 1018 94 10000 0.91 343.18 08:46 23.06.2019
5982 Clouds 26 1018 94 10000 1.27 345.953 08:27 23.06.2019
5983 Clouds 26 1018 88 10000 2.1 40 07:55 23.06.2019
5984 Clouds 27 1018 88 10000 2.1 40 07:25 23.06.2019
5985 Clouds 26 1019 88 10000 1.27 345.953 06:59 23.06.2019
5986 Clouds 26 1019 88 10000 1.27 345.953 06:40 23.06.2019
5987 Clouds 27 1019 83 10000 0.59 306.364 04:53 23.06.2019
5988 Clouds 28 1018 78 10000 2.1 130 02:32 23.06.2019
5989 Clouds 28 1018 78 10000 1.37 164.837 01:39 23.06.2019
5990 Clouds 29 1017 74 10000 4.1 180 00:47 23.06.2019
5991 Clouds 29 1017 74 10000 4.1 180 00:26 23.06.2019
5992 Clouds 30 1016 66 10000 5.1 180 23:42 22.06.2019
5993 Clouds 30 1016 66 10000 5.1 180 23:24 22.06.2019
5994 Clouds 30 1017 62 10000 3.6 150 22:46 22.06.2019
5995 Clouds 31 1017 62 10000 3.6 150 22:24 22.06.2019
5996 Clouds 31 1018 59 10000 5.1 180 21:42 22.06.2019
5997 Clouds 31 1018 59 10000 5.1 180 21:20 22.06.2019
5998 Clouds 31 1018 59 10000 4.1 180 20:53 22.06.2019
5999 Clouds 33 1018 59 10000 4.1 180 20:27 22.06.2019
6000 Clouds 32 1019 62 10000 4.31 146.122 19:58 22.06.2019
6001 Clouds 32 1019 62 10000 4.31 146.122 19:39 22.06.2019
6002 Clouds 32 1019 62 10000 4.31 146.122 19:19 22.06.2019
6003 Clouds 31 1020 66 10000 3.1 160 18:41 22.06.2019
6004 Clouds 30 1020 66 10000 3.1 160 18:19 22.06.2019
6005 Clouds 30 1020 66 10000 1.82 100.848 17:40 22.06.2019
6006 Clouds 30 1020 66 10000 1.82 100.848 17:22 22.06.2019
6007 Clouds 29 1020 74 10000 1.82 100.848 16:39 22.06.2019
6008 Clouds 29 1020 74 10000 1.82 100.848 16:21 22.06.2019
6009 Clouds 28 1021 83 10000 1.82 100.848 15:42 22.06.2019
6010 Clouds 28 1021 83 10000 1.33 8.446 15:24 22.06.2019
6011 Clouds 26 1020 94 10000 1.33 8.446 14:50 22.06.2019
6012 Clouds 26 1020 94 10000 1.33 8.446 14:29 22.06.2019
6013 Clouds 26 1019 88 10000 2.1 30 13:44 22.06.2019
6014 Clouds 26 1019 88 10000 2.1 30 13:26 22.06.2019
6015 Clouds 26 1019 88 10000 2.1 30 12:54 22.06.2019
6016 Clouds 26 1019 88 10000 2.1 30 12:36 22.06.2019
6017 Clouds 26 1019 83 10000 2.1 40 11:59 22.06.2019
6018 Clouds 25 1018 88 10000 2.1 60 11:36 22.06.2019
6019 Clouds 26 1018 88 10000 2.1 60 10:54 22.06.2019
6020 Clouds 26 1018 88 10000 2.1 60 10:22 22.06.2019
6021 Clouds 26 1019 88 10000 2.1 50 09:55 22.06.2019
6022 Clouds 26 1019 88 10000 2.1 50 09:23 22.06.2019
6023 Clouds 27 1019 94 10000 2.1 50 08:44 22.06.2019
6024 Clouds 27 1019 94 10000 2.1 50 08:25 22.06.2019
6025 Clouds 27 1019 88 10000 2.1 50 07:36 22.06.2019
6026 Clouds 27 1020 88 10000 2.1 30 06:56 22.06.2019
6027 Clouds 27 1020 83 10000 0.76 296.599 05:30 22.06.2019
6028 Clouds 28 1019 78 10000 2.1 130 02:34 22.06.2019
6029 Clouds 28 1018 74 10000 4.1 180 01:24 22.06.2019
6030 Clouds 29 1017 66 10000 4.1 180 00:46 22.06.2019
6031 Clouds 29 1017 66 10000 4.1 180 00:22 22.06.2019
6032 Clouds 30 1017 66 10000 5.1 180 23:44 21.06.2019
6033 Clouds 30 1017 66 10000 5.1 180 23:22 21.06.2019
6034 Clouds 31 1017 62 10000 5.1 180 22:52 21.06.2019
6035 Clouds 31 1017 62 10000 5.1 180 22:24 21.06.2019
6036 Clouds 31 1018 59 10000 5.7 180 21:55 21.06.2019
6037 Clouds 31 1018 59 10000 5.7 180 21:36 21.06.2019
6038 Clouds 31 1018 59 10000 5.7 180 21:36 21.06.2019
6039 Clouds 31 1018 59 10000 5.7 180 21:18 21.06.2019
6040 Clouds 32 1018 59 10000 6.2 180 20:44 21.06.2019
6041 Clouds 32 1018 59 10000 6.2 180 20:21 21.06.2019
6042 Clouds 32 1019 63 10000 5.1 180 19:35 21.06.2019
6043 Clouds 31 1020 66 10000 5.1 180 18:50 21.06.2019
6044 Clouds 31 1020 66 10000 5.1 180 18:30 21.06.2019
6045 Clouds 30 1020 70 10000 4.1 180 17:47 21.06.2019
6046 Clouds 30 1020 70 10000 4.1 180 17:28 21.06.2019
6047 Clouds 30 1019 70 10000 2.92 127.588 16:41 21.06.2019
6048 Clouds 30 1019 70 10000 2.92 127.588 16:22 21.06.2019
6049 Clouds 29 1019 83 10000 2.92 127.588 15:40 21.06.2019
6050 Clouds 29 1019 83 10000 1.63 348.303 15:21 21.06.2019
6051 Clouds 27 1018 94 10000 1.63 348.303 14:49 21.06.2019
6052 Clouds 27 1018 94 10000 1.63 348.303 14:30 21.06.2019
6053 Clouds 26 1018 94 10000 2.1 30 13:55 21.06.2019
6054 Clouds 26 1018 94 10000 2.1 30 13:33 21.06.2019
6055 Clouds 26 1018 88 10000 2.1 60 12:59 21.06.2019
6056 Clouds 26 1018 88 10000 2.1 60 12:39 21.06.2019
6057 Clouds 26 1018 88 10000 2.1 60 12:18 21.06.2019
6058 Clouds 26 1018 88 10000 2.1 60 12:18 21.06.2019
6059 Clouds 25 1018 94 10000 3.1 30 11:46 21.06.2019
6060 Clouds 25 1018 94 10000 3.1 30 11:24 21.06.2019
6061 Clouds 25 1017 94 10000 2.1 30 10:51 21.06.2019
6062 Clouds 26 1017 94 10000 2.1 30 10:21 21.06.2019
6063 Clouds 26 1018 94 10000 2.1 20 09:57 21.06.2019
6064 Clouds 26 1018 94 10000 2.1 20 09:39 21.06.2019
6065 Clouds 26 1018 94 10000 2.1 20 09:19 21.06.2019
6066 Clouds 26 1018 94 10000 2.1 50 08:42 21.06.2019
6067 Clouds 26 1018 94 10000 2.1 50 08:22 21.06.2019
6068 Clouds 26 1018 94 10000 2.1 50 08:22 21.06.2019
6069 Clouds 27 1018 88 10000 2.1 70 07:50 21.06.2019
6070 Clouds 27 1018 88 10000 2.1 70 07:27 21.06.2019
6071 Clouds 27 1019 88 10000 2.6 70 06:51 21.06.2019
6072 Clouds 27 1019 88 10000 2.6 70 06:19 21.06.2019
6073 Clouds 28 1018 78 10000 2.1 80 04:58 21.06.2019
6074 Clouds 28 1018 83 10000 2.1 110 03:58 21.06.2019
6075 Clouds 28 1018 83 10000 2.1 110 03:32 21.06.2019
6076 Clouds 28 1017 83 10000 0.83 153.064 02:44 21.06.2019
6077 Clouds 28 1017 74 10000 3.1 130 01:38 21.06.2019
6078 Clouds 29 1018 74 10000 4.1 180 00:53 21.06.2019
6079 Clouds 29 1018 74 10000 4.1 180 00:18 21.06.2019
6080 Clouds 29 1017 70 10000 5.1 180 23:42 20.06.2019
6081 Clouds 29 1017 70 10000 5.1 180 23:42 20.06.2019
6082 Clouds 29 1017 70 10000 5.1 180 23:21 20.06.2019
6083 Clouds 29 1017 66 10000 5.1 180 22:46 20.06.2019
6084 Clouds 29 1017 66 10000 5.1 180 22:26 20.06.2019
6085 -273 0 0 0 0 0 21:57 20.06.2019
6086 Rain 29 1017 66 8000 4.1 160 21:38 20.06.2019
6087 Rain 29 1017 66 8000 4.1 160 21:19 20.06.2019
6088 Rain 28 1018 70 8000 5.1 180 20:46 20.06.2019
6089 Rain 28 1018 70 8000 5.1 180 20:25 20.06.2019
6090 Rain 29 1018 70 7000 7.2 140 19:55 20.06.2019
6091 Clouds 30 1018 66 10000 5.1 160 19:36 20.06.2019
6092 Clouds 31 1018 66 10000 5.1 160 19:18 20.06.2019
6093 Clouds 31 1018 66 10000 5.1 360 18:42 20.06.2019
6094 Clouds 31 1018 66 10000 5.1 360 18:23 20.06.2019
6095 Clouds 30 1019 70 10000 5.1 90 17:49 20.06.2019
6096 Clouds 30 1019 70 10000 5.1 90 17:31 20.06.2019
6097 Clouds 30 1019 70 10000 4.1 60 16:48 20.06.2019
6098 Clouds 30 1019 70 10000 4.1 60 16:20 20.06.2019
6099 Clouds 29 1019 78 10000 3.1 90 15:58 20.06.2019
6100 Clouds 29 1019 78 10000 3.1 90 15:40 20.06.2019
6101 Clouds 29 1019 78 10000 3.1 90 15:21 20.06.2019
6102 Clouds 27 1019 83 10000 1.64 57.233 14:44 20.06.2019
6103 Clouds 27 1019 83 10000 1.64 57.233 14:22 20.06.2019
6104 Clouds 27 1017 94 10000 2.1 50 13:41 20.06.2019
6105 Clouds 26 1017 94 10000 2.1 50 13:20 20.06.2019
6106 Clouds 26 1017 94 10000 2.1 50 12:47 20.06.2019
6107 Clouds 26 1017 94 10000 2.1 50 12:23 20.06.2019
6108 Clouds 26 1017 88 10000 2.1 40 11:48 20.06.2019
6109 Clouds 26 1017 88 10000 2.1 40 11:29 20.06.2019
6110 Clouds 26 1017 88 10000 2.1 30 10:57 20.06.2019
6111 Clouds 26 1017 88 10000 2.1 30 10:39 20.06.2019
6112 Clouds 26 1017 88 10000 2.1 30 10:20 20.06.2019
6113 Rain 27 1017 88 8000 2.1 40 09:40 20.06.2019
6114 Rain 27 1017 88 8000 2.1 40 09:21 20.06.2019
6115 Clouds 27 1018 83 10000 2.1 40 08:46 20.06.2019
6116 Clouds 27 1018 83 10000 2.1 40 08:27 20.06.2019
6117 Clouds 27 1018 83 10000 3.1 70 07:53 20.06.2019
6118 Clouds 27 1018 83 10000 3.1 70 07:28 20.06.2019
6119 Clouds 27 1018 78 10000 3.6 80 06:30 20.06.2019
6120 Clouds 27 1017 78 10000 3.1 80 05:41 20.06.2019
6121 Clouds 28 1016 74 10000 4.1 120 03:32 20.06.2019
6122 Clouds 29 1015 62 10000 4.1 180 00:34 20.06.2019
6123 Clouds 31 1015 59 10000 5.1 180 23:58 19.06.2019
6124 Clouds 30 1015 59 10000 5.1 180 23:39 19.06.2019
6125 Clouds 30 1015 59 10000 5.1 180 23:21 19.06.2019
6126 Clouds 31 1016 55 10000 6.2 180 22:47 19.06.2019
6127 Clouds 31 1016 55 10000 6.2 180 22:47 19.06.2019
6128 Clouds 31 1016 55 10000 6.2 180 22:18 19.06.2019
6129 Clouds 31 1016 55 10000 5.1 180 21:46 19.06.2019
6130 Clouds 33 1016 55 10000 5.1 180 21:25 19.06.2019
6131 Clouds 32 1017 59 10000 5.1 180 20:44 19.06.2019
6132 Clouds 31 1017 59 10000 5.1 180 20:22 19.06.2019
6133 Clouds 31 1017 59 10000 5.1 180 20:22 19.06.2019
6134 Clouds 31 1017 59 10000 5.1 180 19:58 19.06.2019
6135 Clouds 31 1017 59 10000 5.1 180 19:39 19.06.2019
6136 Clouds 31 1017 59 10000 5.1 180 19:20 19.06.2019
6137 Clouds 31 1018 59 10000 5.1 180 18:47 19.06.2019
6138 Clouds 31 1018 59 10000 5.1 180 18:20 19.06.2019
6139 Clouds 31 1019 66 10000 5.1 110 17:37 19.06.2019
6140 Clouds 30 1019 70 10000 2.6 90 16:59 19.06.2019
6141 Clouds 29 1019 70 10000 2.6 90 16:39 19.06.2019
6142 Clouds 29 1019 70 10000 2.6 90 16:21 19.06.2019
6143 Clouds 29 1018 74 10000 2.6 40 15:48 19.06.2019
6144 Clouds 29 1018 74 10000 2.6 40 15:27 19.06.2019
6145 Clouds 27 1018 88 10000 1.43 40.279 14:50 19.06.2019
6146 Clouds 27 1018 88 10000 1.43 40.279 14:31 19.06.2019
6147 Clouds 26 1017 94 10000 3.1 40 13:59 19.06.2019
6148 Clouds 26 1017 94 10000 3.1 40 13:40 19.06.2019
6149 Clouds 26 1017 94 10000 3.1 40 13:21 19.06.2019
6150 Clouds 25 1017 88 10000 2.1 30 12:44 19.06.2019
6151 Clouds 24 1017 88 10000 2.1 30 12:21 19.06.2019
6152 Clouds 24 1017 88 10000 2.1 30 11:45 19.06.2019
6153 Clouds 24 1017 88 10000 2.1 30 11:25 19.06.2019
6154 Clouds 25 1016 88 10000 2.1 40 10:58 19.06.2019
6155 Clouds 25 1016 88 10000 2.1 40 10:40 19.06.2019
6156 Clouds 25 1016 88 10000 2.1 40 10:40 19.06.2019
6157 Clouds 25 1016 88 10000 2.1 40 10:22 19.06.2019
6158 Clouds 25 1017 88 10000 2.1 40 09:39 19.06.2019
6159 Clouds 25 1017 88 10000 2.1 40 09:19 19.06.2019
6160 Clouds 25 1017 88 10000 2.1 20 08:48 19.06.2019
6161 Clouds 25 1017 88 10000 2.1 20 08:28 19.06.2019
6162 Clouds 26 1017 83 10000 2.1 40 07:47 19.06.2019
6163 Clouds 26 1017 83 10000 2.1 40 07:23 19.06.2019
6164 Clouds 26 1018 83 10000 2.1 60 06:52 19.06.2019
6165 Clouds 26 1018 83 10000 2.1 60 06:26 19.06.2019
6166 Clouds 26 1018 83 10000 2.1 90 05:49 19.06.2019
6167 Clouds 27 1018 83 10000 2.6 60 04:34 19.06.2019
6168 Clouds 28 1017 78 10000 2.1 60 03:30 19.06.2019
6169 Clouds 29 1016 70 10000 3.1 180 01:53 19.06.2019
6170 Clouds 29 1016 70 10000 3.1 180 01:18 19.06.2019
6171 Clouds 30 1016 62 10000 5.1 180 00:43 19.06.2019
6172 Clouds 30 1016 62 10000 5.1 180 00:20 19.06.2019
6173 Clouds 30 1016 55 10000 5.1 180 23:52 18.06.2019
6174 Clouds 30 1016 55 10000 5.1 180 23:27 18.06.2019
6175 Clouds 31 1016 55 10000 6.2 180 22:46 18.06.2019
6176 Clouds 31 1016 55 10000 6.2 180 22:24 18.06.2019
6177 Clouds 31 1017 55 10000 3.1 180 21:57 18.06.2019
6178 Clouds 31 1017 55 10000 3.1 180 21:38 18.06.2019
6179 Clouds 31 1017 55 10000 3.1 180 21:20 18.06.2019
6180 Clouds 31 1017 59 10000 4.1 180 20:43 18.06.2019
6181 Clouds 31 1017 59 10000 4.1 180 20:25 18.06.2019
6182 Clouds 32 1017 59 10000 5.1 180 19:42 18.06.2019
6183 Clouds 32 1017 59 10000 5.1 180 19:23 18.06.2019
6184 Clouds 32 1018 59 10000 4.1 50 18:59 18.06.2019
6185 Clouds 31 1018 59 10000 4.1 50 18:37 18.06.2019
6186 Clouds 31 1018 59 10000 4.1 50 18:18 18.06.2019
6187 Clouds 30 1019 62 10000 3.1 50 17:38 18.06.2019
6188 Clouds 30 1019 62 10000 3.1 50 17:19 18.06.2019
6189 Clouds 29 1019 74 10000 4.1 100 16:43 18.06.2019
6190 Clouds 29 1019 74 10000 4.1 100 16:24 18.06.2019
6191 Clouds 29 1019 79 10000 2.1 60 15:43 18.06.2019
6192 Clouds 29 1019 79 10000 2.1 60 15:24 18.06.2019
6193 Clouds 28 1019 83 10000 2.1 40 14:58 18.06.2019
6194 Clouds 28 1019 83 10000 2.1 40 14:40 18.06.2019
6195 Clouds 28 1019 83 10000 2.1 40 14:20 18.06.2019
6196 Clouds 26 1017 94 10000 1.96 23.856 13:52 18.06.2019
6197 Clouds 26 1017 94 10000 2.02 29.668 13:31 18.06.2019
6198 Clouds 26 1016 94 10000 2.1 40 12:47 18.06.2019
6199 Clouds 25 1016 94 10000 2.1 40 12:29 18.06.2019
6200 Clouds 25 1016 94 10000 2.1 20 11:56 18.06.2019
6201 Clouds 25 1016 94 10000 2.1 20 11:38 18.06.2019
6202 Clouds 25 1016 94 10000 2.1 20 11:20 18.06.2019
6203 Clouds 26 1017 88 10000 2.1 20 10:43 18.06.2019
6204 Clouds 26 1017 88 10000 2.1 20 10:22 18.06.2019
6205 Clouds 26 1017 88 10000 2.1 30 09:52 18.06.2019
6206 Clouds 26 1017 88 10000 2.1 30 09:25 18.06.2019
6207 Clouds 26 1017 88 10000 2.1 30 08:58 18.06.2019
6208 Clouds 26 1017 88 10000 2.1 30 08:39 18.06.2019
6209 Clouds 26 1017 88 10000 2.1 30 08:20 18.06.2019
6210 Clouds 26 1018 88 10000 2.1 30 07:27 18.06.2019
6211 Clouds 26 1018 83 10000 2.6 60 06:57 18.06.2019
6212 Clouds 27 1019 83 10000 4.1 80 05:27 18.06.2019
6213 Clouds 27 1019 83 10000 4.1 80 05:27 18.06.2019
6214 Clouds 27 1018 78 10000 3.1 70 04:22 18.06.2019
6215 Clouds 28 1017 74 10000 3.1 130 02:49 18.06.2019
6216 Clouds 28 1017 78 10000 2.37 86.974 01:28 18.06.2019
6217 Clouds 28 1017 69 10000 3.1 180 00:58 18.06.2019
6218 Clouds 28 1017 69 10000 3.1 180 00:39 18.06.2019
6219 Clouds 28 1017 69 10000 3.1 180 00:18 18.06.2019
6220 Clouds 30 1016 70 10000 4.1 180 23:38 17.06.2019
6221 Clouds 30 1016 70 10000 4.1 180 23:38 17.06.2019
6222 Clouds 30 1016 70 10000 4.1 180 23:18 17.06.2019
6223 Clouds 30 1017 66 10000 5.1 150 22:41 17.06.2019
6224 Clouds 30 1017 66 10000 5.1 150 22:21 17.06.2019
6225 Clouds 31 1017 62 10000 5.1 160 21:45 17.06.2019
6226 Clouds 31 1017 62 10000 5.1 160 21:24 17.06.2019
6227 Clouds 31 1017 62 10000 5.1 160 21:24 17.06.2019
6228 Clouds 31 1017 62 10000 5.1 150 20:44 17.06.2019
6229 Clouds 31 1017 62 10000 5.1 150 20:44 17.06.2019
6230 Clouds 31 1017 62 10000 5.1 150 20:25 17.06.2019
6231 Clouds 31 1018 62 10000 3.1 180 19:57 17.06.2019
6232 Clouds 31 1018 62 10000 3.1 180 19:39 17.06.2019
6233 Clouds 31 1018 62 10000 3.1 180 19:21 17.06.2019
6234 Clouds 30 1017 66 10000 4.1 40 18:39 17.06.2019
6235 Clouds 30 1017 66 10000 4.1 40 18:18 17.06.2019
6236 Clouds 30 1019 70 10000 3.1 60 17:58 17.06.2019
6237 Clouds 30 1019 70 10000 3.1 60 17:39 17.06.2019
6238 Clouds 29 1019 74 10000 3.1 60 17:20 17.06.2019
6239 Clouds 29 1019 74 10000 3.1 60 16:42 17.06.2019
6240 Clouds 29 1019 74 10000 3.1 60 16:24 17.06.2019
6241 Clouds 28 1018 83 10000 2.17 58.656 15:45 17.06.2019
6242 Clouds 28 1018 83 10000 2.44 351.575 15:20 17.06.2019
6243 Clouds 27 1018 94 10000 2.44 351.575 14:58 17.06.2019
6244 Clouds 27 1018 94 10000 2.44 351.575 14:40 17.06.2019
6245 Clouds 27 1018 94 10000 2.44 351.575 14:21 17.06.2019
6246 Clouds 26 1017 88 10000 2.1 30 13:42 17.06.2019
6247 Clouds 26 1017 88 10000 2.1 30 13:21 17.06.2019
6248 Clouds 26 1016 94 10000 2.39 354.175 12:46 17.06.2019
6249 Clouds 25 1016 94 10000 1.69 354.087 12:22 17.06.2019
6250 Thunderstorm 25 1016 94 10000 2.1 30 11:45 17.06.2019
6251 Thunderstorm 25 1016 94 10000 2.1 30 11:26 17.06.2019
6252 Clouds 25 1016 94 10000 2.1 30 10:49 17.06.2019
6253 Clouds 25 1016 94 10000 2.1 30 10:30 17.06.2019
6254 -273 0 0 0 0 0 09:57 17.06.2019
6255 Clouds 26 1016 88 10000 2.1 30 09:39 17.06.2019
6256 -273 0 0 0 0 0 09:20 17.06.2019
6257 Clouds 26 1017 88 10000 2.08 350.388 08:39 17.06.2019
6258 Clouds 26 1017 88 10000 2.08 350.388 08:21 17.06.2019
6259 Clouds 26 1018 88 10000 2.6 40 07:40 17.06.2019
6260 Clouds 26 1018 88 10000 2.6 40 07:20 17.06.2019
6261 Clouds 27 1018 83 10000 2.1 60 06:30 17.06.2019
6262 Clouds 27 1018 83 10000 2.6 90 05:42 17.06.2019
6263 Clouds 27 1017 78 10000 2.1 80 04:33 17.06.2019
6264 Clouds 27 1017 78 10000 2.6 100 03:33 17.06.2019
6265 Clouds 28 1016 83 10000 2.1 130 02:50 17.06.2019
6266 Clouds 28 1016 83 10000 2.1 130 02:32 17.06.2019
6267 Clouds 28 1016 83 10000 2.1 130 02:32 17.06.2019
6268 Clouds 28 1015 78 10000 1.38 138.604 01:39 17.06.2019
6269 Clouds 28 1014 74 10000 2.6 160 00:59 17.06.2019
6270 Clouds 28 1014 74 10000 2.6 160 00:40 17.06.2019
6271 Clouds 29 1014 66 10000 5.1 180 00:20 17.06.2019
6272 Clouds 29 1014 66 10000 5.1 180 23:40 16.06.2019
6273 Clouds 29 1014 66 10000 5.1 180 23:21 16.06.2019
6274 Clouds 30 1014 66 10000 5.1 180 22:47 16.06.2019
6275 Clouds 30 1014 66 10000 5.1 180 22:21 16.06.2019
6276 Clouds 31 1015 59 10000 5.1 180 21:59 16.06.2019
6277 Clouds 30 1015 59 10000 5.1 180 21:40 16.06.2019
6278 Clouds 30 1015 59 10000 5.1 180 21:21 16.06.2019
6279 Clouds 31 1016 66 10000 5.1 180 20:55 16.06.2019
6280 Clouds 30 1016 66 10000 5.1 180 20:37 16.06.2019
6281 Clouds 30 1016 125 10000 5.1 90 20:18 16.06.2019
6282 Clouds 30 1016 125 10000 5.1 90 19:40 16.06.2019
6283 Clouds 30 1016 125 10000 5.1 90 19:22 16.06.2019
6284 Clouds 31 1016 66 10000 5.1 90 18:57 16.06.2019
6285 Clouds 31 1016 66 10000 5.1 90 18:57 16.06.2019
6286 Clouds 30 1016 66 10000 5.1 90 18:38 16.06.2019
6287 Clouds 30 1017 66 10000 5.1 90 18:19 16.06.2019
6288 Clouds 29 1017 66 10000 5.1 90 17:42 16.06.2019
6289 Clouds 30 1017 66 10000 5.1 90 17:22 16.06.2019
6290 Clouds 30 1017 66 10000 5.1 90 17:22 16.06.2019
6291 Clouds 29 1017 66 10000 2.6 90 16:56 16.06.2019
6292 Clouds 29 1017 66 10000 2.6 90 16:56 16.06.2019
6293 Clouds 29 1017 66 10000 2.6 90 16:38 16.06.2019
6294 Clouds 29 1017 78 10000 2.97 75.289 16:19 16.06.2019
6295 Clouds 28 1017 78 10000 2.97 75.289 15:41 16.06.2019
6296 Clouds 28 1017 78 10000 2.25 27.602 15:23 16.06.2019
6297 Clouds 28 1016 74 10000 4.1 130 14:42 16.06.2019
6298 Clouds 28 1016 74 10000 4.1 130 14:23 16.06.2019
6299 Clouds 28 1016 74 10000 4.1 130 14:23 16.06.2019
6300 Clouds 27 1017 88 10000 2.1 40 13:51 16.06.2019
6301 Clouds 26 1017 88 10000 2.1 40 13:26 16.06.2019
6302 Clouds 26 1016 88 10000 2.52 42.761 12:57 16.06.2019
6303 Clouds 26 1016 88 10000 2.52 42.761 12:57 16.06.2019
6304 Clouds 25 1016 88 10000 2.52 42.761 12:38 16.06.2019
6305 Clouds 25 1016 88 10000 1.94 345.806 12:18 16.06.2019
6306 Clouds 25 1015 88 10000 2.1 30 11:40 16.06.2019
6307 Clouds 25 1016 88 10000 2.1 30 11:19 16.06.2019
6308 Clouds 25 1016 88 10000 2.1 30 10:45 16.06.2019
6309 Clouds 25 1016 88 10000 2.1 30 10:20 16.06.2019
6310 Clouds 25 1016 88 10000 2.1 30 10:20 16.06.2019
6311 Clouds 25 1016 83 10000 2.1 30 09:48 16.06.2019
6312 Clouds 25 1016 83 10000 2.1 30 09:26 16.06.2019
6313 Clouds 25 1016 88 10000 2.1 30 08:50 16.06.2019
6314 Clouds 25 1016 88 10000 2.1 30 08:23 16.06.2019
6315 Clouds 25 1016 88 10000 2.6 30 07:54 16.06.2019
6316 Clouds 25 1016 88 10000 2.6 30 07:36 16.06.2019
6317 Clouds 26 1017 83 10000 3.1 50 06:57 16.06.2019
6318 Clouds 26 1017 83 10000 3.1 50 06:57 16.06.2019
6319 Clouds 26 1017 83 10000 3.1 50 06:27 16.06.2019
6320 Clouds 26 1017 88 10000 2.1 60 05:29 16.06.2019
6321 Clouds 27 1017 83 10000 2.1 60 04:36 16.06.2019
6322 Clouds 27 1016 78 10000 3.1 70 03:51 16.06.2019
6323 Clouds 27 1016 78 10000 3.1 70 03:30 16.06.2019
6324 Rain 27 1017 83 7000 3.1 90 01:57 16.06.2019
6325 Rain 27 1017 83 7000 3.1 90 01:37 16.06.2019
6326 Clouds 28 1016 78 10000 1.09 57.391 01:18 16.06.2019
6327 Clouds 28 1016 78 10000 1.09 57.391 00:39 16.06.2019
6328 Clouds 28 1016 78 10000 3.1 180 00:19 16.06.2019
6329 Clouds 29 1016 78 10000 3.1 180 23:40 15.06.2019
6330 Clouds 28 1016 78 10000 3.1 180 23:21 15.06.2019
6331 Clouds 29 1015 74 10000 4.1 90 22:49 15.06.2019
6332 Clouds 29 1015 74 10000 4.1 90 22:26 15.06.2019
6333 Clouds 29 1016 66 10000 3.1 80 21:45 15.06.2019
6334 Clouds 29 1016 66 10000 3.1 80 21:27 15.06.2019
6335 Clouds 30 1016 66 10000 3.1 330 20:46 15.06.2019
6336 Clouds 30 1016 66 10000 3.1 330 20:27 15.06.2019
6337 Rain 29 1018 78 8000 2.1 360 19:57 15.06.2019
6338 Rain 29 1018 78 8000 2.1 360 19:38 15.06.2019
6339 Clouds 30 1019 74 10000 5.1 30 19:20 15.06.2019
6340 Clouds 29 1019 74 10000 5.1 30 18:37 15.06.2019
6341 Clouds 29 1019 74 10000 3.1 60 18:19 15.06.2019
6342 Clouds 29 1019 74 10000 3.1 60 17:43 15.06.2019
6343 Clouds 29 1019 74 10000 3.1 60 17:21 15.06.2019
6344 Clouds 29 1018 74 10000 5.1 30 16:45 15.06.2019
6345 Clouds 28 1017 83 10000 2.1 360 16:19 15.06.2019
6346 Clouds 28 1017 83 10000 2.1 360 15:42 15.06.2019
6347 Clouds 27 1017 83 10000 2.1 360 15:22 15.06.2019
6348 Clouds 26 1017 88 10000 2.58 343.214 14:39 15.06.2019
6349 Clouds 26 1017 88 10000 2.58 343.214 14:18 15.06.2019
6350 Clouds 26 1017 88 10000 2.58 343.214 14:18 15.06.2019
6351 Clouds 26 1017 88 10000 2.58 343.214 13:44 15.06.2019
6352 Clouds 26 1017 88 10000 2.58 343.214 13:22 15.06.2019
6353 Clouds 25 1016 83 10000 2.58 343.214 13:00 15.06.2019
6354 Clouds 24 1016 83 10000 2.58 343.214 12:41 15.06.2019
6355 Clouds 24 1016 83 10000 2.75 346.455 12:23 15.06.2019
6356 Clouds 24 1016 88 10000 2.1 30 11:47 15.06.2019
6357 Clouds 24 1016 88 10000 2.1 30 11:28 15.06.2019
6358 Clouds 24 1016 83 10000 2.1 20 10:43 15.06.2019
6359 Clouds 25 1016 83 10000 2.1 20 10:25 15.06.2019
6360 Clouds 24 1015 88 10000 2.6 30 09:48 15.06.2019
6361 Clouds 25 1015 88 10000 2.6 30 09:27 15.06.2019
6362 Clouds 24 1016 88 10000 2.6 30 08:54 15.06.2019
6363 Clouds 25 1016 88 10000 2.6 30 08:36 15.06.2019
6364 Rain 25 1016 83 10000 2.1 40 08:18 15.06.2019
6365 Rain 25 1016 83 10000 2.1 40 07:25 15.06.2019
6366 Clouds 26 1017 83 10000 2.6 40 06:48 15.06.2019
6367 Clouds 26 1017 83 10000 2.6 40 06:22 15.06.2019
6368 Clouds 26 1017 83 10000 3.1 60 05:37 15.06.2019
6369 Clouds 27 1017 78 10000 3.6 90 04:51 15.06.2019
6370 Clouds 27 1016 78 10000 4.1 120 03:51 15.06.2019
6371 Clouds 27 1016 78 10000 4.1 120 03:21 15.06.2019
6372 Clouds 28 1015 74 10000 3.1 130 02:30 15.06.2019
6373 Clouds 28 1016 78 10000 2.38 77.032 01:50 15.06.2019
6374 Clouds 29 1015 74 10000 2.38 77.032 01:19 15.06.2019
6375 Clouds 29 1015 74 10000 2.38 77.032 00:40 15.06.2019
6376 Clouds 29 1015 66 10000 4.1 160 23:55 14.06.2019
6377 Clouds 30 1015 66 10000 4.1 160 23:37 14.06.2019
6378 Clouds 30 1016 62 10000 5.1 180 23:18 14.06.2019
6379 Clouds 30 1016 62 10000 5.1 180 22:40 14.06.2019
6380 Clouds 31 1016 59 10000 4.1 160 22:19 14.06.2019
6381 Clouds 30 1016 59 10000 4.1 160 21:41 14.06.2019
6382 Clouds 30 1016 59 10000 4.1 160 21:23 14.06.2019
6383 Clouds 30 1015 55 10000 4.1 160 20:43 14.06.2019
6384 Clouds 30 1018 55 10000 3.6 90 20:19 14.06.2019
6385 Clouds 30 1018 55 10000 3.6 90 19:57 14.06.2019
6386 Clouds 30 1018 55 10000 3.6 90 19:37 14.06.2019
6387 Clouds 30 1018 55 10000 4.1 40 19:18 14.06.2019
6388 Clouds 30 1018 55 10000 4.1 40 18:43 14.06.2019
6389 Clouds 30 1018 55 10000 4.1 40 18:25 14.06.2019
6390 Clouds 30 1018 55 10000 4.1 40 18:25 14.06.2019
6391 Clouds 30 1019 62 10000 3.1 70 17:57 14.06.2019
6392 Clouds 30 1019 62 10000 3.1 70 17:39 14.06.2019
6393 Clouds 30 1019 66 10000 3.1 80 17:19 14.06.2019
6394 Clouds 29 1019 66 10000 3.1 80 16:46 14.06.2019
6395 Clouds 29 1019 66 10000 3.1 80 16:21 14.06.2019
6396 Clouds 29 1019 66 10000 3.1 80 16:21 14.06.2019
6397 Clouds 28 1018 78 10000 5.1 90 15:57 14.06.2019
6398 Clouds 28 1018 78 10000 5.1 90 15:38 14.06.2019
6399 Clouds 27 1018 88 10000 2.57 10.616 15:18 14.06.2019
6400 Clouds 27 1018 88 10000 2.57 10.616 14:40 14.06.2019
6401 Clouds 27 1018 88 10000 2.57 10.616 14:21 14.06.2019
6402 Clouds 26 1017 94 10000 2.1 40 13:44 14.06.2019
6403 Clouds 26 1017 94 10000 2.1 40 13:24 14.06.2019
6404 Clouds 25 1017 88 10000 2.35 358.681 12:45 14.06.2019
6405 Clouds 25 1017 88 10000 2.33 347.685 12:26 14.06.2019
6406 Thunderstorm 24 1016 88 10000 2.1 30 11:58 14.06.2019
6407 Thunderstorm 25 1016 88 10000 2.1 30 11:39 14.06.2019
6408 Thunderstorm 25 1016 88 10000 2.1 30 11:20 14.06.2019
6409 Clouds 25 1016 88 10000 2.1 20 10:44 14.06.2019
6410 Clouds 25 1016 88 10000 2.1 20 10:20 14.06.2019
6411 Clouds 26 1016 88 10000 2.1 20 09:46 14.06.2019
6412 Clouds 26 1016 88 10000 2.1 20 09:46 14.06.2019
6413 Clouds 26 1016 88 10000 2.1 20 09:24 14.06.2019
6414 Clouds 26 1016 88 10000 2.1 30 08:47 14.06.2019
6415 Clouds 26 1017 88 10000 2.1 60 08:19 14.06.2019
6416 Clouds 26 1017 88 10000 2.1 60 07:51 14.06.2019
6417 Clouds 26 1017 88 10000 2.1 60 07:21 14.06.2019
6418 Clouds 26 1018 88 10000 2.6 40 06:35 14.06.2019
6419 -273 0 0 0 0 0 05:58 14.06.2019
6420 Clouds 27 1017 83 10000 2.1 80 05:26 14.06.2019
6421 Clouds 27 1017 83 10000 2.1 80 04:46 14.06.2019
6422 Clouds 27 1017 78 10000 2.1 50 03:52 14.06.2019
6423 Clouds 28 1017 78 10000 2.1 50 03:26 14.06.2019
6424 Clouds 28 1016 78 10000 4.1 150 02:55 14.06.2019
6425 Clouds 28 1016 78 10000 4.1 150 02:27 14.06.2019
6426 Clouds 28 1016 78 10000 4.1 150 02:27 14.06.2019
6427 Clouds 28 1016 78 10000 4.1 150 02:27 14.06.2019
6428 Clouds 28 1016 78 10000 4.1 150 02:27 14.06.2019
6429 Clouds 29 1016 74 10000 5.1 180 00:59 14.06.2019
6430 Clouds 29 1016 74 10000 5.1 180 00:24 14.06.2019
6431 Clouds 30 1016 66 10000 4.1 150 23:59 13.06.2019
6432 Clouds 30 1016 66 10000 4.1 150 23:41 13.06.2019
6433 Clouds 30 1016 66 10000 4.1 150 23:22 13.06.2019
6434 Clouds 30 1017 62 10000 5.1 180 22:40 13.06.2019
6435 Clouds 30 1017 62 10000 5.1 180 22:21 13.06.2019
6436 Clouds 31 1017 52 10000 5.1 180 21:40 13.06.2019
6437 Clouds 31 1017 52 10000 5.1 180 21:20 13.06.2019
6438 Clouds 31 1018 55 10000 4.1 180 20:57 13.06.2019
6439 Clouds 31 1018 55 10000 4.1 180 20:57 13.06.2019
6440 Clouds 32 1018 55 10000 4.1 180 20:38 13.06.2019
6441 Clouds 31 1018 58 10000 3.89 122.625 20:19 13.06.2019
6442 Clouds 32 1018 58 10000 3.89 122.625 19:41 13.06.2019
6443 Clouds 32 1018 58 10000 3.89 122.625 19:22 13.06.2019
6444 Clouds 31 1018 58 10000 3.89 122.625 18:57 13.06.2019
6445 Clouds 30 1018 58 10000 3.89 122.625 18:39 13.06.2019
6446 Clouds 30 1018 58 10000 3.18 79.17 18:21 13.06.2019
6447 Clouds 30 1019 66 10000 3.1 60 17:42 13.06.2019
6448 Clouds 30 1019 66 10000 3.1 60 17:20 13.06.2019
6449 Clouds 29 1019 74 10000 2.1 120 16:50 13.06.2019
6450 Clouds 29 1019 74 10000 2.1 120 16:22 13.06.2019
6451 Clouds 28 1018 78 10000 3.1 40 15:57 13.06.2019
6452 Clouds 28 1018 78 10000 3.1 40 15:57 13.06.2019
6453 Clouds 28 1018 78 10000 3.1 40 15:39 13.06.2019
6454 Clouds 27 1017 88 10000 3.1 350 15:19 13.06.2019
6455 Clouds 27 1017 88 10000 3.1 350 14:46 13.06.2019
6456 Clouds 27 1017 88 10000 3.1 350 14:27 13.06.2019
6457 Clouds 26 1017 88 10000 2.1 70 13:46 13.06.2019
6458 Clouds 26 1017 88 10000 2.1 70 13:21 13.06.2019
6459 Clouds 25 1017 88 8000 3.1 50 12:58 13.06.2019
6460 Clouds 25 1017 88 8000 3.1 50 12:38 13.06.2019
6461 Clouds 25 1016 88 10000 2.1 70 12:19 13.06.2019
6462 Clouds 26 1016 88 10000 2.1 70 11:41 13.06.2019
6463 Clouds 25 1016 88 10000 2.1 70 11:22 13.06.2019
6464 Clouds 26 1016 88 10000 2.1 30 10:46 13.06.2019
6465 Clouds 25 1016 88 10000 2.1 30 10:27 13.06.2019
6466 Clouds 26 1016 88 10000 2.1 20 09:48 13.06.2019
6467 Clouds 25 1016 88 10000 2.1 20 09:25 13.06.2019
6468 Clouds 25 1016 88 10000 2.1 20 09:25 13.06.2019
6469 Clouds 26 1016 88 10000 2.1 20 08:50 13.06.2019
6470 Clouds 25 1017 83 10000 3.1 60 08:30 13.06.2019
6471 Clouds 26 1017 83 10000 2.6 50 07:59 13.06.2019
6472 Clouds 26 1017 83 10000 2.6 50 07:59 13.06.2019
6473 Clouds 26 1017 83 10000 2.6 50 07:31 13.06.2019
6474 Clouds 26 1017 78 10000 2.6 60 06:52 13.06.2019
6475 Clouds 26 1017 78 10000 2.6 60 06:24 13.06.2019
6476 Clouds 26 1018 83 10000 3.1 60 05:57 13.06.2019
6477 Clouds 26 1018 83 10000 3.1 60 05:37 13.06.2019
6478 Clouds 27 1017 78 10000 4.1 70 05:18 13.06.2019
6479 Clouds 28 1016 78 10000 2.1 120 03:36 13.06.2019
6480 Clouds 28 1015 74 10000 4.1 180 01:43 13.06.2019
6481 Clouds 29 1014 70 10000 3.1 180 00:29 13.06.2019
6482 Clouds 30 1015 66 10000 5.1 180 23:26 12.06.2019
6483 Clouds 30 1015 66 10000 5.1 180 22:47 12.06.2019
6484 Clouds 30 1015 66 10000 5.1 180 22:28 12.06.2019
6485 Clouds 30 1016 66 10000 5.1 180 21:59 12.06.2019
6486 Clouds 30 1016 66 10000 5.1 180 21:40 12.06.2019
6487 Clouds 30 1016 66 10000 5.1 180 21:22 12.06.2019
6488 Clouds 30 1016 62 10000 5.1 180 20:48 12.06.2019
6489 Clouds 30 1016 62 10000 5.1 180 20:29 12.06.2019
6490 Clouds 30 1017 62 10000 5.1 90 19:57 12.06.2019
6491 Clouds 30 1017 62 10000 5.1 90 19:37 12.06.2019
6492 Rain 29 1017 62 8000 2.1 120 19:19 12.06.2019
6493 Rain 29 1017 62 8000 2.1 120 18:42 12.06.2019
6494 Rain 30 1017 62 8000 2.1 120 18:23 12.06.2019
6495 Clouds 30 1018 66 10000 3.1 90 17:45 12.06.2019
6496 Clouds 30 1018 66 10000 3.1 90 17:21 12.06.2019
6497 Clouds 30 1018 66 10000 3.1 90 17:21 12.06.2019
6498 Clouds 29 1018 78 10000 2.6 40 16:43 12.06.2019
6499 Clouds 28 1018 78 10000 2.6 40 16:24 12.06.2019
6500 Clouds 28 1017 78 10000 3.49 72.308 15:57 12.06.2019
6501 Clouds 28 1017 78 10000 3.49 72.308 15:32 12.06.2019
6502 Clouds 27 1017 78 10000 2.6 30 14:55 12.06.2019
6503 Clouds 26 1017 78 10000 2.6 30 14:31 12.06.2019
6504 Clouds 25 1017 94 10000 2.1 40 13:56 12.06.2019
6505 Clouds 25 1017 94 10000 2.1 40 13:37 12.06.2019
6506 Clouds 25 1016 94 10000 2.6 30 13:18 12.06.2019
6507 Clouds 23 1016 94 10000 2.6 30 12:40 12.06.2019
6508 Clouds 23 1016 100 10000 2.1 30 12:20 12.06.2019
6509 Clouds 23 1016 100 10000 2.1 30 11:47 12.06.2019
6510 Clouds 23 1016 100 10000 2.1 30 11:29 12.06.2019
6511 Clouds 23 1016 94 10000 2.1 50 10:55 12.06.2019
6512 Clouds 25 1016 94 10000 2.1 50 10:36 12.06.2019
6513 Clouds 25 1016 88 10000 3.1 60 09:59 12.06.2019
6514 Clouds 26 1016 88 10000 3.1 60 09:40 12.06.2019
6515 Clouds 26 1016 88 10000 2.1 50 09:18 12.06.2019
6516 Clouds 26 1016 88 10000 2.1 50 08:27 12.06.2019
6517 Clouds 26 1017 94 10000 2.1 40 07:52 12.06.2019
6518 Clouds 26 1017 88 10000 2.6 50 06:57 12.06.2019
6519 Clouds 26 1017 88 10000 2.6 50 06:29 12.06.2019
6520 Clouds 27 1017 83 10000 2.6 120 05:25 12.06.2019
6521 Clouds 27 1016 78 10000 3.1 140 02:21 12.06.2019
6522 Clouds 29 1016 70 10000 5.1 180 00:46 12.06.2019
6523 Clouds 29 1016 66 10000 5.1 180 23:53 11.06.2019
6524 Clouds 29 1016 66 10000 5.1 180 23:35 11.06.2019
6525 Clouds 30 1017 62 10000 5.1 180 22:45 11.06.2019
6526 Clouds 30 1017 62 10000 5.1 180 22:45 11.06.2019
6527 Clouds 30 1017 62 10000 5.1 180 22:24 11.06.2019
6528 Clouds 30 1017 62 10000 5.1 180 21:59 11.06.2019
6529 Clouds 30 1017 62 10000 5.1 180 21:40 11.06.2019
6530 Clouds 30 1017 62 10000 5.1 180 21:40 11.06.2019
6531 Clouds 31 1017 62 10000 5.1 180 21:22 11.06.2019
6532 Clouds 31 1017 59 10000 4.1 180 20:57 11.06.2019
6533 Clouds 31 1017 59 10000 4.1 180 20:39 11.06.2019
6534 Clouds 30 1017 62 10000 4.1 180 20:21 11.06.2019
6535 Clouds 30 1017 62 10000 4.1 180 19:45 11.06.2019
6536 Clouds 30 1017 62 10000 4.1 180 19:26 11.06.2019
6537 Clouds 30 1018 62 10000 4.1 180 18:42 11.06.2019
6538 Clouds 30 1018 66 10000 4.1 160 18:19 11.06.2019
6539 Clouds 31 1018 66 10000 4.1 160 17:41 11.06.2019
6540 Clouds 29 1018 78 10000 3.1 170 17:20 11.06.2019
6541 Clouds 29 1018 78 10000 3.1 170 16:43 11.06.2019
6542 Clouds 29 1018 78 10000 3.1 170 16:23 11.06.2019
6543 Mist 28 1019 88 5000 3.85 133.009 15:43 11.06.2019
6544 Mist 28 1019 88 5000 2.01 123.95 15:25 11.06.2019
6545 Mist 27 1018 94 5000 2.01 123.95 14:54 11.06.2019
6546 Mist 26 1018 94 5000 2.01 123.95 14:25 11.06.2019
6547 Clouds 26 1017 94 10000 2.1 50 13:58 11.06.2019
6548 Clouds 26 1017 94 10000 2.1 50 13:37 11.06.2019
6549 Clouds 26 1016 94 10000 2.1 50 13:19 11.06.2019
6550 Clouds 26 1016 94 10000 2.1 50 12:41 11.06.2019
6551 Clouds 25 1016 94 10000 2.1 50 12:21 11.06.2019
6552 Clouds 26 1016 94 10000 2.1 30 11:49 11.06.2019
6553 Clouds 26 1016 94 10000 2.1 30 11:31 11.06.2019
6554 Clouds 26 1016 94 10000 2.1 50 10:50 11.06.2019
6555 Clouds 26 1016 94 10000 2.1 50 10:27 11.06.2019
6556 Clouds 26 1016 94 10000 2.1 50 09:51 11.06.2019
6557 Clouds 26 1016 94 10000 2.1 30 09:25 11.06.2019
6558 Clouds 26 1016 94 10000 2.1 130 08:56 11.06.2019
6559 Clouds 26 1016 94 10000 2.1 130 08:38 11.06.2019
6560 Clouds 26 1017 88 10000 2.1 130 08:19 11.06.2019
6561 Clouds 26 1017 88 10000 2.1 130 07:32 11.06.2019
6562 Clouds 26 1017 88 10000 2.1 130 06:52 11.06.2019
6563 Clouds 26 1017 88 10000 2.1 130 06:52 11.06.2019
6564 Clouds 26 1017 88 10000 2.1 130 05:21 11.06.2019
6565 Clouds 27 1017 83 10000 2.1 130 04:27 11.06.2019
6566 Rain 28 1016 83 8000 2.25 139.639 01:53 11.06.2019
6567 Clouds 28 1016 79 10000 4.1 180 00:49 11.06.2019
6568 Clouds 29 1016 79 10000 4.1 180 00:23 11.06.2019
6569 Clouds 29 1015 74 10000 4.1 180 23:44 10.06.2019
6570 Clouds 29 1016 74 10000 5.1 180 23:19 10.06.2019
6571 Clouds 30 1016 74 10000 5.1 180 22:42 10.06.2019
6572 Clouds 30 1016 74 10000 5.1 180 22:24 10.06.2019
6573 Rain 30 1016 66 10000 4.1 180 21:41 10.06.2019
6574 Rain 30 1016 66 10000 4.1 180 21:23 10.06.2019
6575 Rain 31 1016 62 10000 4.1 180 20:57 10.06.2019
6576 Rain 31 1016 62 10000 4.1 180 20:38 10.06.2019
6577 Clouds 30 1017 74 10000 4.62 143.875 20:19 10.06.2019
6578 Clouds 30 1017 74 10000 4.62 143.875 19:43 10.06.2019
6579 Clouds 30 1017 74 10000 4.62 143.875 19:22 10.06.2019
6580 Clouds 30 1017 74 10000 4.62 143.875 19:22 10.06.2019
6581 Clouds 30 1018 79 10000 2.6 270 18:56 10.06.2019
6582 Clouds 30 1018 79 10000 2.6 270 18:38 10.06.2019
6583 Rain 29 1018 78 8000 3.7 121.219 18:19 10.06.2019
6584 Rain 29 1018 78 8000 3.7 121.219 17:41 10.06.2019
6585 Rain 29 1018 78 8000 3.7 121.219 17:22 10.06.2019
6586 Rain 29 1018 74 8000 3.6 110 16:46 10.06.2019
6587 Rain 29 1018 74 8000 3.6 110 16:28 10.06.2019
6588 Clouds 28 1018 83 10000 3.1 90 15:56 10.06.2019
6589 Clouds 28 1018 83 10000 3.1 90 15:37 10.06.2019
6590 Clouds 27 1017 94 10000 1.63 22.671 15:19 10.06.2019
6591 Clouds 27 1017 94 10000 1.63 22.671 14:41 10.06.2019
6592 Clouds 26 1017 94 10000 1.63 22.671 14:21 10.06.2019
6593 Clouds 26 1016 88 10000 2.1 50 13:45 10.06.2019
6594 Clouds 26 1016 88 10000 2.1 50 13:23 10.06.2019
6595 Clouds 25 1015 94 10000 2.6 50 12:45 10.06.2019
6596 Clouds 25 1015 94 10000 2.6 50 12:27 10.06.2019
6597 Clouds 26 1015 88 10000 2.1 40 11:49 10.06.2019
6598 Clouds 25 1015 88 10000 2.1 40 11:30 10.06.2019
6599 Clouds 26 1016 94 10000 2.1 30 10:58 10.06.2019
6600 Clouds 26 1016 94 10000 2.1 30 10:38 10.06.2019
6601 Clouds 26 1016 94 10000 2.1 30 10:18 10.06.2019
6602 Clouds 26 1016 94 10000 2.1 30 09:47 10.06.2019
6603 Clouds 25 1016 94 10000 2.1 30 09:28 10.06.2019
6604 Clouds 27 1016 84 0 0.89 26 08:46 10.06.2019
6605 Clouds 26 1016 94 10000 2.1 30 08:26 10.06.2019
6606 Clouds 26 1016 94 10000 2.1 30 07:26 10.06.2019
6607 Clouds 26 1017 83 10000 2.1 10 04:41 10.06.2019
6608 Thunderstorm 26 1016 83 8000 1.08 121.372 02:19 10.06.2019
6609 Thunderstorm 26 1016 83 8000 1.47 136.937 01:28 10.06.2019
6610 Thunderstorm 26 1016 83 8000 1.47 136.937 00:59 10.06.2019
6611 Thunderstorm 26 1016 83 8000 4.18 135.475 00:24 10.06.2019
6612 Rain 27 1016 78 8000 3.1 40 23:45 09.06.2019
6613 Rain 27 1016 78 8000 3.1 40 23:21 09.06.2019
6614 Rain 27 1016 78 8000 3.1 40 23:21 09.06.2019
6615 Thunderstorm 27